# Wetter Temperatur Luftdruck Luftfeuchtigkeit Sichtweite Windgeschwindigkeit Windrichtung Zeit
1 Mist 10 1026 100 2000 2.6 90 09:40 29.01.2020
2 Mist 10 1026 100 2000 2.6 90 09:40 29.01.2020
3 Mist 10 1026 100 2000 2.6 90 09:21 29.01.2020
4 Clouds 11 1025 82 10000 3.1 230 08:57 29.01.2020
5 Mist 10 1025 100 3500 2.6 80 08:39 29.01.2020
6 Mist 10 1025 100 3500 2.6 80 08:20 29.01.2020
7 Mist 10 1025 100 3000 3.1 90 07:44 29.01.2020
8 Mist 10 1025 100 3500 2.6 80 07:24 29.01.2020
9 Clouds 10 1025 100 1500 2.6 90 06:54 29.01.2020
10 Clouds 10 1025 100 1500 2.6 90 06:36 29.01.2020
11 Clouds 10 1025 100 5000 3.1 90 06:18 29.01.2020
12 Clouds 10 1025 100 5000 3.1 80 05:43 29.01.2020
13 Mist 10 1025 100 2500 2.6 90 05:25 29.01.2020
14 Mist 10 1025 100 1500 2.6 90 04:37 29.01.2020
15 Mist 11 1025 100 4000 2.1 80 02:43 29.01.2020
16 Mist 12 1025 100 4000 2.1 80 02:18 29.01.2020
17 Clouds 12 1026 100 6000 3.1 90 00:42 29.01.2020
18 Clouds 12 1026 100 6000 2.6 90 00:23 29.01.2020
19 Clouds 12 1026 100 6000 3.1 80 23:45 28.01.2020
20 Clouds 13 1026 93 8000 2.1 80 23:21 28.01.2020
21 Clouds 13 1026 93 8000 1.5 100 22:58 28.01.2020
22 Clouds 13 1026 93 8000 1.5 100 22:40 28.01.2020
23 Clouds 13 1026 93 8000 1.5 80 22:21 28.01.2020
24 Clouds 14 1026 93 10000 1 80 21:42 28.01.2020
25 Clouds 14 1026 93 10000 1 80 21:22 28.01.2020
26 Clouds 14 1026 87 10000 1 60 20:57 28.01.2020
27 Clouds 15 1026 87 10000 1 60 20:39 28.01.2020
28 Clouds 15 1026 87 10000 1 60 20:39 28.01.2020
29 Clouds 15 1026 82 10000 2.1 320 20:21 28.01.2020
30 Clouds 15 1026 87 10000 2.1 310 19:39 28.01.2020
31 Clouds 15 1026 82 10000 2.6 320 19:20 28.01.2020
32 Clouds 16 1025 82 10000 2.6 320 18:58 28.01.2020
33 Clouds 16 1025 82 10000 2.6 320 18:39 28.01.2020
34 Clouds 17 1025 77 10000 2.6 320 18:21 28.01.2020
35 Clouds 18 1024 68 10000 6.7 270 17:57 28.01.2020
36 Clouds 18 1025 77 10000 2.6 310 17:37 28.01.2020
37 Clouds 18 1024 68 10000 6.2 280 17:19 28.01.2020
38 Clouds 18 1024 68 10000 6.2 280 17:19 28.01.2020
39 Clouds 18 1024 68 10000 5.7 270 16:46 28.01.2020
40 Clouds 18 1025 72 10000 2.6 290 16:27 28.01.2020
41 Clouds 18 1024 59 10000 6.2 260 15:59 28.01.2020
42 Clouds 18 1024 59 10000 6.2 260 15:40 28.01.2020
43 Clouds 18 1026 67 10000 3.6 320 15:18 28.01.2020
44 Clouds 18 1025 63 10000 6.2 270 14:45 28.01.2020
45 Clouds 18 1027 72 10000 3.6 280 14:20 28.01.2020
46 Clouds 17 1026 67 10000 5.7 280 13:46 28.01.2020
47 Clouds 17 1027 67 10000 1.5 280 13:25 28.01.2020
48 Clouds 17 1026 67 10000 5.1 270 12:59 28.01.2020
49 Clouds 18 1026 67 10000 5.1 270 12:41 28.01.2020
50 Clouds 18 1027 67 10000 1 0 12:22 28.01.2020
51 Clouds 17 1028 72 10000 1 0 11:43 28.01.2020
52 Clouds 15 1028 76 10000 1.5 80 11:23 28.01.2020
53 Clouds 13 1027 82 10000 4.6 240 10:56 28.01.2020
54 Clouds 12 1027 81 10000 2.1 90 10:38 28.01.2020
55 Clouds 12 1027 81 10000 2.1 90 10:18 28.01.2020
56 Clouds 11 1026 87 10000 5.1 260 09:42 28.01.2020
57 Clouds 10 1027 87 10000 2.6 90 09:21 28.01.2020
58 Clouds 10 1026 87 10000 3.6 250 08:47 28.01.2020
59 Clouds 9 1026 81 8000 2.6 80 08:27 28.01.2020
60 Clear 10 1026 81 8000 2.6 70 07:57 28.01.2020
61 Clear 10 1026 81 8000 2.6 70 07:36 28.01.2020
62 Clear 10 1026 87 8000 2.6 90 06:49 28.01.2020
63 Clear 10 1026 87 8000 2.6 90 06:25 28.01.2020
64 Clear 10 1026 87 8000 2.6 80 05:42 28.01.2020
65 Clear 10 1026 87 8000 1 80 05:24 28.01.2020
66 Clear 10 1027 93 8000 2.6 90 03:51 28.01.2020
67 Clear 10 1027 93 8000 1 0 02:55 28.01.2020
68 Clear 10 1027 93 8000 2.1 80 02:25 28.01.2020
69 Clear 11 1027 87 8000 2.6 90 01:56 28.01.2020
70 Clear 10 1027 93 8000 2.1 80 01:22 28.01.2020
71 Clear 11 1027 87 8000 2.6 80 00:45 28.01.2020
72 Clear 11 1027 93 8000 2.6 80 00:23 28.01.2020
73 Clear 11 1027 93 8000 2.6 80 23:44 27.01.2020
74 Clear 11 1027 93 8000 2.1 70 23:20 27.01.2020
75 Clear 11 1027 93 8000 2.1 80 22:45 27.01.2020
76 Clouds 12 1027 93 8000 1.5 100 22:21 27.01.2020
77 Clouds 12 1027 93 10000 1.5 50 21:58 27.01.2020
78 Clouds 12 1027 93 10000 1.5 50 21:39 27.01.2020
79 Clouds 12 1027 93 10000 1.5 50 21:19 27.01.2020
80 Clouds 12 1027 93 10000 1.5 50 21:19 27.01.2020
81 Clouds 12 1027 93 10000 1.5 50 21:19 27.01.2020
82 Clouds 13 1027 87 10000 1.5 90 20:57 27.01.2020
83 Clouds 13 1027 87 10000 1.5 90 20:38 27.01.2020
84 Clouds 13 1027 81 10000 0.5 0 20:20 27.01.2020
85 Clouds 14 1026 76 10000 0.5 0 19:57 27.01.2020
86 Clouds 14 1026 76 10000 0.5 0 19:57 27.01.2020
87 Clouds 14 1026 76 10000 0.5 0 19:38 27.01.2020
88 Clouds 14 1026 82 10000 1 0 19:20 27.01.2020
89 Clouds 16 1026 76 10000 1.5 300 18:40 27.01.2020
90 Clouds 16 1026 76 10000 1.5 300 18:40 27.01.2020
91 Clouds 16 1026 72 10000 2.1 310 18:21 27.01.2020
92 Clouds 17 1026 72 10000 2.6 310 17:58 27.01.2020
93 Clouds 16 1026 72 10000 2.6 310 17:38 27.01.2020
94 Clouds 17 1026 67 10000 2.6 300 17:19 27.01.2020
95 Clouds 17 1026 67 10000 3.1 290 16:56 27.01.2020
96 Clouds 17 1026 67 10000 3.1 290 16:37 27.01.2020
97 Clouds 17 1026 67 10000 3.1 290 16:19 27.01.2020
98 Clouds 17 1025 59 10000 5.1 280 15:41 27.01.2020
99 Clouds 17 1026 67 10000 3.6 320 15:20 27.01.2020
100 Clouds 17 1025 67 10000 4.6 190 14:57 27.01.2020
101 Clouds 17 1025 67 10000 4.6 190 14:39 27.01.2020
102 Clouds 17 1026 72 10000 3.6 290 14:20 27.01.2020
103 Clouds 17 1027 67 10000 1 0 13:42 27.01.2020
104 Clouds 17 1027 63 10000 0.5 0 13:23 27.01.2020
105 Clouds 16 1028 67 10000 1 0 12:58 27.01.2020
106 Clouds 17 1028 67 10000 1 0 12:39 27.01.2020
107 Clouds 17 1028 72 10000 1 0 12:21 27.01.2020
108 Clouds 14 1027 67 10000 2.6 250 11:43 27.01.2020
109 Clouds 12 1028 81 10000 2.6 80 11:22 27.01.2020
110 Clear 10 1027 81 10000 2.6 90 10:56 27.01.2020
111 Clear 10 1027 81 10000 2.6 90 10:37 27.01.2020
112 Clear 10 1027 81 10000 2.6 90 10:18 27.01.2020
113 Clear 8 1027 87 10000 2.6 90 09:39 27.01.2020
114 Clear 8 1027 93 10000 2.6 90 09:19 27.01.2020
115 Clear 7 1027 93 10000 3.1 80 08:48 27.01.2020
116 Clear 7 1026 93 10000 2.6 90 08:23 27.01.2020
117 Clear 8 1026 93 10000 2.1 80 07:56 27.01.2020
118 Clear 8 1026 93 10000 2.1 80 07:37 27.01.2020
119 Clear 8 1026 93 10000 2.1 80 07:19 27.01.2020
120 Clear 8 1026 93 10000 2.1 70 06:33 27.01.2020
121 Clear 8 1026 93 10000 2.6 70 05:38 27.01.2020
122 Clear 9 1026 87 10000 1.5 70 04:21 27.01.2020
123 Clear 9 1026 87 10000 2.1 70 03:27 27.01.2020
124 Clear 9 1027 93 10000 2.1 80 01:42 27.01.2020
125 Clear 9 1027 93 10000 2.1 60 01:22 27.01.2020
126 Clear 10 1027 87 10000 2.1 80 00:40 27.01.2020
127 Clear 9 1027 93 10000 2.1 90 00:19 27.01.2020
128 Clear 11 1027 93 10000 2.1 90 23:42 26.01.2020
129 Clear 11 1027 71 10000 2.6 300 23:21 26.01.2020
130 Clear 10 1027 87 10000 2.1 70 22:57 26.01.2020
131 Clear 11 1027 87 10000 2.1 70 22:37 26.01.2020
132 Clear 11 1027 87 10000 2.1 80 22:19 26.01.2020
133 Clear 11 1027 87 10000 2.1 80 22:19 26.01.2020
134 Clear 12 1027 93 10000 1.5 110 21:57 26.01.2020
135 Clear 12 1027 93 10000 1.5 110 21:38 26.01.2020
136 Clear 12 1027 93 10000 1.5 60 21:20 26.01.2020
137 Clear 12 1027 87 10000 2.1 20 20:56 26.01.2020
138 Clear 12 1027 87 10000 2.1 20 20:38 26.01.2020
139 Clear 12 1026 87 10000 1.5 330 20:18 26.01.2020
140 Clear 13 1026 81 10000 2.1 10 19:57 26.01.2020
141 Clear 13 1026 81 10000 2.1 10 19:37 26.01.2020
142 Clear 14 1026 76 8000 1 0 19:18 26.01.2020
143 Clouds 15 1026 71 10000 1.5 280 18:41 26.01.2020
144 Clouds 16 1026 67 10000 2.1 300 18:22 26.01.2020
145 Clouds 16 1026 67 10000 2.1 300 17:58 26.01.2020
146 Clouds 16 1026 67 10000 2.1 300 17:39 26.01.2020
147 Clouds 16 1026 67 10000 2.1 300 17:20 26.01.2020
148 Clouds 16 1025 59 10000 5.1 280 16:58 26.01.2020
149 Clouds 16 1025 59 10000 5.1 280 16:39 26.01.2020
150 Clouds 16 1025 63 10000 3.1 290 16:21 26.01.2020
151 Clouds 16 1026 63 10000 3.6 290 15:58 26.01.2020
152 Clouds 16 1026 63 10000 3.6 290 15:39 26.01.2020
153 Clouds 18 1025 59 10000 6.2 260 15:18 26.01.2020
154 Clouds 17 1025 59 10000 6.2 260 14:40 26.01.2020
155 Clouds 17 1025 59 10000 6.2 260 14:21 26.01.2020
156 Clouds 16 1027 72 10000 3.1 280 13:55 26.01.2020
157 Clouds 16 1027 72 10000 3.1 280 13:37 26.01.2020
158 Clouds 16 1027 72 10000 3.1 280 13:37 26.01.2020
159 Clouds 13 1027 73 0 4.63 276 13:18 26.01.2020
160 Clouds 13 1027 73 0 4.63 276 13:18 26.01.2020
161 Clouds 22 606 54 0 4.63 276 12:42 26.01.2020
162 Clouds 22 606 54 0 4.63 276 12:23 26.01.2020
163 Clouds 22 606 54 0 4.63 276 11:57 26.01.2020
164 Clouds 22 606 54 0 4.63 276 11:39 26.01.2020
165 Clouds 13 1026 87 10000 1 0 11:19 26.01.2020
166 Clouds 13 1026 87 10000 1 0 10:58 26.01.2020
167 Clouds 13 1026 87 10000 1 0 10:38 26.01.2020
168 Clouds 13 1026 87 10000 1 0 10:20 26.01.2020
169 Clouds 12 1025 93 10000 1 0 09:57 26.01.2020
170 Clouds 12 1025 93 10000 1 0 09:39 26.01.2020
171 Clouds 12 1025 87 10000 0.5 0 09:20 26.01.2020
172 Clouds 12 1024 87 10000 0.5 0 08:43 26.01.2020
173 Clouds 13 1024 81 10000 2.6 300 08:22 26.01.2020
174 Clouds 13 1024 82 10000 3.1 310 07:57 26.01.2020
175 Clouds 13 1024 82 10000 3.1 310 07:39 26.01.2020
176 Clouds 12 1023 87 10000 2.1 320 07:20 26.01.2020
177 Rain 12 1022 93 10000 3.1 230 06:30 26.01.2020
178 Rain 13 1022 87 10000 4.6 260 05:31 26.01.2020
179 Clouds 13 1022 93 8000 1 0 04:45 26.01.2020
180 Rain 13 1022 87 6000 2.1 310 02:41 26.01.2020
181 Clouds 13 1022 87 8000 1.5 170 01:47 26.01.2020
182 Clouds 13 1021 82 8000 2.1 170 01:24 26.01.2020
183 Clouds 13 1021 82 8000 1.5 220 00:44 26.01.2020
184 Clouds 13 1021 82 8000 3.1 250 00:26 26.01.2020
185 Rain 12 1021 86 0 4.54 251 23:40 25.01.2020
186 Rain 12 1019 84 0 4.51 260 23:21 25.01.2020
187 Rain 12 1019 84 0 4.51 260 22:58 25.01.2020
188 Rain 12 1019 84 0 4.51 260 22:39 25.01.2020
189 Rain 12 1019 84 0 4.51 260 22:18 25.01.2020
190 Rain 12 1019 84 0 4.51 260 21:56 25.01.2020
191 Rain 12 1019 84 0 4.51 260 21:38 25.01.2020
192 Rain 12 1019 84 0 4.51 260 21:19 25.01.2020
193 Rain 12 1019 84 0 4.51 260 20:43 25.01.2020
194 Rain 12 1019 84 0 4.51 260 20:25 25.01.2020
195 Rain 14 1017 79 0 7.61 224 19:54 25.01.2020
196 Rain 14 1017 79 0 7.61 224 19:36 25.01.2020
197 Rain 14 1017 79 0 7.61 224 19:18 25.01.2020
198 Rain 14 1017 79 0 7.61 224 18:41 25.01.2020
199 Rain 13 1018 81 0 8.07 228 18:21 25.01.2020
200 Rain 14 1017 79 0 7.61 224 17:57 25.01.2020
201 Rain 14 1017 79 0 7.61 224 17:37 25.01.2020
202 Rain 14 1016 77 0 8.75 218 17:18 25.01.2020
203 Clouds 14 1016 82 8000 3.1 180 16:42 25.01.2020
204 Clouds 15 1016 82 8000 3.1 180 16:23 25.01.2020
205 Clouds 15 1016 82 8000 3.1 180 15:56 25.01.2020
206 Rain 15 1016 76 0 7.99 218 15:37 25.01.2020
207 Rain 15 1016 76 0 7.99 218 15:19 25.01.2020
208 Rain 18 1018 59 0 7.99 218 14:41 25.01.2020
209 Rain 14 1017 80 0 7.42 218 14:19 25.01.2020
210 Rain 14 1017 80 0 7.42 218 13:44 25.01.2020
211 Rain 14 1018 80 0 6.72 218 13:26 25.01.2020
212 Rain 13 1018 76 10000 4.6 190 12:51 25.01.2020
213 Rain 13 1018 76 10000 4.6 190 12:31 25.01.2020
214 Rain 15 1018 76 10000 4.6 190 11:57 25.01.2020
215 Rain 14 1018 76 10000 4.6 190 11:38 25.01.2020
216 Rain 14 1017 81 4000 4.1 170 11:19 25.01.2020
217 Rain 14 1017 81 4000 5.7 180 10:42 25.01.2020
218 Rain 15 1016 67 6000 5.7 170 10:21 25.01.2020
219 Clouds 14 1017 62 10000 3.1 170 09:59 25.01.2020
220 Clouds 14 1016 66 8000 5.1 170 09:38 25.01.2020
221 Clouds 14 1016 66 8000 5.1 170 09:19 25.01.2020
222 Clouds 14 1016 66 8000 6.2 200 08:42 25.01.2020
223 Clouds 14 1016 66 8000 6.2 200 08:42 25.01.2020
224 Clouds 15 1015 71 8000 4.1 160 07:54 25.01.2020
225 Clouds 15 1015 71 8000 4.1 160 07:21 25.01.2020
226 Clouds 14 1015 76 8000 6.2 160 06:31 25.01.2020
227 Clouds 14 1015 76 8000 5.1 160 05:52 25.01.2020
228 Clouds 14 1015 76 8000 4.1 140 05:32 25.01.2020
229 Rain 14 1016 76 4000 5.1 170 03:58 25.01.2020
230 Rain 14 1016 76 4000 5.1 170 03:39 25.01.2020
231 Rain 15 1017 87 4000 2.1 160 02:36 25.01.2020
232 Rain 13 1017 76 3000 5.1 160 01:56 25.01.2020
233 Rain 13 1017 76 3000 2.6 170 01:21 25.01.2020
234 Clouds 13 1018 76 8000 3.1 150 00:37 25.01.2020
235 Clouds 13 1018 76 8000 3.1 150 00:18 25.01.2020
236 Clouds 14 1018 76 8000 2.6 150 23:41 24.01.2020
237 Clouds 14 1018 76 8000 2.6 150 23:41 24.01.2020
238 Clouds 14 1018 82 8000 2.6 150 23:23 24.01.2020
239 Clouds 14 1018 82 8000 3.1 160 22:46 24.01.2020
240 Rain 14 1018 82 5000 2.6 150 22:27 24.01.2020
241 Clouds 14 1018 87 8000 2.1 180 21:57 24.01.2020
242 Clouds 14 1018 87 8000 2.1 180 21:39 24.01.2020
243 Clouds 14 1018 87 8000 2.6 160 21:18 24.01.2020
244 Rain 14 1018 87 3000 5.1 190 20:43 24.01.2020
245 Rain 14 1017 82 4000 3.6 190 20:22 24.01.2020
246 Rain 15 1017 77 10000 4.1 150 19:58 24.01.2020
247 Clouds 15 1017 72 8000 3.6 170 19:39 24.01.2020
248 Clouds 15 1017 72 8000 3.6 170 19:21 24.01.2020
249 Clouds 15 1017 72 8000 3.6 160 18:44 24.01.2020
250 Clouds 15 1016 72 8000 2.6 170 18:25 24.01.2020
251 Rain 15 1017 82 10000 1.5 140 17:59 24.01.2020
252 Rain 15 1017 82 10000 1.5 140 17:41 24.01.2020
253 Clouds 15 1016 72 8000 4.1 160 17:20 24.01.2020
254 Clouds 15 1017 77 8000 3.1 160 16:40 24.01.2020
255 Rain 15 1017 87 2500 5.1 120 16:21 24.01.2020
256 Rain 15 1017 87 2500 6.7 100 15:56 24.01.2020
257 Thunderstorm 15 1017 76 3000 3.1 170 15:38 24.01.2020
258 Thunderstorm 15 1017 72 3000 3.6 170 15:19 24.01.2020
259 Clouds 16 1017 63 8000 5.7 150 14:41 24.01.2020
260 Clouds 16 1018 63 8000 3.6 160 14:23 24.01.2020
261 Clouds 16 1018 63 8000 3.6 160 14:23 24.01.2020
262 Rain 16 1019 87 10000 6.2 120 13:45 24.01.2020
263 Clouds 16 1019 63 8000 4.6 160 13:24 24.01.2020
264 Clouds 16 1020 87 10000 7.2 100 12:55 24.01.2020
265 Clouds 16 1019 63 8000 4.6 150 12:37 24.01.2020
266 Clouds 15 1020 82 10000 6.2 130 12:18 24.01.2020
267 Clouds 15 1020 82 10000 6.2 130 12:18 24.01.2020
268 Clouds 15 1019 67 8000 3.1 120 11:42 24.01.2020
269 Rain 15 1020 82 10000 5.1 130 11:19 24.01.2020
270 Clouds 14 1019 67 8000 2.6 120 10:43 24.01.2020
271 Clouds 13 1019 76 8000 2.1 110 10:22 24.01.2020
272 Rain 12 1019 82 6000 5.7 110 09:56 24.01.2020
273 Clouds 12 1019 87 8000 3.1 80 09:37 24.01.2020
274 Clouds 11 1018 87 8000 2.6 80 09:18 24.01.2020
275 Clouds 12 1018 71 6000 4.1 140 08:40 24.01.2020
276 Clouds 11 1018 76 6000 4.6 130 08:19 24.01.2020
277 Rain 11 1019 87 10000 3.1 80 07:49 24.01.2020
278 Rain 11 1019 87 10000 3.1 80 07:28 24.01.2020
279 Rain 11 1019 87 8000 2.1 130 06:46 24.01.2020
280 Rain 11 1019 87 8000 2.1 130 06:28 24.01.2020
281 Clouds 12 1018 81 6000 2.1 140 05:43 24.01.2020
282 Thunderstorm 12 1019 76 4000 3.6 160 03:55 24.01.2020
283 Thunderstorm 12 1019 76 4000 2.6 130 02:43 24.01.2020
284 Rain 12 1019 82 4000 1 70 02:23 24.01.2020
285 Rain 12 1019 82 4000 3.1 140 01:39 24.01.2020
286 Rain 12 1019 87 4000 3.1 140 00:54 24.01.2020
287 Rain 12 1019 81 4000 5.1 150 00:19 24.01.2020
288 Clouds 13 1018 76 6000 3.6 140 23:45 23.01.2020
289 Clouds 13 1018 76 6000 3.1 150 23:26 23.01.2020
290 Rain 12 1018 81 4000 4.6 130 22:59 23.01.2020
291 Rain 12 1018 81 4000 4.6 130 22:37 23.01.2020
292 Rain 12 1018 87 4000 4.1 140 22:18 23.01.2020
293 Rain 13 1018 87 4000 2.6 140 21:55 23.01.2020
294 Rain 13 1018 87 4000 2.6 140 21:37 23.01.2020
295 Rain 13 1017 87 4000 3.1 140 21:19 23.01.2020
296 Rain 12 1017 87 4000 5.7 140 20:55 23.01.2020
297 Rain 12 1017 87 4000 5.7 140 20:37 23.01.2020
298 Rain 12 1017 87 3000 3.1 140 20:18 23.01.2020
299 Clouds 13 1017 76 10000 2.6 170 19:44 23.01.2020
300 Rain 13 1016 87 4000 2.1 160 19:23 23.01.2020
301 Rain 14 1016 82 5000 4.1 150 18:58 23.01.2020
302 Rain 14 1016 82 7000 4.6 150 18:39 23.01.2020
303 Rain 14 1016 82 7000 4.6 150 18:20 23.01.2020
304 Rain 14 1016 82 8000 3.6 150 17:56 23.01.2020
305 Rain 15 1016 82 8000 3.6 150 17:37 23.01.2020
306 Clouds 15 1015 62 8000 4.1 160 17:18 23.01.2020
307 Rain 16 1016 82 10000 2.6 160 16:39 23.01.2020
308 Rain 16 1016 82 10000 2.6 160 16:39 23.01.2020
309 Clouds 16 1015 62 8000 4.1 160 16:20 23.01.2020
310 Clouds 16 1015 62 8000 4.1 160 16:20 23.01.2020
311 Rain 16 1016 77 10000 5.1 80 15:58 23.01.2020
312 Rain 16 1016 77 10000 5.1 80 15:39 23.01.2020
313 Clouds 15 1016 62 8000 4.1 160 15:19 23.01.2020
314 Clouds 15 1016 77 10000 3.1 70 14:58 23.01.2020
315 Clouds 15 1016 62 8000 5.1 160 14:40 23.01.2020
316 Clouds 15 1016 62 8000 5.1 160 14:22 23.01.2020
317 Clouds 16 1016 63 8000 5.7 180 13:55 23.01.2020
318 Clouds 15 1016 63 8000 5.7 180 13:37 23.01.2020
319 Clouds 15 1016 67 8000 6.7 170 13:18 23.01.2020
320 Clouds 15 1017 67 8000 4.1 170 12:42 23.01.2020
321 Clouds 15 1017 67 8000 4.6 140 12:24 23.01.2020
322 Clouds 14 1018 82 10000 3.1 70 11:56 23.01.2020
323 Clouds 14 1017 76 8000 3.6 150 11:37 23.01.2020
324 Clouds 14 1017 76 8000 3.6 150 11:37 23.01.2020
325 Clouds 14 1017 71 8000 4.6 160 11:18 23.01.2020
326 Clouds 12 1017 76 6000 4.6 150 10:42 23.01.2020
327 Clouds 12 1016 76 6000 5.1 160 10:19 23.01.2020
328 Clouds 11 1016 76 6000 3.6 140 09:42 23.01.2020
329 Rain 11 1016 81 6000 2.6 140 09:24 23.01.2020
330 Rain 11 1016 81 4000 3.6 150 08:57 23.01.2020
331 Rain 11 1016 81 4000 3.6 150 08:38 23.01.2020
332 Rain 11 1016 81 4000 3.1 160 08:20 23.01.2020
333 Rain 12 1016 76 5000 5.7 240 07:42 23.01.2020
334 Clouds 12 1015 71 6000 3.1 150 07:24 23.01.2020
335 Clouds 12 1015 71 6000 3.6 150 06:46 23.01.2020
336 Rain 12 1015 71 5000 4.1 160 06:19 23.01.2020
337 Clouds 12 1015 66 8000 1 0 04:58 23.01.2020
338 Clouds 12 1015 66 8000 4.1 140 04:21 23.01.2020
339 Clouds 12 1016 71 8000 4.6 150 01:58 23.01.2020
340 Clouds 12 1016 76 8000 4.1 140 00:47 23.01.2020
341 Clouds 12 1016 76 8000 4.6 150 00:26 23.01.2020
342 Clouds 12 1016 76 8000 4.1 150 23:47 22.01.2020
343 Clouds 12 1016 76 8000 4.1 150 23:47 22.01.2020
344 Clouds 12 1016 76 6000 3.6 150 23:28 22.01.2020
345 Clouds 12 1016 76 6000 3.6 130 22:55 22.01.2020
346 Clouds 12 1016 76 6000 3.6 130 22:37 22.01.2020
347 Rain 12 1016 76 6000 3.6 140 22:19 22.01.2020
348 Clouds 12 1016 76 8000 3.6 150 21:38 22.01.2020
349 Rain 11 1016 81 4000 2.6 130 21:20 22.01.2020
350 Clouds 11 1015 87 8000 1.5 90 20:56 22.01.2020
351 Clouds 11 1015 87 8000 1.5 90 20:36 22.01.2020
352 Clouds 12 1015 76 8000 3.6 150 20:18 22.01.2020
353 Clouds 12 1015 76 8000 3.6 140 19:55 22.01.2020
354 Clouds 12 1015 76 8000 3.6 140 19:36 22.01.2020
355 Rain 12 1015 87 6000 3.1 140 19:18 22.01.2020
356 Clouds 12 1015 81 8000 3.1 170 18:54 22.01.2020
357 Clouds 12 1015 81 8000 3.1 170 18:36 22.01.2020
358 Clouds 12 1015 81 8000 5.1 140 18:18 22.01.2020
359 Rain 13 1015 76 10000 4.6 80 17:39 22.01.2020
360 Clouds 13 1014 71 8000 1 160 17:20 22.01.2020
361 Rain 13 1015 81 10000 5.7 50 16:56 22.01.2020
362 Clouds 13 1014 66 8000 5.1 170 16:37 22.01.2020
363 Clouds 13 1014 66 8000 5.1 170 16:37 22.01.2020
364 Clouds 13 1014 67 8000 5.7 150 16:18 22.01.2020
365 Clouds 14 1014 82 10000 5.1 60 15:43 22.01.2020
366 Clouds 13 1014 67 8000 3.1 190 15:24 22.01.2020
367 Clouds 13 1015 81 10000 3.1 70 14:59 22.01.2020
368 Clouds 13 1014 67 8000 4.6 170 14:38 22.01.2020
369 Clouds 13 1015 62 8000 4.1 180 14:20 22.01.2020
370 Clouds 13 1016 87 10000 3.6 50 13:56 22.01.2020
371 Clouds 13 1015 62 8000 3.1 160 13:37 22.01.2020
372 Clouds 13 1015 67 8000 4.6 150 13:19 22.01.2020
373 Rain 13 1016 81 10000 5.7 70 12:56 22.01.2020
374 Rain 13 1016 81 10000 5.7 70 12:56 22.01.2020
375 Clouds 13 1015 67 8000 3.6 150 12:38 22.01.2020
376 Clouds 13 1015 66 8000 3.6 170 12:19 22.01.2020
377 Clouds 12 1016 76 10000 3.6 50 11:56 22.01.2020
378 Clouds 11 1015 71 8000 3.1 160 11:38 22.01.2020
379 Clouds 11 1015 71 8000 3.1 160 11:19 22.01.2020
380 Clouds 11 1015 66 8000 2.6 160 10:45 22.01.2020
381 Clouds 10 1015 76 8000 1 0 10:21 22.01.2020
382 Thunderstorm 9 1015 87 10000 3.1 30 09:57 22.01.2020
383 Thunderstorm 9 1015 87 10000 3.1 30 09:39 22.01.2020
384 Clouds 9 1014 81 8000 1.5 90 09:20 22.01.2020
385 Thunderstorm 8 1015 93 10000 2.6 10 08:54 22.01.2020
386 Clouds 8 1014 81 8000 3.1 80 08:36 22.01.2020
387 Clouds 9 1014 76 10000 3.1 90 08:18 22.01.2020
388 Clouds 9 1013 81 10000 3.1 80 07:40 22.01.2020
389 Clouds 9 1013 81 10000 3.1 90 07:21 22.01.2020
390 Clouds 9 1013 81 10000 3.1 90 07:21 22.01.2020
391 Clouds 9 1013 81 10000 3.1 80 06:33 22.01.2020
392 Clouds 8 1013 87 10000 3.1 80 05:42 22.01.2020
393 Clouds 8 1013 87 10000 3.1 80 05:42 22.01.2020
394 Clouds 8 1013 93 10000 2.6 70 04:24 22.01.2020
395 Clouds 9 1013 93 10000 3.1 80 03:26 22.01.2020
396 Clouds 9 1013 93 10000 2.6 80 02:38 22.01.2020
397 Clouds 10 1014 93 10000 2.1 80 00:46 22.01.2020
398 Clouds 10 1014 87 10000 1.5 90 00:27 22.01.2020
399 Clouds 12 1013 87 10000 0.5 0 23:55 21.01.2020
400 Clouds 12 1013 87 10000 0.5 0 23:36 21.01.2020
401 Clouds 12 1013 76 10000 2.1 20 23:18 21.01.2020
402 Clouds 12 1013 76 10000 2.1 20 23:18 21.01.2020
403 Clouds 12 1013 76 10000 2.1 20 23:18 21.01.2020
404 Drizzle 12 1013 76 6000 1.5 160 22:40 21.01.2020
405 Clouds 12 1013 71 10000 1 200 22:20 21.01.2020
406 Clouds 13 1013 71 10000 1 0 21:57 21.01.2020
407 Clouds 13 1013 71 10000 1 0 21:38 21.01.2020
408 Clouds 13 1013 71 10000 1.5 280 21:20 21.01.2020
409 Clouds 13 1013 71 10000 2.1 280 20:56 21.01.2020
410 Clouds 13 1013 71 10000 2.1 280 20:37 21.01.2020
411 Clouds 13 1013 76 10000 2.1 260 20:19 21.01.2020
412 Clouds 13 1012 76 10000 2.6 250 19:56 21.01.2020
413 Clouds 13 1012 76 10000 2.6 250 19:37 21.01.2020
414 Clouds 13 1012 76 10000 2.6 250 19:19 21.01.2020
415 Rain 13 1011 66 10000 3.1 240 18:55 21.01.2020
416 Clouds 14 1012 71 10000 2.1 220 18:37 21.01.2020
417 Clouds 14 1012 71 10000 2.6 220 18:18 21.01.2020
418 Clouds 14 1011 67 10000 3.6 240 17:44 21.01.2020
419 Clouds 15 1012 62 10000 3.1 230 17:20 21.01.2020
420 Clouds 15 1011 67 10000 4.1 220 16:58 21.01.2020
421 Clouds 15 1012 62 10000 3.6 240 16:37 21.01.2020
422 Clouds 15 1012 62 10000 3.1 230 16:18 21.01.2020
423 Clouds 15 1011 62 10000 4.6 220 15:42 21.01.2020
424 Clouds 15 1012 58 10000 3.6 240 15:21 21.01.2020
425 Clouds 15 1011 62 10000 3.1 200 14:59 21.01.2020
426 Clouds 15 1012 58 10000 3.1 230 14:37 21.01.2020
427 Clouds 14 1012 62 10000 3.6 220 14:19 21.01.2020
428 Clouds 14 1012 58 10000 1.5 260 13:40 21.01.2020
429 Clouds 14 1013 62 10000 2.1 230 13:19 21.01.2020
430 Clouds 14 1013 67 10000 2.1 170 12:43 21.01.2020
431 Clouds 14 1013 67 10000 2.1 170 12:43 21.01.2020
432 Clouds 14 1013 71 10000 2.1 170 12:25 21.01.2020
433 Clouds 13 1013 76 10000 2.1 170 11:57 21.01.2020
434 Clouds 13 1013 76 10000 2.1 170 11:38 21.01.2020
435 Clouds 12 1013 76 10000 1 0 11:20 21.01.2020
436 Clouds 10 1013 81 10000 1.5 110 10:44 21.01.2020
437 Clouds 10 1013 93 10000 1 0 10:23 21.01.2020
438 Clouds 10 1013 93 10000 1 0 10:23 21.01.2020
439 Clouds 8 1013 81 10000 2.1 260 09:59 21.01.2020
440 Clouds 8 1013 81 10000 2.1 260 09:40 21.01.2020
441 Clouds 8 1013 81 10000 3.1 250 09:22 21.01.2020
442 Clouds 8 1013 81 10000 3.1 250 09:22 21.01.2020
443 Clouds 8 1012 87 10000 1.5 90 08:48 21.01.2020
444 Clouds 8 1012 87 8000 2.1 90 08:27 21.01.2020
445 Clouds 9 1012 93 8000 2.6 80 07:57 21.01.2020
446 Clouds 9 1012 93 8000 2.6 80 07:38 21.01.2020
447 Clouds 9 1012 87 8000 2.1 50 07:19 21.01.2020
448 Clouds 9 1012 93 8000 2.1 50 06:45 21.01.2020
449 Clouds 9 1012 93 8000 2.1 50 06:23 21.01.2020
450 Clouds 9 1012 93 8000 2.1 50 06:23 21.01.2020
451 Clouds 9 1012 93 8000 1 0 05:41 21.01.2020
452 Clouds 9 1012 93 8000 1.5 80 04:39 21.01.2020
453 Clouds 9 1013 87 10000 1 0 02:54 21.01.2020
454 Clouds 10 1013 81 10000 2.1 120 01:47 21.01.2020
455 Clouds 10 1014 87 10000 2.6 60 00:52 21.01.2020
456 Clouds 10 1013 87 10000 3.1 70 00:29 21.01.2020
457 Clouds 10 1013 81 10000 3.6 90 23:57 20.01.2020
458 Clouds 10 1013 81 10000 3.6 90 23:36 20.01.2020
459 Clouds 10 1013 81 10000 4.6 60 23:18 20.01.2020
460 Clouds 9 1013 87 10000 3.1 80 22:55 20.01.2020
461 Clouds 9 1013 87 10000 3.1 80 22:36 20.01.2020
462 Clouds 9 1013 81 10000 2.6 50 22:18 20.01.2020
463 Clouds 9 1013 87 10000 2.6 90 21:55 20.01.2020
464 Clouds 9 1013 93 10000 3.1 90 21:36 20.01.2020
465 Clouds 9 1013 93 10000 3.1 90 21:18 20.01.2020
466 Clouds 9 1013 87 10000 3.6 90 20:43 20.01.2020
467 Clouds 9 1013 76 10000 4.1 80 20:20 20.01.2020
468 Clouds 10 1012 71 10000 6.2 70 19:59 20.01.2020
469 Clouds 10 1012 71 10000 6.2 70 19:59 20.01.2020
470 Clouds 10 1012 71 10000 6.2 70 19:41 20.01.2020
471 Clouds 10 1012 71 10000 7.2 60 19:19 20.01.2020
472 Clouds 10 1012 71 10000 6.7 60 18:56 20.01.2020
473 Clouds 10 1012 71 10000 6.7 60 18:38 20.01.2020
474 Clouds 10 1012 71 10000 7.7 60 18:19 20.01.2020
475 Clouds 11 1012 66 10000 6.7 60 17:39 20.01.2020
476 Clouds 11 1011 71 10000 6.7 60 17:19 20.01.2020
477 Clouds 11 1011 66 10000 7.7 50 16:47 20.01.2020
478 Clouds 11 1011 66 10000 7.7 50 16:47 20.01.2020
479 Clouds 11 1011 66 10000 6.7 50 16:26 20.01.2020
480 Clouds 11 1011 71 10000 6.7 50 15:59 20.01.2020
481 Clouds 11 1011 71 10000 6.7 50 15:59 20.01.2020
482 Clouds 11 1011 71 10000 6.7 50 15:40 20.01.2020
483 Clouds 12 1011 62 10000 5.7 60 15:22 20.01.2020
484 Clouds 11 1012 66 10000 4.6 50 14:59 20.01.2020
485 Clouds 11 1012 66 10000 4.6 50 14:40 20.01.2020
486 Clouds 11 1012 66 10000 4.6 50 14:21 20.01.2020
487 Rain 12 1013 66 10000 5.7 90 13:56 20.01.2020
488 Clouds 12 1012 66 10000 6.2 60 13:38 20.01.2020
489 Clouds 11 1012 71 10000 5.7 70 13:18 20.01.2020
490 Rain 11 1014 58 10000 3.1 30 12:42 20.01.2020
491 Clouds 11 1013 76 10000 2.6 80 12:23 20.01.2020
492 Rain 11 1014 66 10000 1 320 11:55 20.01.2020
493 Clouds 10 1013 76 10000 2.6 80 11:36 20.01.2020
494 Clouds 10 1013 76 10000 4.1 70 11:18 20.01.2020
495 Rain 10 1014 70 10000 1 280 10:41 20.01.2020
496 Clouds 10 1013 76 10000 5.1 60 10:20 20.01.2020
497 Clouds 9 1013 81 10000 3.6 70 09:42 20.01.2020
498 Clouds 9 1013 81 10000 2.6 50 09:24 20.01.2020
499 Clouds 9 1012 81 10000 5.1 60 08:55 20.01.2020
500 Clouds 9 1012 76 10000 4.6 70 08:34 20.01.2020
501 Clouds 10 1012 81 10000 3.1 40 07:56 20.01.2020
502 Clouds 10 1012 87 10000 3.6 20 07:37 20.01.2020
503 Clouds 10 1012 87 10000 3.6 20 07:19 20.01.2020
504 Clouds 10 1012 87 10000 5.1 30 06:40 20.01.2020
505 Clouds 10 1012 87 10000 5.1 40 06:20 20.01.2020
506 Rain 9 1012 87 3500 4.6 10 05:38 20.01.2020
507 Clouds 9 1013 87 3000 6.7 50 05:19 20.01.2020
508 Clouds 9 1013 81 10000 7.2 40 03:55 20.01.2020
509 Clear 9 1014 70 10000 1.5 60 01:58 20.01.2020
510 Clear 9 1014 70 10000 1.5 60 01:39 20.01.2020
511 Clear 10 1014 71 10000 2.6 20 00:56 20.01.2020
512 Clear 10 1014 71 10000 2.6 20 00:37 20.01.2020
513 Clear 10 1015 66 10000 4.6 360 00:19 20.01.2020
514 Clear 10 1015 66 10000 5.1 360 23:37 19.01.2020
515 Clear 10 1015 62 10000 6.2 360 23:18 19.01.2020
516 Clear 11 1015 66 10000 5.7 350 22:55 19.01.2020
517 Clear 11 1015 66 10000 5.7 350 22:36 19.01.2020
518 Clear 11 1015 66 10000 4.6 350 22:18 19.01.2020
519 Clear 12 1016 62 10000 6.7 350 21:55 19.01.2020
520 Clear 12 1016 62 10000 6.7 350 21:37 19.01.2020
521 Clear 12 1016 62 10000 4.6 10 21:19 19.01.2020
522 Clouds 12 1016 81 10000 2.6 350 20:55 19.01.2020
523 Clouds 12 1016 81 10000 2.6 350 20:55 19.01.2020
524 Clouds 12 1016 81 10000 2.6 350 20:37 19.01.2020
525 Clouds 12 1017 87 10000 1.5 330 20:37 19.01.2020
526 Clouds 12 1017 87 10000 1.5 330 20:18 19.01.2020
527 Clouds 12 1017 87 10000 1 0 19:54 19.01.2020
528 Clouds 12 1017 87 10000 1 0 19:36 19.01.2020
529 Clouds 12 1017 87 10000 1 0 19:18 19.01.2020
530 Rain 14 1018 71 3000 6.7 310 18:54 19.01.2020
531 Rain 15 1018 71 3000 6.7 310 18:36 19.01.2020
532 Clouds 15 1017 67 10000 5.1 300 18:18 19.01.2020
533 Clouds 15 1017 67 10000 5.7 290 17:56 19.01.2020
534 Clouds 15 1017 67 10000 5.7 290 17:38 19.01.2020
535 Clouds 15 1018 62 10000 5.1 300 17:18 19.01.2020
536 Clouds 16 1018 62 10000 4.6 300 16:54 19.01.2020
537 Clouds 16 1018 62 10000 4.6 300 16:54 19.01.2020
538 Clouds 16 1018 62 10000 4.6 300 16:36 19.01.2020
539 Clouds 16 1018 62 10000 5.1 300 16:18 19.01.2020
540 Clouds 16 1018 62 10000 5.7 300 15:41 19.01.2020
541 Clouds 16 1018 67 10000 5.7 310 15:22 19.01.2020
542 Clouds 16 1019 62 10000 5.7 300 14:59 19.01.2020
543 Clouds 16 1019 62 10000 5.7 300 14:40 19.01.2020
544 Clouds 15 1019 67 10000 6.7 310 14:19 19.01.2020
545 Clouds 15 1019 71 10000 6.2 270 13:58 19.01.2020
546 Clouds 15 1019 71 10000 6.2 270 13:39 19.01.2020
547 Clouds 15 1019 71 10000 6.2 270 13:39 19.01.2020
548 Clouds 15 1020 67 10000 7.2 310 13:20 19.01.2020
549 Clouds 14 1020 76 10000 8.7 280 12:58 19.01.2020
550 Clouds 14 1020 76 10000 8.7 280 12:58 19.01.2020
551 Clouds 15 1020 76 10000 8.7 280 12:40 19.01.2020
552 Clouds 15 1020 76 10000 8.7 280 12:40 19.01.2020
553 Clouds 15 1021 71 10000 7.2 310 12:21 19.01.2020
554 Clouds 15 1021 76 10000 9.3 270 11:56 19.01.2020
555 Clouds 14 1022 82 10000 6.2 330 11:37 19.01.2020
556 Clouds 14 1022 71 10000 7.2 310 11:18 19.01.2020
557 Clouds 13 1021 76 10000 7.2 280 10:39 19.01.2020
558 Clouds 13 1022 67 10000 7.7 310 10:20 19.01.2020
559 Clouds 13 1022 67 10000 8.2 310 09:57 19.01.2020
560 Clouds 13 1022 67 10000 8.2 310 09:38 19.01.2020
561 Clouds 13 1022 71 10000 8.7 310 09:19 19.01.2020
562 Clear 14 1022 67 8000 9.3 310 08:54 19.01.2020
563 Clouds 14 1022 67 8000 7.7 310 08:31 19.01.2020
564 Clouds 14 1022 58 8000 8.7 310 07:49 19.01.2020
565 Clouds 14 1022 67 8000 8.7 320 07:28 19.01.2020
566 Clouds 14 1022 67 6000 8.2 300 06:54 19.01.2020
567 Clouds 14 1023 67 6000 7.2 290 06:21 19.01.2020
568 Clouds 16 1024 82 6000 8.2 310 03:51 19.01.2020
569 Rain 17 1022 93 1500 9.3 260 02:28 19.01.2020
570 Clouds 16 1025 100 5000 7.2 240 01:38 19.01.2020
571 Clouds 16 1026 100 5000 4.6 230 01:18 19.01.2020
572 Clouds 16 1026 100 5000 4.6 230 01:18 19.01.2020
573 Rain 16 1027 100 3000 4.6 230 00:41 19.01.2020
574 Clouds 16 1026 100 3000 5.1 230 00:41 19.01.2020
575 Rain 16 1027 100 3000 4.6 230 00:19 19.01.2020
576 Clouds 16 1026 100 5000 4.6 210 23:41 18.01.2020
577 Rain 16 1027 100 3000 4.1 210 23:23 18.01.2020
578 Rain 17 1027 100 3000 3.6 210 22:56 18.01.2020
579 Rain 17 1027 100 3000 3.6 210 22:38 18.01.2020
580 Rain 17 1027 93 3000 4.1 200 22:20 18.01.2020
581 Clouds 17 1028 93 5000 4.1 200 21:57 18.01.2020
582 Clouds 17 1028 93 5000 4.1 200 21:38 18.01.2020
583 Clouds 17 1028 87 10000 4.6 200 21:20 18.01.2020
584 Clouds 17 1028 87 10000 4.1 200 20:44 18.01.2020
585 Clouds 17 1029 87 10000 3.1 200 20:21 18.01.2020
586 Clouds 17 1029 87 10000 3.1 210 19:59 18.01.2020
587 Clouds 17 1029 87 10000 3.1 210 19:59 18.01.2020
588 Clouds 17 1029 87 10000 3.1 210 19:40 18.01.2020
589 Clouds 17 1029 87 10000 3.6 210 19:22 18.01.2020
590 Clouds 17 1029 82 10000 2.6 210 18:42 18.01.2020
591 Clouds 17 1029 82 10000 2.6 220 18:22 18.01.2020
592 Clouds 17 1029 82 10000 3.1 210 17:55 18.01.2020
593 Clouds 17 1029 82 10000 3.1 210 17:37 18.01.2020
594 Clouds 18 1029 77 10000 3.6 220 17:18 18.01.2020
595 Clouds 18 1030 77 10000 3.1 220 16:42 18.01.2020
596 Clouds 18 1030 77 10000 3.1 220 16:24 18.01.2020
597 Clouds 17 1029 77 10000 3.1 180 15:59 18.01.2020
598 Clouds 17 1029 77 10000 3.1 180 15:41 18.01.2020
599 Clouds 18 1030 77 10000 2.6 200 15:22 18.01.2020
600 Clouds 18 1030 77 10000 4.6 190 14:54 18.01.2020
601 Clouds 18 1030 77 10000 3.1 210 14:36 18.01.2020
602 Clouds 18 1031 72 10000 3.1 200 14:18 18.01.2020
603 Clouds 19 1031 72 10000 3.1 210 13:43 18.01.2020
604 Clouds 19 1032 68 10000 2.1 200 13:24 18.01.2020
605 Clouds 17 1032 59 10000 2.6 160 12:55 18.01.2020
606 Clouds 17 1032 59 10000 2.6 160 12:55 18.01.2020
607 Clouds 17 1032 59 10000 2.6 160 12:37 18.01.2020
608 Clouds 16 1033 59 10000 2.6 180 12:19 18.01.2020
609 Clouds 16 1033 67 10000 2.1 180 11:44 18.01.2020
610 Clouds 16 1033 67 10000 1 0 11:21 18.01.2020
611 Clouds 14 1032 76 10000 3.6 230 10:54 18.01.2020
612 Clouds 14 1032 82 10000 1.5 120 10:36 18.01.2020
613 Clouds 13 1032 87 10000 1.5 110 10:18 18.01.2020
614 Clouds 12 1032 93 9000 1 0 09:42 18.01.2020
615 Clouds 11 1032 100 5000 1 0 09:20 18.01.2020
616 Clouds 12 1032 100 5000 0.5 0 08:55 18.01.2020
617 Clouds 12 1032 100 5000 0.5 0 08:36 18.01.2020
618 Clouds 10 1031 93 5000 2.1 50 08:18 18.01.2020
619 Mist 10 1031 93 4000 1.5 110 07:40 18.01.2020
620 Mist 10 1031 93 4000 1.5 130 07:18 18.01.2020
621 Mist 9 1031 93 4000 2.6 80 06:44 18.01.2020
622 Mist 9 1031 100 3500 2.1 90 05:52 18.01.2020
623 Mist 10 1031 93 3000 2.6 90 04:25 18.01.2020
624 Mist 10 1031 93 4000 2.1 80 02:38 18.01.2020
625 Clouds 11 1032 93 5000 1.5 60 01:40 18.01.2020
626 Clouds 11 1032 93 6000 2.6 70 00:39 18.01.2020
627 Clouds 11 1032 93 6000 1.5 70 00:20 18.01.2020
628 Clouds 12 1032 87 5000 2.1 110 23:58 17.01.2020
629 Clouds 12 1032 87 5000 2.1 110 23:39 17.01.2020
630 Clouds 12 1032 87 7000 2.1 110 23:18 17.01.2020
631 Clouds 12 1032 93 8000 2.1 80 22:41 17.01.2020
632 Clouds 13 1032 87 10000 2.1 70 22:20 17.01.2020
633 Clouds 12 1032 93 10000 1.5 40 21:56 17.01.2020
634 Clouds 12 1032 93 10000 1.5 40 21:37 17.01.2020
635 Clouds 12 1032 87 10000 1.5 70 21:19 17.01.2020
636 Clouds 13 1032 81 10000 0.5 0 20:43 17.01.2020
637 Clouds 13 1032 87 10000 2.1 60 20:21 17.01.2020
638 Clouds 15 1031 71 10000 1 50 19:58 17.01.2020
639 Clouds 15 1031 71 10000 1 50 19:38 17.01.2020
640 Clouds 15 1031 71 10000 1 50 19:20 17.01.2020
641 Clouds 16 1030 77 10000 4.6 280 18:58 17.01.2020
642 Clouds 16 1030 77 10000 4.6 280 18:39 17.01.2020
643 Clouds 16 1030 77 10000 5.1 270 18:21 17.01.2020
644 Clouds 17 1030 77 10000 4.6 270 17:40 17.01.2020
645 Clouds 17 1031 59 10000 1.5 280 17:22 17.01.2020
646 Clouds 18 1031 59 10000 2.1 280 16:57 17.01.2020
647 Clouds 18 1031 59 10000 2.1 280 16:38 17.01.2020
648 Clouds 18 1031 55 10000 2.1 260 16:19 17.01.2020
649 Clouds 20 1030 63 10000 3.1 210 15:45 17.01.2020
650 Clouds 19 1031 45 10000 2.1 250 15:26 17.01.2020
651 Clouds 19 1031 59 10000 3.1 220 14:45 17.01.2020
652 Clouds 19 1032 39 10000 2.6 240 14:27 17.01.2020
653 Clouds 19 1032 48 10000 2.6 250 13:58 17.01.2020
654 Clouds 19 1032 48 10000 2.6 250 13:37 17.01.2020
655 Clouds 19 1033 42 10000 2.1 200 13:19 17.01.2020
656 Clouds 17 1033 42 10000 1 0 12:44 17.01.2020
657 Clouds 17 1033 48 10000 1 0 12:21 17.01.2020
658 Clouds 16 1034 51 10000 1 0 11:38 17.01.2020
659 Clouds 15 1033 62 10000 0.5 0 11:18 17.01.2020
660 Clouds 14 1033 76 8000 1 0 10:44 17.01.2020
661 Clouds 13 1033 76 8000 1 0 10:23 17.01.2020
662 Clouds 12 1032 76 8000 1.5 70 09:58 17.01.2020
663 Clouds 12 1032 76 8000 1.5 70 09:39 17.01.2020
664 Clouds 12 1032 76 8000 1.5 70 09:39 17.01.2020
665 Clouds 11 1032 81 8000 3.1 90 09:19 17.01.2020
666 Clouds 11 1032 75 8000 2.1 100 08:43 17.01.2020
667 Clouds 12 1031 81 10000 2.1 250 08:24 17.01.2020
668 Clouds 12 1031 81 10000 2.1 260 07:54 17.01.2020
669 Clouds 11 1031 81 10000 2.1 260 07:31 17.01.2020
670 Clouds 11 1031 81 8000 2.6 100 06:57 17.01.2020
671 Clouds 10 1031 81 8000 2.6 100 06:38 17.01.2020
672 Clouds 11 1030 81 8000 3.1 80 05:53 17.01.2020
673 Clouds 12 1031 81 8000 3.6 90 03:39 17.01.2020
674 Clouds 15 1031 87 8000 2.6 90 02:47 17.01.2020
675 Clouds 9 1031 87 8000 2.6 90 01:47 17.01.2020
676 Clouds 9 1031 87 8000 2.6 90 01:28 17.01.2020
677 Clouds 12 1031 68 0 2.56 266 00:46 17.01.2020
678 Clouds 10 1030 93 10000 2.6 90 00:21 17.01.2020
679 Clouds 10 1030 93 10000 2.6 90 23:43 16.01.2020
680 Clouds 10 1030 93 10000 2.6 90 23:25 16.01.2020
681 Clouds 10 1030 93 10000 2.1 70 22:55 16.01.2020
682 Clouds 10 1030 93 10000 2.1 70 22:37 16.01.2020
683 Clouds 10 1030 93 10000 2.1 80 22:18 16.01.2020
684 Clouds 11 1030 87 10000 2.6 80 21:54 16.01.2020
685 Clouds 11 1030 87 10000 2.6 80 21:36 16.01.2020
686 Clouds 11 1030 87 10000 1.5 60 21:18 16.01.2020
687 Clouds 11 1029 93 10000 1.5 70 20:40 16.01.2020
688 Clear 12 1029 87 10000 1.5 40 20:20 16.01.2020
689 Clear 13 1029 81 10000 2.1 80 19:57 16.01.2020
690 Clear 14 1029 81 10000 2.1 80 19:39 16.01.2020
691 Clear 15 1029 72 10000 1 0 19:20 16.01.2020
692 Clear 16 1028 82 10000 1 120 18:56 16.01.2020
693 Clear 15 1028 72 10000 1.5 220 18:37 16.01.2020
694 Clear 16 1028 72 10000 1.5 230 18:18 16.01.2020
695 Clear 16 1028 72 10000 1.5 230 18:18 16.01.2020
696 Clouds 16 1028 77 10000 3.1 100 17:55 16.01.2020
697 Clear 16 1028 72 10000 2.1 250 17:37 16.01.2020
698 Clear 17 1028 67 10000 2.6 250 17:18 16.01.2020
699 Clouds 17 1028 77 10000 3.1 110 16:40 16.01.2020
700 Clear 17 1027 63 10000 2.1 260 16:21 16.01.2020
701 Clouds 17 1028 77 10000 3.1 100 15:55 16.01.2020
702 Clear 17 1028 67 10000 2.1 260 15:37 16.01.2020
703 Clear 17 1028 63 10000 2.6 260 15:18 16.01.2020
704 Clouds 18 1028 77 10000 3.1 100 14:41 16.01.2020
705 Clouds 18 1028 55 10000 3.1 260 14:23 16.01.2020
706 Clouds 17 1029 72 10000 2.6 120 13:47 16.01.2020
707 Clouds 17 1028 36 10000 1.5 160 13:28 16.01.2020
708 Clouds 16 1029 77 10000 2.1 90 12:57 16.01.2020
709 Clouds 16 1029 77 10000 2.1 90 12:39 16.01.2020
710 Clouds 16 1029 55 10000 2.6 100 12:20 16.01.2020
711 Clouds 15 1029 63 10000 3.6 80 11:41 16.01.2020
712 Clouds 13 1029 62 10000 2.6 90 11:23 16.01.2020
713 Clouds 12 1029 76 10000 0.5 220 10:55 16.01.2020
714 Clouds 12 1029 76 10000 0.5 220 10:55 16.01.2020
715 Clouds 12 1028 62 10000 2.6 90 10:37 16.01.2020
716 Clouds 11 1028 66 10000 2.6 90 10:19 16.01.2020
717 Clouds 10 1028 81 10000 1.5 280 09:42 16.01.2020
718 Clouds 9 1027 70 10000 3.6 90 09:24 16.01.2020
719 Clouds 9 1027 66 10000 3.6 90 08:58 16.01.2020
720 Clouds 9 1027 66 10000 3.6 90 08:39 16.01.2020
721 Clouds 9 1027 66 10000 3.6 90 08:18 16.01.2020
722 Clouds 9 1027 66 10000 3.1 90 07:42 16.01.2020
723 Clouds 9 1027 66 10000 2.6 100 07:23 16.01.2020
724 Clouds 9 1027 66 10000 2.6 100 07:23 16.01.2020
725 Clouds 9 1026 61 10000 2.1 100 06:50 16.01.2020
726 Clouds 9 1026 66 10000 3.1 90 06:32 16.01.2020
727 Clouds 10 1026 57 10000 3.6 110 05:49 16.01.2020
728 Clear 9 1027 70 10000 2.1 90 04:46 16.01.2020
729 Clear 9 1027 70 10000 2.1 90 04:46 16.01.2020
730 Clear 8 1027 70 10000 3.1 90 03:56 16.01.2020
731 Clear 9 1027 75 10000 2.1 100 02:46 16.01.2020
732 Clear 10 1028 66 10000 1.5 90 01:32 16.01.2020
733 Clear 10 1027 70 10000 1.5 90 00:42 16.01.2020
734 Clear 10 1027 76 10000 2.6 70 00:22 16.01.2020
735 Clear 10 1027 66 10000 2.1 60 23:40 15.01.2020
736 Clear 10 1027 66 10000 2.6 70 23:21 15.01.2020
737 Clear 10 1027 66 10000 2.6 80 22:56 15.01.2020
738 Clear 10 1027 66 10000 2.6 80 22:38 15.01.2020
739 Clear 10 1027 71 10000 3.1 80 22:18 15.01.2020
740 Clear 11 1027 71 10000 1.5 80 21:56 15.01.2020
741 Clear 11 1027 71 10000 1.5 80 21:56 15.01.2020
742 Clear 11 1027 71 10000 1.5 80 21:37 15.01.2020
743 Clear 11 1027 76 10000 2.6 80 21:18 15.01.2020
744 Clear 12 1027 76 10000 2.1 60 20:55 15.01.2020
745 Clear 12 1027 76 10000 2.1 60 20:37 15.01.2020
746 Clouds 12 1027 76 10000 1.5 50 20:18 15.01.2020
747 Clouds 13 1027 71 10000 1.5 50 19:54 15.01.2020
748 Clouds 13 1027 71 10000 1.5 50 19:36 15.01.2020
749 Clouds 14 1027 67 10000 0.5 0 19:18 15.01.2020
750 Clouds 16 1027 67 10000 1 0 18:55 15.01.2020
751 Clouds 16 1027 67 10000 1 0 18:55 15.01.2020
752 Clouds 16 1027 67 10000 1 0 18:55 15.01.2020
753 Clouds 17 1027 67 10000 1 0 18:36 15.01.2020
754 Clouds 17 1026 48 10000 1.5 230 18:18 15.01.2020
755 Clouds 17 1026 48 10000 1.5 230 18:18 15.01.2020
756 Clouds 18 1026 37 10000 2.1 220 17:40 15.01.2020
757 Clouds 18 1026 37 10000 2.1 220 17:40 15.01.2020
758 Clear 18 1026 34 10000 2.1 200 17:22 15.01.2020
759 Clear 18 1026 34 10000 2.1 200 17:22 15.01.2020
760 Clear 19 1026 55 10000 1 100 16:57 15.01.2020
761 Clear 18 1026 34 10000 2.6 220 16:38 15.01.2020
762 Clear 18 1026 40 10000 2.6 220 16:20 15.01.2020
763 Clear 18 1026 40 10000 2.6 220 16:20 15.01.2020
764 Clear 19 1026 63 10000 2.1 110 15:43 15.01.2020
765 Clear 19 1026 34 10000 3.1 190 15:21 15.01.2020
766 Clear 18 1026 67 10000 2.1 110 14:56 15.01.2020
767 Clear 18 1026 37 10000 3.1 190 14:37 15.01.2020
768 Clouds 18 1026 37 10000 3.6 200 14:18 15.01.2020
769 Clouds 18 1026 39 10000 3.1 180 13:44 15.01.2020
770 Clouds 18 1027 67 10000 2.1 90 13:23 15.01.2020
771 Clouds 16 1027 42 10000 2.6 180 12:55 15.01.2020
772 Clouds 16 1027 42 10000 2.6 180 12:37 15.01.2020
773 Clouds 16 1027 42 10000 2.6 180 12:37 15.01.2020
774 Clouds 16 1027 42 10000 3.1 180 12:18 15.01.2020
775 Clouds 16 1027 42 10000 3.1 180 12:18 15.01.2020
776 Clouds 13 1027 48 10000 3.1 170 11:39 15.01.2020
777 Clouds 14 1027 76 10000 1.5 260 11:20 15.01.2020
778 Clouds 13 1027 51 10000 2.6 140 10:58 15.01.2020
779 Clouds 13 1027 51 10000 2.6 140 10:40 15.01.2020
780 Clouds 13 1026 71 10000 2.6 60 10:21 15.01.2020
781 Clouds 11 1026 81 10000 1.5 260 09:41 15.01.2020
782 Clouds 11 1026 87 10000 2.1 60 09:21 15.01.2020
783 Clouds 10 1026 87 10000 3.1 260 08:45 15.01.2020
784 Clouds 10 1025 93 10000 2.6 60 08:26 15.01.2020
785 Clouds 8 1025 93 10000 3.1 70 07:56 15.01.2020
786 Clouds 8 1025 87 10000 3.1 80 07:33 15.01.2020
787 Clouds 11 1024 93 10000 3.1 80 06:54 15.01.2020
788 Clouds 11 1024 93 10000 3.1 80 06:32 15.01.2020
789 Clouds 11 1024 93 10000 2.6 80 05:32 15.01.2020
790 Clouds 10 1025 93 10000 3.1 80 03:20 15.01.2020
791 Clouds 10 1025 87 10000 2.1 90 01:48 15.01.2020
792 Clouds 10 1025 93 8000 2.6 80 01:22 15.01.2020
793 Clouds 10 1025 93 8000 3.1 90 00:37 15.01.2020
794 Clouds 10 1025 93 8000 2.1 80 00:19 15.01.2020
795 Clouds 11 1025 87 8000 2.6 90 23:46 14.01.2020
796 Clouds 11 1025 87 8000 3.1 90 23:27 14.01.2020
797 Clouds 11 1025 87 8000 2.1 80 22:57 14.01.2020
798 Clouds 11 1025 87 8000 2.1 80 22:57 14.01.2020
799 Clouds 11 1025 87 8000 2.1 80 22:39 14.01.2020
800 Clouds 11 1025 87 8000 1.5 70 22:18 14.01.2020
801 Clouds 12 1025 87 8000 3.1 80 21:56 14.01.2020
802 Clouds 12 1025 81 10000 2.1 80 21:37 14.01.2020
803 Clouds 12 1025 81 10000 2.1 80 21:19 14.01.2020
804 Clouds 12 1025 87 10000 2.1 90 20:42 14.01.2020
805 Clouds 13 1024 87 10000 1.5 300 20:22 14.01.2020
806 Clouds 13 1024 87 10000 1.5 300 19:57 14.01.2020
807 Clouds 13 1024 87 10000 1.5 300 19:39 14.01.2020
808 Clouds 14 1024 76 10000 0.5 0 19:20 14.01.2020
809 Clouds 15 1024 71 10000 2.1 240 18:59 14.01.2020
810 Clouds 15 1024 71 10000 2.1 240 18:40 14.01.2020
811 Clouds 16 1024 67 10000 2.6 230 18:19 14.01.2020
812 Clouds 16 1024 67 10000 2.6 230 17:39 14.01.2020
813 Clouds 17 1024 67 10000 2.6 230 17:20 14.01.2020
814 Clouds 17 1024 67 10000 3.1 230 16:59 14.01.2020
815 Clouds 17 1024 67 10000 3.1 230 16:41 14.01.2020
816 Clouds 17 1024 67 10000 2.6 220 16:21 14.01.2020
817 Clouds 18 1024 63 10000 3.1 230 15:55 14.01.2020
818 Clouds 18 1024 63 10000 3.1 230 15:37 14.01.2020
819 Clouds 18 1024 67 10000 2.6 230 15:18 14.01.2020
820 Clouds 17 1024 67 10000 3.1 220 14:43 14.01.2020
821 Clouds 17 1024 63 10000 3.1 230 14:20 14.01.2020
822 Clouds 17 1024 67 10000 3.1 260 13:43 14.01.2020
823 Clouds 16 1025 67 10000 3.6 210 13:20 14.01.2020
824 Clouds 15 1025 76 10000 2.6 250 12:59 14.01.2020
825 Clouds 15 1026 72 10000 3.1 190 12:40 14.01.2020
826 Clouds 15 1026 67 10000 2.6 180 12:20 14.01.2020
827 Clouds 15 1026 67 10000 2.6 180 12:20 14.01.2020
828 Clouds 14 1025 76 10000 1.5 280 11:43 14.01.2020
829 Clouds 10 1025 76 10000 3.1 170 11:23 14.01.2020
830 Clouds 10 1025 87 10000 2.1 250 10:58 14.01.2020
831 Clouds 10 1025 87 10000 2.1 250 10:39 14.01.2020
832 Clouds 10 1025 81 10000 2.1 170 10:19 14.01.2020
833 Clouds 10 1025 93 10000 1.5 90 09:57 14.01.2020
834 Clouds 10 1025 93 10000 1.5 90 09:39 14.01.2020
835 Clouds 7 1024 87 10000 1.5 70 09:20 14.01.2020
836 Clouds 7 1024 93 7000 2.1 70 08:44 14.01.2020
837 Clouds 7 1024 93 7000 3.1 70 08:23 14.01.2020
838 Clouds 8 1024 87 7000 2.1 80 07:53 14.01.2020
839 Clouds 8 1024 87 7000 2.1 80 07:31 14.01.2020
840 Clouds 8 1023 93 7000 2.6 90 06:50 14.01.2020
841 Clouds 8 1023 87 7000 2.1 90 06:23 14.01.2020
842 Clouds 8 1023 93 7000 2.6 90 05:21 14.01.2020
843 Clouds 8 1024 93 7000 2.6 80 03:51 14.01.2020
844 Clouds 9 1024 93 7000 1 0 02:42 14.01.2020
845 Clouds 9 1024 93 7000 2.1 90 01:35 14.01.2020
846 Clouds 9 1025 87 7000 1.5 60 00:49 14.01.2020
847 Clouds 9 1025 87 10000 2.6 240 00:27 14.01.2020
848 Clouds 9 1025 93 7000 2.1 70 23:47 13.01.2020
849 Clouds 9 1025 87 8000 1 80 23:19 13.01.2020
850 Clouds 10 1025 87 8000 1.5 60 22:59 13.01.2020
851 Clouds 10 1025 87 8000 1.5 60 22:40 13.01.2020
852 Clouds 10 1025 81 8000 2.1 80 22:20 13.01.2020
853 Clouds 11 1025 81 10000 2.6 80 21:56 13.01.2020
854 Clouds 11 1025 81 10000 2.6 80 21:56 13.01.2020
855 Clouds 11 1025 81 10000 2.6 80 21:37 13.01.2020
856 Clouds 11 1025 81 10000 2.6 80 21:37 13.01.2020
857 Clouds 11 1025 81 10000 2.1 80 21:18 13.01.2020
858 Clouds 11 1025 81 10000 2.1 80 20:56 13.01.2020
859 Clouds 11 1025 81 10000 2.1 80 20:38 13.01.2020
860 Clouds 12 1025 76 10000 2.6 80 20:19 13.01.2020
861 Clouds 13 1025 82 10000 1.5 100 19:42 13.01.2020
862 Clouds 13 1025 82 10000 1.5 100 19:42 13.01.2020
863 Clouds 13 1025 82 10000 2.1 40 19:22 13.01.2020
864 Clouds 14 1025 76 10000 2.1 40 18:59 13.01.2020
865 Clouds 14 1025 76 10000 2.1 40 18:40 13.01.2020
866 Clouds 15 1025 72 10000 3.1 50 18:20 13.01.2020
867 Clouds 16 1025 67 10000 3.1 40 17:59 13.01.2020
868 Clouds 16 1025 67 10000 3.1 40 17:40 13.01.2020
869 Clouds 16 1025 67 10000 3.6 20 17:21 13.01.2020
870 Clouds 17 1025 67 10000 3.1 110 16:55 13.01.2020
871 Clouds 17 1025 63 10000 3.6 30 16:36 13.01.2020
872 Clouds 17 1025 63 10000 4.6 50 16:36 13.01.2020
873 Clouds 17 1025 63 10000 4.6 50 16:18 13.01.2020
874 Clear 21 1027 51 0 3.47 79 15:42 13.01.2020
875 Clear 20 1027 52 0 3.47 79 15:22 13.01.2020
876 Clear 19 1027 55 0 3.47 79 14:56 13.01.2020
877 Clear 19 1027 56 0 3.47 79 14:36 13.01.2020
878 Clouds 14 1027 63 0 4.16 73 14:18 13.01.2020
879 Clouds 14 1027 63 0 4.16 73 13:40 13.01.2020
880 Clear 14 1027 63 0 4.06 74 13:22 13.01.2020
881 Clouds 16 1028 72 10000 5.1 60 12:58 13.01.2020
882 Clouds 16 1028 72 10000 5.1 60 12:40 13.01.2020
883 Clouds 15 1028 72 10000 5.1 60 12:21 13.01.2020
884 Clouds 15 1028 72 10000 5.1 60 11:40 13.01.2020
885 Clear 13 1027 71 10000 4.6 100 11:20 13.01.2020
886 Clouds 11 1028 76 10000 3.6 40 10:58 13.01.2020
887 Clouds 11 1028 76 10000 3.6 40 10:39 13.01.2020
888 Clouds 11 1028 76 10000 3.6 40 10:39 13.01.2020
889 Clouds 11 1028 76 10000 3.6 40 10:39 13.01.2020
890 Clear 11 1027 76 10000 4.1 90 10:21 13.01.2020
891 Clear 10 1026 76 10000 3.6 90 09:59 13.01.2020
892 Clear 10 1026 76 10000 3.6 90 09:40 13.01.2020
893 Clear 9 1026 81 10000 5.1 80 09:22 13.01.2020
894 Clear 9 1026 87 10000 4.1 80 08:41 13.01.2020
895 Clear 9 1026 87 10000 5.1 90 08:21 13.01.2020
896 Clear 9 1026 87 10000 4.1 90 07:52 13.01.2020
897 Clear 9 1026 81 10000 4.6 80 07:33 13.01.2020
898 Clear 10 1026 87 10000 4.1 90 06:43 13.01.2020
899 Clear 10 1026 87 10000 3.6 90 06:22 13.01.2020
900 Clear 10 1026 87 10000 3.6 90 05:27 13.01.2020
901 Clear 9 1026 81 10000 4.6 90 03:55 13.01.2020
902 Clear 9 1026 81 10000 5.1 90 03:24 13.01.2020
903 Clear 10 1027 81 10000 4.6 90 02:45 13.01.2020
904 Clear 10 1027 81 10000 4.6 100 02:26 13.01.2020
905 Clear 9 1028 81 10000 2.6 90 01:20 13.01.2020
906 Clear 10 1028 81 10000 1.5 90 00:41 13.01.2020
907 Clear 9 1028 81 10000 4.22 70 00:22 13.01.2020
908 Clear 11 1028 76 10000 2.1 100 23:42 12.01.2020
909 Clear 11 1028 71 10000 2.1 100 23:24 12.01.2020
910 Clear 11 1028 76 10000 2.1 90 22:58 12.01.2020
911 Clear 11 1028 76 10000 2.1 90 22:58 12.01.2020
912 Clear 11 1028 76 10000 2.1 90 22:39 12.01.2020
913 Clear 11 1028 81 10000 0.5 0 22:21 12.01.2020
914 Clear 11 1028 76 10000 1 0 21:56 12.01.2020
915 Clear 11 1028 76 10000 1 0 21:38 12.01.2020
916 Clear 11 1028 76 10000 1 0 21:19 12.01.2020
917 Clear 12 1028 71 10000 0.5 0 20:56 12.01.2020
918 Clear 12 1028 71 10000 0.5 0 20:37 12.01.2020
919 Clear 12 1028 71 10000 1 0 20:19 12.01.2020
920 Clouds 13 1029 72 10000 2.6 130 19:55 12.01.2020
921 Clear 13 1028 71 10000 1 0 19:37 12.01.2020
922 Clear 14 1027 66 10000 3.1 50 19:18 12.01.2020
923 Clear 14 1027 66 10000 3.1 50 19:18 12.01.2020
924 Clouds 15 1028 72 10000 3.1 120 18:56 12.01.2020
925 Clear 15 1027 62 10000 3.6 50 18:38 12.01.2020
926 Clear 15 1027 58 10000 5.1 70 18:19 12.01.2020
927 Clouds 16 1028 77 10000 4.1 120 17:42 12.01.2020
928 Clear 16 1027 59 10000 7.2 50 17:22 12.01.2020
929 Clouds 16 1028 72 10000 3.1 120 16:58 12.01.2020
930 Clear 16 1027 63 10000 7.2 30 16:39 12.01.2020
931 Clear 16 1027 59 10000 7.7 30 16:20 12.01.2020
932 Clear 16 1027 59 10000 7.2 40 15:56 12.01.2020
933 Clear 16 1027 59 10000 7.2 40 15:38 12.01.2020
934 Clear 16 1027 59 10000 8.2 40 15:20 12.01.2020
935 Clouds 17 1029 72 10000 3.1 80 14:42 12.01.2020
936 Clear 17 1028 48 10000 7.2 80 14:23 12.01.2020
937 Clear 16 1028 51 10000 7.2 60 13:57 12.01.2020
938 Clear 16 1028 51 10000 7.2 60 13:39 12.01.2020
939 Clear 16 1029 55 10000 6.7 60 13:20 12.01.2020
940 Clouds 16 1031 77 10000 4.6 60 12:55 12.01.2020
941 Clear 16 1029 55 10000 8.2 80 12:37 12.01.2020
942 Clear 16 1030 55 10000 7.7 70 12:18 12.01.2020
943 Clear 16 1030 55 10000 8.2 70 11:41 12.01.2020
944 Clear 15 1030 62 10000 7.7 70 11:22 12.01.2020
945 Clear 14 1030 62 10000 7.7 60 10:56 12.01.2020
946 Clear 14 1030 62 10000 7.7 60 10:37 12.01.2020
947 Clear 13 1029 67 10000 7.2 60 10:18 12.01.2020
948 Clouds 11 1029 66 10000 5.1 70 09:41 12.01.2020
949 Clouds 11 1029 66 10000 5.7 70 09:22 12.01.2020
950 Clouds 11 1029 66 10000 6.7 70 08:48 12.01.2020
951 Clouds 11 1029 66 10000 7.2 70 08:22 12.01.2020
952 Clouds 12 1029 66 10000 7.2 60 07:47 12.01.2020
953 Clouds 12 1029 71 10000 6.2 60 07:26 12.01.2020
954 Clouds 12 1029 71 10000 6.2 60 07:26 12.01.2020
955 Clouds 13 1028 71 10000 6.2 70 06:54 12.01.2020
956 Clouds 13 1028 71 10000 6.2 70 06:36 12.01.2020
957 Clouds 12 1028 71 10000 6.7 70 05:50 12.01.2020
958 Clouds 13 1029 71 10000 6.7 70 04:54 12.01.2020
959 Clouds 13 1029 76 10000 6.2 80 03:35 12.01.2020
960 Clouds 13 1029 76 10000 4.6 60 02:43 12.01.2020
961 Clouds 13 1029 76 10000 3.6 80 02:24 12.01.2020
962 Clouds 14 1029 76 10000 2.6 60 01:31 12.01.2020
963 Clouds 14 1029 71 10000 3.1 70 00:46 12.01.2020
964 Clouds 14 1029 71 10000 5.7 60 00:22 12.01.2020
965 Clouds 14 1029 71 10000 2.1 90 23:56 11.01.2020
966 Clouds 14 1029 71 10000 2.1 90 23:37 11.01.2020
967 Clouds 14 1029 67 10000 5.1 90 23:18 11.01.2020
968 Clouds 14 1029 67 10000 7.7 70 22:56 11.01.2020
969 Clouds 14 1029 67 10000 7.7 70 22:37 11.01.2020
970 Clouds 14 1029 71 10000 2.6 70 22:18 11.01.2020
971 Clouds 14 1029 67 10000 4.6 90 21:43 11.01.2020
972 Clouds 14 1028 67 10000 7.2 80 21:19 11.01.2020
973 Clouds 15 1028 67 10000 8.2 70 20:55 11.01.2020
974 Clouds 15 1028 67 10000 8.2 70 20:37 11.01.2020
975 Clouds 15 1028 67 10000 6.7 70 20:19 11.01.2020
976 Clouds 15 1028 67 10000 3.6 80 19:55 11.01.2020
977 Clouds 15 1028 67 10000 3.6 80 19:55 11.01.2020
978 Clouds 15 1028 67 10000 3.6 80 19:36 11.01.2020
979 Clouds 15 1028 67 10000 6.7 60 19:18 11.01.2020
980 Clouds 15 1027 62 10000 9.8 60 18:54 11.01.2020
981 Clouds 15 1027 62 10000 9.8 60 18:36 11.01.2020
982 Clouds 15 1027 62 10000 8.2 70 18:18 11.01.2020
983 Clouds 15 1027 62 10000 9.3 70 17:54 11.01.2020
984 Clouds 15 1027 62 10000 9.3 70 17:36 11.01.2020
985 Clouds 16 1027 55 10000 9.3 80 17:18 11.01.2020
986 Clouds 17 1028 63 10000 4.1 70 16:41 11.01.2020
987 Clouds 16 1027 55 10000 6.7 80 16:22 11.01.2020
988 Clouds 16 1027 59 10000 8.2 80 15:42 11.01.2020
989 Clouds 16 1027 55 10000 7.2 70 15:23 11.01.2020
990 Clouds 17 1027 55 10000 7.7 70 14:58 11.01.2020
991 Clouds 17 1027 55 10000 7.7 70 14:40 11.01.2020
992 Clouds 16 1028 55 10000 7.7 70 14:21 11.01.2020
993 Clouds 17 1028 55 10000 7.2 80 13:55 11.01.2020
994 Clouds 17 1028 55 10000 7.2 80 13:55 11.01.2020
995 Clouds 17 1028 55 10000 7.2 80 13:36 11.01.2020
996 Clouds 16 1028 55 10000 6.7 80 13:18 11.01.2020
997 Clouds 17 1030 55 10000 7.2 100 12:41 11.01.2020
998 Clouds 16 1029 59 10000 4.6 70 12:23 11.01.2020
999 Clouds 16 1029 62 10000 3.1 60 11:48 11.01.2020
1000 Clouds 16 1029 62 10000 4.1 60 11:27 11.01.2020
1001 Clouds 12 1029 67 10000 3.6 50 10:59 11.01.2020
1002 Clouds 12 1029 67 10000 3.6 50 10:40 11.01.2020
1003 Clouds 12 1029 67 10000 3.6 50 10:40 11.01.2020
1004 Clouds 11 1028 81 9000 2.6 80 10:22 11.01.2020
1005 Clouds 10 1028 87 7000 3.1 90 09:39 11.01.2020
1006 Mist 9 1028 93 3000 3.1 80 09:21 11.01.2020
1007 Mist 9 1027 87 4000 3.1 90 08:42 11.01.2020
1008 Clouds 9 1027 87 10000 2.6 100 08:22 11.01.2020
1009 Clouds 10 1027 93 10000 3.1 80 07:44 11.01.2020
1010 Clouds 10 1027 93 10000 3.1 80 07:26 11.01.2020
1011 Clouds 10 1026 87 9000 3.1 90 06:52 11.01.2020
1012 Clouds 10 1026 87 10000 2.1 100 05:50 11.01.2020
1013 Clouds 10 1027 87 10000 2.6 90 04:47 11.01.2020
1014 Clouds 10 1027 87 10000 2.6 100 04:29 11.01.2020
1015 Clouds 11 1026 93 10000 2.1 80 02:58 11.01.2020
1016 Clouds 11 1026 93 10000 2.1 80 02:38 11.01.2020
1017 Clouds 11 1026 87 10000 3.1 80 01:43 11.01.2020
1018 Clouds 11 1026 93 10000 2.1 70 01:20 11.01.2020
1019 Clouds 11 1027 93 10000 2.6 80 00:43 11.01.2020
1020 Clouds 11 1027 93 10000 2.6 70 00:18 11.01.2020
1021 Clouds 11 1027 87 10000 2.6 90 23:40 10.01.2020
1022 Clouds 12 1027 81 10000 2.1 80 23:22 10.01.2020
1023 Clouds 12 1027 87 10000 1 0 22:59 10.01.2020
1024 Clouds 12 1027 87 10000 1 0 22:40 10.01.2020
1025 Clouds 12 1027 81 10000 1 60 22:20 10.01.2020
1026 Clouds 12 1027 81 10000 0.5 0 21:57 10.01.2020
1027 Clouds 12 1027 81 10000 0.5 0 21:37 10.01.2020
1028 Clouds 12 1026 81 10000 1 0 21:19 10.01.2020
1029 Clouds 12 1027 87 10000 1.5 140 20:43 10.01.2020
1030 Clouds 14 1026 81 10000 1 0 20:24 10.01.2020
1031 Clouds 14 1026 76 10000 1 0 19:59 10.01.2020
1032 Clouds 14 1026 76 10000 1 0 19:38 10.01.2020
1033 Clouds 13 1026 71 10000 2.1 310 19:19 10.01.2020
1034 Clouds 15 1026 71 10000 3.1 300 18:43 10.01.2020
1035 Clouds 15 1026 71 10000 2.6 290 18:19 10.01.2020
1036 Clouds 15 1024 67 10000 5.7 290 17:57 10.01.2020
1037 Clouds 16 1026 67 10000 4.1 290 17:39 10.01.2020
1038 Clouds 15 1025 67 10000 4.6 290 17:20 10.01.2020
1039 Clouds 15 1025 67 10000 4.1 300 16:58 10.01.2020
1040 Clouds 15 1025 67 10000 4.1 300 16:39 10.01.2020
1041 Clouds 15 1025 62 10000 5.7 290 16:19 10.01.2020
1042 Clouds 15 1024 72 10000 7.7 270 15:56 10.01.2020
1043 Clouds 16 1024 72 10000 7.7 270 15:56 10.01.2020
1044 Clouds 16 1026 67 10000 5.1 280 15:37 10.01.2020
1045 Clouds 16 1026 71 10000 5.1 290 15:18 10.01.2020
1046 Clouds 16 1024 67 10000 7.2 280 14:55 10.01.2020
1047 Clouds 16 1026 62 10000 6.7 270 14:37 10.01.2020
1048 Clouds 16 1026 62 10000 6.7 270 14:18 10.01.2020
1049 Clouds 15 1026 62 10000 6.2 270 13:44 10.01.2020
1050 Clouds 15 1027 62 10000 6.2 280 13:25 10.01.2020
1051 Clouds 15 1028 67 10000 6.2 270 12:58 10.01.2020
1052 Clouds 15 1028 67 10000 6.2 270 12:39 10.01.2020
1053 Clouds 15 1028 71 10000 5.7 270 12:19 10.01.2020
1054 Clouds 15 1028 67 10000 5.1 270 11:56 10.01.2020
1055 Clouds 15 1028 67 10000 5.1 270 11:38 10.01.2020
1056 Clouds 15 1028 67 10000 5.1 270 11:38 10.01.2020
1057 Clouds 15 1028 67 10000 5.1 270 11:38 10.01.2020
1058 Clouds 14 1028 67 10000 4.1 270 11:18 10.01.2020
1059 Clouds 14 1028 76 8000 3.1 270 10:58 10.01.2020
1060 Clouds 14 1028 76 8000 3.1 270 10:36 10.01.2020
1061 Clouds 14 1027 82 8000 2.1 300 10:18 10.01.2020
1062 Clouds 13 1027 87 6000 1.5 190 09:43 10.01.2020
1063 Clouds 13 1027 81 6000 1.5 180 09:24 10.01.2020
1064 Clouds 12 1027 87 6000 1.5 200 08:43 10.01.2020
1065 Clouds 12 1027 87 6000 1.5 0 08:24 10.01.2020
1066 Clouds 12 1027 93 5000 1 0 07:48 10.01.2020
1067 Clear 11 1026 76 10000 4.6 280 07:30 10.01.2020
1068 Clouds 11 1027 93 5000 1 0 06:56 10.01.2020
1069 Clouds 11 1027 93 5000 1 0 06:27 10.01.2020
1070 Clouds 11 1027 87 5000 1.5 90 05:52 10.01.2020
1071 Clear 11 1026 81 10000 4.6 240 03:50 10.01.2020
1072 Clear 10 1026 81 10000 4.6 240 03:31 10.01.2020
1073 Clouds 10 1027 93 5000 1.5 110 02:51 10.01.2020
1074 Clouds 10 1027 93 8000 1 0 01:52 10.01.2020
1075 Clouds 10 1027 87 8000 1 0 01:29 10.01.2020
1076 Clouds 10 1028 87 8000 0.5 0 00:48 10.01.2020
1077 Clouds 10 1028 87 8000 1.5 90 00:30 10.01.2020
1078 Clouds 10 1028 87 8000 1 40 23:39 09.01.2020
1079 Clouds 10 1028 87 8000 1 40 23:39 09.01.2020
1080 Clouds 10 1028 87 8000 1 40 23:39 09.01.2020
1081 Clouds 10 1028 87 8000 1 40 23:39 09.01.2020
1082 Clouds 10 1028 87 8000 1 40 23:39 09.01.2020
1083 Clouds 11 1028 87 8000 0.5 0 23:21 09.01.2020
1084 Clouds 11 1027 81 10000 0.5 0 22:58 09.01.2020
1085 Clouds 11 1027 81 10000 0.5 0 22:58 09.01.2020
1086 Clouds 11 1027 81 10000 0.5 0 22:39 09.01.2020
1087 Clouds 12 1027 81 10000 1 0 22:19 09.01.2020
1088 Clouds 12 1027 81 10000 1 0 22:19 09.01.2020
1089 Clouds 11 1027 81 10000 2.6 40 21:57 09.01.2020
1090 Clouds 11 1027 81 10000 2.6 40 21:57 09.01.2020
1091 Clouds 11 1027 81 10000 2.6 40 21:38 09.01.2020
1092 Clouds 11 1028 81 10000 3.1 30 21:20 09.01.2020
1093 Clouds 12 1028 82 10000 0.5 340 20:58 09.01.2020
1094 Clouds 12 1028 82 10000 0.5 340 20:39 09.01.2020
1095 Clouds 12 1027 76 10000 3.6 20 20:20 09.01.2020
1096 Clouds 14 1027 76 10000 1 0 19:58 09.01.2020
1097 Clouds 14 1026 76 10000 3.1 30 19:39 09.01.2020
1098 Clouds 14 1026 76 10000 3.1 30 19:20 09.01.2020
1099 Clouds 15 1026 71 10000 3.1 50 18:56 09.01.2020
1100 Clouds 15 1026 71 10000 3.1 50 18:56 09.01.2020
1101 Clouds 15 1026 72 10000 2.6 120 18:37 09.01.2020
1102 Clouds 15 1026 72 10000 4.1 40 18:19 09.01.2020
1103 Clouds 16 1026 67 10000 5.7 30 17:41 09.01.2020
1104 Clouds 17 1026 67 10000 6.7 30 17:19 09.01.2020
1105 Clouds 17 1026 63 10000 5.7 30 16:56 09.01.2020
1106 Clouds 17 1027 63 10000 3.6 90 16:37 09.01.2020
1107 Clouds 17 1025 63 10000 5.1 40 16:19 09.01.2020
1108 Clouds 17 1027 63 10000 3.6 100 15:41 09.01.2020
1109 Clouds 17 1027 63 10000 3.6 100 15:41 09.01.2020
1110 Clouds 17 1026 55 10000 4.6 50 15:20 09.01.2020
1111 Clouds 17 1027 63 10000 3.1 80 14:55 09.01.2020
1112 Clouds 17 1027 63 10000 3.1 80 14:37 09.01.2020
1113 Clouds 17 1026 55 10000 2.6 40 14:18 09.01.2020
1114 Clouds 17 1027 52 10000 2.1 30 13:54 09.01.2020
1115 Clouds 17 1028 63 10000 3.1 80 13:36 09.01.2020
1116 Clouds 17 1027 59 10000 1 0 13:18 09.01.2020
1117 Clouds 16 1028 63 10000 1 0 12:42 09.01.2020
1118 Clouds 16 1028 67 10000 2.1 80 12:23 09.01.2020
1119 Clouds 15 1028 72 8000 2.6 100 11:59 09.01.2020
1120 Clouds 15 1029 59 10000 4.1 100 11:41 09.01.2020
1121 Clouds 14 1028 71 8000 2.6 110 11:22 09.01.2020
1122 Clouds 13 1028 82 6000 2.6 90 10:45 09.01.2020
1123 Clouds 13 1027 81 6000 2.6 90 10:23 09.01.2020
1124 Clouds 11 1028 67 10000 5.1 100 09:59 09.01.2020
1125 Clouds 11 1028 71 10000 5.1 100 09:40 09.01.2020
1126 Clouds 11 1027 87 6000 3.1 90 09:21 09.01.2020
1127 Clouds 11 1027 93 5000 4.1 90 08:55 09.01.2020
1128 Clouds 12 1027 81 5000 4.1 90 08:37 09.01.2020
1129 Clouds 12 1027 81 5000 4.1 90 08:19 09.01.2020
1130 Clouds 12 1027 81 5000 3.6 90 07:42 09.01.2020
1131 Clouds 12 1028 76 10000 6.7 90 07:23 09.01.2020
1132 Clouds 12 1026 87 10000 3.1 110 06:39 09.01.2020
1133 Clouds 12 1026 87 10000 3.1 110 06:20 09.01.2020
1134 Clouds 13 1026 81 10000 3.1 100 05:49 09.01.2020
1135 Clouds 12 1027 87 10000 1.5 130 04:44 09.01.2020
1136 Clouds 12 1027 81 10000 3.1 100 03:38 09.01.2020
1137 Clouds 13 1029 72 10000 8.7 80 02:54 09.01.2020
1138 Clouds 13 1029 72 10000 8.7 80 02:24 09.01.2020
1139 Clouds 13 1029 77 10000 8.7 80 01:39 09.01.2020
1140 Clear 13 1028 81 10000 2.6 110 00:43 09.01.2020
1141 Clear 13 1028 81 10000 2.6 110 00:21 09.01.2020
1142 Clear 13 1028 81 10000 2.6 110 00:21 09.01.2020
1143 Clear 13 1028 76 10000 2.6 130 23:44 08.01.2020
1144 Clear 13 1027 81 10000 2.1 100 23:25 08.01.2020
1145 Clear 12 1029 77 10000 6.2 80 22:59 08.01.2020
1146 Clear 12 1027 87 10000 3.1 90 22:39 08.01.2020
1147 Clear 12 1027 87 10000 3.1 90 22:39 08.01.2020
1148 Clear 13 1027 87 10000 3.1 90 22:21 08.01.2020
1149 Clear 13 1027 87 10000 3.1 90 21:57 08.01.2020
1150 Clear 13 1027 81 10000 2.6 90 21:38 08.01.2020
1151 Clear 13 1027 81 10000 2.6 90 21:20 08.01.2020
1152 Clear 12 1028 82 10000 5.7 90 20:58 08.01.2020
1153 Clear 13 1026 82 10000 4.1 40 20:38 08.01.2020
1154 Clouds 13 1026 82 10000 4.1 40 20:20 08.01.2020
1155 Clouds 13 1026 87 10000 3.6 60 19:56 08.01.2020
1156 Clouds 13 1026 87 10000 3.6 60 19:56 08.01.2020
1157 Clouds 13 1026 87 10000 3.1 30 19:37 08.01.2020
1158 Clouds 13 1026 87 10000 3.1 30 19:37 08.01.2020
1159 Clouds 14 1026 87 10000 3.1 30 19:18 08.01.2020
1160 Clouds 14 1026 82 10000 3.1 50 18:55 08.01.2020
1161 Clouds 16 1026 82 10000 3.1 30 18:37 08.01.2020
1162 Clouds 16 1026 82 10000 3.1 30 18:18 08.01.2020
1163 Clouds 17 1027 77 10000 3.1 120 17:47 08.01.2020
1164 Clouds 17 1026 72 10000 1.5 270 17:24 08.01.2020
1165 Clouds 17 1026 72 10000 1.5 270 17:24 08.01.2020
1166 Clouds 16 1026 67 10000 1 0 16:57 08.01.2020
1167 Clouds 16 1027 77 10000 4.1 110 16:39 08.01.2020
1168 Clouds 17 1027 67 10000 1 0 16:19 08.01.2020
1169 Clouds 17 1027 67 10000 2.1 270 15:58 08.01.2020
1170 Clouds 16 1027 77 10000 2.6 90 15:39 08.01.2020
1171 Clouds 16 1027 72 10000 2.6 260 15:19 08.01.2020
1172 Clouds 17 1027 72 10000 2.6 260 14:55 08.01.2020
1173 Clouds 17 1028 77 10000 3.6 70 14:37 08.01.2020
1174 Clouds 16 1027 72 10000 2.6 270 14:19 08.01.2020
1175 Clouds 16 1028 77 10000 3.6 40 13:39 08.01.2020
1176 Clear 16 1028 67 10000 2.6 240 13:18 08.01.2020
1177 Clouds 16 1029 82 10000 4.1 40 12:41 08.01.2020
1178 Clear 16 1028 63 8000 1 0 12:19 08.01.2020
1179 Clear 13 1029 72 8000 2.6 80 11:55 08.01.2020
1180 Clear 13 1029 72 8000 2.6 80 11:55 08.01.2020
1181 Clouds 13 1029 82 10000 1 250 11:37 08.01.2020
1182 Clear 12 1029 71 8000 2.6 80 11:18 08.01.2020
1183 Clear 10 1028 87 6000 3.1 100 10:42 08.01.2020
1184 Clear 10 1028 87 6000 3.1 100 10:22 08.01.2020
1185 Clouds 8 1029 87 10000 1 260 09:59 08.01.2020
1186 Clear 8 1028 87 6000 4.1 70 09:41 08.01.2020
1187 Clear 8 1028 87 6000 4.1 70 09:19 08.01.2020
1188 Clear 8 1028 87 6000 4.1 70 09:19 08.01.2020
1189 Clouds 8 1028 93 10000 1.5 260 08:55 08.01.2020
1190 Clouds 8 1028 93 10000 1.5 260 08:36 08.01.2020
1191 Clouds 8 1027 87 6000 4.1 90 08:18 08.01.2020
1192 Clouds 8 1027 87 6000 2.6 100 07:43 08.01.2020
1193 Clouds 8 1027 87 6000 1 0 07:23 08.01.2020
1194 Clouds 8 1028 87 10000 1.5 250 06:44 08.01.2020
1195 Clouds 9 1028 93 8000 2.1 260 05:59 08.01.2020
1196 Clouds 9 1027 76 8000 2.6 140 05:28 08.01.2020
1197 Clear 9 1027 81 8000 2.1 150 04:46 08.01.2020
1198 Clear 10 1027 71 10000 2.6 110 03:32 08.01.2020
1199 Clear 11 1027 66 10000 4.6 90 02:44 08.01.2020
1200 Clear 12 1027 62 10000 9.8 60 02:19 08.01.2020
1201 Clear 11 1027 71 8000 8.2 80 01:39 08.01.2020
1202 Clear 11 1028 76 8000 6.7 90 00:53 08.01.2020
1203 Clear 10 1028 76 8000 7.2 80 00:26 08.01.2020
1204 Clear 12 1029 76 8000 3.6 100 23:46 07.01.2020
1205 Clear 12 1029 76 8000 6.2 80 23:22 07.01.2020
1206 Clear 13 1029 76 8000 4.1 30 22:58 07.01.2020
1207 Clear 13 1029 66 8000 4.6 100 22:38 07.01.2020
1208 Clear 13 1029 66 8000 4.6 100 22:19 07.01.2020
1209 Clear 13 1029 66 8000 4.6 100 22:19 07.01.2020
1210 Clear 13 1029 71 8000 7.2 60 21:42 07.01.2020
1211 Clear 13 1029 76 8000 3.6 60 21:23 07.01.2020
1212 Clear 13 1029 71 10000 1 0 20:58 07.01.2020
1213 Clear 13 1029 71 10000 2.6 90 20:40 07.01.2020
1214 Clouds 14 1029 71 10000 2.6 90 20:22 07.01.2020
1215 Clouds 15 1028 67 10000 6.2 50 19:57 07.01.2020
1216 Clouds 15 1028 67 10000 7.2 50 19:38 07.01.2020
1217 Clouds 15 1028 67 10000 7.2 50 19:19 07.01.2020
1218 Clouds 15 1027 67 10000 6.7 50 18:56 07.01.2020
1219 Clouds 16 1027 62 10000 7.7 50 18:38 07.01.2020
1220 Clouds 16 1027 62 10000 7.7 50 18:18 07.01.2020
1221 Clouds 16 1027 62 10000 7.7 50 18:18 07.01.2020
1222 Clouds 16 1027 59 10000 6.7 60 17:55 07.01.2020
1223 Clouds 16 1029 77 10000 5.1 80 17:36 07.01.2020
1224 Clouds 16 1027 59 10000 5.7 50 17:18 07.01.2020
1225 Clouds 17 1027 55 10000 4.6 50 16:55 07.01.2020
1226 Clouds 17 1027 55 10000 4.6 40 16:36 07.01.2020
1227 Clouds 17 1027 55 10000 4.6 40 16:18 07.01.2020
1228 Clouds 17 1027 52 10000 5.7 40 15:42 07.01.2020
1229 Clouds 17 1027 48 10000 7.2 60 15:24 07.01.2020
1230 Clouds 17 1029 72 10000 4.6 80 14:58 07.01.2020
1231 Clouds 17 1030 72 10000 5.1 70 14:39 07.01.2020
1232 Clouds 17 1027 48 10000 6.7 80 14:20 07.01.2020
1233 Clouds 17 1028 52 10000 7.7 70 13:46 07.01.2020
1234 Clouds 17 1029 51 10000 8.2 70 13:20 07.01.2020
1235 Clouds 17 1029 51 10000 8.2 70 13:20 07.01.2020
1236 Clouds 17 1029 55 10000 7.2 70 12:56 07.01.2020
1237 Clouds 16 1031 77 10000 7.2 80 12:37 07.01.2020
1238 Clouds 16 1030 59 10000 7.2 60 12:18 07.01.2020
1239 Clouds 16 1032 77 10000 7.2 70 11:41 07.01.2020
1240 Clouds 15 1030 59 10000 5.7 80 11:22 07.01.2020
1241 Clouds 15 1030 62 10000 4.6 90 10:56 07.01.2020
1242 Clouds 14 1031 76 10000 6.7 80 10:37 07.01.2020
1243 Clouds 14 1029 67 10000 4.6 90 10:19 07.01.2020
1244 Clouds 13 1031 82 10000 3.6 60 09:39 07.01.2020
1245 Clouds 13 1029 71 10000 6.2 80 09:20 07.01.2020
1246 Clouds 13 1029 71 10000 6.2 80 09:20 07.01.2020
1247 Clouds 13 1028 71 10000 6.7 70 08:47 07.01.2020
1248 Clouds 13 1028 66 10000 8.7 70 08:28 07.01.2020
1249 Clouds 12 1028 71 10000 4.1 80 07:55 07.01.2020
1250 Clouds 12 1028 71 10000 1.5 0 07:35 07.01.2020
1251 Clouds 12 1028 66 10000 2.1 30 06:54 07.01.2020
1252 Clouds 12 1028 71 10000 3.1 100 06:35 07.01.2020
1253 Clouds 13 1028 76 10000 1.5 80 05:58 07.01.2020
1254 Clouds 13 1028 76 10000 1.5 110 05:39 07.01.2020
1255 Clouds 13 1028 71 10000 3.1 60 03:44 07.01.2020
1256 Clouds 13 1028 66 10000 4.6 70 02:38 07.01.2020
1257 Clear 13 1030 76 10000 7.7 80 01:59 07.01.2020
1258 Clear 13 1029 81 0 1 0 01:34 07.01.2020
1259 Clouds 14 1028 62 10000 5.7 80 00:40 07.01.2020
1260 Clouds 14 1028 62 10000 5.7 80 00:20 07.01.2020
1261 Clouds 13 1028 71 10000 5.7 80 23:55 06.01.2020
1262 Clouds 14 1028 66 10000 7.7 70 23:36 06.01.2020
1263 Clouds 14 1028 66 10000 7.7 70 23:18 06.01.2020
1264 Clouds 14 1028 66 10000 7.7 70 23:18 06.01.2020
1265 Clouds 14 1028 66 10000 6.2 70 22:43 06.01.2020
1266 Clouds 14 1028 66 10000 6.2 70 22:23 06.01.2020
1267 Clouds 14 1028 62 10000 5.1 60 21:58 06.01.2020
1268 Clouds 14 1027 62 10000 6.2 60 21:39 06.01.2020
1269 Clouds 14 1027 62 10000 6.2 60 21:20 06.01.2020
1270 Clouds 14 1027 62 10000 6.2 60 21:20 06.01.2020
1271 Clouds 14 1027 66 10000 3.6 40 20:56 06.01.2020
1272 Clouds 14 1027 66 10000 4.6 60 20:38 06.01.2020
1273 Clouds 14 1027 62 10000 5.1 70 20:20 06.01.2020
1274 Clouds 14 1027 62 10000 5.1 70 19:56 06.01.2020
1275 Clouds 14 1027 62 10000 5.1 70 19:56 06.01.2020
1276 Clouds 14 1027 62 10000 5.1 70 19:37 06.01.2020
1277 Clouds 14 1027 62 10000 5.1 70 19:19 06.01.2020
1278 Clouds 14 1027 62 10000 5.1 70 19:19 06.01.2020
1279 Clouds 15 1026 62 10000 6.7 60 18:46 06.01.2020
1280 Clouds 15 1026 58 10000 7.2 70 18:21 06.01.2020
1281 Clouds 15 1026 55 10000 7.7 70 17:57 06.01.2020
1282 Clouds 15 1028 72 10000 6.7 90 17:37 06.01.2020
1283 Clouds 15 1026 55 10000 7.2 80 17:18 06.01.2020
1284 Clouds 16 1026 51 10000 7.2 80 16:44 06.01.2020
1285 Clouds 16 1026 51 10000 6.7 60 16:24 06.01.2020
1286 Clouds 16 1028 72 10000 6.2 90 15:59 06.01.2020
1287 Clouds 16 1028 72 10000 7.2 80 15:38 06.01.2020
1288 Clouds 16 1026 55 10000 6.7 70 15:18 06.01.2020
1289 Clouds 17 1028 72 10000 6.2 80 14:42 06.01.2020
1290 Clouds 17 1027 55 10000 4.1 90 14:23 06.01.2020
1291 Clouds 17 1028 55 10000 3.1 80 13:59 06.01.2020
1292 Clouds 17 1028 59 10000 4.6 100 13:40 06.01.2020
1293 Clouds 16 1028 59 10000 4.6 100 13:21 06.01.2020
1294 Clouds 16 1028 55 10000 5.1 90 12:58 06.01.2020
1295 Clouds 16 1029 77 10000 7.2 80 12:39 06.01.2020
1296 Clouds 16 1028 59 10000 5.7 90 12:20 06.01.2020
1297 Clouds 17 1028 63 10000 4.6 80 11:43 06.01.2020
1298 Clouds 15 1028 72 10000 2.6 90 11:24 06.01.2020
1299 Clouds 14 1028 76 10000 3.6 80 10:59 06.01.2020
1300 Clouds 14 1029 77 10000 8.2 80 10:41 06.01.2020
1301 Clouds 14 1028 81 10000 2.6 90 10:21 06.01.2020
1302 Clouds 13 1028 87 10000 3.1 90 09:42 06.01.2020
1303 Clouds 13 1027 87 7000 3.1 90 09:23 06.01.2020
1304 Clouds 13 1027 87 7000 3.1 90 08:55 06.01.2020
1305 Clouds 13 1027 87 7000 3.1 90 08:37 06.01.2020
1306 Clouds 13 1028 77 10000 6.7 70 07:58 06.01.2020
1307 Clouds 13 1026 87 10000 3.1 90 07:39 06.01.2020
1308 Clouds 13 1026 87 10000 4.6 80 06:51 06.01.2020
1309 Clouds 13 1026 87 10000 4.1 80 06:32 06.01.2020
1310 Clouds 13 1026 87 7000 3.6 90 05:48 06.01.2020
1311 Clouds 13 1027 82 10000 6.7 50 04:58 06.01.2020
1312 Clouds 13 1026 87 10000 3.6 100 04:22 06.01.2020
1313 Clouds 13 1025 81 10000 3.6 90 03:26 06.01.2020
1314 Clouds 13 1025 81 10000 3.6 80 02:26 06.01.2020
1315 Clouds 14 1025 81 10000 3.6 80 01:49 06.01.2020
1316 Clouds 14 1026 76 10000 4.1 90 01:29 06.01.2020
1317 Clouds 13 1026 76 10000 3.6 90 00:45 06.01.2020
1318 Clouds 13 1026 76 10000 3.1 100 00:26 06.01.2020
1319 Clouds 13 1026 76 10000 3.6 90 23:57 05.01.2020
1320 Clouds 14 1025 71 10000 4.6 90 23:37 05.01.2020
1321 Clouds 14 1025 71 10000 4.6 90 23:19 05.01.2020
1322 Clouds 13 1025 71 10000 4.1 90 22:40 05.01.2020
1323 Clouds 14 1025 71 10000 4.1 90 22:20 05.01.2020
1324 Clouds 14 1025 66 10000 4.6 80 21:56 05.01.2020
1325 Clouds 14 1025 66 10000 5.1 80 21:38 05.01.2020
1326 Clouds 14 1025 66 10000 5.1 80 21:20 05.01.2020
1327 Clouds 14 1025 66 10000 5.7 80 20:56 05.01.2020
1328 Clouds 14 1025 66 10000 5.7 80 20:38 05.01.2020
1329 Clouds 14 1025 66 10000 5.7 80 20:19 05.01.2020
1330 Clouds 15 1025 62 10000 6.7 80 19:57 05.01.2020
1331 Clouds 15 1027 62 10000 7.2 80 19:38 05.01.2020
1332 Clouds 15 1025 62 10000 6.2 80 19:19 05.01.2020
1333 Clouds 15 1025 62 10000 5.7 80 18:55 05.01.2020
1334 Clouds 15 1027 72 10000 8.2 90 18:36 05.01.2020
1335 Clouds 15 1025 58 10000 7.7 80 18:18 05.01.2020
1336 Clouds 15 1027 77 10000 9.3 80 17:57 05.01.2020
1337 Clouds 15 1027 77 10000 9.3 80 17:37 05.01.2020
1338 Clouds 15 1025 55 10000 8.2 80 17:19 05.01.2020
1339 Clouds 15 1025 55 10000 8.2 80 17:19 05.01.2020
1340 Clouds 17 1025 55 10000 7.7 70 16:55 05.01.2020
1341 Clouds 17 1027 77 10000 7.7 80 16:37 05.01.2020
1342 Clouds 17 1027 72 10000 8.2 80 16:19 05.01.2020
1343 Clouds 17 1025 51 10000 7.2 70 16:19 05.01.2020
1344 Clouds 17 1027 72 10000 8.7 80 15:37 05.01.2020
1345 Clouds 17 1025 48 10000 6.7 80 15:18 05.01.2020
1346 Clouds 17 1025 48 10000 6.2 80 14:55 05.01.2020
1347 Clouds 17 1027 72 10000 9.3 80 14:36 05.01.2020
1348 Clouds 16 1026 48 10000 5.7 80 14:18 05.01.2020
1349 Clouds 17 1027 52 10000 5.7 80 13:40 05.01.2020
1350 Clouds 17 1027 52 10000 5.7 80 13:40 05.01.2020
1351 Clouds 17 1027 52 10000 5.7 80 13:21 05.01.2020
1352 Clouds 17 1027 55 10000 6.2 80 12:58 05.01.2020
1353 Clouds 17 1029 77 10000 8.7 80 12:39 05.01.2020
1354 Clouds 17 1027 55 10000 5.7 80 12:21 05.01.2020
1355 Clouds 17 1028 59 10000 5.7 80 11:55 05.01.2020
1356 Clouds 17 1029 67 10000 8.7 90 11:37 05.01.2020
1357 Clouds 16 1028 59 10000 4.1 70 11:19 05.01.2020
1358 Clouds 15 1027 62 10000 4.1 70 10:55 05.01.2020
1359 Clouds 14 1029 77 10000 8.7 90 10:36 05.01.2020
1360 Clouds 14 1029 77 10000 8.7 90 10:36 05.01.2020
1361 Clouds 14 1027 71 10000 4.1 60 10:18 05.01.2020
1362 Clouds 14 1028 77 10000 8.7 90 09:41 05.01.2020
1363 Clouds 14 1027 76 10000 2.6 70 09:21 05.01.2020
1364 Clouds 14 1027 76 10000 3.1 80 08:45 05.01.2020
1365 Clouds 13 1027 81 10000 3.1 70 08:26 05.01.2020
1366 Clouds 14 1027 81 10000 3.1 90 07:55 05.01.2020
1367 Clouds 14 1027 81 10000 2.1 90 07:32 05.01.2020
1368 Clouds 14 1027 87 10000 3.1 100 06:57 05.01.2020
1369 Clouds 13 1027 81 10000 3.1 80 05:53 05.01.2020
1370 Clouds 13 1027 76 10000 3.1 100 05:28 05.01.2020
1371 Clouds 13 1027 81 10000 3.6 80 04:24 05.01.2020
1372 Clouds 14 1027 81 10000 3.6 80 03:47 05.01.2020
1373 Clouds 14 1027 81 10000 4.6 80 02:43 05.01.2020
1374 Rain 14 1028 76 10000 4.6 80 02:20 05.01.2020
1375 Rain 14 1028 76 10000 3.6 90 01:39 05.01.2020
1376 Rain 14 1028 76 10000 3.6 90 01:18 05.01.2020
1377 Rain 14 1029 81 10000 3.1 90 00:40 05.01.2020
1378 Rain 14 1029 81 10000 3.1 90 00:21 05.01.2020
1379 Rain 14 1030 82 10000 10.8 90 23:59 04.01.2020
1380 Rain 14 1029 76 10000 2.1 100 23:39 04.01.2020
1381 Clouds 14 1029 76 10000 2.1 100 23:18 04.01.2020
1382 Clouds 14 1028 76 10000 4.6 70 22:39 04.01.2020
1383 Clouds 14 1028 76 10000 4.6 70 22:39 04.01.2020
1384 Clouds 14 1028 76 10000 4.6 70 22:21 04.01.2020
1385 Clouds 14 1028 76 10000 4.1 70 21:57 04.01.2020
1386 Clouds 14 1028 76 10000 4.1 70 21:57 04.01.2020
1387 Clouds 14 1028 87 10000 2.6 60 21:38 04.01.2020
1388 Clouds 14 1028 87 10000 2.6 60 21:19 04.01.2020
1389 Clouds 13 1029 87 10000 2.6 40 20:56 04.01.2020
1390 Clouds 13 1029 87 10000 2.1 20 20:37 04.01.2020
1391 Clouds 13 1029 87 10000 2.1 20 20:19 04.01.2020
1392 Clouds 13 1029 76 10000 2.1 10 19:42 04.01.2020
1393 Clouds 13 1029 76 10000 2.1 10 19:42 04.01.2020
1394 Clouds 13 1029 76 10000 2.1 10 19:23 04.01.2020
1395 Clouds 14 1029 66 10000 1.5 340 18:58 04.01.2020
1396 Clouds 14 1029 71 10000 2.1 320 18:39 04.01.2020
1397 Clouds 14 1029 71 10000 2.1 320 18:20 04.01.2020
1398 Clouds 15 1030 67 10000 6.2 90 17:58 04.01.2020
1399 Clouds 15 1030 63 10000 3.6 90 17:40 04.01.2020
1400 Clouds 15 1029 62 10000 2.6 320 17:21 04.01.2020
1401 Clouds 15 1029 62 10000 2.6 280 16:42 04.01.2020
1402 Clouds 15 1029 62 10000 3.1 300 16:24 04.01.2020
1403 Clouds 15 1029 62 10000 3.1 300 16:24 04.01.2020
1404 Clouds 16 1029 55 10000 2.1 100 15:57 04.01.2020
1405 Clouds 15 1029 58 10000 2.6 100 15:39 04.01.2020
1406 Clouds 15 1029 58 10000 2.6 100 15:39 04.01.2020
1407 Clouds 15 1029 55 10000 2.6 260 15:19 04.01.2020
1408 Clouds 17 1030 62 10000 2.1 80 14:57 04.01.2020
1409 Clouds 18 1030 62 10000 2.1 80 14:39 04.01.2020
1410 Clouds 16 1030 55 10000 2.6 280 14:19 04.01.2020
1411 Clouds 16 1031 55 10000 2.1 0 13:55 04.01.2020
1412 Clouds 16 1031 67 10000 2.1 90 13:36 04.01.2020
1413 Clouds 16 1031 59 10000 1.5 280 13:18 04.01.2020
1414 Clouds 16 1031 63 9000 1 0 12:41 04.01.2020
1415 Clouds 16 1032 67 9000 0.5 0 12:20 04.01.2020
1416 Clouds 15 1032 82 10000 1 250 11:58 04.01.2020
1417 Clouds 14 1032 81 10000 1 240 11:40 04.01.2020
1418 Clouds 12 1032 81 10000 2.1 80 11:19 04.01.2020
1419 Clouds 11 1032 81 7000 2.6 80 10:55 04.01.2020
1420 Clouds 11 1032 81 7000 2.6 80 10:55 04.01.2020
1421 Clouds 10 1032 81 10000 1 270 10:36 04.01.2020
1422 Clouds 10 1031 93 7000 2.6 90 10:18 04.01.2020
1423 Mist 9 1031 87 4500 2.6 90 09:41 04.01.2020
1424 Mist 9 1031 87 3000 3.1 90 09:22 04.01.2020
1425 Clouds 8 1031 93 6000 2.6 90 08:42 04.01.2020
1426 Clouds 9 1031 87 8000 2.6 80 08:21 04.01.2020
1427 Clouds 9 1031 87 8000 2.6 90 07:44 04.01.2020
1428 Clouds 9 1031 87 8000 2.6 90 07:21 04.01.2020
1429 Clouds 10 1030 81 10000 2.6 270 06:33 04.01.2020
1430 Clouds 12 1031 76 10000 3.1 270 05:39 04.01.2020
1431 Clouds 10 1031 87 8000 2.6 80 04:44 04.01.2020
1432 Clouds 10 1031 87 8000 2.6 80 04:25 04.01.2020
1433 Clouds 11 1032 93 8000 3.1 90 03:19 04.01.2020
1434 Clouds 11 1032 93 10000 2.1 80 02:23 04.01.2020
1435 Clouds 12 1032 87 10000 2.1 100 01:56 04.01.2020
1436 Clouds 11 1032 87 10000 1.5 120 01:32 04.01.2020
1437 Clouds 12 1032 81 10000 1 0 00:46 04.01.2020
1438 Clouds 12 1032 76 10000 1 0 00:27 04.01.2020
1439 Clouds 12 1032 76 10000 1 0 23:48 03.01.2020
1440 Clouds 12 1033 76 10000 2.1 330 23:26 03.01.2020
1441 Clouds 12 1032 81 10000 1.5 350 22:54 03.01.2020
1442 Clouds 12 1032 81 10000 1.5 350 22:36 03.01.2020
1443 Clouds 12 1032 81 10000 1.5 350 22:18 03.01.2020
1444 Clouds 13 1032 87 10000 1.5 360 21:54 03.01.2020
1445 Clouds 13 1032 81 10000 1 20 21:36 03.01.2020
1446 Clouds 13 1032 81 10000 1 20 21:18 03.01.2020
1447 Clouds 13 1032 76 10000 0.5 0 20:42 03.01.2020
1448 Clouds 13 1032 71 10000 1.5 330 20:19 03.01.2020
1449 Clouds 14 1031 72 10000 4.1 280 19:57 03.01.2020
1450 Clouds 15 1031 72 10000 4.1 280 19:39 03.01.2020
1451 Clouds 15 1032 67 10000 3.1 300 19:21 03.01.2020
1452 Clouds 15 1030 72 10000 5.1 270 18:44 03.01.2020
1453 Clouds 15 1030 72 10000 5.1 270 18:44 03.01.2020
1454 Clouds 15 1032 67 10000 3.6 310 18:26 03.01.2020
1455 Clouds 16 1032 62 8000 3.6 310 17:57 03.01.2020
1456 Clouds 16 1030 67 10000 5.1 270 17:38 03.01.2020
1457 Clouds 17 1031 63 8000 3.6 310 17:19 03.01.2020
1458 Clouds 17 1031 59 8000 4.6 290 16:42 03.01.2020
1459 Clouds 17 1031 59 8000 3.6 300 16:24 03.01.2020
1460 Clouds 17 1030 67 10000 2.6 200 15:58 03.01.2020
1461 Clouds 17 1030 67 10000 2.6 200 15:39 03.01.2020
1462 Clouds 17 1031 67 8000 2.6 290 15:18 03.01.2020
1463 Clouds 17 1031 72 10000 3.6 200 14:39 03.01.2020
1464 Clouds 17 1032 72 8000 2.1 330 14:19 03.01.2020
1465 Clouds 16 1032 67 10000 2.6 210 13:44 03.01.2020
1466 Clouds 16 1032 72 8000 3.1 270 13:24 03.01.2020
1467 Clouds 15 1032 72 10000 2.1 150 13:00 03.01.2020
1468 Clouds 16 1033 67 10000 0.5 190 12:39 03.01.2020
1469 Clouds 16 1033 72 8000 2.1 80 12:21 03.01.2020
1470 Clouds 13 1033 72 8000 1.5 100 11:47 03.01.2020
1471 Clouds 13 1033 76 8000 1 0 11:23 03.01.2020
1472 Clouds 11 1033 82 6000 1 0 10:47 03.01.2020
1473 Clouds 10 1033 81 10000 1.5 250 10:27 03.01.2020
1474 Clouds 9 1033 81 10000 2.1 250 09:58 03.01.2020
1475 Clouds 9 1032 81 10000 2.6 250 09:40 03.01.2020
1476 Clouds 9 1032 93 6000 2.1 100 09:22 03.01.2020
1477 Clouds 9 1032 81 10000 2.6 240 08:57 03.01.2020
1478 Clouds 10 1032 82 10000 2.1 240 08:38 03.01.2020
1479 Clouds 9 1032 82 10000 1 250 08:19 03.01.2020
1480 Clear 10 1031 93 10000 1.5 60 07:40 03.01.2020
1481 Clear 10 1031 93 10000 1.5 60 07:19 03.01.2020
1482 Clear 10 1031 93 10000 2.1 70 06:50 03.01.2020
1483 Clear 11 1031 93 10000 2.1 80 06:32 03.01.2020
1484 Clear 10 1031 93 10000 2.1 70 05:46 03.01.2020
1485 Clouds 10 1031 93 10000 2.6 70 04:24 03.01.2020
1486 Clouds 11 1031 87 10000 2.6 80 02:57 03.01.2020
1487 Clouds 11 1031 87 10000 3.1 90 02:33 03.01.2020
1488 Clear 10 1031 87 10000 2.1 80 01:44 03.01.2020
1489 Clear 11 1031 87 10000 2.1 70 00:50 03.01.2020
1490 Clear 11 1031 81 10000 2.1 70 00:31 03.01.2020
1491 Clear 11 1031 87 10000 2.1 70 23:57 02.01.2020
1492 Clear 11 1031 87 10000 2.6 70 23:38 02.01.2020
1493 Clear 9 1031 87 10000 2.6 70 23:19 02.01.2020
1494 Clear 12 1031 87 10000 2.6 80 22:57 02.01.2020
1495 Clear 12 1031 81 10000 3.1 80 22:38 02.01.2020
1496 Clear 12 1031 81 10000 3.1 80 22:18 02.01.2020
1497 Clear 12 1031 81 10000 3.1 80 21:41 02.01.2020
1498 Clear 13 1031 76 10000 3.1 80 21:23 02.01.2020
1499 Clear 12 1030 87 10000 3.6 80 20:59 02.01.2020
1500 Clouds 13 1031 77 10000 4.6 90 20:39 02.01.2020
1501 Clouds 13 1030 81 10000 3.1 80 20:21 02.01.2020
1502 Clouds 14 1030 76 10000 2.1 90 19:56 02.01.2020
1503 Clouds 14 1030 76 10000 2.1 90 19:56 02.01.2020
1504 Clouds 14 1030 76 10000 2.1 90 19:56 02.01.2020
1505 Clouds 14 1031 77 10000 4.1 90 19:37 02.01.2020
1506 Clouds 14 1030 76 10000 2.6 80 19:19 02.01.2020
1507 Clouds 15 1031 77 10000 3.6 80 18:57 02.01.2020
1508 Clouds 15 1031 77 10000 3.6 80 18:38 02.01.2020
1509 Clouds 15 1030 77 10000 4.6 50 18:20 02.01.2020
1510 Clouds 16 1031 77 10000 3.6 80 17:56 02.01.2020
1511 Clouds 16 1031 77 10000 3.6 80 17:37 02.01.2020
1512 Clouds 17 1029 67 10000 4.1 40 17:18 02.01.2020
1513 Clouds 17 1031 72 10000 4.1 80 16:56 02.01.2020
1514 Clouds 17 1031 72 10000 4.1 80 16:38 02.01.2020
1515 Clouds 16 1029 59 10000 2.1 260 16:19 02.01.2020
1516 Clouds 17 1030 67 10000 2.1 280 15:45 02.01.2020
1517 Clouds 17 1030 63 10000 2.6 260 15:24 02.01.2020
1518 Clouds 17 1030 59 10000 3.1 260 14:58 02.01.2020
1519 Clouds 18 1031 77 10000 5.1 60 14:38 02.01.2020
1520 Clouds 17 1030 52 10000 1.5 120 14:20 02.01.2020
1521 Clouds 16 1032 77 10000 4.6 50 13:58 02.01.2020
1522 Clouds 16 1032 77 10000 4.6 50 13:39 02.01.2020
1523 Clouds 16 1031 59 10000 4.1 90 13:18 02.01.2020
1524 Clouds 16 1033 77 10000 4.6 50 12:42 02.01.2020
1525 Clouds 16 1032 67 10000 4.1 100 12:21 02.01.2020
1526 Clouds 16 1033 67 10000 4.6 80 11:42 02.01.2020
1527 Clouds 15 1032 76 10000 3.6 100 11:22 02.01.2020
1528 Clouds 14 1032 67 10000 5.1 80 10:46 02.01.2020
1529 Clouds 13 1032 67 10000 5.1 80 10:28 02.01.2020
1530 Clouds 12 1031 93 10000 3.6 80 09:58 02.01.2020
1531 Clouds 12 1030 93 10000 4.1 80 09:35 02.01.2020
1532 Clouds 12 1031 67 10000 4.6 100 08:59 02.01.2020
1533 Clouds 12 1031 67 10000 4.6 100 08:39 02.01.2020
1534 Clouds 12 1030 87 10000 4.1 90 08:19 02.01.2020
1535 Clouds 12 1030 93 10000 3.6 80 07:47 02.01.2020
1536 Clouds 12 1029 87 10000 3.6 80 07:26 02.01.2020
1537 Clouds 12 1029 87 10000 3.6 80 06:41 02.01.2020
1538 Clouds 11 1029 87 9000 3.6 80 05:40 02.01.2020
1539 Clouds 11 1029 87 10000 3.1 90 04:35 02.01.2020
1540 Clouds 10 1029 87 10000 3.1 80 03:44 02.01.2020
1541 Clear 10 1030 87 10000 2.6 80 02:21 02.01.2020
1542 Clear 10 1030 87 10000 2.6 70 01:53 02.01.2020
1543 Clear 10 1030 87 10000 2.6 70 01:53 02.01.2020
1544 Clear 10 1030 81 10000 2.6 90 01:25 02.01.2020
1545 Clear 11 1030 87 10000 3.1 90 00:45 02.01.2020
1546 Clear 11 1030 87 10000 3.1 70 00:26 02.01.2020
1547 Clear 11 1030 87 10000 3.1 70 23:43 01.01.2020
1548 Clear 11 1031 87 10000 3.1 90 23:21 01.01.2020
1549 Clear 11 1030 87 10000 2.6 90 22:39 01.01.2020
1550 Clear 11 1030 87 10000 2.6 90 22:39 01.01.2020
1551 Clear 11 1030 87 10000 2.6 90 22:39 01.01.2020
1552 Clear 12 1030 87 10000 2.6 90 22:20 01.01.2020
1553 Clear 12 1030 87 10000 2.6 90 22:20 01.01.2020
1554 Clear 12 1030 87 10000 2.6 70 21:58 01.01.2020
1555 Clear 12 1030 81 10000 2.6 100 21:39 01.01.2020
1556 Clear 12 1030 81 10000 2.6 100 21:20 01.01.2020
1557 Clear 12 1030 81 10000 2.6 80 20:57 01.01.2020
1558 Clear 13 1030 82 10000 1.5 120 20:38 01.01.2020
1559 Clouds 13 1030 82 10000 1.5 120 20:20 01.01.2020
1560 Clouds 13 1030 82 10000 3.1 50 19:56 01.01.2020
1561 Clouds 14 1030 76 10000 1 70 19:37 01.01.2020
1562 Clouds 14 1030 76 10000 1 70 19:19 01.01.2020
1563 Clouds 15 1030 76 10000 2.1 50 18:56 01.01.2020
1564 Clouds 15 1030 77 10000 2.6 30 18:37 01.01.2020
1565 Clouds 15 1030 77 10000 2.6 30 18:37 01.01.2020
1566 Clouds 15 1030 77 10000 2.6 30 18:19 01.01.2020
1567 Clouds 16 1031 77 10000 2.6 80 17:57 01.01.2020
1568 Clouds 16 1031 77 10000 3.1 90 17:39 01.01.2020
1569 Clouds 17 1029 67 10000 3.1 40 17:19 01.01.2020
1570 Clouds 18 1031 67 10000 3.1 100 16:56 01.01.2020
1571 Clouds 18 1031 67 10000 3.1 100 16:37 01.01.2020
1572 Clouds 17 1029 63 10000 3.1 30 16:18 01.01.2020
1573 Clouds 18 1030 72 10000 3.6 90 15:54 01.01.2020
1574 Clouds 18 1030 72 10000 3.6 90 15:36 01.01.2020
1575 Clouds 17 1029 59 10000 1.5 0 15:18 01.01.2020
1576 Clouds 18 1030 52 10000 2.1 100 14:41 01.01.2020
1577 Clouds 18 1030 52 10000 2.1 100 14:22 01.01.2020
1578 Clouds 17 1030 52 10000 3.6 100 13:56 01.01.2020
1579 Clouds 18 1030 52 10000 3.6 100 13:56 01.01.2020
1580 Clouds 18 1030 52 10000 3.6 100 13:56 01.01.2020
1581 Clouds 17 1032 77 10000 5.1 90 13:37 01.01.2020
1582 Clouds 17 1031 55 10000 4.6 100 13:19 01.01.2020
1583 Clouds 17 1032 77 10000 5.1 70 12:57 01.01.2020
1584 Clouds 17 1032 72 10000 5.1 90 12:39 01.01.2020
1585 Clouds 17 1031 63 10000 4.6 100 12:19 01.01.2020
1586 Clouds 17 1031 63 10000 4.6 100 12:19 01.01.2020
1587 Clouds 16 1031 63 10000 3.6 90 11:56 01.01.2020
1588 Clouds 16 1033 72 10000 4.6 80 11:37 01.01.2020
1589 Clouds 15 1031 72 10000 4.6 80 11:18 01.01.2020
1590 Clouds 14 1031 71 10000 4.6 80 10:41 01.01.2020
1591 Clouds 14 1031 76 10000 4.6 90 10:21 01.01.2020
1592 Clouds 14 1032 67 10000 5.7 80 09:59 01.01.2020
1593 Clouds 13 1032 67 10000 5.7 80 09:38 01.01.2020
1594 Clouds 13 1030 81 10000 4.6 90 09:19 01.01.2020
1595 Clouds 13 1030 81 10000 4.1 80 08:55 01.01.2020
1596 Clouds 13 1029 81 10000 3.6 90 08:37 01.01.2020
1597 Clouds 13 1029 81 10000 3.6 90 08:18 01.01.2020
1598 Clouds 13 1029 81 10000 3.6 90 07:54 01.01.2020
1599 Clouds 13 1029 81 10000 4.1 90 07:36 01.01.2020
1600 Clouds 13 1029 81 10000 3.6 90 06:45 01.01.2020
1601 Clouds 14 1028 76 10000 4.6 90 06:21 01.01.2020
1602 Clouds 14 1028 76 10000 5.1 90 05:22 01.01.2020
1603 Clouds 14 1028 76 10000 6.2 80 03:45 01.01.2020
1604 Clouds 14 1028 76 10000 7.2 80 03:23 01.01.2020
1605 Clouds 14 1028 81 10000 6.2 90 02:57 01.01.2020
1606 Clouds 14 1029 76 10000 6.2 80 02:35 01.01.2020
1607 Clouds 14 1029 76 10000 6.2 80 01:56 01.01.2020
1608 Clouds 14 1029 76 10000 6.7 80 01:38 01.01.2020
1609 Clouds 14 1029 76 10000 6.7 80 01:19 01.01.2020
1610 Clouds 14 1029 71 10000 5.7 80 00:44 01.01.2020
1611 Clouds 14 1029 71 10000 6.2 80 00:25 01.01.2020
1612 Clouds 14 1029 71 10000 7.7 80 23:41 31.12.2019
1613 Clouds 14 1029 71 10000 7.7 80 23:21 31.12.2019
1614 Clouds 14 1029 67 10000 8.2 80 22:57 31.12.2019
1615 Clouds 14 1029 67 10000 7.7 80 22:39 31.12.2019
1616 Clouds 14 1029 67 10000 7.7 80 22:20 31.12.2019
1617 Clouds 14 1029 67 10000 8.2 80 21:57 31.12.2019
1618 Clouds 14 1028 67 10000 8.7 80 21:38 31.12.2019
1619 Clouds 14 1028 67 10000 8.7 80 21:20 31.12.2019
1620 Clouds 14 1028 67 10000 8.7 80 20:55 31.12.2019
1621 Clouds 14 1028 67 10000 9.3 80 20:36 31.12.2019
1622 Clouds 14 1028 67 10000 9.3 80 20:18 31.12.2019
1623 Clouds 14 1031 82 10000 7.7 80 19:42 31.12.2019
1624 Clouds 14 1028 62 10000 8.2 90 19:24 31.12.2019
1625 Clouds 15 1031 82 10000 8.7 80 18:59 31.12.2019
1626 Clouds 15 1031 77 10000 9.3 80 18:40 31.12.2019
1627 Clouds 15 1027 58 10000 8.7 80 18:20 31.12.2019
1628 Clouds 15 1030 77 10000 10.3 90 17:56 31.12.2019
1629 Clouds 16 1030 77 10000 10.3 90 17:38 31.12.2019
1630 Clouds 17 1027 55 10000 10.3 80 17:19 31.12.2019
1631 Clouds 17 1030 82 10000 12.3 80 16:57 31.12.2019
1632 Clouds 17 1030 82 10000 9.8 90 16:38 31.12.2019
1633 Clouds 17 1027 55 10000 9.8 80 16:19 31.12.2019
1634 Clouds 17 1030 82 10000 8.7 70 15:56 31.12.2019
1635 Clouds 17 1030 82 10000 8.7 70 15:38 31.12.2019
1636 Clouds 17 1030 82 10000 8.7 70 15:38 31.12.2019
1637 Clouds 17 1027 52 10000 11.3 70 15:20 31.12.2019
1638 Clouds 17 1030 82 10000 8.2 70 14:57 31.12.2019
1639 Clouds 17 1031 82 10000 8.7 70 14:38 31.12.2019
1640 Clouds 16 1027 55 10000 12.3 80 14:19 31.12.2019
1641 Clouds 16 1031 82 10000 9.3 70 13:57 31.12.2019
1642 Clouds 16 1031 82 10000 9.3 70 13:39 31.12.2019
1643 Clouds 16 1028 55 10000 10.3 90 13:20 31.12.2019
1644 Clouds 16 1029 55 10000 10.8 80 12:56 31.12.2019
1645 Clouds 16 1029 55 10000 10.8 80 12:56 31.12.2019
1646 Clouds 17 1032 82 10000 8.2 70 12:38 31.12.2019
1647 Clouds 17 1029 55 10000 8.7 80 12:19 31.12.2019
1648 Clouds 17 1029 55 10000 8.7 80 12:19 31.12.2019
1649 Clouds 17 1029 55 10000 8.7 80 12:19 31.12.2019
1650 Clouds 17 1029 55 10000 9.8 80 11:56 31.12.2019
1651 Clouds 17 1029 55 10000 9.8 80 11:56 31.12.2019
1652 Clouds 17 1032 82 10000 9.3 70 11:37 31.12.2019
1653 Clouds 16 1029 59 10000 10.8 80 11:19 31.12.2019
1654 Clouds 15 1028 62 10000 13.4 80 10:57 31.12.2019
1655 Clouds 15 1028 62 10000 13.4 80 10:57 31.12.2019
1656 Clouds 15 1032 82 10000 8.2 70 10:37 31.12.2019
1657 Clouds 15 1028 58 10000 11.8 80 10:19 31.12.2019
1658 Clouds 14 1028 58 10000 9.8 90 09:58 31.12.2019
1659 Clouds 13 1031 82 10000 9.3 70 09:38 31.12.2019
1660 Clouds 14 1027 62 10000 7.7 90 09:19 31.12.2019
1661 Clouds 14 1027 62 10000 9.8 90 08:43 31.12.2019
1662 Clouds 14 1026 62 10000 10.3 80 08:24 31.12.2019
1663 Clouds 13 1030 77 10000 8.2 80 07:59 31.12.2019
1664 Clouds 13 1026 62 10000 11.3 80 07:41 31.12.2019
1665 Clouds 13 1026 62 10000 11.3 80 07:19 31.12.2019
1666 Clouds 13 1026 62 10000 11.3 80 06:42 31.12.2019
1667 Clouds 14 1026 67 10000 8.7 80 05:54 31.12.2019
1668 Clouds 14 1027 67 10000 8.2 80 04:27 31.12.2019
1669 Clouds 14 1027 67 10000 8.2 80 03:27 31.12.2019
1670 Clouds 14 1027 67 10000 7.7 80 02:39 31.12.2019
1671 Clouds 14 1027 67 10000 8.2 80 01:53 31.12.2019
1672 Clouds 14 1027 67 10000 8.7 80 01:34 31.12.2019
1673 Clouds 14 1027 62 10000 9.3 80 00:56 31.12.2019
1674 Clouds 14 1028 62 10000 9.8 80 00:37 31.12.2019
1675 Clouds 14 1028 62 10000 9.8 80 00:18 31.12.2019
1676 Clouds 15 1027 62 10000 9.8 80 23:55 30.12.2019
1677 Clouds 15 1027 67 10000 9.8 80 23:37 30.12.2019
1678 Clouds 15 1027 67 10000 9.8 80 23:18 30.12.2019
1679 Clouds 15 1028 67 10000 9.8 80 22:55 30.12.2019
1680 Clouds 15 1027 67 10000 11.3 80 22:37 30.12.2019
1681 Clouds 15 1027 67 10000 11.3 80 22:18 30.12.2019
1682 Clouds 15 1027 67 10000 10.8 80 21:55 30.12.2019
1683 Clouds 15 1027 62 10000 10.3 80 21:37 30.12.2019
1684 Clouds 15 1027 62 10000 10.3 80 21:18 30.12.2019
1685 Clouds 15 1027 67 10000 11.3 80 20:54 30.12.2019
1686 Clouds 15 1027 62 10000 10.8 80 20:36 30.12.2019
1687 Clouds 15 1027 62 10000 10.8 80 20:18 30.12.2019
1688 Clouds 15 1027 62 10000 10.3 80 19:55 30.12.2019
1689 Clouds 15 1027 62 10000 10.3 80 19:36 30.12.2019
1690 Clouds 15 1027 62 10000 10.3 80 19:18 30.12.2019
1691 Clouds 15 1027 62 10000 10.8 80 18:41 30.12.2019
1692 Clouds 15 1027 62 10000 10.8 80 18:21 30.12.2019
1693 Clouds 16 1030 82 10000 12.3 80 17:59 30.12.2019
1694 Clouds 16 1030 72 10000 9.3 80 17:40 30.12.2019
1695 Clouds 17 1027 55 10000 10.8 80 17:19 30.12.2019
1696 Clouds 17 1030 67 10000 9.3 90 16:59 30.12.2019
1697 Clouds 16 1030 67 10000 9.8 90 16:39 30.12.2019
1698 Clouds 16 1027 55 10000 12.3 80 16:20 30.12.2019
1699 Clouds 17 1030 67 10000 10.3 90 15:56 30.12.2019
1700 Clouds 18 1030 67 10000 10.3 90 15:38 30.12.2019
1701 Clouds 17 1027 55 10000 11.8 80 15:19 30.12.2019
1702 Clouds 17 1027 52 10000 9.8 80 14:43 30.12.2019
1703 Clouds 16 1027 52 10000 9.8 80 14:21 30.12.2019
1704 Clouds 16 1030 77 10000 9.8 80 13:59 30.12.2019
1705 Clouds 16 1030 77 10000 9.8 80 13:59 30.12.2019
1706 Clouds 17 1031 72 10000 11.3 80 13:40 30.12.2019
1707 Clouds 16 1028 51 10000 13.4 80 13:22 30.12.2019
1708 Clouds 16 1031 72 10000 10.8 80 12:57 30.12.2019
1709 Clouds 17 1032 72 10000 10.8 80 12:37 30.12.2019
1710 Clouds 17 1028 55 10000 11.3 80 12:18 30.12.2019
1711 Clouds 16 1032 82 10000 10.8 80 11:45 30.12.2019
1712 Clouds 15 1028 55 10000 10.8 80 11:22 30.12.2019
1713 Clouds 15 1032 77 10000 11.3 80 10:59 30.12.2019
1714 Clouds 15 1031 77 10000 11.3 80 10:40 30.12.2019
1715 Clouds 15 1028 62 10000 8.2 90 10:19 30.12.2019
1716 Clouds 14 1030 82 10000 11.3 90 09:42 30.12.2019
1717 Clouds 14 1027 66 10000 8.2 80 09:20 30.12.2019
1718 Clouds 14 1027 66 10000 7.2 90 08:56 30.12.2019
1719 Clouds 14 1027 66 10000 7.2 80 08:37 30.12.2019
1720 Clouds 14 1027 66 10000 7.2 80 08:18 30.12.2019
1721 Clouds 14 1026 66 10000 8.2 80 07:42 30.12.2019
1722 Clouds 14 1029 77 10000 10.8 90 06:59 30.12.2019
1723 Clouds 14 1027 66 10000 6.7 70 06:24 30.12.2019
1724 Clouds 14 1027 71 10000 8.2 70 04:23 30.12.2019
1725 Clouds 15 1026 67 10000 8.7 70 03:39 30.12.2019
1726 Clouds 15 1026 67 10000 8.2 80 02:41 30.12.2019
1727 Clouds 15 1026 67 10000 8.7 80 02:20 30.12.2019
1728 Clouds 15 1027 67 10000 7.2 80 01:25 30.12.2019
1729 Clouds 15 1027 67 10000 5.7 90 00:46 30.12.2019
1730 Clouds 15 1027 67 10000 7.2 80 00:23 30.12.2019
1731 Clouds 15 1026 67 10000 6.7 90 23:40 29.12.2019
1732 Clouds 15 1026 67 10000 6.7 90 23:22 29.12.2019
1733 Clouds 15 1026 67 10000 7.2 90 22:56 29.12.2019
1734 Clouds 15 1026 67 10000 7.7 80 22:38 29.12.2019
1735 Clouds 15 1026 67 10000 7.7 80 22:19 29.12.2019
1736 Clouds 15 1026 67 10000 8.2 80 21:45 29.12.2019
1737 Clouds 15 1025 62 10000 8.7 80 21:21 29.12.2019
1738 Clouds 15 1029 72 10000 11.8 90 20:59 29.12.2019
1739 Clouds 15 1025 62 10000 9.3 80 20:39 29.12.2019
1740 Clouds 15 1025 62 10000 9.3 80 20:39 29.12.2019
1741 Clouds 15 1025 62 10000 9.3 80 20:21 29.12.2019
1742 Clouds 15 1029 82 10000 9.3 80 19:59 29.12.2019
1743 Clouds 15 1029 77 10000 9.8 80 19:40 29.12.2019
1744 Clouds 15 1025 62 10000 9.8 80 19:21 29.12.2019
1745 Clouds 15 1025 62 10000 9.8 80 19:21 29.12.2019
1746 Clouds 15 1025 58 10000 9.8 80 18:58 29.12.2019
1747 Clouds 16 1025 55 10000 9.8 80 18:39 29.12.2019
1748 Clouds 16 1025 55 10000 9.8 80 18:20 29.12.2019
1749 Clouds 16 1029 77 10000 9.3 80 17:58 29.12.2019
1750 Clouds 16 1029 77 10000 9.3 80 17:58 29.12.2019
1751 Clouds 16 1029 77 10000 9.3 80 17:39 29.12.2019
1752 Clouds 16 1024 51 10000 10.3 90 17:20 29.12.2019
1753 Clouds 16 1028 72 10000 9.3 80 16:57 29.12.2019
1754 Clouds 16 1028 72 10000 9.3 80 16:57 29.12.2019
1755 Clouds 17 1028 72 10000 9.3 80 16:39 29.12.2019
1756 Clouds 16 1024 52 10000 11.3 80 16:21 29.12.2019
1757 Clouds 16 1024 48 10000 12.9 80 15:58 29.12.2019
1758 Clouds 16 1028 77 10000 10.3 80 15:39 29.12.2019
1759 Clouds 16 1024 52 10000 13.4 90 15:20 29.12.2019
1760 Clouds 16 1024 52 10000 13.4 90 15:20 29.12.2019
1761 Clouds 16 1029 77 10000 9.8 80 14:58 29.12.2019
1762 Clouds 16 1025 48 10000 11.8 80 14:39 29.12.2019
1763 Clouds 17 1025 48 10000 11.8 80 14:18 29.12.2019
1764 Clouds 17 1029 72 10000 12.3 80 13:58 29.12.2019
1765 Clouds 17 1029 72 10000 12.3 80 13:39 29.12.2019
1766 Clouds 17 1025 52 10000 12.9 80 13:21 29.12.2019
1767 Clouds 17 1030 67 10000 10.3 80 12:46 29.12.2019
1768 Clouds 17 1030 67 10000 10.3 80 12:28 29.12.2019
1769 Clouds 17 1031 72 10000 10.3 90 11:59 29.12.2019
1770 Clouds 17 1031 72 10000 9.8 90 11:40 29.12.2019
1771 Clouds 16 1026 63 10000 13.4 80 11:20 29.12.2019
1772 Clouds 15 1026 63 10000 13.4 80 10:55 29.12.2019
1773 Clouds 15 1026 63 10000 11.3 80 10:37 29.12.2019
1774 Clouds 15 1026 63 10000 11.3 80 10:18 29.12.2019
1775 Clouds 15 1026 62 10000 11.3 80 09:43 29.12.2019
1776 Clouds 15 1026 62 10000 11.8 80 09:25 29.12.2019
1777 Clouds 15 1025 67 10000 11.3 80 08:50 29.12.2019
1778 Clouds 15 1025 58 10000 11.8 80 08:29 29.12.2019
1779 Clouds 15 1025 62 10000 12.9 80 07:58 29.12.2019
1780 Clouds 15 1025 62 10000 12.9 80 07:31 29.12.2019
1781 Clouds 15 1025 67 10000 11.8 80 06:57 29.12.2019
1782 Clouds 15 1025 67 10000 11.8 80 06:27 29.12.2019
1783 Clouds 15 1024 67 10000 12.9 80 05:54 29.12.2019
1784 Clouds 15 1025 72 10000 12.9 80 04:42 29.12.2019
1785 Clouds 15 1025 72 10000 12.9 80 04:21 29.12.2019
1786 Clouds 15 1028 77 0 6.2 90 03:21 29.12.2019
1787 Clouds 15 1024 72 10000 12.3 80 02:21 29.12.2019
1788 Clouds 15 1025 72 10000 11.8 80 01:42 29.12.2019
1789 Clouds 15 1025 72 10000 11.8 80 01:22 29.12.2019
1790 Clouds 15 1025 72 10000 13.4 80 00:42 29.12.2019
1791 Clouds 15 1025 72 10000 11.8 80 00:23 29.12.2019
1792 Clouds 15 1025 72 10000 11.8 80 00:23 29.12.2019
1793 Clouds 16 1025 67 10000 12.9 80 23:44 28.12.2019
1794 Clouds 16 1025 67 10000 9.3 90 23:18 28.12.2019
1795 Clouds 15 1025 67 10000 11.3 80 22:39 28.12.2019
1796 Clouds 15 1025 67 10000 11.3 80 22:21 28.12.2019
1797 Clouds 15 1025 67 10000 8.7 90 21:58 28.12.2019
1798 Clouds 15 1025 67 10000 9.3 80 21:40 28.12.2019
1799 Clouds 15 1025 67 10000 9.3 80 21:21 28.12.2019
1800 Clouds 15 1029 82 10000 11.8 90 20:58 28.12.2019
1801 Clouds 15 1024 72 10000 6.7 90 20:38 28.12.2019
1802 Clouds 15 1024 72 10000 6.7 90 20:20 28.12.2019
1803 Clouds 15 1028 82 10000 10.8 90 19:58 28.12.2019
1804 Clouds 16 1024 63 10000 8.2 80 19:39 28.12.2019
1805 Clouds 16 1024 63 10000 8.2 80 19:20 28.12.2019
1806 Clouds 16 1024 63 10000 8.7 90 18:58 28.12.2019
1807 Clouds 16 1023 63 10000 7.2 70 18:39 28.12.2019
1808 Clouds 16 1023 63 10000 7.2 70 18:19 28.12.2019
1809 Clouds 16 1023 59 10000 9.8 80 17:55 28.12.2019
1810 Haze 16 1027 77 8000 7.7 80 17:36 28.12.2019
1811 Clouds 17 1023 59 10000 9.8 80 17:18 28.12.2019
1812 Clouds 17 1023 55 10000 11.3 70 16:46 28.12.2019
1813 Clouds 18 1023 59 10000 11.8 80 16:26 28.12.2019
1814 Clouds 18 1023 59 10000 13.4 70 15:46 28.12.2019
1815 Clouds 18 1023 59 10000 11.8 70 15:24 28.12.2019
1816 Clouds 18 1027 77 10000 8.7 80 14:59 28.12.2019
1817 Clouds 18 1027 72 10000 9.3 80 14:39 28.12.2019
1818 Clouds 18 1023 52 10000 13.4 80 14:20 28.12.2019
1819 Clouds 18 1028 82 10000 7.7 70 13:43 28.12.2019
1820 Clouds 18 1024 55 10000 9.8 80 13:24 28.12.2019
1821 Clouds 18 1028 82 10000 7.7 80 12:59 28.12.2019
1822 Clouds 18 1029 82 10000 7.7 80 12:41 28.12.2019
1823 Clouds 17 1025 63 10000 11.8 80 12:23 28.12.2019
1824 Clouds 17 1029 77 10000 8.7 90 11:56 28.12.2019
1825 Clouds 17 1029 77 10000 8.7 90 11:37 28.12.2019
1826 Clouds 16 1025 63 10000 10.3 80 11:18 28.12.2019
1827 Clouds 16 1029 82 10000 8.7 80 10:43 28.12.2019
1828 Clouds 16 1025 63 10000 10.3 80 10:21 28.12.2019
1829 Clouds 15 1028 77 10000 9.3 90 09:57 28.12.2019
1830 Clouds 15 1028 77 10000 9.3 90 09:39 28.12.2019
1831 Clouds 15 1024 67 10000 9.3 80 09:19 28.12.2019
1832 Clouds 15 1024 71 10000 9.3 80 08:44 28.12.2019
1833 Clouds 15 1023 67 10000 10.3 80 08:26 28.12.2019
1834 Clouds 15 1023 71 10000 10.3 80 07:49 28.12.2019
1835 Clouds 15 1023 71 10000 9.8 80 07:27 28.12.2019
1836 Clouds 15 1023 67 10000 10.3 80 06:21 28.12.2019
1837 Clouds 15 1024 67 10000 9.3 80 03:59 28.12.2019
1838 Clouds 15 1024 67 10000 8.2 80 03:38 28.12.2019
1839 Clouds 15 1024 71 10000 8.2 80 02:48 28.12.2019
1840 Clouds 15 1024 72 10000 8.2 80 01:59 28.12.2019
1841 Clouds 15 1024 72 10000 9.3 80 01:29 28.12.2019
1842 Clouds 15 1024 67 10000 9.8 80 00:54 28.12.2019
1843 Clouds 15 1024 62 10000 9.3 80 00:36 28.12.2019
1844 Clouds 15 1024 62 10000 9.3 80 00:18 28.12.2019
1845 Clouds 15 1024 67 10000 11.3 70 23:42 27.12.2019
1846 Clouds 15 1024 67 10000 12.3 80 23:19 27.12.2019
1847 Clouds 15 1023 67 10000 12.3 70 22:57 27.12.2019
1848 Clouds 15 1023 67 10000 12.3 70 22:38 27.12.2019
1849 Clouds 15 1023 67 10000 12.3 70 22:20 27.12.2019
1850 Clouds 15 1023 67 10000 12.9 70 21:54 27.12.2019
1851 Clouds 16 1023 63 10000 12.3 70 21:36 27.12.2019
1852 Clouds 16 1023 63 10000 12.3 70 21:18 27.12.2019
1853 Clouds 16 1027 82 10000 8.7 90 20:40 27.12.2019
1854 Clouds 16 1023 63 10000 12.9 70 20:21 27.12.2019
1855 Clouds 16 1023 63 10000 12.9 70 19:42 27.12.2019
1856 Clouds 16 1023 63 10000 12.9 80 19:20 27.12.2019
1857 Clouds 16 1027 82 10000 8.2 90 18:59 27.12.2019
1858 Clouds 16 1026 82 10000 8.2 80 18:38 27.12.2019
1859 Clouds 16 1022 67 10000 13.9 80 18:20 27.12.2019
1860 Clouds 16 1022 63 10000 11.8 70 17:57 27.12.2019
1861 Clouds 16 1026 82 10000 7.7 80 17:39 27.12.2019
1862 Clouds 17 1022 63 10000 12.9 70 17:19 27.12.2019
1863 Clouds 18 1022 59 10000 13.4 70 16:58 27.12.2019
1864 Clouds 18 1026 87 10000 7.7 80 16:38 27.12.2019
1865 Clouds 18 1022 59 10000 13.9 70 16:19 27.12.2019
1866 Clouds 18 1022 59 10000 13.9 70 16:19 27.12.2019
1867 Clouds 18 1022 59 10000 12.9 70 15:43 27.12.2019
1868 Clouds 18 1022 55 10000 13.4 70 15:20 27.12.2019
1869 Clouds 18 1022 55 10000 13.9 70 14:57 27.12.2019
1870 Clouds 18 1026 87 10000 7.7 70 14:38 27.12.2019
1871 Clouds 18 1022 55 10000 13.4 70 14:20 27.12.2019
1872 Clouds 18 1023 55 10000 11.8 80 13:48 27.12.2019
1873 Clouds 18 1023 63 10000 12.3 80 13:25 27.12.2019
1874 Clouds 18 1028 77 10000 9.3 90 12:58 27.12.2019
1875 Clouds 18 1028 77 10000 9.3 80 12:39 27.12.2019
1876 Clouds 18 1024 59 10000 12.9 70 12:21 27.12.2019
1877 Clouds 18 1024 63 10000 13.4 70 11:43 27.12.2019
1878 Clouds 18 1024 67 10000 12.3 80 11:24 27.12.2019
1879 Clouds 16 1024 63 10000 13.4 70 10:55 27.12.2019
1880 Clouds 16 1028 82 10000 9.3 90 10:37 27.12.2019
1881 Clouds 16 1023 67 10000 13.9 80 10:19 27.12.2019
1882 Clouds 17 1023 63 10000 12.3 70 09:42 27.12.2019
1883 Clouds 17 1022 59 10000 10.3 70 09:21 27.12.2019
1884 Clouds 16 1022 59 10000 8.7 70 08:56 27.12.2019
1885 Clouds 17 1022 59 10000 8.7 70 08:36 27.12.2019
1886 Clouds 15 1022 55 10000 8.7 70 07:51 27.12.2019
1887 Clouds 15 1022 51 10000 8.2 70 07:31 27.12.2019
1888 Clouds 16 1022 42 10000 8.7 70 06:37 27.12.2019
1889 Clouds 15 1022 51 10000 7.2 100 05:28 27.12.2019
1890 Clouds 16 1022 48 10000 5.1 90 03:40 27.12.2019
1891 Clouds 14 1022 54 10000 3.6 90 02:20 27.12.2019
1892 Clouds 15 1023 62 10000 2.1 50 01:37 27.12.2019
1893 Clouds 14 1023 62 10000 2.1 50 01:18 27.12.2019
1894 Clouds 14 1023 62 10000 2.6 90 00:41 27.12.2019
1895 Clouds 14 1023 54 10000 2.1 90 00:23 27.12.2019
1896 Clouds 15 1022 51 10000 5.7 80 23:41 26.12.2019
1897 Clouds 15 1022 48 10000 7.7 70 23:22 26.12.2019
1898 Clouds 15 1022 48 10000 7.7 70 22:47 26.12.2019
1899 Clouds 17 1022 51 10000 6.7 80 22:23 26.12.2019
1900 Clouds 17 1022 51 10000 5.7 60 21:59 26.12.2019
1901 Clouds 17 1022 55 10000 5.1 70 21:38 26.12.2019
1902 Clouds 17 1022 55 10000 5.1 70 21:20 26.12.2019
1903 Clouds 16 1022 59 10000 5.7 50 20:46 26.12.2019
1904 Clouds 16 1022 59 10000 4.6 60 20:23 26.12.2019
1905 Clouds 16 1024 93 10000 3.1 50 19:59 26.12.2019
1906 Clouds 16 1024 87 10000 2.6 60 19:40 26.12.2019
1907 Clouds 17 1021 72 10000 7.7 40 19:21 26.12.2019
1908 Clouds 17 1024 93 10000 2.6 60 18:58 26.12.2019
1909 Clouds 17 1024 87 10000 2.6 60 18:39 26.12.2019
1910 Clouds 17 1021 77 10000 6.7 40 18:19 26.12.2019
1911 Clouds 18 1024 87 10000 2.6 50 17:43 26.12.2019
1912 Clouds 18 1022 77 10000 7.2 40 17:22 26.12.2019
1913 Clouds 18 1023 87 10000 3.1 70 16:59 26.12.2019
1914 Clouds 18 1023 87 10000 3.1 80 16:41 26.12.2019
1915 Clouds 18 1021 72 10000 6.2 30 16:22 26.12.2019
1916 Clouds 19 1021 64 10000 4.6 60 15:55 26.12.2019
1917 Clouds 19 1023 82 10000 3.1 80 15:37 26.12.2019
1918 Clouds 19 1021 64 10000 3.6 30 15:18 26.12.2019
1919 Clouds 19 1023 77 10000 3.1 70 14:39 26.12.2019
1920 Clouds 20 1022 53 10000 3.1 80 14:21 26.12.2019
1921 Clouds 19 1024 77 10000 3.6 70 13:43 26.12.2019
1922 Clouds 19 1023 49 10000 2.1 90 13:21 26.12.2019
1923 Clouds 19 1023 53 10000 2.6 100 12:58 26.12.2019
1924 Clouds 19 1025 77 10000 2.6 70 12:38 26.12.2019
1925 Clouds 19 1024 46 10000 2.6 100 12:19 26.12.2019
1926 Clouds 17 1024 56 10000 1.5 20 11:57 26.12.2019
1927 Clouds 17 1025 72 10000 2.1 90 11:38 26.12.2019
1928 Clouds 16 1024 52 10000 2.6 70 11:19 26.12.2019
1929 Clouds 15 1024 63 10000 2.6 100 10:42 26.12.2019
1930 Clouds 13 1024 72 10000 2.1 90 10:18 26.12.2019
1931 Clouds 11 1025 81 10000 1.5 260 09:49 26.12.2019
1932 Clouds 11 1025 81 10000 1.5 260 09:31 26.12.2019
1933 Clouds 10 1024 87 10000 1 260 08:43 26.12.2019
1934 Clouds 10 1023 76 10000 2.6 100 08:24 26.12.2019
1935 Clouds 11 1023 81 10000 2.6 100 07:53 26.12.2019
1936 Clouds 11 1023 81 10000 2.6 100 07:27 26.12.2019
1937 Clouds 10 1023 87 9000 3.1 90 06:53 26.12.2019
1938 Clouds 10 1023 87 7000 2.6 90 06:32 26.12.2019
1939 Clouds 10 1023 93 7000 2.1 80 05:45 26.12.2019
1940 Clouds 10 1024 82 10000 2.1 90 04:57 26.12.2019
1941 Clouds 10 1024 87 10000 1.5 60 04:30 26.12.2019
1942 Clouds 12 1024 81 7000 1.5 80 02:56 26.12.2019
1943 Clouds 12 1024 76 7000 1 0 02:34 26.12.2019
1944 Clouds 12 1024 76 7000 1 0 02:34 26.12.2019
1945 Clouds 12 1024 81 7000 1 0 01:50 26.12.2019
1946 Clouds 12 1024 76 7000 1 90 01:32 26.12.2019
1947 Clouds 12 1024 81 7000 1.5 100 00:49 26.12.2019
1948 Clouds 12 1024 76 9000 1 110 00:27 26.12.2019
1949 Clouds 12 1024 81 7000 2.1 90 23:58 25.12.2019
1950 Clouds 13 1024 71 7000 2.1 70 23:39 25.12.2019
1951 Clouds 15 1024 71 7000 2.1 70 23:21 25.12.2019
1952 Clouds 13 1025 82 10000 2.6 250 22:59 25.12.2019
1953 Clouds 15 1024 76 7000 2.6 90 22:39 25.12.2019
1954 Clouds 13 1024 76 7000 2.6 90 22:20 25.12.2019
1955 Clouds 13 1024 76 7000 1.5 0 21:58 25.12.2019
1956 Clouds 13 1024 76 7000 1.5 60 21:39 25.12.2019
1957 Clouds 15 1024 76 7000 1.5 60 21:20 25.12.2019
1958 Clouds 16 1024 72 8000 1 0 20:54 25.12.2019
1959 Clouds 16 1024 72 8000 1.5 120 20:36 25.12.2019
1960 Clouds 16 1024 72 8000 1.5 120 20:36 25.12.2019
1961 Clouds 16 1024 72 8000 1.5 120 20:18 25.12.2019
1962 Clouds 15 1024 72 8000 1 90 19:42 25.12.2019
1963 Clouds 18 1024 67 10000 1 0 19:22 25.12.2019
1964 Clouds 17 1024 67 10000 1 0 19:22 25.12.2019
1965 Clouds 18 1023 63 10000 0.5 0 18:56 25.12.2019
1966 Clouds 18 1023 59 10000 1 0 18:36 25.12.2019
1967 Clouds 18 1023 59 10000 1 0 18:18 25.12.2019
1968 Clouds 19 1023 60 10000 2.6 40 17:40 25.12.2019
1969 Clouds 19 1023 60 10000 2.6 40 17:19 25.12.2019
1970 Clouds 20 1023 56 10000 4.6 40 16:56 25.12.2019
1971 Clouds 20 1022 53 10000 2.6 60 16:37 25.12.2019
1972 Clouds 20 1022 53 10000 2.6 60 16:18 25.12.2019
1973 Clouds 20 1022 53 10000 2.1 40 15:56 25.12.2019
1974 Clouds 20 1022 49 10000 2.6 50 15:37 25.12.2019
1975 Clouds 20 1022 49 10000 2.6 50 15:18 25.12.2019
1976 Clouds 20 1022 49 10000 2.6 50 15:18 25.12.2019
1977 Clouds 20 1022 52 10000 3.1 60 14:55 25.12.2019
1978 Clouds 20 1023 56 10000 4.1 40 14:37 25.12.2019
1979 Clouds 20 1023 56 10000 4.1 40 14:18 25.12.2019
1980 Clouds 19 1023 49 10000 4.1 60 13:42 25.12.2019
1981 Clouds 19 1023 56 10000 4.6 70 13:21 25.12.2019
1982 Clouds 19 1024 56 10000 2.6 80 12:44 25.12.2019
1983 Clouds 18 1024 59 10000 4.1 80 12:22 25.12.2019
1984 Clouds 16 1024 63 10000 4.6 90 11:58 25.12.2019
1985 Clouds 16 1024 63 10000 4.6 90 11:40 25.12.2019
1986 Clouds 15 1024 63 10000 4.6 90 11:21 25.12.2019
1987 Clouds 13 1024 67 10000 4.1 80 10:39 25.12.2019
1988 Clouds 13 1024 67 10000 4.1 80 10:21 25.12.2019
1989 Clouds 12 1025 76 10000 0.5 260 09:59 25.12.2019
1990 Clouds 11 1023 76 10000 5.1 80 09:40 25.12.2019
1991 Clouds 11 1023 76 10000 5.1 80 09:22 25.12.2019
1992 Clouds 11 1023 76 10000 4.6 80 08:43 25.12.2019
1993 Clouds 11 1023 71 10000 3.6 90 08:23 25.12.2019
1994 Clouds 11 1023 71 10000 3.1 80 07:43 25.12.2019
1995 Clouds 11 1022 71 10000 3.1 80 07:22 25.12.2019
1996 Clouds 11 1022 76 10000 4.1 80 06:24 25.12.2019
1997 Clouds 11 1022 71 10000 3.6 80 05:50 25.12.2019
1998 Clouds 11 1022 71 10000 4.6 70 04:44 25.12.2019
1999 Clouds 11 1023 76 10000 3.6 80 04:24 25.12.2019
2000 Clouds 12 1023 71 10000 4.1 90 03:44 25.12.2019
2001 Clouds 12 1023 71 10000 4.1 90 03:44 25.12.2019
2002 Clouds 13 1023 76 10000 4.6 80 02:59 25.12.2019
2003 Clouds 12 1023 71 10000 4.1 80 02:29 25.12.2019
2004 Clouds 13 1023 71 10000 3.1 80 01:44 25.12.2019
2005 Clouds 14 1024 76 10000 4.1 90 01:19 25.12.2019
2006 Clouds 13 1024 82 10000 3.6 80 00:41 25.12.2019
2007 Clouds 13 1024 82 10000 3.6 80 00:23 25.12.2019
2008 Clouds 13 1024 82 10000 3.6 80 00:23 25.12.2019
2009 Clouds 15 1024 82 10000 3.1 80 23:39 24.12.2019
2010 Clouds 15 1024 82 10000 3.1 80 23:20 24.12.2019
2011 Clouds 15 1024 82 10000 2.6 90 22:42 24.12.2019
2012 Clouds 14 1024 82 10000 4.6 80 22:24 24.12.2019
2013 Clouds 15 1024 82 10000 4.6 90 21:59 24.12.2019
2014 Clouds 15 1024 82 10000 5.1 80 21:40 24.12.2019
2015 Clouds 15 1024 82 10000 5.1 80 21:19 24.12.2019
2016 Clouds 15 1024 82 10000 5.7 90 20:42 24.12.2019
2017 Clouds 16 1024 77 10000 3.6 100 20:22 24.12.2019
2018 Clouds 16 1023 82 10000 6.2 70 19:49 24.12.2019
2019 Clouds 16 1023 82 10000 6.2 80 19:22 24.12.2019
2020 Clouds 16 1025 63 10000 5.1 100 18:59 24.12.2019
2021 Clouds 17 1025 63 10000 5.1 100 18:40 24.12.2019
2022 Clouds 17 1023 72 10000 5.7 90 18:18 24.12.2019
2023 Clouds 18 1025 67 10000 5.1 100 17:43 24.12.2019
2024 Clouds 18 1025 67 10000 5.1 100 17:43 24.12.2019
2025 Clouds 19 1023 68 10000 5.1 90 17:22 24.12.2019
2026 Clouds 19 1025 63 10000 5.1 100 16:58 24.12.2019
2027 Clouds 19 1025 63 10000 5.1 100 16:39 24.12.2019
2028 Clouds 19 1023 60 10000 5.1 60 16:20 24.12.2019
2029 Clouds 20 1026 59 10000 5.7 110 15:57 24.12.2019
2030 Clouds 19 1026 59 10000 5.1 100 15:37 24.12.2019
2031 Clouds 19 1023 56 10000 6.2 90 15:19 24.12.2019
2032 Clouds 19 1023 56 10000 6.2 90 15:19 24.12.2019
2033 Clouds 19 1026 59 10000 5.1 100 14:58 24.12.2019
2034 Clouds 19 1026 59 10000 5.1 100 14:39 24.12.2019
2035 Clouds 19 1024 60 10000 5.7 90 14:21 24.12.2019
2036 Clouds 19 1024 60 10000 5.7 90 14:21 24.12.2019
2037 Clouds 19 1024 52 10000 5.7 90 13:56 24.12.2019
2038 Clouds 19 1027 59 10000 5.7 100 13:37 24.12.2019
2039 Clouds 19 1025 64 10000 6.2 90 13:19 24.12.2019
2040 Clouds 18 1025 68 10000 5.1 100 12:55 24.12.2019
2041 Clouds 18 1027 59 10000 5.7 110 12:36 24.12.2019
2042 Clouds 18 1025 68 10000 5.1 100 12:18 24.12.2019
2043 Clouds 17 1025 68 10000 4.1 100 11:55 24.12.2019
2044 Clouds 17 1028 67 10000 4.1 90 11:37 24.12.2019
2045 Clouds 16 1025 72 10000 6.2 90 11:18 24.12.2019
2046 Clouds 15 1024 72 10000 6.2 90 10:56 24.12.2019
2047 Clouds 15 1027 77 10000 3.6 70 10:37 24.12.2019
2048 Clouds 15 1024 72 10000 6.2 90 10:19 24.12.2019
2049 Clouds 14 1024 67 10000 6.2 90 09:55 24.12.2019
2050 Clouds 14 1027 77 10000 4.1 70 09:36 24.12.2019
2051 Clouds 14 1024 67 10000 5.1 90 09:18 24.12.2019
2052 Clouds 14 1026 82 10000 2.6 80 08:44 24.12.2019
2053 Clouds 12 1026 82 10000 2.6 80 08:20 24.12.2019
2054 Clouds 13 1026 82 10000 2.6 80 07:46 24.12.2019
2055 Clouds 12 1026 82 10000 2.6 80 07:25 24.12.2019
2056 Clouds 14 1026 82 10000 2.6 30 06:58 24.12.2019
2057 Clouds 14 1026 82 10000 2.6 30 06:38 24.12.2019
2058 Clouds 13 1026 82 10000 2.6 30 06:18 24.12.2019
2059 Clouds 13 1026 82 10000 3.1 40 05:20 24.12.2019
2060 Clouds 14 1026 82 10000 4.1 50 04:44 24.12.2019
2061 Clouds 14 1023 62 10000 6.2 90 03:50 24.12.2019
2062 Clouds 14 1026 82 10000 4.6 70 03:18 24.12.2019
2063 Clouds 14 1026 77 10000 4.1 80 02:21 24.12.2019
2064 Clouds 14 1024 67 10000 5.1 70 01:50 24.12.2019
2065 Clouds 14 1024 67 10000 6.7 70 01:21 24.12.2019
2066 Clouds 14 1024 72 10000 6.7 70 00:45 24.12.2019
2067 Clouds 16 1027 82 10000 2.6 70 00:23 24.12.2019
2068 Clouds 16 1024 77 10000 7.7 50 23:56 23.12.2019
2069 Clouds 16 1024 77 10000 7.7 50 23:37 23.12.2019
2070 Clouds 14 1024 77 10000 7.7 50 23:19 23.12.2019
2071 Clouds 15 1024 72 10000 8.7 60 22:56 23.12.2019
2072 Clouds 15 1024 72 10000 8.7 60 22:56 23.12.2019
2073 Clouds 15 1024 59 10000 7.7 60 22:36 23.12.2019
2074 Clouds 15 1024 59 10000 7.7 60 22:36 23.12.2019
2075 Clouds 15 1024 59 10000 7.7 60 22:18 23.12.2019
2076 Clouds 15 1024 55 10000 9.3 50 21:55 23.12.2019
2077 Clouds 15 1024 67 10000 6.7 50 21:36 23.12.2019
2078 Clouds 15 1024 67 10000 6.7 50 21:18 23.12.2019
2079 Clouds 16 1025 55 10000 5.1 60 20:56 23.12.2019
2080 Clouds 16 1027 77 10000 4.6 60 20:38 23.12.2019
2081 Clouds 16 1025 63 10000 3.6 60 20:18 23.12.2019
2082 Clouds 16 1025 63 10000 3.6 60 19:55 23.12.2019
2083 Clouds 16 1025 63 10000 3.6 60 19:55 23.12.2019
2084 Clouds 17 1026 67 10000 4.1 70 19:37 23.12.2019
2085 Clouds 18 1024 67 10000 4.6 50 19:19 23.12.2019
2086 Clouds 18 1025 59 10000 5.1 60 18:55 23.12.2019
2087 Clouds 20 1026 52 10000 3.1 50 18:37 23.12.2019
2088 Clouds 20 1026 52 10000 3.1 50 18:18 23.12.2019
2089 Clouds 20 1024 43 10000 5.7 40 17:55 23.12.2019
2090 Clouds 20 1024 43 10000 5.7 40 17:55 23.12.2019
2091 Clouds 21 1026 59 10000 3.1 70 17:37 23.12.2019
2092 Clear 20 1026 59 10000 3.1 70 17:18 23.12.2019
2093 Clear 21 1025 56 10000 3.1 70 16:42 23.12.2019
2094 Clear 21 1025 40 10000 3.1 80 16:19 23.12.2019
2095 Clear 21 1025 40 10000 3.1 80 15:58 23.12.2019
2096 Clear 20 1025 46 10000 3.1 80 15:38 23.12.2019
2097 Clouds 20 1024 68 8000 2.6 320 15:20 23.12.2019
2098 Clear 21 1025 46 10000 1.5 100 14:58 23.12.2019
2099 Clear 21 1025 49 10000 1 250 14:39 23.12.2019
2100 Clouds 21 1025 68 8000 1.5 320 14:21 23.12.2019
2101 Clouds 20 1026 56 10000 1.5 260 13:58 23.12.2019
2102 Clouds 20 1026 56 10000 1.5 260 13:40 23.12.2019
2103 Clouds 20 1026 59 6000 2.1 10 13:22 23.12.2019
2104 Clouds 19 1027 77 10000 3.1 220 12:56 23.12.2019
2105 Clouds 19 1027 77 10000 3.1 220 12:37 23.12.2019
2106 Clouds 19 1027 82 5000 1 0 12:19 23.12.2019
2107 Clouds 19 1027 82 5000 1 0 12:19 23.12.2019
2108 Clouds 18 1027 63 10000 2.6 260 11:44 23.12.2019
2109 Clouds 17 1028 67 10000 3.1 230 11:25 23.12.2019
2110 Clouds 15 1028 72 10000 3.6 220 10:57 23.12.2019
2111 Clouds 15 1028 72 10000 3.6 220 10:39 23.12.2019
2112 Mist 15 1028 100 2500 0.5 0 10:20 23.12.2019
2113 Clouds 14 1027 72 10000 3.1 220 09:59 23.12.2019
2114 Clouds 13 1027 77 10000 3.6 230 09:39 23.12.2019
2115 Mist 13 1028 100 3000 1.5 70 09:20 23.12.2019
2116 Mist 13 1027 100 3000 2.6 80 08:55 23.12.2019
2117 Mist 13 1027 93 3000 2.1 90 08:37 23.12.2019
2118 Mist 13 1027 93 3000 2.1 90 08:19 23.12.2019
2119 Mist 13 1027 100 2000 1.5 90 07:43 23.12.2019
2120 Mist 13 1027 100 3000 2.6 80 07:20 23.12.2019
2121 Mist 12 1027 100 2000 2.1 70 06:52 23.12.2019
2122 Mist 13 1027 100 3000 2.6 90 06:25 23.12.2019
2123 Mist 13 1027 100 3000 3.1 90 05:50 23.12.2019
2124 Mist 13 1027 100 4000 3.1 80 05:26 23.12.2019
2125 Mist 13 1027 93 4000 2.1 90 04:27 23.12.2019
2126 Mist 14 1027 100 2000 2.1 80 02:56 23.12.2019
2127 Mist 14 1027 93 3000 2.6 90 02:32 23.12.2019
2128 Mist 14 1028 100 2500 2.1 50 01:56 23.12.2019
2129 Mist 14 1028 100 2000 2.1 70 01:38 23.12.2019
2130 Mist 14 1028 100 2000 2.1 70 01:19 23.12.2019
2131 Mist 15 1028 93 2000 1 60 00:41 23.12.2019
2132 Mist 15 1028 93 2000 1 60 00:19 23.12.2019
2133 Mist 16 1028 93 2500 0.5 0 23:39 22.12.2019
2134 Mist 16 1028 93 2500 0.5 0 23:20 22.12.2019
2135 Mist 16 1028 93 2500 0.5 0 23:20 22.12.2019
2136 Clear 16 1027 87 10000 7.7 300 22:58 22.12.2019
2137 Mist 16 1028 93 3000 1 0 22:38 22.12.2019
2138 Mist 16 1028 93 3000 1 0 22:19 22.12.2019
2139 Mist 16 1028 93 3000 1.5 240 21:57 22.12.2019
2140 Mist 16 1027 93 4000 1.5 260 21:39 22.12.2019
2141 Mist 16 1027 93 4000 1.5 260 21:20 22.12.2019
2142 Clouds 16 1027 87 5000 2.1 260 20:56 22.12.2019
2143 Clouds 16 1027 87 10000 5.1 280 20:38 22.12.2019
2144 Clouds 16 1027 93 5000 2.6 250 20:18 22.12.2019
2145 Clouds 17 1027 87 5000 2.1 230 19:54 22.12.2019
2146 Clouds 17 1026 82 10000 5.7 280 19:36 22.12.2019
2147 Clouds 17 1027 82 5000 2.6 240 19:18 22.12.2019
2148 Clouds 18 1025 82 10000 6.7 270 18:39 22.12.2019
2149 Clouds 18 1025 82 10000 6.7 270 18:39 22.12.2019
2150 Clouds 18 1026 88 5000 2.6 240 18:21 22.12.2019
2151 Clouds 19 1025 72 10000 6.2 260 17:55 22.12.2019
2152 Clouds 19 1025 72 10000 6.2 260 17:37 22.12.2019
2153 Clouds 19 1026 82 5000 4.6 240 17:18 22.12.2019
2154 Clouds 20 1026 77 5000 4.6 230 16:56 22.12.2019
2155 Clouds 20 1026 77 5000 4.6 230 16:56 22.12.2019
2156 Clouds 20 1024 68 10000 8.7 260 16:37 22.12.2019
2157 Clouds 20 1025 82 5000 4.6 230 16:19 22.12.2019
2158 Clouds 19 1024 72 10000 7.2 260 15:54 22.12.2019
2159 Clouds 20 1024 72 10000 7.2 260 15:36 22.12.2019
2160 Clouds 20 1024 72 10000 7.2 260 15:18 22.12.2019
2161 Clouds 20 1024 72 10000 6.7 270 14:39 22.12.2019
2162 Clouds 20 1025 82 10000 3.6 230 14:20 22.12.2019
2163 Clouds 19 1024 77 10000 7.2 280 13:56 22.12.2019
2164 Clouds 19 1024 77 10000 7.2 280 13:38 22.12.2019
2165 Clouds 19 1026 77 10000 4.1 240 13:20 22.12.2019
2166 Clouds 19 1025 82 10000 5.1 290 12:57 22.12.2019
2167 Clouds 19 1025 82 10000 5.1 290 12:39 22.12.2019
2168 Clouds 19 1026 93 8000 4.1 250 12:20 22.12.2019
2169 Clouds 19 1025 82 10000 5.1 280 11:59 22.12.2019
2170 Clouds 19 1025 82 10000 5.1 280 11:39 22.12.2019
2171 Clouds 18 1026 93 6000 4.1 250 11:20 22.12.2019
2172 Clouds 18 1024 82 10000 4.1 270 10:57 22.12.2019
2173 Clouds 18 1024 82 10000 4.1 270 10:39 22.12.2019
2174 Mist 18 1025 100 4000 2.6 210 10:19 22.12.2019
2175 Clouds 18 1023 87 10000 5.7 290 09:58 22.12.2019
2176 Clouds 18 1023 87 10000 5.7 290 09:39 22.12.2019
2177 Mist 18 1024 100 4000 2.1 210 09:21 22.12.2019
2178 Mist 18 1024 100 4000 2.6 220 08:45 22.12.2019
2179 Drizzle 18 1023 100 3000 2.6 220 08:23 22.12.2019
2180 Drizzle 18 1023 100 2500 2.6 220 07:50 22.12.2019
2181 Mist 18 1023 100 2500 2.1 230 07:21 22.12.2019
2182 Mist 18 1022 93 3500 2.1 210 06:56 22.12.2019
2183 Mist 17 1022 93 3000 2.1 220 06:27 22.12.2019
2184 Mist 17 1022 93 4000 2.1 220 05:41 22.12.2019
2185 Clouds 18 1022 93 3000 2.1 230 05:20 22.12.2019
2186 Clouds 18 1023 100 5000 3.1 250 04:26 22.12.2019
2187 Clouds 19 1023 93 5000 5.1 250 02:47 22.12.2019
2188 Clouds 19 1022 100 5000 4.6 240 02:23 22.12.2019
2189 Clouds 19 1023 100 5000 6.2 240 01:32 22.12.2019
2190 Clouds 19 1023 100 5000 6.2 240 00:56 22.12.2019
2191 Clouds 19 1023 100 5000 6.2 240 00:56 22.12.2019
2192 Clouds 19 1023 100 5000 5.7 230 00:36 22.12.2019
2193 Clouds 19 1023 100 5000 5.7 230 00:18 22.12.2019
2194 Rain 19 1022 100 3000 6.7 220 23:41 21.12.2019
2195 Rain 19 1022 100 3000 6.7 220 23:21 21.12.2019
2196 Rain 19 1022 100 3500 6.2 220 22:57 21.12.2019
2197 Clouds 19 1022 100 5000 6.2 220 22:37 21.12.2019
2198 Clouds 19 1022 100 5000 6.2 220 22:18 21.12.2019
2199 Clouds 19 1022 100 5000 6.2 220 21:54 21.12.2019
2200 Mist 19 1022 100 4000 6.2 230 21:36 21.12.2019
2201 Mist 19 1022 100 4000 6.2 230 21:18 21.12.2019
2202 Mist 19 1021 100 3000 6.2 230 20:56 21.12.2019
2203 Rain 19 1021 100 1500 6.2 230 20:37 21.12.2019
2204 Rain 19 1021 100 1500 6.2 230 20:19 21.12.2019
2205 Rain 19 1021 93 1500 6.2 230 19:55 21.12.2019
2206 Rain 19 1021 93 2000 6.7 220 19:36 21.12.2019
2207 Rain 19 1021 93 2000 6.7 220 19:18 21.12.2019
2208 Rain 19 1020 93 1000 6.7 220 18:41 21.12.2019
2209 Rain 19 1020 93 1000 6.7 220 18:22 21.12.2019
2210 Rain 19 1019 93 2000 6.7 210 17:55 21.12.2019
2211 Drizzle 19 1019 93 2000 6.7 200 17:37 21.12.2019
2212 Drizzle 19 1019 93 2000 6.7 200 17:18 21.12.2019
2213 Mist 19 1019 88 2500 7.2 200 16:54 21.12.2019
2214 Drizzle 19 1016 93 4000 9.8 240 16:36 21.12.2019
2215 Drizzle 19 1016 93 4000 9.8 240 16:36 21.12.2019
2216 Drizzle 19 1016 93 4000 9.8 240 16:36 21.12.2019
2217 Mist 19 1018 88 2500 7.2 200 16:18 21.12.2019
2218 Mist 19 1019 88 3000 6.7 200 15:54 21.12.2019
2219 Mist 19 1019 88 3000 6.7 200 15:54 21.12.2019
2220 Clouds 19 1016 82 10000 9.8 240 15:36 21.12.2019
2221 Mist 19 1018 88 4000 7.2 200 15:18 21.12.2019
2222 Rain 19 1016 82 8000 10.3 240 14:40 21.12.2019
2223 Rain 19 1016 82 8000 10.3 240 14:40 21.12.2019
2224 Rain 19 1019 93 3000 7.2 200 14:22 21.12.2019
2225 Rain 19 1017 82 7000 9.3 240 13:57 21.12.2019
2226 Drizzle 19 1017 82 5000 9.8 240 13:39 21.12.2019
2227 Mist 19 1019 93 3000 7.2 200 13:19 21.12.2019
2228 Clouds 19 1017 82 10000 9.3 240 12:56 21.12.2019
2229 Clouds 20 1017 82 10000 9.3 240 12:37 21.12.2019
2230 Mist 20 1020 88 4000 6.7 200 12:19 21.12.2019
2231 Mist 19 1019 93 3000 7.2 200 11:45 21.12.2019
2232 Mist 19 1019 93 3000 6.2 200 11:26 21.12.2019
2233 Rain 19 1017 82 9000 10.3 240 10:57 21.12.2019
2234 Rain 19 1017 82 7000 9.3 240 10:39 21.12.2019
2235 Mist 19 1018 93 3000 7.2 200 10:21 21.12.2019
2236 Clouds 19 1016 82 10000 9.3 240 09:56 21.12.2019
2237 Clouds 19 1016 82 10000 9.3 240 09:56 21.12.2019
2238 Clouds 19 1016 82 10000 9.3 240 09:38 21.12.2019
2239 Rain 19 1018 93 3500 6.2 210 09:19 21.12.2019
2240 Rain 19 1017 93 3500 5.7 200 08:46 21.12.2019
2241 Clouds 19 1017 93 5000 5.7 200 08:26 21.12.2019
2242 Clouds 19 1017 93 5000 7.2 210 07:47 21.12.2019
2243 Clouds 19 1016 93 5000 6.7 210 07:23 21.12.2019
2244 Clouds 19 1016 93 5000 6.7 210 07:23 21.12.2019
2245 Clouds 19 1017 93 5000 6.2 210 06:46 21.12.2019
2246 Clouds 19 1016 93 5000 6.7 210 06:28 21.12.2019
2247 Clouds 19 1016 93 5000 7.7 220 05:55 21.12.2019
2248 Rain 19 1014 72 10000 14.9 240 04:58 21.12.2019
2249 Clouds 19 1016 93 5000 7.7 220 04:19 21.12.2019
2250 Clouds 19 1016 93 5000 8.2 220 03:56 21.12.2019
2251 Clouds 19 1015 93 5000 7.2 220 02:19 21.12.2019
2252 Clouds 19 1015 93 5000 7.7 220 01:41 21.12.2019
2253 Clouds 19 1015 93 5000 7.7 220 01:22 21.12.2019
2254 Clouds 19 1015 93 5000 7.2 210 00:37 21.12.2019
2255 Clouds 19 1015 93 5000 7.2 210 00:18 21.12.2019
2256 Clouds 18 1015 93 5000 8.2 210 23:38 20.12.2019
2257 Clouds 18 1015 93 5000 8.2 210 23:19 20.12.2019
2258 Clouds 19 1015 93 5000 6.7 220 22:57 20.12.2019
2259 Clouds 19 1015 93 5000 7.2 210 22:36 20.12.2019
2260 Clouds 19 1015 93 5000 7.2 210 22:18 20.12.2019
2261 Clouds 18 1015 93 6000 7.2 210 21:40 20.12.2019
2262 Clouds 18 1015 93 6000 7.2 210 21:20 20.12.2019
2263 Clouds 18 1014 93 5000 6.7 210 20:57 20.12.2019
2264 Clouds 18 1014 93 5000 6.7 210 20:38 20.12.2019
2265 Clouds 18 1014 93 5000 6.7 210 20:18 20.12.2019
2266 Clouds 18 1014 93 5000 7.2 210 19:42 20.12.2019
2267 Clouds 18 1014 93 5000 7.7 210 19:21 20.12.2019
2268 Rain 18 1014 93 3500 9.3 220 18:58 20.12.2019
2269 Rain 19 1014 93 2000 8.2 210 18:39 20.12.2019
2270 Rain 19 1014 93 2000 8.2 210 18:39 20.12.2019
2271 Rain 18 1014 93 2000 8.2 210 18:21 20.12.2019
2272 Rain 18 1013 93 2000 7.7 210 17:55 20.12.2019
2273 Rain 18 1013 93 2500 7.7 210 17:37 20.12.2019
2274 Rain 18 1013 93 2500 7.7 210 17:18 20.12.2019
2275 Rain 18 1013 93 2500 7.7 210 17:18 20.12.2019
2276 Rain 19 1013 93 1500 8.2 210 16:40 20.12.2019
2277 Rain 19 1013 93 2500 8.2 0 16:20 20.12.2019
2278 Mist 19 1013 88 3000 7.7 200 15:57 20.12.2019
2279 Mist 19 1013 88 3000 7.7 200 15:39 20.12.2019
2280 Clouds 19 1013 88 5000 7.2 210 15:20 20.12.2019
2281 Rain 18 1013 88 2500 8.2 210 14:59 20.12.2019
2282 Rain 18 1013 88 2500 8.2 210 14:59 20.12.2019
2283 Rain 18 1013 88 2500 8.2 210 14:40 20.12.2019
2284 Rain 18 1014 88 3500 7.7 200 14:22 20.12.2019
2285 Drizzle 18 1012 88 2500 9.3 230 13:55 20.12.2019
2286 Rain 18 1014 93 1500 7.7 210 13:36 20.12.2019
2287 Rain 18 1014 88 3500 8.2 200 13:18 20.12.2019
2288 Drizzle 18 1012 88 2500 9.8 230 12:42 20.12.2019
2289 Mist 19 1014 88 4000 8.7 200 12:20 20.12.2019
2290 Drizzle 18 1012 88 3000 11.3 230 11:59 20.12.2019
2291 Drizzle 19 1012 88 3000 11.3 230 11:40 20.12.2019
2292 Mist 19 1014 88 4000 8.7 200 11:21 20.12.2019
2293 Rain 19 1012 88 7000 11.3 240 10:59 20.12.2019
2294 Rain 19 1012 88 7000 11.3 240 10:41 20.12.2019
2295 Clouds 18 1014 88 4000 8.2 200 10:21 20.12.2019
2296 Clouds 18 1012 88 10000 11.3 230 09:58 20.12.2019
2297 Clouds 19 1012 88 10000 11.3 230 09:40 20.12.2019
2298 Rain 19 1014 93 4000 8.7 200 09:20 20.12.2019
2299 Drizzle 19 1014 88 4000 6.7 210 08:44 20.12.2019
2300 Rain 18 1014 93 6000 7.7 0 08:26 20.12.2019
2301 Rain 18 1013 93 2000 6.7 220 07:59 20.12.2019
2302 Rain 18 1013 93 2000 6.7 220 07:41 20.12.2019
2303 Rain 18 1013 93 6000 8.2 200 07:20 20.12.2019
2304 Rain 18 1013 93 5000 8.2 200 06:52 20.12.2019
2305 Clouds 18 1013 93 6000 8.2 200 06:33 20.12.2019
2306 Clouds 18 1013 93 6000 8.7 200 05:55 20.12.2019
2307 Clouds 18 1013 93 6000 8.7 200 05:36 20.12.2019
2308 Drizzle 18 1013 88 6000 7.7 200 04:33 20.12.2019
2309 Clouds 19 1014 88 6000 7.7 200 03:30 20.12.2019
2310 Clouds 18 1014 88 6000 8.2 200 02:44 20.12.2019
2311 Clouds 19 1015 82 5000 9.3 200 01:52 20.12.2019
2312 Clouds 19 1015 82 8000 8.7 200 01:33 20.12.2019
2313 Clouds 18 1015 82 6000 7.7 190 00:44 20.12.2019
2314 Clouds 18 1015 88 6000 7.2 190 00:25 20.12.2019
2315 Clouds 18 1015 77 8000 7.7 190 23:54 19.12.2019
2316 Clouds 18 1015 77 8000 7.7 190 23:36 19.12.2019
2317 Clouds 17 1016 88 8000 6.2 190 23:18 19.12.2019
2318 Drizzle 17 1016 93 5000 7.7 190 22:37 19.12.2019
2319 Drizzle 18 1016 82 6000 7.7 190 22:19 19.12.2019
2320 Drizzle 18 1016 82 6000 7.7 190 22:19 19.12.2019
2321 Drizzle 19 1016 82 8000 5.7 190 21:55 19.12.2019
2322 Drizzle 19 1016 82 8000 5.7 190 21:37 19.12.2019
2323 Clouds 19 1016 82 8000 6.7 190 21:18 19.12.2019
2324 Clouds 18 1016 77 10000 6.7 220 20:55 19.12.2019
2325 Clouds 18 1016 68 10000 6.7 190 20:36 19.12.2019
2326 Clouds 18 1016 68 10000 6.7 190 20:18 19.12.2019
2327 Clouds 18 1015 82 10000 5.7 220 19:56 19.12.2019
2328 Clouds 18 1016 72 10000 5.7 190 19:37 19.12.2019
2329 Clouds 18 1016 72 10000 5.7 190 19:19 19.12.2019
2330 Clouds 18 1016 72 10000 5.7 190 18:41 19.12.2019
2331 Clouds 18 1016 68 10000 5.7 190 18:22 19.12.2019
2332 Rain 19 1016 72 10000 5.7 220 17:57 19.12.2019
2333 Clouds 19 1016 68 10000 5.1 190 17:39 19.12.2019
2334 Clouds 19 1016 68 10000 5.7 190 17:19 19.12.2019
2335 Rain 19 1017 72 10000 7.2 230 16:57 19.12.2019
2336 Clouds 19 1017 68 10000 6.2 190 16:39 19.12.2019
2337 Clouds 19 1017 68 10000 6.7 180 16:21 19.12.2019
2338 Rain 20 1017 77 10000 5.1 240 15:59 19.12.2019
2339 Rain 19 1017 77 10000 5.1 240 15:39 19.12.2019
2340 Clouds 19 1017 72 10000 5.7 190 15:20 19.12.2019
2341 Clouds 19 1017 72 10000 5.7 190 15:20 19.12.2019
2342 Rain 20 1017 68 10000 8.2 230 14:59 19.12.2019
2343 Rain 19 1017 68 10000 8.2 230 14:41 19.12.2019
2344 Clouds 20 1017 63 10000 5.7 180 14:19 19.12.2019
2345 Clouds 20 1017 63 10000 5.7 180 13:57 19.12.2019
2346 Clouds 20 1017 63 10000 5.7 180 13:37 19.12.2019
2347 Clouds 20 1018 63 10000 5.7 180 13:18 19.12.2019
2348 Clouds 19 1018 67 10000 5.1 180 12:55 19.12.2019
2349 Clouds 19 1018 67 10000 5.1 180 12:36 19.12.2019
2350 Clouds 19 1018 67 10000 6.2 170 12:18 19.12.2019
2351 Clouds 18 1019 67 10000 5.7 170 11:56 19.12.2019
2352 Clouds 18 1019 67 10000 5.7 170 11:38 19.12.2019
2353 Clouds 18 1019 67 10000 5.1 170 11:18 19.12.2019
2354 Clouds 17 1020 72 10000 5.1 180 10:39 19.12.2019
2355 Clouds 17 1019 67 10000 4.1 180 10:20 19.12.2019
2356 Clouds 16 1019 67 10000 4.6 170 09:59 19.12.2019
2357 Clouds 16 1019 67 10000 4.6 170 09:38 19.12.2019
2358 Clouds 16 1019 67 10000 4.1 170 09:20 19.12.2019
2359 Clouds 17 1018 72 10000 5.7 170 08:56 19.12.2019
2360 Clouds 17 1018 72 10000 5.7 170 08:37 19.12.2019
2361 Clouds 16 1018 77 10000 6.7 160 08:18 19.12.2019
2362 Clouds 16 1018 72 10000 4.1 170 07:55 19.12.2019
2363 Clouds 16 1018 72 10000 4.1 170 07:37 19.12.2019
2364 Clouds 16 1019 72 10000 3.6 170 07:19 19.12.2019
2365 Clouds 16 1018 77 10000 4.1 180 06:45 19.12.2019
2366 Clouds 16 1018 67 10000 4.1 170 06:26 19.12.2019
2367 Clouds 16 1018 67 10000 4.1 170 05:49 19.12.2019
2368 Clouds 16 1019 67 10000 4.1 170 05:28 19.12.2019
2369 Clouds 16 1019 67 10000 2.6 170 04:41 19.12.2019
2370 Clouds 14 1020 67 10000 2.6 170 02:30 19.12.2019
2371 Clouds 13 1020 58 10000 2.6 170 01:43 19.12.2019
2372 Clouds 13 1020 58 10000 3.1 170 01:21 19.12.2019
2373 Clouds 13 1019 58 10000 2.1 170 00:39 19.12.2019
2374 Clouds 13 1019 58 10000 2.1 170 00:39 19.12.2019
2375 Clouds 13 1019 62 10000 1 0 00:19 19.12.2019
2376 Clear 13 1019 66 10000 2.6 90 23:45 18.12.2019
2377 Clouds 14 1019 54 10000 3.1 140 23:19 18.12.2019
2378 Clouds 14 1019 54 10000 3.1 140 23:19 18.12.2019
2379 Clouds 13 1020 54 10000 3.6 150 22:58 18.12.2019
2380 Clouds 13 1020 54 10000 3.6 150 22:40 18.12.2019
2381 Clouds 13 1021 58 10000 2.6 150 22:22 18.12.2019
2382 Clear 14 1021 62 10000 2.6 170 21:59 18.12.2019
2383 Clear 14 1021 62 10000 2.6 170 21:41 18.12.2019
2384 Clear 14 1021 62 10000 2.6 160 21:21 18.12.2019
2385 Clear 14 1021 67 10000 2.6 170 20:57 18.12.2019
2386 Clear 14 1021 67 10000 2.6 170 20:57 18.12.2019
2387 Clear 14 1021 67 10000 2.6 170 20:39 18.12.2019
2388 Clouds 14 1021 62 10000 2.1 170 20:20 18.12.2019
2389 Clouds 14 1021 62 10000 2.1 170 20:20 18.12.2019
2390 Clouds 15 1021 62 10000 1.5 190 19:57 18.12.2019
2391 Clouds 15 1021 62 10000 1.5 190 19:39 18.12.2019
2392 Clouds 15 1020 62 10000 1 0 19:19 18.12.2019
2393 Clouds 15 1020 59 10000 1 210 18:56 18.12.2019
2394 Clouds 16 1020 62 10000 1.5 210 18:37 18.12.2019
2395 Clouds 16 1019 59 10000 2.6 210 18:18 18.12.2019
2396 Clouds 17 1019 51 10000 3.1 170 17:55 18.12.2019
2397 Clouds 17 1019 51 10000 3.1 170 17:37 18.12.2019
2398 Clouds 17 1019 51 10000 3.1 170 17:37 18.12.2019
2399 Clouds 17 1020 51 10000 3.1 180 17:18 18.12.2019
2400 Clouds 18 1019 52 10000 2.6 170 16:42 18.12.2019
2401 Clouds 17 1019 48 10000 3.6 180 16:24 18.12.2019
2402 Clouds 17 1020 55 10000 4.6 240 15:57 18.12.2019
2403 Clouds 17 1020 51 10000 4.6 190 15:39 18.12.2019
2404 Clouds 17 1020 51 10000 4.6 190 15:21 18.12.2019
2405 Clouds 17 1020 59 10000 3.1 250 14:56 18.12.2019
2406 Clouds 17 1020 59 10000 3.1 250 14:56 18.12.2019
2407 Clouds 17 1020 59 10000 3.1 250 14:38 18.12.2019
2408 Clouds 18 1020 51 10000 4.6 200 14:19 18.12.2019
2409 Clouds 17 1020 55 10000 5.1 250 13:55 18.12.2019
2410 Clouds 17 1020 55 10000 5.1 250 13:36 18.12.2019
2411 Clouds 17 1021 55 10000 3.6 180 13:18 18.12.2019
2412 Clouds 17 1021 67 10000 3.1 260 12:40 18.12.2019
2413 Clouds 17 1021 59 10000 3.6 170 12:21 18.12.2019
2414 Clouds 16 1021 58 10000 3.6 170 11:57 18.12.2019
2415 Clouds 16 1021 76 10000 1 280 11:39 18.12.2019
2416 Clouds 16 1021 58 10000 4.1 170 11:20 18.12.2019
2417 Clouds 15 1021 67 10000 3.6 170 10:58 18.12.2019
2418 Clouds 15 1021 71 10000 2.6 280 10:39 18.12.2019
2419 Clouds 15 1020 71 10000 3.6 170 10:20 18.12.2019
2420 Clouds 14 1020 76 10000 2.1 300 09:59 18.12.2019
2421 Clouds 14 1020 71 9000 3.6 170 09:20 18.12.2019
2422 Clouds 13 1019 71 10000 3.1 170 08:43 18.12.2019
2423 Clouds 11 1019 71 10000 3.1 170 08:25 18.12.2019
2424 Clouds 11 1019 71 10000 3.1 170 08:25 18.12.2019
2425 Clouds 12 1019 71 10000 3.6 170 07:57 18.12.2019
2426 Clouds 12 1019 71 10000 3.6 170 07:57 18.12.2019
2427 Clouds 12 1019 71 10000 3.6 170 07:39 18.12.2019
2428 Clouds 12 1019 71 10000 3.6 170 07:20 18.12.2019
2429 Clouds 14 1018 71 10000 4.6 160 06:52 18.12.2019
2430 Clouds 14 1019 71 10000 4.1 170 06:25 18.12.2019
2431 Clouds 14 1019 76 10000 4.1 170 05:36 18.12.2019
2432 Clouds 12 1019 71 10000 4.1 160 04:33 18.12.2019
2433 Clouds 12 1018 71 10000 3.6 170 02:48 18.12.2019
2434 Clouds 12 1018 71 10000 3.1 170 02:29 18.12.2019
2435 Clouds 12 1018 71 10000 3.1 160 01:45 18.12.2019
2436 Clouds 13 1019 71 10000 1.5 0 01:27 18.12.2019
2437 Clouds 13 1019 71 6000 2.1 140 00:55 18.12.2019
2438 Rain 13 1019 66 6000 1.5 160 00:36 18.12.2019
2439 Rain 13 1019 66 6000 1.5 160 00:18 18.12.2019
2440 Clouds 13 1019 66 8000 2.1 160 23:43 17.12.2019
2441 Clouds 13 1018 66 8000 1.5 210 23:23 17.12.2019
2442 Clouds 13 1018 66 6000 2.1 280 22:57 17.12.2019
2443 Clouds 13 1018 62 6000 3.6 270 22:39 17.12.2019
2444 Clouds 13 1018 62 6000 3.6 270 22:19 17.12.2019
2445 Clouds 13 1018 62 6000 4.6 270 21:57 17.12.2019
2446 Clouds 13 1018 58 6000 6.2 270 21:38 17.12.2019
2447 Clouds 13 1018 58 6000 6.2 270 21:20 17.12.2019
2448 Clouds 13 1017 62 10000 5.1 260 20:59 17.12.2019
2449 Clouds 13 1017 62 10000 5.1 260 20:39 17.12.2019
2450 Clouds 13 1017 62 6000 5.7 280 20:19 17.12.2019
2451 Clouds 13 1016 62 6000 6.2 270 19:57 17.12.2019
2452 Clear 14 1015 62 10000 7.2 270 19:39 17.12.2019
2453 Clouds 14 1016 54 8000 7.2 280 19:19 17.12.2019
2454 Clouds 14 1014 62 10000 7.7 270 18:56 17.12.2019
2455 Clouds 14 1014 62 10000 7.7 270 18:37 17.12.2019
2456 Clouds 14 1015 54 6000 7.7 270 18:19 17.12.2019
2457 Clouds 14 1015 54 6000 7.7 270 18:19 17.12.2019
2458 Clouds 14 1013 58 10000 9.3 270 17:42 17.12.2019
2459 Clouds 14 1014 58 8000 6.7 270 17:21 17.12.2019
2460 Clouds 15 1013 54 8000 6.2 270 16:57 17.12.2019
2461 Clouds 15 1011 58 10000 7.7 280 16:38 17.12.2019
2462 Clouds 15 1013 58 8000 6.2 290 16:19 17.12.2019
2463 Clouds 15 1010 62 10000 8.2 280 15:59 17.12.2019
2464 Clouds 15 1010 62 10000 8.2 280 15:38 17.12.2019
2465 Clouds 15 1012 54 8000 7.7 290 15:19 17.12.2019
2466 Clouds 15 1009 67 10000 7.7 280 14:56 17.12.2019
2467 Clouds 15 1009 67 10000 7.7 280 14:38 17.12.2019
2468 Clouds 15 1011 51 8000 8.7 290 14:19 17.12.2019
2469 Clouds 15 1009 67 10000 7.7 270 13:56 17.12.2019
2470 Clouds 15 1009 67 10000 7.7 270 13:38 17.12.2019
2471 Clouds 14 1011 54 10000 8.2 290 13:19 17.12.2019
2472 Clouds 14 1008 71 10000 8.2 280 12:56 17.12.2019
2473 Clouds 14 1008 71 10000 8.2 280 12:37 17.12.2019
2474 Clouds 14 1010 58 10000 8.2 300 12:18 17.12.2019
2475 Clouds 13 1010 62 10000 7.7 300 11:55 17.12.2019
2476 Clouds 13 1008 76 10000 7.2 280 11:36 17.12.2019
2477 Clouds 13 1009 62 8000 7.7 300 11:18 17.12.2019
2478 Clouds 13 1009 62 8000 7.7 300 11:18 17.12.2019
2479 Clouds 13 1009 62 8000 7.7 300 11:18 17.12.2019
2480 Clouds 12 1007 76 10000 7.7 280 10:55 17.12.2019
2481 Clouds 13 1007 76 10000 7.7 280 10:36 17.12.2019
2482 Clouds 12 1008 66 8000 7.7 310 10:18 17.12.2019
2483 Clouds 12 1006 81 10000 6.2 280 09:42 17.12.2019
2484 Clouds 12 1006 76 8000 6.2 310 09:21 17.12.2019
2485 Clouds 12 1006 71 6000 7.7 310 08:58 17.12.2019
2486 Clouds 12 1005 93 6000 2.6 290 08:39 17.12.2019
2487 Clouds 12 1005 93 6000 2.6 290 08:21 17.12.2019
2488 Rain 11 1004 93 4000 1.5 140 07:56 17.12.2019
2489 Rain 11 1003 93 4000 2.6 60 07:38 17.12.2019
2490 Rain 11 1003 93 4000 2.6 60 07:18 17.12.2019
2491 Rain 12 1002 87 10000 5.7 230 06:35 17.12.2019
2492 Rain 12 1001 87 4000 5.1 160 05:57 17.12.2019
2493 Rain 12 1001 87 4000 5.1 160 05:38 17.12.2019
2494 Rain 13 1001 87 4000 5.7 170 04:45 17.12.2019
2495 Rain 14 1001 81 4000 4.6 180 02:47 17.12.2019
2496 Rain 14 1000 76 4000 6.7 160 01:56 17.12.2019
2497 Rain 14 1001 81 4000 5.1 170 01:20 17.12.2019
2498 Rain 14 1001 81 4000 6.7 190 00:38 17.12.2019
2499 Rain 14 1001 81 4000 6.7 190 00:20 17.12.2019
2500 Clouds 15 1001 71 6000 6.2 170 23:42 16.12.2019
2501 Clouds 15 1001 71 6000 6.2 170 23:42 16.12.2019
2502 Clouds 15 1001 71 6000 6.2 170 23:19 16.12.2019
2503 Clouds 16 1001 76 6000 4.6 170 22:58 16.12.2019
2504 Clouds 16 1001 72 6000 5.1 160 22:38 16.12.2019
2505 Clouds 16 1001 72 6000 5.1 160 22:19 16.12.2019
2506 Clouds 17 1001 72 6000 4.6 180 21:56 16.12.2019
2507 Clouds 17 1001 72 6000 4.1 180 21:38 16.12.2019
2508 Clouds 17 1001 72 6000 4.1 180 21:20 16.12.2019
2509 Rain 17 1001 67 1800 5.7 180 20:57 16.12.2019
2510 Clouds 17 1001 59 8000 5.7 180 20:38 16.12.2019
2511 Clouds 17 1001 59 8000 5.7 180 20:38 16.12.2019
2512 Clouds 17 1001 59 8000 5.7 180 20:19 16.12.2019
2513 Clouds 17 1000 55 8000 6.2 180 19:56 16.12.2019
2514 Clouds 17 1000 59 8000 6.2 150 19:37 16.12.2019
2515 Clouds 18 1000 59 8000 6.2 150 19:19 16.12.2019
2516 Clouds 18 1000 59 8000 5.1 180 18:56 16.12.2019
2517 Clouds 18 1000 59 8000 5.1 180 18:56 16.12.2019
2518 Clouds 18 1001 63 8000 4.6 180 18:38 16.12.2019
2519 Clouds 18 1001 63 8000 4.6 180 18:19 16.12.2019
2520 Clouds 17 1001 82 10000 3.6 60 17:57 16.12.2019
2521 Clouds 18 1001 82 10000 3.6 60 17:38 16.12.2019
2522 Clouds 17 1001 59 10000 4.6 190 17:20 16.12.2019
2523 Clouds 17 1001 82 10000 4.1 70 16:56 16.12.2019
2524 Clouds 17 1001 82 10000 4.1 70 16:38 16.12.2019
2525 Clouds 17 1000 59 10000 5.1 180 16:19 16.12.2019
2526 Clouds 18 1000 55 10000 4.6 190 15:57 16.12.2019
2527 Clouds 19 1002 82 10000 6.7 80 15:38 16.12.2019
2528 Clouds 19 1001 45 10000 6.7 190 15:20 16.12.2019
2529 Clouds 19 1002 87 10000 6.7 70 14:55 16.12.2019
2530 Clouds 19 1002 87 10000 6.7 70 14:37 16.12.2019
2531 Clouds 19 1002 87 10000 6.7 70 14:37 16.12.2019
2532 Clouds 19 1001 30 10000 4.6 190 14:18 16.12.2019
2533 Clouds 18 1003 87 10000 7.2 70 13:56 16.12.2019
2534 Clouds 18 1003 87 10000 7.2 70 13:56 16.12.2019
2535 Clouds 18 1003 87 10000 7.2 70 13:37 16.12.2019
2536 Clouds 18 1003 35 10000 3.1 210 13:19 16.12.2019
2537 Clouds 18 1005 82 10000 6.2 60 12:56 16.12.2019
2538 Clouds 19 1005 82 10000 6.2 60 12:38 16.12.2019
2539 Clouds 18 1004 30 10000 2.6 170 12:18 16.12.2019
2540 Clouds 17 1006 87 10000 5.7 60 11:57 16.12.2019
2541 Clouds 17 1006 87 10000 5.7 60 11:38 16.12.2019
2542 Clouds 17 1004 39 10000 2.6 90 11:19 16.12.2019
2543 Clouds 16 1007 87 10000 6.7 70 10:54 16.12.2019
2544 Clouds 16 1007 87 10000 6.7 70 10:36 16.12.2019
2545 Clouds 15 1005 31 10000 2.6 120 10:18 16.12.2019
2546 Clouds 15 1007 87 10000 6.2 80 09:43 16.12.2019
2547 Clouds 15 1005 38 10000 2.6 120 09:24 16.12.2019
2548 Clouds 14 1007 87 10000 5.7 80 08:40 16.12.2019
2549 Clouds 14 1007 87 10000 5.7 80 08:40 16.12.2019
2550 Clouds 15 1007 87 10000 5.7 80 08:20 16.12.2019
2551 -273 0 0 0 0 0 07:53 16.12.2019
2552 Clouds 14 1006 71 10000 1 0 07:31 16.12.2019
2553 Clouds 14 1006 71 10000 1 0 07:31 16.12.2019
2554 Clouds 13 1007 87 10000 6.2 90 06:57 16.12.2019
2555 Clouds 13 1007 87 10000 6.2 90 06:39 16.12.2019
2556 Clouds 13 1006 81 10000 3.1 90 06:18 16.12.2019
2557 Clouds 14 1007 81 10000 1.5 50 05:41 16.12.2019
2558 Clouds 14 1007 81 10000 1.5 50 05:22 16.12.2019
2559 Clouds 14 1009 87 10000 2.1 80 03:28 16.12.2019
2560 Clouds 15 1010 67 10000 0.5 0 01:46 16.12.2019
2561 Clouds 15 1010 63 10000 1.5 160 01:21 16.12.2019
2562 Clouds 14 1011 63 10000 2.6 150 00:39 16.12.2019
2563 Clouds 14 1011 63 10000 2.6 150 00:19 16.12.2019
2564 Clouds 14 1011 67 10000 2.6 160 23:44 15.12.2019
2565 Clouds 13 1011 87 10000 2.1 110 23:25 15.12.2019
2566 Clouds 14 1011 82 10000 3.1 90 22:57 15.12.2019
2567 Clouds 14 1012 87 10000 3.1 90 22:39 15.12.2019
2568 Clouds 14 1012 87 10000 3.1 90 22:19 15.12.2019
2569 Clouds 14 1012 87 10000 3.6 90 21:58 15.12.2019
2570 Clouds 13 1012 87 8000 2.1 100 21:39 15.12.2019
2571 Clouds 13 1012 87 8000 2.1 100 21:20 15.12.2019
2572 Clouds 14 1012 87 10000 1.5 90 20:58 15.12.2019
2573 Clouds 14 1013 77 10000 2.1 140 20:58 15.12.2019
2574 Clouds 15 1013 72 10000 2.6 190 20:40 15.12.2019
2575 Clouds 15 1013 87 10000 2.1 70 20:21 15.12.2019
2576 Clouds 15 1013 87 10000 1.5 80 19:58 15.12.2019
2577 Clouds 16 1013 82 10000 1.5 70 19:40 15.12.2019
2578 Clouds 16 1013 82 10000 1.5 70 19:20 15.12.2019
2579 Clouds 16 1013 82 10000 1.5 70 19:20 15.12.2019
2580 Clouds 16 1013 63 10000 1 210 18:58 15.12.2019
2581 Clouds 17 1013 63 10000 1 210 18:39 15.12.2019
2582 Clouds 17 1013 72 10000 1 70 18:19 15.12.2019
2583 Clouds 17 1013 63 10000 0.5 0 17:57 15.12.2019
2584 Clouds 17 1013 67 10000 3.1 280 17:38 15.12.2019
2585 Clouds 17 1013 63 10000 1 0 17:19 15.12.2019
2586 Clouds 18 1014 59 10000 1 0 16:57 15.12.2019
2587 Clouds 18 1014 67 10000 3.6 280 16:39 15.12.2019
2588 Clouds 18 1014 59 10000 1 0 16:20 15.12.2019
2589 Clouds 18 1014 67 10000 1.5 270 15:55 15.12.2019
2590 Clouds 18 1014 63 10000 5.1 280 15:37 15.12.2019
2591 Clouds 18 1015 72 10000 2.1 280 15:18 15.12.2019
2592 Clouds 18 1015 63 10000 2.1 260 14:55 15.12.2019
2593 Clouds 18 1015 63 10000 5.7 270 14:37 15.12.2019
2594 Clouds 18 1016 67 10000 2.1 240 14:18 15.12.2019
2595 Clouds 18 1016 63 10000 5.7 270 13:56 15.12.2019
2596 Clouds 18 1016 63 10000 5.7 270 13:37 15.12.2019
2597 Clouds 18 1017 67 10000 2.6 240 13:19 15.12.2019
2598 Clouds 18 1017 67 10000 2.6 240 13:19 15.12.2019
2599 Clouds 17 1017 63 10000 4.6 280 12:56 15.12.2019
2600 Clouds 17 1017 63 10000 4.6 280 12:38 15.12.2019
2601 Clouds 17 1018 67 10000 3.1 240 12:20 15.12.2019
2602 Clouds 17 1018 63 10000 4.6 240 11:39 15.12.2019
2603 Clouds 16 1019 72 10000 1 0 11:20 15.12.2019
2604 Clouds 16 1019 72 10000 1 0 11:20 15.12.2019
2605 Clouds 14 1018 76 10000 4.1 250 10:58 15.12.2019
2606 Clouds 13 1018 76 10000 4.1 250 10:40 15.12.2019
2607 Clouds 13 1018 93 10000 2.1 80 10:20 15.12.2019
2608 Clouds 12 1018 87 8000 2.6 80 09:59 15.12.2019
2609 Clouds 12 1018 82 10000 4.6 270 09:38 15.12.2019
2610 Clouds 12 1018 93 8000 2.6 80 09:20 15.12.2019
2611 Clouds 12 1018 93 8000 2.6 80 09:20 15.12.2019
2612 Clouds 12 1018 93 8000 2.6 80 08:55 15.12.2019
2613 Clouds 11 1018 93 8000 2.6 80 08:37 15.12.2019
2614 Clouds 11 1018 93 8000 2.6 80 08:19 15.12.2019
2615 Clouds 11 1018 87 8000 2.1 70 07:53 15.12.2019
2616 Clouds 11 1017 87 10000 6.2 290 07:32 15.12.2019
2617 Clouds 12 1018 87 8000 2.1 80 06:30 15.12.2019
2618 Clouds 12 1019 87 8000 2.1 70 05:50 15.12.2019
2619 Clouds 12 1019 87 8000 2.1 70 05:23 15.12.2019
2620 Clouds 13 1019 93 8000 1.5 70 04:24 15.12.2019
2621 Clouds 13 1018 76 10000 7.2 240 02:59 15.12.2019
2622 Clouds 13 1020 87 8000 2.1 80 02:32 15.12.2019
2623 Clouds 12 1020 87 8000 1.5 60 01:42 15.12.2019
2624 Clouds 13 1020 87 8000 1.5 60 01:19 15.12.2019
2625 Clouds 13 1020 93 8000 1.5 60 00:51 15.12.2019
2626 Clouds 12 1021 93 8000 0.5 0 00:33 15.12.2019
2627 Clouds 13 1021 87 10000 1.5 100 23:55 14.12.2019
2628 Clouds 13 1021 87 10000 1 0 23:37 14.12.2019
2629 Clouds 13 1021 87 10000 1 0 23:18 14.12.2019
2630 Clouds 13 1021 87 10000 1 0 23:18 14.12.2019
2631 Clouds 14 1021 81 10000 1.5 80 22:56 14.12.2019
2632 Clouds 14 1021 76 10000 1.5 90 22:37 14.12.2019
2633 Clouds 14 1021 76 10000 1.5 90 22:18 14.12.2019
2634 Clouds 14 1021 76 10000 1.5 90 22:18 14.12.2019
2635 Clouds 14 1021 71 10000 0.5 0 21:55 14.12.2019
2636 Clouds 14 1021 71 10000 2.1 240 21:36 14.12.2019
2637 Clouds 15 1021 71 10000 2.1 240 21:18 14.12.2019
2638 Clouds 16 1021 67 10000 2.6 280 20:42 14.12.2019
2639 Clouds 15 1021 62 10000 3.1 280 20:20 14.12.2019
2640 Clouds 15 1020 67 10000 7.7 260 19:59 14.12.2019
2641 Clouds 15 1021 62 10000 2.6 310 19:39 14.12.2019
2642 Clouds 15 1021 62 10000 2.6 310 19:39 14.12.2019
2643 Clouds 15 1021 62 10000 2.6 310 19:20 14.12.2019
2644 Clouds 16 1021 62 10000 3.1 320 18:56 14.12.2019
2645 Clouds 16 1021 62 10000 3.1 320 18:38 14.12.2019
2646 Clouds 16 1021 62 10000 3.1 320 18:20 14.12.2019
2647 Clouds 16 1021 67 10000 3.6 320 17:44 14.12.2019
2648 Clouds 17 1021 63 10000 3.6 320 17:24 14.12.2019
2649 Clouds 18 1021 63 10000 3.6 320 16:59 14.12.2019
2650 Clouds 18 1020 59 10000 9.3 290 16:40 14.12.2019
2651 Clouds 18 1021 63 10000 4.1 320 16:19 14.12.2019
2652 Clouds 18 1021 63 10000 3.6 310 15:54 14.12.2019
2653 Clouds 18 1019 59 10000 9.3 270 15:36 14.12.2019
2654 Clouds 18 1019 59 10000 9.3 270 15:36 14.12.2019
2655 Clouds 18 1021 63 10000 4.1 310 15:18 14.12.2019
2656 Clouds 18 1020 59 10000 9.3 290 14:40 14.12.2019
2657 Clouds 18 1022 67 10000 4.1 300 14:21 14.12.2019
2658 Clouds 18 1020 63 10000 9.3 280 13:59 14.12.2019
2659 Clouds 18 1020 63 10000 9.3 270 13:41 14.12.2019
2660 Clouds 18 1023 72 8000 3.1 270 13:19 14.12.2019
2661 Clouds 17 1021 59 10000 7.7 290 12:56 14.12.2019
2662 Clouds 17 1021 59 10000 7.7 290 12:37 14.12.2019
2663 Clouds 16 1023 67 8000 3.1 310 12:19 14.12.2019
2664 Clouds 16 1024 67 8000 5.1 300 11:56 14.12.2019
2665 Clouds 16 1022 63 10000 7.2 290 11:37 14.12.2019
2666 Clouds 16 1023 67 8000 5.1 310 11:18 14.12.2019
2667 Clouds 16 1022 77 10000 6.7 260 10:56 14.12.2019
2668 Clouds 16 1022 77 10000 6.7 260 10:38 14.12.2019
2669 Clouds 15 1023 72 8000 4.6 310 10:19 14.12.2019
2670 Clouds 15 1023 77 8000 3.6 320 09:42 14.12.2019
2671 Clouds 15 1023 77 8000 4.1 320 09:21 14.12.2019
2672 Clouds 15 1023 72 8000 6.2 320 08:45 14.12.2019
2673 Clouds 15 1023 72 10000 6.2 310 08:21 14.12.2019
2674 Clouds 15 1022 82 10000 6.2 310 07:58 14.12.2019
2675 Clouds 15 1023 82 10000 5.1 300 07:38 14.12.2019
2676 Clouds 15 1023 82 10000 5.1 300 07:19 14.12.2019
2677 Clouds 15 1022 87 10000 1 0 06:41 14.12.2019
2678 Clouds 15 1022 87 10000 1 0 06:22 14.12.2019
2679 Clouds 15 1023 87 10000 1 0 05:25 14.12.2019
2680 Clouds 16 1024 87 10000 1 0 02:51 14.12.2019
2681 Clouds 16 1024 87 10000 2.1 160 02:23 14.12.2019
2682 Clouds 16 1024 87 10000 0.5 0 01:44 14.12.2019
2683 Clouds 16 1024 87 10000 2.1 170 00:58 14.12.2019
2684 Clouds 16 1024 87 10000 2.1 180 00:40 14.12.2019
2685 Clouds 16 1024 87 10000 2.1 180 00:18 14.12.2019
2686 Clouds 16 1024 87 10000 2.1 180 23:41 13.12.2019
2687 Clouds 16 1024 87 10000 2.1 180 23:19 13.12.2019
2688 Clouds 16 1025 87 10000 2.1 180 22:55 13.12.2019
2689 Clouds 16 1025 93 10000 2.6 180 22:37 13.12.2019
2690 Clouds 16 1025 93 10000 2.6 180 22:18 13.12.2019
2691 Clouds 16 1025 93 10000 2.1 180 21:42 13.12.2019
2692 Clouds 16 1025 93 10000 1.5 180 21:21 13.12.2019
2693 Clouds 16 1023 82 10000 6.7 260 20:57 13.12.2019
2694 Clouds 17 1023 82 10000 6.7 260 20:39 13.12.2019
2695 Clouds 17 1025 93 7000 2.1 180 20:19 13.12.2019
2696 Clouds 16 1023 82 10000 5.1 260 19:56 13.12.2019
2697 Clouds 16 1023 82 10000 5.1 260 19:56 13.12.2019
2698 Clouds 17 1025 93 6000 2.1 180 19:37 13.12.2019
2699 Clouds 17 1024 87 6000 2.1 200 19:18 13.12.2019
2700 Clouds 17 1023 77 10000 7.2 270 18:42 13.12.2019
2701 Clouds 17 1024 87 6000 2.6 230 18:20 13.12.2019
2702 Clouds 17 1024 87 6000 2.6 230 18:20 13.12.2019
2703 Clouds 17 1023 72 10000 8.2 270 17:58 13.12.2019
2704 Clouds 17 1024 93 7000 2.6 230 17:39 13.12.2019
2705 Clouds 17 1025 100 5000 3.1 240 17:18 13.12.2019
2706 Clouds 17 1025 100 5000 3.1 240 17:18 13.12.2019
2707 Clouds 17 1023 68 10000 8.7 270 16:55 13.12.2019
2708 Rain 17 1025 100 3000 5.7 250 16:37 13.12.2019
2709 Rain 17 1025 100 1500 6.7 260 16:18 13.12.2019
2710 Clouds 17 1023 72 10000 8.2 280 15:41 13.12.2019
2711 Rain 17 1025 93 2000 3.1 210 15:21 13.12.2019
2712 Rain 17 1025 100 3000 3.1 180 14:56 13.12.2019
2713 Rain 17 1025 100 3000 3.1 180 14:36 13.12.2019
2714 Rain 17 1026 93 4000 3.1 180 14:18 13.12.2019
2715 Rain 17 1026 93 4000 3.1 180 13:43 13.12.2019
2716 Rain 17 1027 100 4000 4.1 180 13:24 13.12.2019
2717 Clouds 17 1025 77 10000 7.7 260 12:55 13.12.2019
2718 Rain 17 1027 100 3000 4.6 180 12:36 13.12.2019
2719 Rain 17 1027 93 3000 4.6 180 12:18 13.12.2019
2720 Rain 17 1027 93 3000 4.6 180 12:18 13.12.2019
2721 Rain 17 1027 93 4000 4.1 170 11:42 13.12.2019
2722 Rain 16 1027 93 2500 4.6 170 11:24 13.12.2019
2723 Rain 15 1027 100 1500 4.1 180 10:56 13.12.2019
2724 Rain 16 1027 100 1500 4.1 180 10:38 13.12.2019
2725 Rain 15 1027 93 3000 4.6 180 10:19 13.12.2019
2726 Rain 16 1026 93 4000 4.1 190 09:41 13.12.2019
2727 Rain 16 1026 93 4000 4.1 170 09:20 13.12.2019
2728 Clouds 16 1026 93 5000 4.1 180 08:44 13.12.2019
2729 Clouds 16 1026 93 8000 4.6 180 08:26 13.12.2019
2730 Clouds 16 1026 93 5000 4.1 180 07:48 13.12.2019
2731 Clouds 16 1026 93 5000 4.1 180 07:25 13.12.2019
2732 Rain 16 1026 93 3000 4.1 190 06:55 13.12.2019
2733 Clouds 16 1026 93 7000 4.1 180 06:29 13.12.2019
2734 Clouds 16 1026 87 8000 4.1 180 05:51 13.12.2019
2735 Clouds 16 1026 82 8000 3.1 190 05:30 13.12.2019
2736 Clouds 16 1026 76 8000 3.1 190 04:48 13.12.2019
2737 Clouds 17 1026 77 8000 4.1 230 03:50 13.12.2019
2738 Clouds 17 1026 77 8000 7.7 250 02:35 13.12.2019
2739 Clouds 17 1026 72 8000 6.2 240 01:50 13.12.2019
2740 Clouds 17 1027 67 8000 6.7 250 01:21 13.12.2019
2741 Clouds 17 1027 72 8000 6.7 260 00:46 13.12.2019
2742 Clouds 17 1027 72 8000 6.7 240 00:24 13.12.2019
2743 Clouds 16 1027 72 8000 7.2 250 23:41 12.12.2019
2744 Clouds 16 1027 67 8000 6.7 260 23:22 12.12.2019
2745 Clouds 16 1027 67 10000 7.7 260 22:56 12.12.2019
2746 Clouds 16 1027 67 10000 7.7 260 22:38 12.12.2019
2747 Clouds 16 1026 67 10000 7.2 260 22:19 12.12.2019
2748 Clouds 16 1026 67 10000 6.7 250 21:55 12.12.2019
2749 Clouds 16 1026 67 10000 6.7 250 21:55 12.12.2019
2750 Clouds 16 1026 67 10000 6.7 250 21:55 12.12.2019
2751 Clouds 16 1026 67 10000 6.7 250 21:37 12.12.2019
2752 Clouds 16 1027 67 10000 6.2 250 21:19 12.12.2019
2753 Clouds 15 1027 67 10000 6.2 260 20:56 12.12.2019
2754 Clouds 16 1027 67 10000 6.2 260 20:38 12.12.2019
2755 Clouds 16 1025 67 10000 8.2 260 20:20 12.12.2019
2756 Clouds 15 1025 67 10000 7.7 270 19:43 12.12.2019
2757 Clouds 15 1025 67 10000 7.7 270 19:43 12.12.2019
2758 Clouds 15 1025 67 10000 7.7 260 19:23 12.12.2019
2759 Clouds 15 1025 67 10000 7.7 260 18:58 12.12.2019
2760 Clouds 16 1026 62 10000 5.1 260 18:40 12.12.2019
2761 Clouds 15 1027 62 10000 5.7 260 18:21 12.12.2019
2762 Clouds 15 1025 67 10000 8.2 270 17:59 12.12.2019
2763 Clouds 17 1027 62 10000 6.7 260 17:40 12.12.2019
2764 Clouds 15 1027 67 10000 6.7 270 17:21 12.12.2019
2765 Clouds 16 1025 59 10000 8.7 280 16:59 12.12.2019
2766 Clouds 16 1027 59 10000 6.2 270 16:41 12.12.2019
2767 Clouds 15 1027 67 10000 4.1 270 16:21 12.12.2019
2768 Clouds 16 1025 59 10000 8.2 270 15:58 12.12.2019
2769 Clouds 15 1027 62 10000 5.1 280 15:40 12.12.2019
2770 Clouds 16 1027 59 10000 6.7 290 15:19 12.12.2019
2771 Clouds 16 1026 63 10000 6.7 290 14:56 12.12.2019
2772 Clouds 16 1026 63 10000 6.7 290 14:56 12.12.2019
2773 Clouds 16 1027 62 10000 6.2 280 14:36 12.12.2019
2774 Clouds 15 1028 67 10000 5.7 270 14:18 12.12.2019
2775 Clouds 15 1028 62 10000 6.2 290 13:54 12.12.2019
2776 Clouds 15 1028 62 10000 6.2 290 13:36 12.12.2019
2777 Clouds 15 1029 67 10000 5.1 290 13:18 12.12.2019
2778 Clouds 15 1030 67 10000 6.2 300 12:41 12.12.2019
2779 Clouds 15 1030 67 10000 6.2 300 12:41 12.12.2019
2780 Clouds 15 1030 67 10000 5.1 310 12:22 12.12.2019
2781 Clouds 15 1029 62 10000 4.6 290 11:59 12.12.2019
2782 Clouds 15 1029 62 10000 4.1 280 11:39 12.12.2019
2783 Clouds 15 1029 62 10000 4.6 290 11:39 12.12.2019
2784 Clouds 14 1029 62 10000 4.1 280 11:21 12.12.2019
2785 Clouds 13 1029 62 10000 4.1 300 10:57 12.12.2019
2786 Clouds 13 1029 62 10000 4.1 300 10:39 12.12.2019
2787 Clouds 13 1029 66 10000 3.6 300 10:21 12.12.2019
2788 Clouds 11 1027 62 10000 7.2 280 09:55 12.12.2019
2789 Clouds 11 1029 76 10000 1.5 280 09:37 12.12.2019
2790 Clouds 11 1028 87 10000 0.5 0 09:19 12.12.2019
2791 Clouds 11 1028 87 8000 1.5 60 08:43 12.12.2019
2792 Clouds 11 1028 81 8000 1.5 120 08:25 12.12.2019
2793 Clouds 11 1028 81 8000 1.5 120 08:25 12.12.2019
2794 Clouds 11 1028 81 8000 1 0 07:49 12.12.2019
2795 Clouds 11 1028 81 8000 1 0 07:49 12.12.2019
2796 Clouds 11 1028 81 7000 1 0 07:27 12.12.2019
2797 Clouds 11 1028 87 7000 1 0 06:55 12.12.2019
2798 Clouds 11 1028 81 7000 1.5 80 06:35 12.12.2019
2799 Clouds 12 1028 76 7000 2.1 350 05:42 12.12.2019
2800 Clouds 12 1028 76 7000 3.1 330 04:54 12.12.2019
2801 Clear 12 1028 76 10000 1.5 350 04:23 12.12.2019
2802 Clear 13 1028 76 10000 0.5 0 02:40 12.12.2019
2803 Clouds 13 1028 71 10000 2.1 330 02:22 12.12.2019
2804 Clouds 13 1028 76 10000 3.1 330 01:46 12.12.2019
2805 Clouds 14 1028 71 9000 3.6 330 01:28 12.12.2019
2806 Clouds 13 1028 71 9000 4.6 330 00:47 12.12.2019
2807 Clouds 14 1028 67 9000 4.6 330 00:20 12.12.2019
2808 Clouds 14 1028 71 7000 3.6 310 23:45 11.12.2019
2809 Clouds 14 1028 67 7000 3.1 310 23:21 11.12.2019
2810 Clouds 15 1028 67 8000 3.6 330 22:58 11.12.2019
2811 Clouds 15 1028 67 8000 3.6 330 22:39 11.12.2019
2812 Clouds 15 1028 58 8000 5.1 320 22:20 11.12.2019
2813 Clouds 16 1028 62 8000 5.7 320 21:59 11.12.2019
2814 Clouds 16 1028 62 8000 5.7 320 21:39 11.12.2019
2815 Clouds 16 1028 63 8000 4.1 320 21:20 11.12.2019
2816 Clouds 16 1028 87 8000 1 270 20:57 11.12.2019
2817 Clouds 16 1028 87 8000 1 270 20:39 11.12.2019
2818 Clouds 16 1027 82 8000 2.1 280 20:19 11.12.2019
2819 Clouds 16 1027 77 10000 3.6 310 19:58 11.12.2019
2820 Clouds 16 1027 77 10000 3.6 310 19:40 11.12.2019
2821 Clouds 17 1027 82 8000 2.6 290 19:19 11.12.2019
2822 Clouds 16 1027 87 10000 3.1 270 18:42 11.12.2019
2823 Clouds 17 1027 82 10000 3.1 210 18:22 11.12.2019
2824 Clouds 17 1027 87 10000 3.1 210 17:57 11.12.2019
2825 Clouds 18 1027 87 10000 3.1 210 17:39 11.12.2019
2826 Clouds 18 1026 77 10000 3.6 200 17:19 11.12.2019
2827 Clouds 18 1025 63 10000 6.7 260 16:58 11.12.2019
2828 Clouds 18 1026 77 10000 3.6 210 16:40 11.12.2019
2829 Clouds 18 1026 77 10000 5.1 210 16:22 11.12.2019
2830 Clouds 18 1024 68 10000 7.2 260 15:59 11.12.2019
2831 Clouds 18 1024 68 10000 7.2 260 15:41 11.12.2019
2832 Clouds 19 1026 77 10000 4.6 210 15:23 11.12.2019
2833 Clouds 19 1026 72 10000 4.6 210 14:56 11.12.2019
2834 Clouds 19 1026 72 10000 4.6 210 14:38 11.12.2019
2835 Clouds 18 1027 77 10000 4.6 200 14:20 11.12.2019
2836 Clouds 18 1025 63 10000 6.7 260 13:55 11.12.2019
2837 Clouds 18 1027 77 8000 5.1 210 13:37 11.12.2019
2838 Clouds 18 1027 77 8000 4.6 200 13:18 11.12.2019
2839 Clouds 18 1028 77 8000 3.6 200 12:55 11.12.2019
2840 Clouds 18 1028 77 8000 3.6 200 12:37 11.12.2019
2841 Clouds 17 1028 82 6000 2.6 180 12:18 11.12.2019
2842 Clouds 17 1028 82 6000 2.6 180 12:18 11.12.2019
2843 Clouds 17 1027 59 10000 5.7 270 11:57 11.12.2019
2844 Clouds 17 1027 59 10000 5.7 270 11:57 11.12.2019
2845 Clouds 17 1028 82 6000 3.1 180 11:38 11.12.2019
2846 Clouds 17 1028 82 6000 3.1 180 11:38 11.12.2019
2847 Clouds 17 1028 87 6000 2.6 180 11:18 11.12.2019
2848 Clouds 17 1028 87 6000 2.6 180 11:18 11.12.2019
2849 Clouds 16 1026 72 10000 5.1 240 10:44 11.12.2019
2850 Clouds 16 1026 72 10000 5.1 240 10:44 11.12.2019
2851 Clouds 16 1027 87 6000 2.6 180 10:26 11.12.2019
2852 Clouds 16 1025 72 10000 5.1 240 09:59 11.12.2019
2853 Clouds 15 1027 93 6000 2.6 180 09:39 11.12.2019
2854 Clouds 15 1027 93 6000 2.6 180 09:39 11.12.2019
2855 Clouds 15 1027 87 6000 2.1 180 09:20 11.12.2019
2856 Mist 15 1027 87 4000 2.6 180 08:57 11.12.2019
2857 Mist 15 1027 87 4000 2.6 180 08:38 11.12.2019
2858 Mist 15 1027 93 3000 2.1 170 08:19 11.12.2019
2859 Mist 15 1026 100 3000 2.6 170 07:45 11.12.2019
2860 Clouds 15 1025 82 10000 2.6 270 07:26 11.12.2019
2861 Mist 15 1026 93 3000 0.5 0 06:57 11.12.2019
2862 Mist 15 1026 93 3000 0.5 0 06:37 11.12.2019
2863 Mist 15 1026 93 3000 0.5 0 06:18 11.12.2019
2864 Mist 15 1026 100 3000 1 0 05:37 11.12.2019
2865 Mist 15 1026 93 3000 2.1 70 04:57 11.12.2019
2866 Clear 15 1025 72 10000 9.3 270 03:49 11.12.2019
2867 Mist 15 1026 100 3000 1.5 90 02:49 11.12.2019
2868 Mist 14 1026 100 3000 2.1 80 01:23 11.12.2019
2869 Mist 15 1027 100 4000 2.1 80 00:46 11.12.2019
2870 Clouds 14 1027 93 6000 1.5 80 00:21 11.12.2019
2871 Clouds 13 1026 93 6000 1.5 30 23:46 10.12.2019
2872 Clouds 14 1026 93 6000 1.5 60 23:28 10.12.2019
2873 Clouds 14 1026 93 6000 2.1 100 22:57 10.12.2019
2874 Clouds 14 1026 93 6000 2.1 100 22:39 10.12.2019
2875 Clouds 14 1027 93 6000 1 0 22:21 10.12.2019
2876 Clouds 15 1027 93 6000 1 100 21:55 10.12.2019
2877 Clouds 15 1027 93 6000 1 100 21:55 10.12.2019
2878 Clouds 15 1027 87 6000 1 90 21:37 10.12.2019
2879 Clouds 15 1027 87 6000 1 90 21:19 10.12.2019
2880 Clouds 16 1027 87 6000 0.5 0 20:56 10.12.2019
2881 Clouds 16 1027 87 6000 0.5 0 20:37 10.12.2019
2882 Clouds 16 1027 87 6000 0.5 0 20:37 10.12.2019
2883 Clouds 16 1027 87 6000 1.5 240 20:19 10.12.2019
2884 Clouds 15 1027 87 6000 2.6 260 19:54 10.12.2019
2885 Clouds 16 1026 87 6000 1.5 250 19:36 10.12.2019
2886 Clouds 16 1026 87 6000 1.5 250 19:18 10.12.2019
2887 Clouds 16 1026 87 8000 2.1 240 18:40 10.12.2019
2888 Clouds 17 1026 82 8000 2.1 250 18:20 10.12.2019
2889 Clouds 18 1026 82 8000 2.1 240 17:57 10.12.2019
2890 Clouds 18 1026 82 8000 2.1 240 17:39 10.12.2019
2891 Clouds 18 1026 82 8000 3.1 250 17:20 10.12.2019
2892 Clouds 19 1026 77 8000 4.1 260 16:43 10.12.2019
2893 Clouds 19 1026 77 8000 3.6 250 16:20 10.12.2019
2894 Clouds 20 1026 77 8000 4.6 270 15:58 10.12.2019
2895 Clouds 20 1026 77 8000 4.6 270 15:37 10.12.2019
2896 Clouds 20 1026 72 8000 3.1 220 15:18 10.12.2019
2897 Clouds 20 1026 72 8000 3.1 220 15:18 10.12.2019
2898 Clouds 20 1025 63 10000 4.6 210 14:55 10.12.2019
2899 Clouds 20 1027 72 8000 3.6 220 14:37 10.12.2019
2900 Clouds 19 1027 77 8000 3.1 210 14:19 10.12.2019
2901 Clouds 19 1026 59 10000 3.6 210 13:56 10.12.2019
2902 Clouds 19 1027 72 6000 2.6 220 13:37 10.12.2019
2903 Clouds 18 1028 77 6000 3.1 210 13:18 10.12.2019
2904 Clouds 19 1028 77 6000 2.1 220 12:40 10.12.2019
2905 Clouds 18 1028 77 6000 2.6 210 12:22 10.12.2019
2906 Clouds 16 1028 82 10000 2.6 250 11:42 10.12.2019
2907 Clouds 16 1028 82 6000 2.1 180 11:24 10.12.2019
2908 Clouds 14 1027 87 10000 2.6 280 10:56 10.12.2019
2909 Fog 14 1028 100 6000 0.5 0 10:37 10.12.2019
2910 Fog 14 1028 100 6000 2.1 80 10:19 10.12.2019
2911 Clear 13 1027 93 10000 4.6 260 09:55 10.12.2019
2912 Fog 13 1028 100 6000 2.1 80 09:37 10.12.2019
2913 Fog 13 1028 100 6000 2.1 70 09:19 10.12.2019
2914 Fog 12 1028 100 6000 1.5 70 08:54 10.12.2019
2915 Fog 12 1028 100 6000 1.5 70 08:36 10.12.2019
2916 Fog 12 1028 100 6000 1 50 08:18 10.12.2019
2917 Clouds 13 1028 100 6000 0.5 0 07:43 10.12.2019
2918 Clouds 13 1027 93 6000 1 70 07:24 10.12.2019
2919 Clouds 13 1027 100 6000 2.1 70 06:46 10.12.2019
2920 Clouds 13 1027 100 6000 1.5 60 06:19 10.12.2019
2921 Clouds 13 1027 100 6000 2.1 90 05:54 10.12.2019
2922 Clouds 14 1028 100 6000 1 0 04:52 10.12.2019
2923 Mist 13 1028 100 4000 0.5 0 03:37 10.12.2019
2924 Mist 14 1028 93 4000 0.5 0 02:45 10.12.2019
2925 Mist 14 1028 93 4000 0.5 0 01:44 10.12.2019
2926 Clouds 14 1028 87 6000 0.5 0 01:21 10.12.2019
2927 Clouds 15 1029 93 6000 1 180 00:41 10.12.2019
2928 Clouds 15 1029 93 6000 0.5 0 00:21 10.12.2019
2929 Clouds 15 1029 93 6000 0.5 0 23:41 09.12.2019
2930 Mist 15 1029 93 4000 1 0 23:23 09.12.2019
2931 Mist 15 1029 93 4000 0.5 0 22:58 09.12.2019
2932 Mist 15 1029 93 4000 0.5 0 22:40 09.12.2019
2933 Mist 15 1029 93 4000 1 0 22:20 09.12.2019
2934 Mist 16 1029 93 4000 0.5 0 21:57 09.12.2019
2935 Mist 16 1029 93 4000 0.5 0 21:38 09.12.2019
2936 Mist 16 1029 93 4000 0.5 0 21:19 09.12.2019
2937 Clouds 16 1029 93 6000 0.5 0 20:56 09.12.2019
2938 Clouds 16 1029 93 6000 0.5 0 20:38 09.12.2019
2939 Clouds 16 1029 93 6000 1 0 20:20 09.12.2019
2940 Clouds 16 1029 93 6000 1 0 19:55 09.12.2019
2941 Clouds 17 1029 93 6000 1 0 19:37 09.12.2019
2942 Clouds 18 1027 72 10000 8.2 270 19:19 09.12.2019
2943 Clouds 17 1027 72 10000 6.7 280 18:56 09.12.2019
2944 Clouds 17 1027 72 10000 6.7 280 18:56 09.12.2019
2945 Clouds 17 1027 72 10000 6.7 280 18:38 09.12.2019
2946 Clouds 17 1027 72 10000 6.7 280 18:19 09.12.2019
2947 Clouds 18 1026 72 10000 6.2 280 17:57 09.12.2019
2948 Mist 18 1028 93 3000 1.5 200 17:38 09.12.2019
2949 Mist 18 1028 93 3000 1.5 220 17:20 09.12.2019
2950 Clouds 18 1026 68 10000 7.2 270 16:56 09.12.2019
2951 Mist 18 1028 93 3000 1.5 190 16:37 09.12.2019
2952 Mist 18 1028 93 4000 2.1 210 16:19 09.12.2019
2953 Mist 18 1028 93 4000 2.1 210 15:55 09.12.2019
2954 Mist 18 1028 93 4000 2.1 210 15:54 09.12.2019
2955 Mist 18 1028 93 4000 2.1 210 15:36 09.12.2019
2956 Clouds 18 1028 87 5000 2.1 200 15:18 09.12.2019
2957 Clouds 18 1027 68 10000 8.2 270 14:41 09.12.2019
2958 Mist 18 1029 93 3000 2.6 190 14:18 09.12.2019
2959 Clouds 18 1027 68 10000 6.7 260 13:56 09.12.2019
2960 Mist 18 1029 87 3000 2.1 190 13:38 09.12.2019
2961 Clouds 18 1030 87 4000 2.1 180 13:19 09.12.2019
2962 Clouds 18 1030 87 6000 2.6 190 12:56 09.12.2019
2963 Clouds 18 1030 87 6000 2.6 190 12:37 09.12.2019
2964 Clouds 18 1030 82 6000 2.6 190 12:18 09.12.2019
2965 Clouds 17 1030 82 6000 2.6 180 11:55 09.12.2019
2966 Clouds 17 1030 82 6000 2.1 190 11:36 09.12.2019
2967 Clouds 17 1030 82 6000 2.1 190 11:18 09.12.2019
2968 Clouds 16 1030 87 6000 1.5 190 10:39 09.12.2019
2969 Clouds 16 1030 82 6000 2.1 180 10:20 09.12.2019
2970 Clouds 15 1029 87 8000 2.1 190 09:56 09.12.2019
2971 Clouds 15 1029 87 8000 2.1 190 09:37 09.12.2019
2972 Clouds 15 1029 87 8000 2.1 180 09:19 09.12.2019
2973 Clouds 15 1029 82 6000 2.6 190 08:40 09.12.2019
2974 Clouds 16 1029 77 6000 1 0 08:22 09.12.2019
2975 Clouds 16 1029 82 6000 1 0 07:53 09.12.2019
2976 Clouds 16 1028 87 6000 1 0 07:34 09.12.2019
2977 Clouds 16 1028 87 6000 0.5 0 06:59 09.12.2019
2978 Clouds 16 1028 87 6000 1 0 06:33 09.12.2019
2979 Clouds 16 1028 87 6000 1 0 05:51 09.12.2019
2980 Clouds 16 1028 87 6000 1.5 170 05:25 09.12.2019
2981 Clouds 16 1028 82 6000 2.1 180 04:28 09.12.2019
2982 Clouds 16 1028 87 6000 0.5 0 02:46 09.12.2019
2983 Clouds 16 1028 93 6000 1 0 01:48 09.12.2019
2984 Clouds 16 1029 93 6000 0.5 0 01:23 09.12.2019
2985 Clouds 16 1029 87 5000 0.5 0 00:34 09.12.2019
2986 Clouds 16 1028 93 5000 2.1 180 23:58 08.12.2019
2987 Clouds 16 1028 93 5000 2.1 180 23:37 08.12.2019
2988 Clouds 15 1028 93 5000 1 0 23:19 08.12.2019
2989 Clouds 15 1028 93 5000 1.5 210 22:56 08.12.2019
2990 Clouds 15 1028 93 5000 1.5 210 22:38 08.12.2019
2991 Clouds 15 1028 93 5000 1.5 170 22:18 08.12.2019
2992 Clouds 15 1028 93 5000 1.5 190 21:57 08.12.2019
2993 Clouds 15 1028 93 5000 1.5 190 21:37 08.12.2019
2994 Clouds 15 1028 93 6000 1.5 170 21:19 08.12.2019
2995 Clouds 15 1028 93 6000 1.5 180 20:56 08.12.2019
2996 Clouds 15 1028 93 6000 1.5 180 20:37 08.12.2019
2997 Clouds 16 1028 93 6000 1.5 230 20:19 08.12.2019
2998 Clouds 16 1028 93 6000 1.5 200 19:55 08.12.2019
2999 Clouds 16 1028 93 6000 1.5 200 19:37 08.12.2019
3000 Clouds 16 1028 93 6000 1.5 200 19:37 08.12.2019
3001 Clouds 16 1027 93 6000 2.1 210 19:18 08.12.2019
3002 Clouds 17 1027 87 6000 2.1 220 18:54 08.12.2019
3003 Clouds 17 1027 87 6000 2.1 220 18:36 08.12.2019
3004 Clouds 17 1027 87 6000 2.1 220 18:36 08.12.2019
3005 Clouds 17 1027 87 8000 2.1 210 18:18 08.12.2019
3006 Clouds 18 1025 59 10000 7.7 270 17:55 08.12.2019
3007 Clouds 18 1026 87 10000 2.6 210 17:36 08.12.2019
3008 Clouds 18 1026 87 10000 2.6 220 17:18 08.12.2019
3009 Clouds 18 1026 82 10000 3.1 230 16:55 08.12.2019
3010 Clouds 19 1026 82 10000 3.1 230 16:37 08.12.2019
3011 Clouds 19 1026 82 8000 2.6 220 16:18 08.12.2019
3012 Clouds 19 1026 82 10000 3.6 230 15:37 08.12.2019
3013 Clouds 19 1026 77 10000 3.6 230 15:18 08.12.2019
3014 Clouds 19 1026 72 10000 3.6 230 14:57 08.12.2019
3015 Clouds 19 1026 72 10000 3.6 230 14:37 08.12.2019
3016 Clouds 19 1026 72 10000 2.1 220 14:19 08.12.2019
3017 Clouds 19 1027 72 10000 2.6 230 13:41 08.12.2019
3018 Clouds 19 1027 72 10000 2.6 230 13:41 08.12.2019
3019 Clouds 19 1027 72 10000 2.6 230 13:22 08.12.2019
3020 Clouds 18 1028 68 10000 2.6 230 12:59 08.12.2019
3021 Clouds 18 1028 68 10000 2.6 230 12:40 08.12.2019
3022 Clear 18 1028 68 10000 2.1 220 12:20 08.12.2019
3023 Clear 16 1028 72 10000 1.5 160 11:58 08.12.2019
3024 Clear 15 1028 87 10000 1 0 11:38 08.12.2019
3025 Clear 14 1028 87 10000 1 0 11:19 08.12.2019
3026 Clear 13 1027 87 10000 3.6 260 10:57 08.12.2019
3027 Clouds 12 1027 93 8000 2.1 90 10:38 08.12.2019
3028 Clouds 12 1027 93 6000 2.1 90 10:19 08.12.2019
3029 Clear 11 1026 93 10000 2.6 250 09:55 08.12.2019
3030 Clouds 10 1027 93 5000 2.6 80 09:36 08.12.2019
3031 Clouds 10 1027 93 5000 2.6 80 09:18 08.12.2019
3032 Mist 10 1026 100 4000 2.1 90 08:42 08.12.2019
3033 Mist 11 1026 93 4000 3.1 90 08:23 08.12.2019
3034 Mist 11 1026 93 4000 2.6 90 07:55 08.12.2019
3035 Mist 11 1026 93 4000 2.6 90 07:36 08.12.2019
3036 Mist 11 1025 93 4000 2.6 90 07:18 08.12.2019
3037 Mist 11 1025 93 4000 2.6 80 06:40 08.12.2019
3038 Mist 11 1025 93 4000 1 120 06:20 08.12.2019
3039 Clouds 13 1025 93 6000 1.5 130 05:23 08.12.2019
3040 Clouds 12 1025 93 6000 0.5 0 04:46 08.12.2019
3041 Clouds 12 1025 93 6000 1.5 120 03:39 08.12.2019
3042 Clouds 13 1025 93 7000 1.5 70 02:42 08.12.2019
3043 Clouds 14 1025 93 10000 2.6 90 02:20 08.12.2019
3044 Clouds 14 1025 93 10000 2.1 90 01:40 08.12.2019
3045 Clouds 14 1025 93 10000 2.6 90 00:53 08.12.2019
3046 Clouds 14 1025 93 10000 1.5 60 00:24 08.12.2019
3047 Clouds 14 1025 87 10000 2.1 70 23:57 07.12.2019
3048 Clouds 14 1025 87 10000 2.1 70 23:37 07.12.2019
3049 Clouds 15 1025 87 10000 2.1 70 23:18 07.12.2019
3050 Clouds 15 1025 87 10000 1.5 60 22:55 07.12.2019
3051 Clouds 15 1025 87 10000 1.5 60 22:37 07.12.2019
3052 Clouds 13 1025 87 10000 2.1 80 22:18 07.12.2019
3053 Clouds 15 1024 87 10000 1.5 80 21:55 07.12.2019
3054 Clouds 15 1024 87 10000 1.5 80 21:37 07.12.2019
3055 Clouds 16 1024 82 10000 2.1 40 21:18 07.12.2019
3056 Clouds 16 1024 82 10000 2.1 120 20:38 07.12.2019
3057 Clouds 16 1024 87 10000 2.1 80 20:20 07.12.2019
3058 Clouds 16 1023 82 8000 2.1 70 19:57 07.12.2019
3059 Clouds 17 1023 82 8000 2.1 70 19:39 07.12.2019
3060 Clouds 17 1023 82 8000 3.6 50 19:21 07.12.2019
3061 Clouds 17 1023 82 8000 2.6 40 18:58 07.12.2019
3062 Clouds 17 1023 82 8000 2.6 40 18:58 07.12.2019
3063 Clouds 17 1023 82 8000 2.6 40 18:39 07.12.2019
3064 Clouds 17 1022 87 10000 1 0 18:18 07.12.2019
3065 Clouds 17 1023 77 10000 1.5 80 17:55 07.12.2019
3066 Clouds 17 1022 82 10000 2.1 240 17:37 07.12.2019
3067 -273 0 0 0 0 0 17:18 07.12.2019
3068 Clouds 18 1022 77 10000 1.5 80 16:55 07.12.2019
3069 Clouds 18 1021 77 10000 2.1 240 16:36 07.12.2019
3070 Clouds 18 1021 77 10000 2.1 230 16:18 07.12.2019
3071 Clouds 18 1022 77 10000 2.1 120 15:40 07.12.2019
3072 Clouds 18 1021 77 10000 3.1 240 15:22 07.12.2019
3073 Clouds 18 1022 77 10000 3.1 100 14:43 07.12.2019
3074 Clouds 18 1021 72 10000 3.6 240 14:20 07.12.2019
3075 Clouds 18 1022 60 10000 1 0 13:59 07.12.2019
3076 Clouds 18 1022 60 10000 1 0 13:39 07.12.2019
3077 Clouds 18 1022 63 10000 1.5 40 13:20 07.12.2019
3078 Clouds 18 1022 60 10000 2.6 120 12:55 07.12.2019
3079 Clouds 18 1022 60 10000 2.6 120 12:36 07.12.2019
3080 Clouds 18 1022 63 10000 3.6 90 12:18 07.12.2019
3081 Clouds 17 1022 63 10000 3.6 90 11:41 07.12.2019
3082 Clouds 18 1023 77 10000 2.1 70 11:41 07.12.2019
3083 Clouds 17 1022 72 10000 4.1 80 11:23 07.12.2019
3084 Clouds 17 1021 77 10000 5.1 80 10:55 07.12.2019
3085 Clouds 16 1021 77 10000 5.1 80 10:36 07.12.2019
3086 Clouds 16 1021 77 10000 5.1 80 10:36 07.12.2019
3087 Clouds 16 1021 77 10000 6.7 80 10:18 07.12.2019
3088 Clouds 15 1021 77 10000 6.7 80 09:39 07.12.2019
3089 Clouds 15 1021 82 10000 5.7 70 09:21 07.12.2019
3090 Clouds 15 1020 77 10000 4.6 70 08:45 07.12.2019
3091 Clear 15 1020 77 10000 5.7 70 08:25 07.12.2019
3092 Clear 16 1020 77 10000 5.1 70 07:52 07.12.2019
3093 Clear 16 1019 77 10000 5.7 70 07:29 07.12.2019
3094 Clear 15 1019 77 10000 5.7 70 06:53 07.12.2019
3095 Clear 15 1019 77 10000 6.2 70 06:26 07.12.2019
3096 Clear 15 1019 77 10000 6.2 70 05:47 07.12.2019
3097 Clouds 15 1018 77 10000 6.7 70 04:43 07.12.2019
3098 Clouds 15 1018 77 10000 6.7 70 03:50 07.12.2019
3099 Clouds 15 1018 72 10000 6.7 70 02:22 07.12.2019
3100 Clouds 15 1018 72 10000 7.2 80 01:41 07.12.2019
3101 Clouds 15 1018 72 10000 7.7 80 01:22 07.12.2019
3102 Clouds 15 1018 72 10000 8.7 70 00:21 07.12.2019
3103 Clouds 15 1018 72 10000 8.2 70 23:57 06.12.2019
3104 Clouds 15 1018 72 10000 8.2 70 23:57 06.12.2019
3105 Clouds 15 1018 72 10000 8.2 70 23:39 06.12.2019
3106 Clouds 15 1018 72 10000 8.2 70 23:39 06.12.2019
3107 Rain 15 1018 67 10000 8.7 70 23:19 06.12.2019
3108 Rain 16 1018 72 10000 8.2 70 22:39 06.12.2019
3109 Rain 16 1018 72 10000 8.2 70 22:21 06.12.2019
3110 Clouds 16 1018 72 10000 8.2 70 21:59 06.12.2019
3111 Clouds 16 1018 72 10000 8.2 70 21:41 06.12.2019
3112 Clouds 16 1018 72 10000 7.2 70 21:20 06.12.2019
3113 Clouds 16 1020 82 10000 7.2 70 20:47 06.12.2019
3114 Clouds 16 1018 72 10000 6.2 70 20:27 06.12.2019
3115 Clouds 17 1019 82 10000 5.7 60 19:59 06.12.2019
3116 Clouds 17 1019 82 10000 5.7 60 19:40 06.12.2019
3117 Clouds 17 1017 72 10000 8.2 70 19:22 06.12.2019
3118 Clouds 17 1017 72 10000 8.2 70 19:22 06.12.2019
3119 Haze 17 1019 87 8000 4.6 60 18:58 06.12.2019
3120 Clouds 16 1017 67 10000 7.7 70 18:40 06.12.2019
3121 Clouds 16 1017 67 10000 6.7 70 18:21 06.12.2019
3122 Clouds 16 1016 72 10000 7.2 60 17:57 06.12.2019
3123 Clouds 16 1016 72 10000 7.2 60 17:57 06.12.2019
3124 Clouds 16 1016 72 10000 7.2 60 17:39 06.12.2019
3125 Clouds 17 1016 68 10000 8.2 60 17:21 06.12.2019
3126 Haze 17 1018 87 8000 6.2 80 16:56 06.12.2019
3127 Clouds 17 1016 68 10000 8.2 80 16:37 06.12.2019
3128 Clouds 17 1016 63 10000 8.7 80 16:18 06.12.2019
3129 Haze 19 1018 82 8000 7.2 100 15:41 06.12.2019
3130 Haze 19 1018 82 8000 7.2 100 15:41 06.12.2019
3131 Clouds 18 1016 63 10000 9.3 90 15:21 06.12.2019
3132 Haze 18 1018 82 9000 8.7 90 14:57 06.12.2019
3133 Clouds 17 1016 63 10000 9.3 90 14:39 06.12.2019
3134 Clouds 17 1016 63 10000 9.3 80 14:19 06.12.2019
3135 Haze 18 1018 82 8000 8.2 80 13:45 06.12.2019
3136 Clouds 18 1017 63 10000 8.7 80 13:26 06.12.2019
3137 Haze 17 1019 82 8000 8.2 80 12:56 06.12.2019
3138 Clouds 18 1017 63 10000 9.3 70 12:38 06.12.2019
3139 Clouds 18 1017 68 10000 8.7 80 12:19 06.12.2019
3140 Haze 18 1019 82 8000 9.3 90 11:42 06.12.2019
3141 Clouds 17 1017 68 10000 8.2 80 11:23 06.12.2019
3142 Clouds 17 1019 82 10000 8.2 80 10:54 06.12.2019
3143 Clouds 17 1016 72 10000 8.7 80 10:36 06.12.2019
3144 Clouds 17 1016 72 10000 8.7 80 10:18 06.12.2019
3145 Clouds 16 1018 82 10000 9.3 90 09:54 06.12.2019
3146 Clouds 16 1016 82 10000 7.7 80 09:36 06.12.2019
3147 Clouds 16 1016 82 10000 7.7 80 09:18 06.12.2019
3148 Clouds 15 1015 82 10000 4.1 90 08:40 06.12.2019
3149 Clouds 15 1015 82 10000 4.6 90 08:21 06.12.2019
3150 Rain 16 1015 77 10000 4.6 90 07:38 06.12.2019
3151 Rain 16 1015 82 10000 6.7 80 07:20 06.12.2019
3152 Rain 16 1014 77 10000 7.2 70 06:31 06.12.2019
3153 Rain 16 1014 77 10000 7.2 70 06:31 06.12.2019
3154 Rain 16 1014 77 10000 6.7 80 05:56 06.12.2019
3155 Rain 16 1014 77 10000 6.7 80 05:38 06.12.2019
3156 Rain 16 1013 72 10000 8.2 70 02:19 06.12.2019
3157 Rain 16 1013 72 10000 8.2 80 01:43 06.12.2019
3158 Rain 16 1014 72 10000 8.7 70 00:48 06.12.2019
3159 Rain 16 1014 72 10000 8.7 80 00:22 06.12.2019
3160 Rain 16 1014 72 10000 9.3 80 23:49 05.12.2019
3161 Clouds 16 1013 77 10000 8.2 70 23:19 05.12.2019
3162 Clouds 16 1013 72 10000 8.7 70 22:58 05.12.2019
3163 Clouds 17 1013 72 10000 8.7 70 22:38 05.12.2019
3164 Clouds 17 1013 72 10000 8.2 80 22:18 05.12.2019
3165 Clouds 17 1013 72 10000 8.2 80 22:18 05.12.2019
3166 Clouds 17 1013 72 10000 8.2 80 22:18 05.12.2019
3167 Clouds 17 1013 72 10000 8.2 80 22:18 05.12.2019
3168 Clouds 16 1016 87 10000 7.7 70 21:55 05.12.2019
3169 Clouds 16 1013 72 10000 8.2 70 21:36 05.12.2019
3170 Clouds 16 1013 72 10000 8.7 70 21:18 05.12.2019
3171 Clouds 16 1015 87 10000 7.2 60 20:40 05.12.2019
3172 Clouds 16 1015 87 10000 7.2 60 20:40 05.12.2019
3173 Clouds 15 1013 72 10000 7.2 60 20:21 05.12.2019
3174 Clouds 15 1015 87 10000 5.7 50 19:59 05.12.2019
3175 Clouds 15 1015 87 10000 5.7 50 19:40 05.12.2019
3176 Clouds 15 1012 72 10000 8.7 70 19:21 05.12.2019
3177 Clouds 15 1014 87 10000 6.7 60 18:57 05.12.2019
3178 Clouds 16 1014 82 10000 7.2 70 18:38 05.12.2019
3179 Clouds 17 1012 67 10000 7.2 60 18:20 05.12.2019
3180 Clouds 17 1013 77 10000 7.7 80 17:40 05.12.2019
3181 Clouds 16 1012 72 10000 7.7 60 17:20 05.12.2019
3182 Clouds 16 1013 77 10000 7.2 70 16:57 05.12.2019
3183 Clouds 16 1013 82 10000 6.2 70 16:39 05.12.2019
3184 Clouds 16 1011 67 10000 7.7 60 16:21 05.12.2019
3185 Clouds 16 1013 77 10000 5.1 70 15:57 05.12.2019
3186 Clouds 16 1013 72 10000 5.7 70 15:38 05.12.2019
3187 Clouds 16 1011 67 10000 6.7 60 15:20 05.12.2019
3188 Clouds 16 1012 67 10000 6.2 40 14:55 05.12.2019
3189 Clouds 16 1013 72 10000 5.1 70 14:37 05.12.2019
3190 Clouds 16 1012 67 10000 3.6 40 14:19 05.12.2019
3191 Clouds 16 1012 67 10000 3.1 90 13:56 05.12.2019
3192 Clouds 16 1013 72 10000 4.6 70 13:38 05.12.2019
3193 Clouds 16 1012 67 10000 3.6 90 13:19 05.12.2019
3194 Clouds 16 1014 72 10000 2.1 40 12:55 05.12.2019
3195 Clouds 16 1014 72 10000 2.1 40 12:37 05.12.2019
3196 Clouds 16 1014 72 10000 2.1 40 12:37 05.12.2019
3197 Clouds 16 1013 67 10000 2.6 90 12:19 05.12.2019
3198 Clouds 14 1014 62 10000 1 80 11:39 05.12.2019
3199 Clouds 14 1013 72 10000 4.6 60 11:20 05.12.2019
3200 Clouds 13 1013 71 10000 2.1 300 10:57 05.12.2019
3201 Clouds 12 1013 71 10000 2.1 300 10:39 05.12.2019
3202 Clouds 13 1012 87 10000 2.1 90 10:18 05.12.2019
3203 Clouds 12 1013 66 10000 1 240 09:54 05.12.2019
3204 Clouds 13 1013 66 10000 1 240 09:36 05.12.2019
3205 Clouds 13 1012 93 10000 1.5 100 09:18 05.12.2019
3206 Clouds 13 1012 93 8000 2.6 80 08:39 05.12.2019
3207 Clouds 12 1012 93 8000 2.6 80 08:20 05.12.2019
3208 Clouds 12 1011 93 6000 2.6 90 07:56 05.12.2019
3209 Clouds 12 1011 93 6000 2.6 80 07:36 05.12.2019
3210 Clouds 12 1011 93 6000 2.6 80 07:18 05.12.2019
3211 Clouds 12 1011 93 6000 2.6 80 06:41 05.12.2019
3212 Clouds 12 1011 93 6000 2.6 80 06:20 05.12.2019
3213 Clouds 12 1011 93 6000 2.1 70 05:47 05.12.2019
3214 Clouds 12 1011 93 6000 2.1 80 05:23 05.12.2019
3215 Clouds 12 1011 93 6000 2.1 100 04:20 05.12.2019
3216 Clouds 12 1011 93 6000 2.1 100 04:20 05.12.2019
3217 Clouds 12 1010 93 6000 2.1 100 02:44 05.12.2019
3218 Clouds 12 1011 93 6000 2.1 120 02:24 05.12.2019
3219 Clouds 12 1011 93 6000 2.1 80 01:52 05.12.2019
3220 Clouds 13 1011 87 6000 2.1 90 01:24 05.12.2019
3221 Rain 13 1011 87 6000 1.5 60 00:51 05.12.2019
3222 Clouds 13 1011 87 6000 1.5 50 00:32 05.12.2019
3223 Rain 13 1011 66 10000 1.5 310 23:57 04.12.2019
3224 Clouds 13 1010 82 6000 2.1 160 23:39 04.12.2019
3225 Clouds 13 1010 82 6000 2.1 160 23:21 04.12.2019
3226 Rain 13 1011 82 6000 1.5 120 22:55 04.12.2019
3227 Clouds 13 1011 82 6000 1.5 130 22:36 04.12.2019
3228 Clouds 13 1011 82 6000 1.5 130 22:18 04.12.2019
3229 Clouds 14 1011 82 6000 1.5 160 21:54 04.12.2019
3230 Clouds 14 1010 82 7000 2.6 160 21:36 04.12.2019
3231 Clouds 14 1010 82 7000 2.6 160 21:18 04.12.2019
3232 Clouds 14 1010 82 10000 2.6 140 20:55 04.12.2019
3233 Clouds 14 1010 82 10000 2.1 160 20:37 04.12.2019
3234 Clouds 14 1010 82 10000 2.1 160 20:18 04.12.2019
3235 Clouds 14 1010 82 10000 2.1 160 19:39 04.12.2019
3236 Clouds 14 1010 82 10000 2.1 160 19:21 04.12.2019
3237 Clouds 14 1010 62 10000 4.1 290 18:58 04.12.2019
3238 Clouds 16 1010 76 10000 2.6 170 18:40 04.12.2019
3239 Clouds 16 1010 76 10000 2.6 170 18:21 04.12.2019
3240 Clouds 16 1009 51 10000 4.1 280 17:40 04.12.2019
3241 Clouds 14 1010 71 10000 2.1 220 17:22 04.12.2019
3242 Clouds 15 1009 51 10000 4.6 270 16:59 04.12.2019
3243 Clouds 15 1009 44 10000 6.7 260 16:40 04.12.2019
3244 Clouds 15 1010 62 10000 4.6 270 16:20 04.12.2019
3245 Clouds 15 1009 55 10000 7.2 260 15:56 04.12.2019
3246 Clouds 15 1009 55 10000 7.2 260 15:38 04.12.2019
3247 Clouds 15 1010 62 10000 5.1 260 15:19 04.12.2019
3248 Clouds 16 1009 55 10000 7.2 260 14:54 04.12.2019
3249 Clouds 16 1009 55 10000 7.2 260 14:36 04.12.2019
3250 Clouds 16 1010 63 10000 5.7 260 14:18 04.12.2019
3251 Clouds 16 1009 59 10000 4.1 250 13:38 04.12.2019
3252 Clouds 16 1011 72 8000 5.7 260 13:20 04.12.2019
3253 Clouds 16 1011 72 8000 5.7 260 13:20 04.12.2019
3254 Clouds 16 1010 72 10000 4.1 270 12:45 04.12.2019
3255 Clouds 16 1011 63 8000 4.1 260 12:25 04.12.2019
3256 Clouds 15 1010 72 10000 6.7 280 11:59 04.12.2019
3257 Clouds 15 1010 77 10000 6.2 270 11:41 04.12.2019
3258 Clouds 15 1012 67 8000 6.2 290 11:22 04.12.2019
3259 Clouds 15 1011 72 8000 6.7 280 10:44 04.12.2019
3260 Clouds 15 1011 72 8000 7.2 280 10:24 04.12.2019
3261 Clouds 15 1011 72 8000 7.2 280 10:24 04.12.2019
3262 Clouds 14 1010 82 10000 5.7 280 09:57 04.12.2019
3263 Clouds 14 1010 87 10000 7.2 280 09:39 04.12.2019
3264 Clouds 14 1010 87 10000 7.2 280 09:39 04.12.2019
3265 Clouds 14 1010 76 8000 6.7 280 09:20 04.12.2019
3266 Clouds 14 1010 82 6000 6.7 280 08:42 04.12.2019
3267 Clouds 14 1010 82 6000 6.2 280 08:23 04.12.2019
3268 Clouds 14 1010 87 6000 2.6 200 07:51 04.12.2019
3269 Rain 14 1010 87 3000 2.6 170 07:31 04.12.2019
3270 Clouds 14 1010 87 6000 3.1 170 06:51 04.12.2019
3271 Clouds 14 1010 87 6000 2.6 170 06:31 04.12.2019
3272 Clouds 14 1010 87 6000 2.1 170 05:43 04.12.2019
3273 Clouds 14 1010 87 6000 2.1 170 05:43 04.12.2019
3274 Rain 14 1011 87 2000 2.1 180 04:31 04.12.2019
3275 Clouds 14 1011 87 6000 1 0 03:25 04.12.2019
3276 Clouds 14 1012 93 6000 1 0 01:21 04.12.2019
3277 Clouds 14 1012 87 6000 2.1 150 00:40 04.12.2019
3278 Clouds 14 1012 87 6000 2.1 150 00:40 04.12.2019
3279 Clouds 14 1012 87 6000 2.1 150 00:19 04.12.2019
3280 Clouds 14 1012 93 6000 1 0 23:41 03.12.2019
3281 Clouds 14 1012 93 6000 1 0 23:20 03.12.2019
3282 Fog 13 1012 93 5000 0.5 0 22:56 03.12.2019
3283 Clouds 13 1011 100 6000 0.5 0 22:36 03.12.2019
3284 Clouds 13 1011 100 6000 0.5 0 22:18 03.12.2019
3285 Clouds 13 1011 87 8000 2.1 70 21:54 03.12.2019
3286 Clouds 13 1011 87 8000 1 60 21:36 03.12.2019
3287 Clouds 13 1011 87 8000 1 60 21:18 03.12.2019
3288 Clouds 14 1011 93 8000 0.5 0 20:41 03.12.2019
3289 Clouds 14 1011 93 8000 0.5 0 20:19 03.12.2019
3290 Clouds 15 1011 87 8000 1.5 110 19:56 03.12.2019
3291 Clouds 15 1010 82 8000 1.5 110 19:37 03.12.2019
3292 Clouds 15 1010 82 8000 1.5 110 19:19 03.12.2019
3293 Clouds 15 1010 77 8000 1.5 230 18:57 03.12.2019
3294 Clouds 15 1010 77 8000 1.5 230 18:57 03.12.2019
3295 Clouds 15 1010 77 8000 1.5 230 18:57 03.12.2019
3296 Clouds 16 1010 77 8000 1.5 240 18:39 03.12.2019
3297 Clouds 16 1010 77 8000 1.5 240 18:20 03.12.2019
3298 Clouds 16 1010 77 8000 0.5 0 17:56 03.12.2019
3299 Clouds 16 1009 72 10000 1.5 300 17:38 03.12.2019
3300 Clouds 15 1009 77 8000 1 0 17:18 03.12.2019
3301 Clouds 15 1009 77 8000 1 0 17:18 03.12.2019
3302 Clouds 15 1009 77 8000 1.5 310 16:56 03.12.2019
3303 Clouds 15 1009 72 10000 2.1 250 16:38 03.12.2019
3304 Clouds 15 1009 77 8000 2.1 310 16:19 03.12.2019
3305 Clouds 14 1009 82 8000 2.6 290 15:54 03.12.2019
3306 Clouds 15 1009 77 8000 4.1 300 15:36 03.12.2019
3307 Clouds 15 1009 77 8000 4.1 300 15:18 03.12.2019
3308 Clouds 15 1009 72 10000 2.6 90 14:42 03.12.2019
3309 Clouds 15 1009 82 8000 1.5 230 14:20 03.12.2019
3310 Clouds 15 1010 82 8000 1.5 270 13:56 03.12.2019
3311 Clouds 15 1009 67 10000 1.5 50 13:36 03.12.2019
3312 Clouds 15 1010 82 8000 1.5 230 13:18 03.12.2019
3313 Clouds 14 1010 67 10000 2.6 240 12:40 03.12.2019
3314 Clouds 14 1010 82 8000 1 0 12:18 03.12.2019
3315 Clouds 14 1010 82 8000 1 0 12:18 03.12.2019
3316 Clouds 14 1010 87 8000 0.5 0 11:58 03.12.2019
3317 Clouds 14 1009 77 10000 4.1 260 11:39 03.12.2019
3318 Clouds 14 1010 87 8000 0.5 180 11:20 03.12.2019
3319 Clouds 13 1009 82 10000 3.6 250 10:57 03.12.2019
3320 Clouds 13 1009 82 10000 3.6 250 10:39 03.12.2019
3321 Clouds 13 1010 93 8000 2.1 290 10:19 03.12.2019
3322 Clouds 13 1010 87 8000 1 0 09:46 03.12.2019
3323 Clouds 13 1010 87 8000 2.6 70 09:25 03.12.2019
3324 Clouds 13 1009 87 10000 1.5 270 08:59 03.12.2019
3325 Clouds 13 1009 87 6000 2.6 70 08:39 03.12.2019
3326 Clouds 13 1009 87 6000 2.6 70 08:21 03.12.2019
3327 Clouds 13 1009 87 8000 1.5 120 07:53 03.12.2019
3328 Clouds 13 1009 87 8000 1.5 0 07:29 03.12.2019
3329 Clouds 13 1009 87 8000 1.5 0 07:29 03.12.2019
3330 Clouds 13 1009 87 8000 1.5 0 07:29 03.12.2019
3331 Clouds 13 1009 93 8000 2.1 340 06:56 03.12.2019
3332 Clouds 13 1009 87 8000 1 0 06:20 03.12.2019
3333 Clouds 13 1009 87 8000 2.1 350 05:54 03.12.2019
3334 Clouds 14 1009 87 8000 1.5 0 03:44 03.12.2019
3335 Clouds 14 1009 87 8000 2.6 90 03:22 03.12.2019
3336 Clouds 13 1009 93 8000 1.5 120 02:54 03.12.2019
3337 Clouds 14 1009 87 8000 2.1 110 02:32 03.12.2019
3338 Clouds 14 1009 87 8000 1 0 01:59 03.12.2019
3339 Clouds 14 1009 87 8000 1.5 100 01:39 03.12.2019
3340 Clouds 13 1009 87 8000 1.5 100 01:19 03.12.2019
3341 Clouds 13 1010 87 8000 3.6 50 00:42 03.12.2019
3342 Clouds 13 1010 82 8000 3.1 50 00:23 03.12.2019
3343 Clouds 13 1010 82 8000 3.1 50 00:23 03.12.2019
3344 Clouds 13 1010 82 8000 4.1 50 23:44 02.12.2019
3345 Clouds 13 1010 82 8000 3.6 60 23:22 02.12.2019
3346 Clouds 13 1010 82 8000 4.1 50 22:57 02.12.2019
3347 Clouds 13 1010 82 8000 3.6 60 22:38 02.12.2019
3348 Clouds 13 1010 82 8000 3.6 60 22:20 02.12.2019
3349 Rain 13 1009 87 8000 2.1 60 21:40 02.12.2019
3350 Rain 13 1009 87 8000 2.1 60 21:20 02.12.2019
3351 Rain 13 1009 82 8000 3.6 90 20:58 02.12.2019
3352 Clouds 13 1009 87 8000 2.6 80 20:39 02.12.2019
3353 Clouds 12 1009 87 8000 2.6 80 20:20 02.12.2019
3354 Clouds 13 1009 87 8000 3.6 80 19:59 02.12.2019
3355 Clouds 13 1008 87 8000 3.6 70 19:41 02.12.2019
3356 Clouds 13 1008 87 8000 3.6 70 19:21 02.12.2019
3357 Rain 13 1009 87 10000 3.1 60 18:48 02.12.2019
3358 Rain 13 1008 87 5000 5.1 50 18:25 02.12.2019
3359 Thunderstorm 13 1009 93 6000 1.5 50 17:59 02.12.2019
3360 Thunderstorm 13 1009 93 5000 3.1 40 17:41 02.12.2019
3361 Rain 13 1008 82 5000 6.7 50 17:21 02.12.2019
3362 Rain 13 1008 82 5000 6.7 50 17:21 02.12.2019
3363 Clouds 13 1007 82 10000 5.7 50 16:57 02.12.2019
3364 Thunderstorm 13 1009 93 4000 1 350 16:39 02.12.2019
3365 Clouds 13 1007 82 10000 5.7 40 16:18 02.12.2019
3366 Rain 14 1009 93 4000 4.6 50 15:56 02.12.2019
3367 Rain 14 1009 93 4000 4.6 50 15:38 02.12.2019
3368 Clouds 15 1007 67 10000 2.6 160 15:20 02.12.2019
3369 Clouds 15 1007 67 10000 3.1 170 14:55 02.12.2019
3370 Thunderstorm 16 1009 87 8000 7.2 60 14:37 02.12.2019
3371 Clouds 16 1007 67 10000 4.1 170 14:19 02.12.2019
3372 Clouds 16 1009 87 10000 7.2 60 13:54 02.12.2019
3373 Clouds 15 1009 87 10000 7.2 60 13:36 02.12.2019
3374 Clouds 15 1008 77 10000 2.1 170 13:18 02.12.2019
3375 Rain 15 1010 82 10000 4.1 50 12:41 02.12.2019
3376 Clouds 15 1008 87 10000 2.6 170 12:21 02.12.2019
3377 Clouds 14 1009 87 10000 2.1 50 11:57 02.12.2019
3378 Clouds 14 1009 87 10000 2.1 50 11:37 02.12.2019
3379 Clouds 14 1009 87 10000 2.1 50 11:37 02.12.2019
3380 Clouds 13 1008 87 10000 2.6 180 11:19 02.12.2019
3381 Clouds 13 1008 87 6000 2.6 160 10:56 02.12.2019
3382 Rain 13 1009 87 10000 2.6 60 10:38 02.12.2019
3383 Clouds 13 1008 87 6000 2.6 170 10:20 02.12.2019
3384 Thunderstorm 12 1008 93 5000 2.6 170 09:42 02.12.2019
3385 Thunderstorm 12 1008 87 4000 2.1 150 09:19 02.12.2019
3386 Rain 12 1008 87 10000 1.5 120 08:58 02.12.2019
3387 Rain 12 1007 87 3000 4.1 160 08:40 02.12.2019
3388 Rain 12 1007 87 3000 4.1 160 08:21 02.12.2019
3389 Rain 13 1007 87 2000 4.1 160 07:44 02.12.2019
3390 Rain 13 1007 87 2000 4.1 160 07:24 02.12.2019
3391 Thunderstorm 13 1008 82 4000 3.1 140 06:58 02.12.2019
3392 Clouds 13 1008 87 10000 4.6 160 06:39 02.12.2019
3393 Clouds 13 1008 87 10000 3.1 160 05:36 02.12.2019
3394 Clouds 13 1008 87 10000 1.5 150 04:50 02.12.2019
3395 Clouds 14 1009 71 8000 2.1 220 02:56 02.12.2019
3396 Clouds 14 1009 72 10000 4.6 240 02:36 02.12.2019
3397 Clouds 15 1010 72 10000 4.6 250 01:28 02.12.2019
3398 Rain 14 1010 77 10000 4.1 280 00:59 02.12.2019
3399 Clouds 14 1011 77 10000 4.6 250 00:28 02.12.2019
3400 Clouds 15 1011 77 10000 5.1 250 23:56 01.12.2019
3401 Clouds 15 1011 77 10000 5.7 260 23:38 01.12.2019
3402 Clouds 15 1011 77 10000 5.7 260 23:19 01.12.2019
3403 Clouds 15 1011 72 10000 5.7 260 22:56 01.12.2019
3404 Clouds 15 1011 82 5000 5.1 250 22:37 01.12.2019
3405 Clouds 15 1011 82 5000 5.1 250 22:18 01.12.2019
3406 Clouds 14 1011 82 10000 3.1 270 21:55 01.12.2019
3407 Clouds 14 1011 82 10000 3.1 270 21:37 01.12.2019
3408 Clouds 14 1012 87 10000 2.6 180 21:18 01.12.2019
3409 Clouds 15 1011 82 10000 5.7 260 20:56 01.12.2019
3410 Clouds 15 1011 82 10000 5.7 260 20:37 01.12.2019
3411 Rain 15 1012 87 5000 3.6 200 20:19 01.12.2019
3412 Clouds 15 1012 82 8000 3.1 220 19:54 01.12.2019
3413 Clouds 15 1011 82 10000 5.1 240 19:36 01.12.2019
3414 Clouds 15 1012 82 8000 4.6 240 19:18 01.12.2019
3415 Rain 16 1011 82 10000 4.1 250 18:54 01.12.2019
3416 Rain 16 1011 82 10000 4.1 250 18:36 01.12.2019
3417 Rain 16 1011 82 10000 6.2 250 18:18 01.12.2019
3418 Rain 17 1011 77 10000 6.7 270 17:42 01.12.2019
3419 Rain 17 1012 82 3000 7.7 250 17:24 01.12.2019
3420 Rain 17 1012 93 10000 5.7 230 16:59 01.12.2019
3421 Rain 17 1012 93 10000 5.7 230 16:41 01.12.2019
3422 Rain 17 1012 77 10000 3.6 220 16:22 01.12.2019
3423 Clouds 18 1012 68 10000 5.1 270 15:51 01.12.2019
3424 Clouds 17 1012 68 10000 5.1 270 15:32 01.12.2019
3425 Clouds 17 1012 68 10000 5.1 270 15:32 01.12.2019
3426 Clouds 17 1013 59 10000 4.6 250 14:44 01.12.2019
3427 Clouds 17 1013 59 10000 4.6 250 14:44 01.12.2019
3428 Clouds 16 1014 82 10000 3.1 190 14:20 01.12.2019
3429 Clouds 16 1015 82 10000 3.1 200 13:59 01.12.2019
3430 Clouds 16 1014 63 10000 4.6 270 13:39 01.12.2019
3431 Clouds 16 1015 82 10000 2.6 180 13:20 01.12.2019
3432 Clouds 15 1016 87 8000 2.6 180 12:44 01.12.2019
3433 Clouds 16 1015 72 10000 5.7 270 11:59 01.12.2019
3434 Clouds 16 1016 72 10000 5.1 260 11:40 01.12.2019
3435 Clouds 16 1017 100 6000 1.5 190 11:21 01.12.2019
3436 Clouds 16 1017 93 10000 1.5 200 10:43 01.12.2019
3437 Clouds 16 1016 100 5000 1 0 10:21 01.12.2019
3438 Rain 16 1016 100 1500 2.1 180 09:57 01.12.2019
3439 Clouds 16 1015 82 10000 2.1 210 09:39 01.12.2019
3440 Drizzle 16 1016 100 1500 1.5 170 09:20 01.12.2019
3441 Drizzle 16 1016 100 1500 1.5 170 09:20 01.12.2019
3442 Clouds 16 1016 100 8000 1 0 08:44 01.12.2019
3443 Drizzle 16 1016 100 4000 4.1 280 08:20 01.12.2019
3444 Rain 16 1016 100 2500 1 0 07:51 01.12.2019
3445 Rain 16 1016 100 3000 3.6 300 07:30 01.12.2019
3446 Rain 17 1016 93 2000 2.6 310 06:56 01.12.2019
3447 Rain 17 1016 93 4000 2.1 250 06:30 01.12.2019
3448 Rain 17 1017 93 3000 3.1 170 05:47 01.12.2019
3449 Clouds 17 1017 87 8000 3.6 170 04:49 01.12.2019
3450 Clouds 17 1018 93 8000 2.1 170 02:48 01.12.2019
3451 Clouds 17 1019 93 8000 2.1 170 02:30 01.12.2019
3452 Clear 16 1019 100 8000 1 0 01:57 01.12.2019
3453 Clear 16 1019 100 6000 1 0 01:39 01.12.2019
3454 Clear 16 1019 100 6000 1 0 01:18 01.12.2019
3455 Clear 16 1020 93 6000 1 0 00:39 01.12.2019
3456 Clear 16 1020 93 6000 1 0 00:20 01.12.2019
3457 Clear 16 1020 93 6000 1 0 23:42 30.11.2019
3458 Clear 16 1020 93 6000 0.5 0 23:23 30.11.2019
3459 Clear 16 1020 93 8000 0.5 0 22:50 30.11.2019
3460 Clear 16 1021 93 8000 1 120 22:30 30.11.2019
3461 Clear 16 1021 93 8000 1.5 100 21:58 30.11.2019
3462 Clear 16 1021 87 10000 1 0 21:39 30.11.2019
3463 Clear 16 1021 87 10000 1 0 21:20 30.11.2019
3464 Clear 17 1021 87 8000 1 0 20:55 30.11.2019
3465 Clear 17 1021 93 8000 0.5 0 20:37 30.11.2019
3466 Clouds 17 1021 93 8000 0.5 0 20:18 30.11.2019
3467 Clouds 17 1021 87 10000 1.5 270 19:55 30.11.2019
3468 Clouds 17 1020 82 10000 6.2 270 19:36 30.11.2019
3469 Clouds 17 1020 82 10000 1.5 270 19:18 30.11.2019
3470 Clouds 18 1020 87 10000 2.1 260 18:54 30.11.2019
3471 Clouds 18 1019 68 10000 7.2 270 18:36 30.11.2019
3472 Clouds 18 1020 82 10000 2.1 260 18:18 30.11.2019
3473 Clouds 18 1020 82 10000 2.1 260 18:18 30.11.2019
3474 Clouds 19 1020 82 10000 2.6 260 17:56 30.11.2019
3475 Clouds 19 1019 68 10000 6.7 260 17:37 30.11.2019
3476 Clouds 19 1020 82 10000 3.1 270 17:19 30.11.2019
3477 Clouds 19 1020 77 10000 2.6 260 16:42 30.11.2019
3478 Clouds 19 1020 77 10000 3.1 270 16:22 30.11.2019
3479 Clouds 20 1021 72 10000 3.6 260 15:55 30.11.2019
3480 Clouds 20 1021 72 10000 3.6 260 15:55 30.11.2019
3481 Clouds 21 1019 60 10000 4.6 210 15:37 30.11.2019
3482 Clouds 21 1021 72 10000 3.1 250 15:18 30.11.2019
3483 Clouds 21 1021 72 10000 2.6 240 14:55 30.11.2019
3484 Clouds 20 1020 56 10000 1.5 210 14:37 30.11.2019
3485 Clouds 20 1021 68 10000 2.6 250 14:18 30.11.2019
3486 Clouds 20 1021 63 10000 1 130 13:45 30.11.2019
3487 Clouds 20 1022 63 10000 2.1 240 13:26 30.11.2019
3488 Clouds 20 1021 68 10000 1 120 12:59 30.11.2019
3489 Clouds 20 1022 68 10000 1.5 230 12:41 30.11.2019
3490 Clouds 19 1023 68 10000 1.5 240 12:22 30.11.2019
3491 Clouds 17 1022 82 10000 2.1 270 11:43 30.11.2019
3492 Clouds 16 1023 82 8000 1.5 230 11:19 30.11.2019
3493 Clouds 15 1022 87 10000 2.6 270 10:56 30.11.2019
3494 Clouds 14 1022 87 10000 2.6 270 10:37 30.11.2019
3495 Clouds 14 1023 93 6000 1 0 10:19 30.11.2019
3496 Clouds 12 1022 82 10000 2.6 250 09:46 30.11.2019
3497 Clouds 11 1022 87 10000 2.6 250 09:24 30.11.2019
3498 Mist 11 1022 100 2000 2.1 70 08:44 30.11.2019
3499 Mist 11 1022 100 2000 2.1 80 08:22 30.11.2019
3500 Mist 11 1021 93 3000 2.1 90 07:58 30.11.2019
3501 Mist 11 1021 100 3000 2.1 80 07:39 30.11.2019
3502 Mist 12 1021 93 4000 1.5 60 06:56 30.11.2019
3503 Mist 12 1021 93 4000 2.1 80 06:29 30.11.2019
3504 Mist 11 1021 100 3000 2.6 90 05:50 30.11.2019
3505 Clouds 12 1022 100 5000 1 0 03:53 30.11.2019
3506 Clouds 12 1021 93 5000 1.5 60 02:40 30.11.2019
3507 Clouds 13 1021 93 5000 1.5 60 02:22 30.11.2019
3508 Clouds 14 1021 93 5000 2.1 70 01:25 30.11.2019
3509 Clouds 14 1021 93 5000 2.1 70 01:25 30.11.2019
3510 Clouds 13 1021 93 5000 2.1 70 01:25 30.11.2019
3511 Clouds 14 1021 93 5000 2.1 70 01:25 30.11.2019
3512 Clouds 14 1021 93 5000 2.1 60 00:50 30.11.2019
3513 Clouds 14 1022 93 5000 1 60 00:31 30.11.2019
3514 Clouds 15 1021 93 6000 1.5 70 23:59 29.11.2019
3515 Clouds 15 1021 93 6000 1.5 70 23:59 29.11.2019
3516 Clouds 15 1021 93 6000 1 70 23:40 29.11.2019
3517 Clear 16 1021 93 6000 1 70 23:21 29.11.2019
3518 Clear 17 1021 93 6000 1.5 90 22:44 29.11.2019
3519 Clear 16 1022 87 6000 2.1 60 22:25 29.11.2019
3520 Clear 16 1022 87 6000 2.1 60 22:25 29.11.2019
3521 Clear 16 1022 87 6000 1 120 21:44 29.11.2019
3522 Clear 16 1021 87 6000 1.5 70 21:24 29.11.2019
3523 Clear 17 1021 82 8000 0.5 0 20:58 29.11.2019
3524 Clear 17 1021 63 10000 3.6 250 20:38 29.11.2019
3525 Clear 17 1021 82 8000 0.5 0 20:19 29.11.2019
3526 Clear 18 1021 63 10000 3.1 230 19:57 29.11.2019
3527 Clear 18 1020 68 10000 3.6 240 19:38 29.11.2019
3528 Clear 18 1021 82 8000 0.5 0 19:19 29.11.2019
3529 Clear 19 1021 77 10000 0.5 0 18:55 29.11.2019
3530 Clear 19 1020 64 10000 4.1 230 18:37 29.11.2019
3531 Clear 19 1021 77 10000 1.5 310 18:19 29.11.2019
3532 Clear 21 1021 72 10000 2.6 310 17:43 29.11.2019
3533 Clear 21 1021 72 10000 3.1 310 17:23 29.11.2019
3534 Clear 20 1021 68 10000 2.6 290 16:56 29.11.2019
3535 Clear 20 1019 60 10000 4.6 210 16:37 29.11.2019
3536 Clear 21 1021 68 10000 2.1 280 16:18 29.11.2019
3537 Clear 21 1019 64 10000 4.6 210 15:39 29.11.2019
3538 Clear 21 1021 63 10000 2.6 280 15:21 29.11.2019
3539 Clear 21 1021 63 10000 2.6 320 14:42 29.11.2019
3540 Clear 21 1022 63 10000 3.1 320 14:22 29.11.2019
3541 Clear 20 1021 60 10000 3.6 220 13:58 29.11.2019
3542 Clear 20 1021 60 10000 3.6 220 13:38 29.11.2019
3543 Clear 20 1022 68 7000 2.6 290 13:20 29.11.2019
3544 Clear 20 1021 59 10000 3.6 240 12:44 29.11.2019
3545 Clear 20 1021 53 10000 4.1 260 12:25 29.11.2019
3546 Clear 18 1023 77 7000 0.5 0 11:57 29.11.2019
3547 Clear 18 1023 77 7000 1 0 11:38 29.11.2019
3548 Clear 18 1023 77 7000 1 0 11:19 29.11.2019
3549 Clear 17 1021 67 10000 4.1 260 10:58 29.11.2019
3550 Clear 16 1021 72 10000 4.6 260 10:39 29.11.2019
3551 Clouds 15 1022 93 6000 2.1 90 10:21 29.11.2019
3552 Clear 14 1021 77 10000 3.6 280 09:59 29.11.2019
3553 Clear 14 1021 77 10000 3.6 280 09:39 29.11.2019
3554 Clouds 14 1022 93 5000 2.6 80 09:20 29.11.2019
3555 Mist 14 1022 93 3000 2.6 90 08:55 29.11.2019
3556 Clouds 13 1021 93 5000 2.1 90 08:37 29.11.2019
3557 Clouds 13 1021 93 5000 2.1 90 08:18 29.11.2019
3558 Clouds 13 1021 100 5000 2.1 100 07:42 29.11.2019
3559 Clouds 13 1021 100 5000 2.1 100 07:23 29.11.2019
3560 Clear 13 1019 82 10000 4.6 270 06:49 29.11.2019
3561 Clear 13 1019 82 10000 4.6 270 06:28 29.11.2019
3562 Mist 14 1020 93 3000 2.6 80 05:32 29.11.2019
3563 Mist 14 1020 93 3000 2.6 80 05:32 29.11.2019
3564 Mist 14 1020 93 3000 2.6 80 05:32 29.11.2019
3565 Clear 16 1019 82 10000 6.2 270 04:57 29.11.2019
3566 Clear 13 1019 87 10000 5.1 260 03:41 29.11.2019
3567 Clear 13 1019 87 10000 5.1 260 03:41 29.11.2019
3568 Clear 13 1019 76 0 3.1 210 03:18 29.11.2019
3569 Mist 15 1020 93 3000 2.1 80 02:24 29.11.2019
3570 Mist 14 1020 93 3000 2.1 100 01:45 29.11.2019
3571 Mist 14 1021 100 3000 1 0 01:20 29.11.2019
3572 Mist 15 1021 100 3000 2.6 80 00:40 29.11.2019
3573 Mist 15 1021 100 3000 2.6 80 00:18 29.11.2019
3574 Mist 15 1021 100 3000 2.6 80 00:18 29.11.2019
3575 Clouds 15 1020 93 6000 1.5 100 23:41 28.11.2019
3576 Clouds 15 1020 93 6000 1.5 100 23:21 28.11.2019
3577 Clouds 15 1020 87 6000 1.5 80 22:56 28.11.2019
3578 Clouds 15 1020 93 6000 1.5 110 22:37 28.11.2019
3579 Clouds 15 1020 93 6000 1.5 110 22:19 28.11.2019
3580 Clouds 16 1020 87 6000 1 100 21:54 28.11.2019
3581 Clear 16 1019 82 10000 4.6 290 21:36 28.11.2019
3582 Clouds 16 1020 87 6000 0.5 0 21:18 28.11.2019
3583 Clear 16 1019 82 10000 5.1 260 20:42 28.11.2019
3584 Clouds 16 1019 87 6000 0.5 0 20:22 28.11.2019
3585 Clouds 17 1019 87 6000 0.5 0 19:57 28.11.2019
3586 Clouds 17 1019 68 10000 3.6 230 19:39 28.11.2019
3587 Clouds 17 1019 72 10000 4.6 240 19:19 28.11.2019
3588 Clouds 18 1019 72 10000 4.6 240 18:58 28.11.2019
3589 Clouds 18 1018 72 10000 5.1 240 18:39 28.11.2019
3590 Clouds 18 1019 88 6000 2.1 320 18:18 28.11.2019
3591 Clouds 19 1018 68 10000 5.1 240 17:58 28.11.2019
3592 Clouds 19 1018 68 10000 5.1 240 17:58 28.11.2019
3593 Clouds 19 1018 68 10000 5.1 240 17:58 28.11.2019
3594 Clouds 19 1018 68 10000 5.1 240 17:40 28.11.2019
3595 Clouds 20 1019 82 6000 2.6 310 17:20 28.11.2019
3596 Clouds 17 1018 68 10000 6.2 270 16:40 28.11.2019
3597 Clouds 19 1018 68 10000 5.7 270 16:19 28.11.2019
3598 Clouds 19 1018 68 10000 5.7 270 15:58 28.11.2019
3599 Clouds 19 1018 63 10000 6.2 270 15:39 28.11.2019
3600 Mist 20 1019 93 1200 2.1 260 15:19 28.11.2019
3601 Mist 19 1019 93 1200 2.6 260 14:58 28.11.2019
3602 Clouds 20 1018 60 10000 5.7 260 14:39 28.11.2019
3603 Clouds 19 1019 60 10000 5.1 250 14:19 28.11.2019
3604 Clouds 19 1019 60 10000 5.1 240 13:43 28.11.2019
3605 Mist 19 1020 88 3000 2.6 270 13:23 28.11.2019
3606 Clouds 19 1020 88 6000 2.6 260 12:56 28.11.2019
3607 Clouds 19 1020 63 10000 4.6 230 12:38 28.11.2019
3608 Clouds 19 1021 77 6000 2.1 250 12:20 28.11.2019
3609 Clouds 19 1020 68 10000 3.6 240 11:55 28.11.2019
3610 Clouds 19 1020 68 10000 3.6 240 11:55 28.11.2019
3611 Clouds 19 1020 68 10000 3.6 240 11:37 28.11.2019
3612 Clouds 19 1020 68 10000 3.6 240 11:37 28.11.2019
3613 Clouds 18 1021 82 6000 1 0 11:18 28.11.2019
3614 Clouds 17 1021 93 6000 2.1 90 10:42 28.11.2019
3615 Clouds 16 1020 100 6000 2.6 90 10:21 28.11.2019
3616 Clouds 15 1020 93 6000 2.6 90 09:56 28.11.2019
3617 Clouds 15 1020 93 6000 2.6 90 09:56 28.11.2019
3618 Clouds 15 1019 93 10000 3.1 270 09:38 28.11.2019
3619 Clouds 15 1019 100 6000 2.6 90 09:18 28.11.2019
3620 Clouds 14 1019 100 6000 2.1 110 08:40 28.11.2019
3621 Clouds 14 1019 100 6000 2.1 110 08:21 28.11.2019
3622 Mist 15 1019 93 3500 2.1 100 07:55 28.11.2019
3623 Mist 15 1019 100 3500 3.1 80 07:36 28.11.2019
3624 Mist 15 1019 100 3500 3.1 80 07:18 28.11.2019
3625 Mist 15 1018 100 3500 2.6 80 06:37 28.11.2019
3626 Mist 15 1018 100 3500 2.1 80 05:53 28.11.2019
3627 Mist 15 1018 100 3500 2.6 100 05:34 28.11.2019
3628 Mist 15 1018 93 3500 0.5 0 03:52 28.11.2019
3629 Mist 15 1019 93 3500 1 0 02:30 28.11.2019
3630 Mist 16 1019 93 3500 1 0 01:23 28.11.2019
3631 Mist 17 1019 93 4000 1 0 00:39 28.11.2019
3632 Mist 15 1019 93 4000 1 0 00:18 28.11.2019
3633 Clouds 16 1019 93 6000 0.5 0 23:38 27.11.2019
3634 Clouds 16 1019 93 6000 0.5 0 23:20 27.11.2019
3635 Clouds 16 1019 93 6000 0.5 0 22:56 27.11.2019
3636 Clouds 16 1019 93 6000 1 0 22:37 27.11.2019
3637 Clouds 17 1019 93 6000 1 0 22:18 27.11.2019
3638 Clouds 17 1018 93 6000 2.1 180 21:55 27.11.2019
3639 Rain 18 1017 87 10000 2.1 220 21:36 27.11.2019
3640 Clouds 17 1017 72 10000 6.2 290 21:18 27.11.2019
3641 Clouds 17 1018 93 6000 1 0 20:55 27.11.2019
3642 Clouds 17 1018 93 6000 1 0 20:55 27.11.2019
3643 Clouds 17 1018 93 6000 1 0 20:36 27.11.2019
3644 Clouds 17 1018 93 6000 1 0 20:18 27.11.2019
3645 -273 0 0 0 0 0 19:54 27.11.2019
3646 Clouds 17 1017 93 6000 1.5 180 19:54 27.11.2019
3647 Clouds 17 1017 93 6000 2.1 190 19:36 27.11.2019
3648 Clouds 17 1017 93 6000 2.1 190 19:18 27.11.2019
3649 Clouds 17 1017 93 6000 2.1 190 19:18 27.11.2019
3650 Rain 17 1017 93 2000 3.1 210 18:38 27.11.2019
3651 Rain 17 1017 93 2000 3.1 210 18:38 27.11.2019
3652 Rain 18 1017 93 2000 3.1 210 18:19 27.11.2019
3653 Clouds 17 1016 88 10000 4.6 220 17:58 27.11.2019
3654 Clouds 18 1016 88 10000 4.6 220 17:40 27.11.2019
3655 Clouds 18 1016 88 10000 4.6 220 17:40 27.11.2019
3656 Mist 18 1017 88 2000 3.1 210 17:21 27.11.2019
3657 Clouds 18 1017 88 6000 2.6 200 16:57 27.11.2019
3658 Clouds 18 1016 88 6000 3.1 200 16:38 27.11.2019
3659 Clouds 18 1016 88 6000 3.1 200 16:20 27.11.2019
3660 Clouds 18 1016 88 10000 4.1 210 15:57 27.11.2019
3661 Clouds 18 1016 88 10000 4.1 210 15:39 27.11.2019
3662 Clouds 18 1016 88 6000 3.6 200 15:20 27.11.2019
3663 Drizzle 19 1016 88 7000 3.6 210 14:57 27.11.2019
3664 Drizzle 18 1016 88 7000 3.6 210 14:39 27.11.2019
3665 Rain 18 1017 93 4000 2.6 190 14:21 27.11.2019
3666 Rain 18 1017 93 2000 1.5 180 13:57 27.11.2019
3667 Clouds 18 1017 93 10000 5.1 200 13:38 27.11.2019
3668 Clouds 18 1017 93 10000 5.1 200 13:38 27.11.2019
3669 Rain 18 1018 93 2500 1 0 13:19 27.11.2019
3670 Clouds 19 1017 88 10000 4.1 210 12:55 27.11.2019
3671 Clouds 19 1017 88 10000 4.1 210 12:37 27.11.2019
3672 Rain 19 1018 93 2500 2.6 220 12:18 27.11.2019
3673 Drizzle 18 1018 88 9000 4.1 230 11:38 27.11.2019
3674 Rain 17 1019 100 2000 2.6 250 11:19 27.11.2019
3675 Rain 17 1018 93 1600 2.6 250 10:55 27.11.2019
3676 Clouds 17 1017 82 10000 4.1 250 10:37 27.11.2019
3677 Rain 17 1018 93 2000 2.6 220 10:19 27.11.2019
3678 Drizzle 17 1017 93 2000 3.1 190 09:43 27.11.2019
3679 Drizzle 17 1017 93 3000 3.1 200 09:24 27.11.2019
3680 Drizzle 17 1016 87 3000 3.6 200 08:43 27.11.2019
3681 Clouds 17 1016 87 7000 3.1 200 08:25 27.11.2019
3682 Clouds 17 1016 87 10000 4.1 190 07:59 27.11.2019
3683 Clouds 17 1016 87 10000 3.6 180 07:40 27.11.2019
3684 Clouds 17 1016 87 10000 3.6 180 07:20 27.11.2019
3685 Clouds 17 1016 87 10000 3.6 180 06:45 27.11.2019
3686 Clouds 17 1015 87 10000 4.1 180 06:25 27.11.2019
3687 Clouds 18 1016 87 10000 4.1 180 05:26 27.11.2019
3688 Clouds 18 1016 88 10000 4.1 180 04:56 27.11.2019
3689 Clouds 18 1016 88 10000 3.6 180 04:36 27.11.2019
3690 Clouds 17 1016 88 10000 3.6 180 03:48 27.11.2019
3691 Clouds 17 1017 88 10000 3.6 180 03:21 27.11.2019
3692 Clouds 18 1017 88 10000 3.1 190 02:54 27.11.2019
3693 Clouds 18 1017 93 10000 3.1 180 01:34 27.11.2019
3694 Clouds 17 1018 93 6000 2.6 190 00:42 27.11.2019
3695 Clouds 17 1018 93 6000 2.6 190 00:24 27.11.2019
3696 Clouds 18 1017 88 6000 3.1 180 23:44 26.11.2019
3697 Clouds 18 1017 93 6000 3.6 200 23:25 26.11.2019
3698 Clouds 18 1017 93 8000 3.6 200 22:55 26.11.2019
3699 Clouds 18 1017 93 8000 3.1 200 22:37 26.11.2019
3700 Clouds 18 1017 93 8000 3.1 200 22:18 26.11.2019
3701 Clouds 18 1017 88 6000 3.1 200 21:40 26.11.2019
3702 Clouds 18 1017 88 6000 3.1 200 21:21 26.11.2019
3703 Clouds 18 1017 93 10000 2.6 210 20:58 26.11.2019
3704 Clouds 18 1017 93 10000 2.6 210 20:58 26.11.2019
3705 Clouds 19 1016 77 10000 7.2 260 20:39 26.11.2019
3706 Clouds 18 1017 88 10000 3.1 200 20:20 26.11.2019
3707 Clouds 18 1016 82 10000 6.2 260 19:56 26.11.2019
3708 Clouds 18 1016 82 10000 6.2 260 19:38 26.11.2019
3709 Clouds 18 1017 93 10000 3.1 210 19:20 26.11.2019
3710 Clouds 18 1015 82 10000 7.2 260 18:58 26.11.2019
3711 Clouds 19 1015 82 10000 7.2 260 18:39 26.11.2019
3712 Clouds 19 1016 88 10000 3.1 210 18:21 26.11.2019
3713 Clouds 19 1015 77 10000 7.2 260 17:59 26.11.2019
3714 Clouds 19 1015 77 10000 7.2 260 17:40 26.11.2019
3715 Clouds 19 1016 88 10000 3.6 220 17:22 26.11.2019
3716 Clouds 20 1015 72 10000 7.2 270 16:57 26.11.2019
3717 Clouds 20 1015 72 10000 7.2 270 16:38 26.11.2019
3718 Clouds 20 1016 82 10000 4.6 230 16:19 26.11.2019
3719 Clouds 20 1015 77 10000 7.2 270 15:59 26.11.2019
3720 Clouds 20 1015 77 10000 7.2 270 15:59 26.11.2019
3721 Clouds 20 1015 77 10000 7.2 270 15:38 26.11.2019
3722 Clouds 20 1015 77 10000 7.2 270 15:38 26.11.2019
3723 Clouds 20 1016 77 10000 3.6 220 15:20 26.11.2019
3724 Clouds 20 1015 72 10000 5.7 250 14:51 26.11.2019
3725 Clouds 20 1017 82 10000 2.6 210 14:26 26.11.2019
3726 Clouds 20 1017 82 10000 3.1 210 13:57 26.11.2019
3727 Clouds 20 1017 82 10000 3.1 210 13:38 26.11.2019
3728 Clouds 20 1017 82 10000 3.1 210 13:19 26.11.2019
3729 Clouds 20 1017 82 10000 3.1 210 13:19 26.11.2019
3730 Clouds 20 1017 82 10000 4.6 210 12:39 26.11.2019
3731 Clouds 20 1018 82 10000 4.1 220 12:21 26.11.2019
3732 Clouds 20 1018 77 10000 2.6 210 11:58 26.11.2019
3733 Clouds 19 1017 82 10000 4.1 220 11:39 26.11.2019
3734 Clouds 19 1017 82 10000 4.1 220 11:39 26.11.2019
3735 Clouds 19 1018 82 10000 2.1 200 11:20 26.11.2019
3736 Clouds 19 1018 88 10000 2.1 190 10:58 26.11.2019
3737 Clouds 19 1018 77 10000 2.1 240 10:40 26.11.2019
3738 Clouds 19 1018 88 10000 1.5 200 10:21 26.11.2019
3739 Clouds 18 1018 82 10000 3.1 250 09:57 26.11.2019
3740 Clouds 18 1018 82 10000 3.1 250 09:37 26.11.2019
3741 Clouds 18 1018 87 10000 1.5 190 09:18 26.11.2019
3742 Clouds 17 1018 87 10000 1 0 08:43 26.11.2019
3743 Clouds 17 1018 87 10000 1 0 08:43 26.11.2019
3744 Clouds 17 1017 87 10000 0.5 0 08:24 26.11.2019
3745 Clouds 18 1017 93 10000 1 0 07:46 26.11.2019
3746 Clouds 18 1017 88 10000 0.5 0 07:27 26.11.2019
3747 Clouds 18 1017 88 10000 1 0 06:55 26.11.2019
3748 Clouds 18 1017 88 10000 1 0 06:33 26.11.2019
3749 Clouds 18 1018 88 10000 1.5 170 05:52 26.11.2019
3750 Clouds 18 1018 88 10000 1.5 170 05:52 26.11.2019
3751 Clouds 18 1018 82 10000 2.1 170 03:59 26.11.2019
3752 Clouds 17 1018 82 8000 1.5 170 02:52 26.11.2019
3753 Clouds 17 1019 82 8000 1 0 01:33 26.11.2019
3754 Clouds 17 1019 82 8000 1 0 01:33 26.11.2019
3755 Clouds 18 1019 82 10000 1.5 150 00:51 26.11.2019
3756 Clouds 17 1020 87 10000 1.5 160 00:26 26.11.2019
3757 Clouds 17 1020 87 10000 0.5 0 23:41 25.11.2019
3758 Clouds 17 1020 87 10000 0.5 0 23:21 25.11.2019
3759 Clouds 16 1020 93 10000 1 0 22:59 25.11.2019
3760 Clouds 16 1020 93 10000 0.5 0 22:38 25.11.2019
3761 Clouds 16 1020 93 10000 0.5 0 22:18 25.11.2019
3762 Clear 17 1019 88 10000 7.7 220 21:58 25.11.2019
3763 Clouds 17 1020 93 10000 1 0 21:39 25.11.2019
3764 Clouds 17 1020 93 10000 1 0 21:21 25.11.2019
3765 Clouds 17 1020 87 10000 0.5 0 20:57 25.11.2019
3766 Clear 17 1020 87 10000 1 0 20:39 25.11.2019
3767 Clouds 17 1020 87 10000 1 0 20:19 25.11.2019
3768 Clouds 18 1019 87 10000 1 0 19:56 25.11.2019
3769 Clouds 18 1019 87 10000 1 0 19:37 25.11.2019
3770 Clouds 18 1019 87 10000 1 0 19:18 25.11.2019
3771 Clouds 18 1019 87 10000 1.5 210 18:56 25.11.2019
3772 Clouds 18 1019 82 10000 2.1 210 18:38 25.11.2019
3773 Clouds 18 1019 82 10000 2.1 210 18:20 25.11.2019
3774 Clouds 19 1018 77 10000 5.7 250 17:57 25.11.2019
3775 Clouds 19 1018 77 10000 5.7 250 17:38 25.11.2019
3776 Clouds 19 1019 72 10000 3.6 0 17:19 25.11.2019
3777 Clouds 19 1018 72 10000 6.2 260 16:56 25.11.2019
3778 Clouds 20 1018 72 10000 6.2 260 16:37 25.11.2019
3779 Clouds 19 1019 72 10000 3.1 220 16:19 25.11.2019
3780 Clouds 19 1018 77 10000 8.2 270 15:42 25.11.2019
3781 Clouds 19 1019 68 10000 3.1 220 15:21 25.11.2019
3782 Clouds 19 1019 68 10000 3.1 220 15:21 25.11.2019
3783 Clouds 19 1019 77 10000 7.2 270 14:59 25.11.2019
3784 Clouds 19 1019 77 10000 7.2 270 14:40 25.11.2019
3785 Clouds 19 1019 68 10000 4.1 220 14:22 25.11.2019
3786 Clouds 19 1019 77 10000 4.6 280 13:54 25.11.2019
3787 Clouds 19 1019 77 10000 4.6 280 13:36 25.11.2019
3788 Clouds 19 1020 63 10000 2.6 210 13:18 25.11.2019
3789 Clouds 19 1019 72 10000 5.1 270 12:40 25.11.2019
3790 Clouds 19 1021 63 10000 3.1 180 12:21 25.11.2019
3791 Clouds 18 1020 72 10000 6.2 260 11:59 25.11.2019
3792 Clouds 18 1020 72 10000 6.2 260 11:39 25.11.2019
3793 Clouds 17 1021 67 10000 2.1 180 11:20 25.11.2019
3794 Clouds 17 1021 67 10000 2.1 180 10:46 25.11.2019
3795 Clouds 17 1021 67 10000 1.5 170 10:27 25.11.2019
3796 Clouds 15 1020 72 10000 1 0 09:59 25.11.2019
3797 Clouds 15 1020 82 10000 5.7 280 09:40 25.11.2019
3798 Clouds 14 1020 82 10000 1 0 09:22 25.11.2019
3799 Clouds 14 1020 76 10000 0.5 0 08:41 25.11.2019
3800 Clouds 14 1020 76 10000 0.5 0 08:22 25.11.2019
3801 Clouds 14 1020 76 10000 0.5 0 07:45 25.11.2019
3802 Clouds 15 1019 67 10000 1 0 07:24 25.11.2019
3803 Clouds 14 1019 67 10000 2.1 170 06:51 25.11.2019
3804 Clouds 14 1019 67 10000 2.6 170 06:22 25.11.2019
3805 Clouds 14 1019 67 10000 2.6 170 06:22 25.11.2019
3806 Clouds 15 1019 67 10000 2.6 170 05:49 25.11.2019
3807 Clouds 15 1019 71 10000 1 0 05:28 25.11.2019
3808 Clouds 14 1020 87 10000 1 0 03:26 25.11.2019
3809 Clouds 13 1020 87 10000 1.5 50 02:31 25.11.2019
3810 Clouds 14 1020 87 10000 1 0 01:42 25.11.2019
3811 Clouds 13 1020 87 10000 1.5 70 01:23 25.11.2019
3812 Clouds 13 1020 93 10000 1.5 70 00:37 25.11.2019
3813 Clouds 13 1020 93 10000 1.5 70 00:18 25.11.2019
3814 Clouds 12 1020 87 10000 1.5 70 23:41 24.11.2019
3815 Clear 12 1020 87 10000 1.5 70 23:20 24.11.2019
3816 Clouds 13 1020 87 10000 1 0 22:56 24.11.2019
3817 Clouds 13 1020 87 10000 1 60 22:37 24.11.2019
3818 Clouds 13 1020 87 10000 1 60 22:18 24.11.2019
3819 Clouds 13 1020 87 10000 0.5 0 21:54 24.11.2019
3820 Clouds 14 1020 81 10000 1 90 21:36 24.11.2019
3821 Clouds 14 1020 81 10000 1 90 21:18 24.11.2019
3822 Clouds 14 1020 81 10000 1 110 20:54 24.11.2019
3823 Clouds 14 1019 76 10000 4.1 280 20:36 24.11.2019
3824 Clouds 14 1020 81 10000 1 0 20:18 24.11.2019
3825 Clouds 14 1020 76 10000 1.5 260 19:54 24.11.2019
3826 Clouds 15 1019 67 10000 4.1 260 19:36 24.11.2019
3827 Clouds 15 1020 71 10000 2.1 250 19:18 24.11.2019
3828 Clouds 16 1018 63 10000 5.7 250 18:38 24.11.2019
3829 Clouds 16 1019 72 10000 2.1 260 18:20 24.11.2019
3830 Clouds 17 1019 63 10000 2.6 250 17:59 24.11.2019
3831 Clouds 17 1018 55 10000 5.7 250 17:41 24.11.2019
3832 Clouds 17 1019 67 10000 3.1 260 17:22 24.11.2019
3833 Clouds 17 1019 63 10000 3.1 260 16:58 24.11.2019
3834 Clouds 17 1018 59 10000 7.2 270 16:39 24.11.2019
3835 Clouds 17 1019 63 10000 3.6 260 16:21 24.11.2019
3836 Clouds 17 1018 55 10000 6.7 270 15:55 24.11.2019
3837 Clouds 17 1018 55 10000 6.7 270 15:37 24.11.2019
3838 Clouds 17 1019 67 10000 3.1 240 15:18 24.11.2019
3839 Clouds 17 1018 55 10000 6.7 270 14:39 24.11.2019
3840 Clouds 17 1019 63 10000 3.1 260 14:19 24.11.2019
3841 Clouds 17 1018 55 10000 7.2 270 13:58 24.11.2019
3842 Clouds 17 1018 55 10000 7.2 270 13:37 24.11.2019
3843 Clouds 17 1020 63 8000 3.6 270 13:19 24.11.2019
3844 Clouds 16 1019 63 10000 5.1 270 12:55 24.11.2019
3845 Clouds 17 1019 63 10000 5.1 270 12:37 24.11.2019
3846 Clouds 17 1020 63 6000 3.1 280 12:18 24.11.2019
3847 Clouds 16 1019 67 10000 5.1 270 11:38 24.11.2019
3848 Clouds 15 1020 72 7000 2.6 260 11:19 24.11.2019
3849 Clouds 15 1019 71 10000 6.7 270 10:48 24.11.2019
3850 Clouds 15 1019 71 10000 6.7 270 10:30 24.11.2019
3851 Clouds 13 1019 76 10000 4.6 280 09:59 24.11.2019
3852 Clouds 12 1019 71 10000 5.7 280 09:38 24.11.2019
3853 Clouds 12 1019 93 8000 1.5 120 09:19 24.11.2019
3854 Clouds 12 1019 93 8000 1.5 70 08:56 24.11.2019
3855 Clouds 12 1019 93 8000 1 0 08:37 24.11.2019
3856 Clouds 12 1019 93 8000 1 0 08:18 24.11.2019
3857 Clouds 11 1018 93 8000 1.5 110 07:47 24.11.2019
3858 Clouds 12 1018 87 8000 1 0 07:20 24.11.2019
3859 Clouds 12 1018 87 8000 1 0 07:20 24.11.2019
3860 Clouds 13 1017 87 8000 0.5 0 06:26 24.11.2019
3861 Clouds 13 1017 87 8000 2.1 350 04:54 24.11.2019
3862 Clouds 13 1017 87 8000 1 0 04:35 24.11.2019
3863 Clouds 14 1017 67 8000 2.6 320 02:32 24.11.2019
3864 Clouds 14 1017 67 8000 3.6 320 01:42 24.11.2019
3865 Clouds 14 1017 67 8000 3.6 320 01:22 24.11.2019
3866 Clouds 14 1017 67 8000 3.6 320 01:22 24.11.2019
3867 Clouds 14 1017 72 8000 3.6 300 00:48 24.11.2019
3868 Clouds 14 1017 76 8000 3.1 280 00:24 24.11.2019
3869 Clouds 14 1017 76 8000 3.1 280 00:24 24.11.2019
3870 Clouds 15 1017 72 8000 4.1 280 23:54 23.11.2019
3871 Clouds 14 1017 76 8000 3.6 270 23:36 23.11.2019
3872 Clouds 14 1016 82 10000 5.1 260 23:18 23.11.2019
3873 Clouds 14 1017 76 8000 3.6 270 22:54 23.11.2019
3874 Clouds 15 1016 72 8000 3.6 260 22:36 23.11.2019
3875 Clouds 15 1016 72 8000 3.6 260 22:18 23.11.2019
3876 Clouds 15 1016 72 9000 3.6 260 21:42 23.11.2019
3877 Clouds 15 1016 72 8000 4.6 270 21:23 23.11.2019
3878 Clouds 15 1016 67 8000 4.1 270 20:59 23.11.2019
3879 Clouds 16 1015 67 8000 4.1 260 20:37 23.11.2019
3880 Clouds 16 1015 67 8000 4.1 260 20:18 23.11.2019
3881 Clouds 17 1015 67 8000 5.1 260 19:56 23.11.2019
3882 Clouds 17 1015 67 8000 5.1 260 19:37 23.11.2019
3883 Clouds 17 1015 67 8000 5.1 260 19:37 23.11.2019
3884 Clouds 17 1015 67 8000 5.1 260 19:37 23.11.2019
3885 Clouds 17 1015 67 8000 5.1 260 19:37 23.11.2019
3886 Clouds 17 1015 67 8000 5.1 260 19:18 23.11.2019
3887 Clouds 17 1015 67 8000 5.1 260 19:18 23.11.2019
3888 Clouds 17 1014 67 8000 6.2 270 18:40 23.11.2019
3889 Clouds 17 1014 67 8000 6.2 270 18:40 23.11.2019
3890 Clouds 17 1014 67 8000 6.2 270 18:21 23.11.2019
3891 Clouds 17 1014 67 8000 6.2 270 18:21 23.11.2019
3892 Clouds 17 1014 63 8000 6.7 280 17:58 23.11.2019
3893 Clouds 17 1012 67 10000 7.2 270 17:40 23.11.2019
3894 Clouds 18 1013 59 8000 7.2 270 17:20 23.11.2019
3895 Clouds 18 1013 59 8000 6.7 280 16:56 23.11.2019
3896 Clouds 18 1011 59 10000 7.2 270 16:38 23.11.2019
3897 Clouds 18 1013 63 8000 6.7 290 16:20 23.11.2019
3898 Clouds 18 1013 63 8000 7.7 290 15:57 23.11.2019
3899 Clouds 18 1011 59 10000 7.2 290 15:38 23.11.2019
3900 Clouds 18 1013 63 8000 7.2 290 15:18 23.11.2019
3901 Clouds 18 1011 63 10000 7.7 270 14:46 23.11.2019
3902 Clouds 17 1012 59 8000 9.3 280 14:23 23.11.2019
3903 Clouds 17 1012 59 8000 9.3 280 14:23 23.11.2019
3904 Clouds 17 1011 67 10000 7.2 280 13:59 23.11.2019
3905 Clouds 17 1011 67 10000 7.2 280 13:41 23.11.2019
3906 Clouds 17 1013 59 8000 9.3 280 13:19 23.11.2019
3907 Clouds 17 1012 63 8000 8.7 280 12:55 23.11.2019
3908 Clouds 17 1011 67 10000 9.3 280 12:37 23.11.2019
3909 Clouds 17 1012 59 8000 8.7 270 12:18 23.11.2019
3910 Clouds 16 1011 72 10000 9.3 270 11:41 23.11.2019
3911 Clouds 16 1012 72 7000 8.7 270 11:18 23.11.2019
3912 Clouds 15 1010 77 10000 7.7 270 10:43 23.11.2019
3913 Clouds 15 1011 82 8000 6.2 300 10:21 23.11.2019
3914 Clouds 15 1008 72 10000 9.8 280 09:41 23.11.2019
3915 Clouds 16 1010 82 6000 7.2 300 09:19 23.11.2019
3916 Clouds 16 1009 72 6000 9.8 270 08:42 23.11.2019
3917 Clouds 16 1009 72 6000 9.8 270 08:19 23.11.2019
3918 Clouds 17 1008 67 6000 8.2 270 07:52 23.11.2019
3919 Clouds 17 1008 67 6000 10.3 270 07:34 23.11.2019
3920 Clouds 17 1008 77 6000 6.7 270 06:43 23.11.2019
3921 Clouds 17 1008 77 6000 6.7 270 06:19 23.11.2019
3922 Clouds 17 1007 77 5000 8.2 260 05:46 23.11.2019
3923 Clouds 18 1007 77 5000 8.2 260 05:27 23.11.2019
3924 Clouds 17 1007 77 5000 6.7 270 04:44 23.11.2019
3925 Clouds 17 1007 77 5000 7.7 270 04:26 23.11.2019
3926 Clouds 17 1006 77 6000 7.7 260 02:39 23.11.2019
3927 Clouds 18 1006 82 6000 6.2 250 01:42 23.11.2019
3928 Clouds 17 1006 77 6000 6.7 250 00:57 23.11.2019
3929 Clouds 17 1006 77 6000 6.7 250 00:57 23.11.2019
3930 Clouds 17 1006 77 6000 8.7 260 00:38 23.11.2019
3931 Rain 17 1004 72 10000 10.3 260 00:18 23.11.2019
3932 Rain 17 1006 93 3000 6.2 250 23:39 22.11.2019
3933 Rain 18 1006 93 3000 6.2 250 23:20 22.11.2019
3934 Rain 18 1005 100 2000 7.2 250 22:57 22.11.2019
3935 Rain 19 1005 93 1500 9.3 220 22:38 22.11.2019
3936 Rain 19 1005 93 1500 9.3 220 22:20 22.11.2019
3937 Rain 19 1004 93 2500 9.3 220 21:58 22.11.2019
3938 Rain 19 1004 93 2500 8.7 220 21:38 22.11.2019
3939 Rain 19 1004 93 2500 8.7 220 21:19 22.11.2019
3940 Rain 19 1004 93 3500 7.2 210 20:42 22.11.2019
3941 Clouds 19 1004 93 5000 8.7 220 20:22 22.11.2019
3942 Rain 19 1004 93 4000 7.7 210 19:55 22.11.2019
3943 Rain 19 1004 93 4000 9.3 220 19:37 22.11.2019
3944 Rain 19 1004 93 4000 9.3 220 19:18 22.11.2019
3945 Rain 19 1004 88 5000 11.3 230 18:39 22.11.2019
3946 Rain 19 1004 88 5000 11.3 230 18:21 22.11.2019
3947 Rain 19 1004 88 5000 11.3 230 18:21 22.11.2019
3948 Clouds 20 1003 88 6000 8.2 200 17:55 22.11.2019
3949 Clouds 20 1003 88 6000 7.2 210 17:37 22.11.2019
3950 Clouds 20 1003 88 6000 7.2 210 17:19 22.11.2019
3951 Clouds 19 1002 82 10000 7.2 230 16:40 22.11.2019
3952 Clouds 19 1004 88 6000 7.2 220 16:22 22.11.2019
3953 Clouds 19 1002 88 10000 7.2 220 15:41 22.11.2019
3954 Rain 19 1002 93 8000 7.7 220 15:23 22.11.2019
3955 Rain 19 1003 88 6000 9.3 230 14:56 22.11.2019
3956 Rain 19 1003 88 6000 9.3 230 14:37 22.11.2019
3957 Clouds 19 1005 88 5000 6.2 190 14:19 22.11.2019
3958 Clouds 18 1005 93 5000 7.2 200 13:55 22.11.2019
3959 Clouds 18 1004 88 10000 7.7 230 13:36 22.11.2019
3960 Clouds 18 1006 100 5000 6.7 200 13:18 22.11.2019
3961 Clouds 18 1006 100 5000 6.7 200 13:18 22.11.2019
3962 Clouds 18 1006 88 10000 7.7 220 12:40 22.11.2019
3963 Rain 18 1006 100 2500 5.1 180 12:20 22.11.2019
3964 Clouds 17 1006 87 10000 7.2 230 11:59 22.11.2019
3965 Clouds 17 1006 93 10000 7.7 230 11:38 22.11.2019
3966 Rain 17 1007 93 2500 4.6 180 11:20 22.11.2019
3967 Rain 17 1007 93 2000 5.1 180 10:58 22.11.2019
3968 Rain 17 1006 93 10000 7.2 230 10:39 22.11.2019
3969 Rain 17 1007 93 2000 4.6 180 10:21 22.11.2019
3970 Rain 18 1007 93 3000 2.1 0 09:55 22.11.2019
3971 Rain 18 1006 93 7000 5.7 230 09:37 22.11.2019
3972 Rain 18 1007 93 1500 3.6 200 09:18 22.11.2019
3973 Rain 18 1007 93 2500 3.6 190 08:44 22.11.2019
3974 Rain 18 1007 93 3000 4.6 180 08:24 22.11.2019
3975 Rain 17 1007 93 3000 5.1 170 07:45 22.11.2019
3976 Clouds 17 1007 87 6000 5.1 170 07:22 22.11.2019
3977 Clouds 17 1007 82 6000 5.1 170 06:49 22.11.2019
3978 Clouds 17 1007 82 6000 5.1 170 06:29 22.11.2019
3979 Clouds 17 1008 87 8000 5.1 180 05:45 22.11.2019
3980 Rain 16 1008 93 3500 5.1 180 04:19 22.11.2019
3981 Rain 16 1008 93 2000 4.6 170 02:48 22.11.2019
3982 Rain 16 1009 93 1500 4.1 170 02:29 22.11.2019
3983 Rain 15 1009 93 1500 3.6 180 01:45 22.11.2019
3984 Rain 16 1009 93 3000 4.1 170 01:19 22.11.2019
3985 Clouds 16 1010 93 5000 3.6 170 00:49 22.11.2019
3986 Clouds 16 1010 93 6000 3.1 170 00:23 22.11.2019
3987 Rain 16 1010 93 3000 2.1 180 23:44 21.11.2019
3988 Clouds 16 1010 93 6000 3.1 180 23:44 21.11.2019
3989 Rain 16 1010 93 3000 2.1 180 23:26 21.11.2019
3990 Clouds 16 1010 93 6000 3.1 0 22:58 21.11.2019
3991 Clouds 16 1010 93 6000 4.1 160 22:39 21.11.2019
3992 Clouds 16 1010 93 6000 4.1 160 22:39 21.11.2019
3993 Clouds 16 1010 93 6000 4.1 160 22:39 21.11.2019
3994 Clouds 16 1010 93 6000 4.1 160 22:20 21.11.2019
3995 Clouds 16 1010 93 6000 3.6 170 21:56 21.11.2019
3996 Clouds 17 1010 93 6000 3.6 170 21:37 21.11.2019
3997 Clouds 17 1010 93 6000 3.6 170 21:37 21.11.2019
3998 Clouds 17 1010 93 6000 3.6 170 21:19 21.11.2019
3999 Rain 17 1010 87 10000 4.6 220 20:57 21.11.2019
4000 Rain 17 1010 87 10000 4.1 230 20:38 21.11.2019
4001 Clouds 16 1010 87 7000 3.1 0 20:19 21.11.2019
4002 Rain 16 1010 87 10000 4.1 240 19:58 21.11.2019
4003 Rain 16 1010 93 10000 3.6 240 19:58 21.11.2019
4004 Rain 16 1010 87 10000 4.1 240 19:58 21.11.2019
4005 Rain 16 1010 93 10000 3.6 240 19:38 21.11.2019
4006 Clouds 16 1010 87 8000 3.1 200 19:20 21.11.2019
4007 Rain 16 1010 93 10000 5.1 220 18:55 21.11.2019
4008 Rain 16 1010 93 10000 5.1 220 18:37 21.11.2019
4009 Rain 16 1010 93 4000 3.6 190 18:18 21.11.2019
4010 Rain 16 1009 93 8000 5.1 210 17:41 21.11.2019
4011 Rain 16 1010 100 2500 3.6 180 17:22 21.11.2019
4012 Rain 16 1010 100 2500 3.6 180 17:22 21.11.2019
4013 Rain 17 1009 87 7000 5.1 220 16:59 21.11.2019
4014 Rain 18 1009 87 7000 5.1 220 16:40 21.11.2019
4015 Rain 17 1010 93 2000 4.6 190 16:21 21.11.2019
4016 Rain 17 1009 87 5000 5.1 230 15:56 21.11.2019
4017 Rain 18 1009 87 5000 5.1 230 15:37 21.11.2019
4018 Clouds 18 1010 87 6000 3.6 180 15:19 21.11.2019
4019 Rain 19 1010 82 10000 3.1 230 14:39 21.11.2019
4020 Clouds 18 1010 82 5000 4.1 180 14:21 21.11.2019
4021 Rain 18 1010 82 10000 5.1 230 13:59 21.11.2019
4022 Clouds 18 1010 82 10000 5.7 230 13:38 21.11.2019
4023 Clouds 17 1010 82 10000 3.6 170 13:19 21.11.2019
4024 Clouds 17 1010 82 10000 3.6 170 13:19 21.11.2019
4025 Rain 17 1011 87 10000 3.1 220 12:43 21.11.2019
4026 Clouds 18 1012 87 10000 3.6 170 12:25 21.11.2019
4027 Rain 17 1012 87 5000 4.1 170 11:59 21.11.2019
4028 Clouds 17 1012 87 6000 3.6 170 11:40 21.11.2019
4029 Clouds 16 1012 87 6000 3.6 170 11:21 21.11.2019
4030 Clouds 16 1012 87 6000 3.6 170 11:21 21.11.2019
4031 Clouds 16 1011 87 6000 4.1 160 10:55 21.11.2019
4032 Rain 16 1011 87 5000 3.1 230 10:37 21.11.2019
4033 Rain 16 1011 87 5000 3.1 230 10:37 21.11.2019
4034 Clouds 16 1011 87 6000 4.1 170 10:19 21.11.2019
4035 Clouds 17 1011 82 10000 4.6 220 09:43 21.11.2019
4036 Clouds 16 1011 87 6000 3.1 170 09:23 21.11.2019
4037 Clouds 17 1011 87 10000 4.6 220 08:58 21.11.2019
4038 Clouds 16 1011 93 10000 4.6 170 08:39 21.11.2019
4039 Clouds 16 1011 93 10000 4.6 170 08:18 21.11.2019
4040 Rain 16 1011 93 2000 3.6 150 07:40 21.11.2019
4041 Rain 15 1011 93 2000 3.6 150 07:18 21.11.2019
4042 Rain 15 1011 93 3000 2.6 170 06:47 21.11.2019
4043 Rain 15 1011 93 6000 3.1 170 06:28 21.11.2019
4044 Rain 15 1011 93 6000 3.6 170 05:27 21.11.2019
4045 Clouds 15 1012 87 10000 4.1 170 03:31 21.11.2019
4046 Rain 14 1012 82 10000 3.6 170 02:40 21.11.2019
4047 Clouds 14 1012 82 10000 3.6 160 01:53 21.11.2019
4048 Clouds 14 1012 82 10000 3.1 160 01:23 21.11.2019
4049 Clouds 14 1013 82 10000 4.1 160 00:52 21.11.2019
4050 Clouds 14 1013 82 10000 4.1 160 00:20 21.11.2019
4051 Clouds 14 1013 87 10000 3.1 160 23:52 20.11.2019
4052 Clouds 14 1013 87 10000 3.1 170 23:24 20.11.2019
4053 Rain 13 1013 93 10000 1.5 280 22:59 20.11.2019
4054 Clouds 13 1013 87 10000 3.1 170 22:41 20.11.2019
4055 Clouds 13 1013 87 10000 3.1 170 22:20 20.11.2019
4056 Clouds 14 1012 82 10000 3.1 160 21:59 20.11.2019
4057 Clouds 14 1012 82 10000 3.1 170 21:40 20.11.2019
4058 Clouds 14 1012 82 10000 3.1 170 21:22 20.11.2019
4059 Clouds 14 1012 82 10000 3.1 170 20:59 20.11.2019
4060 Clouds 14 1012 82 10000 3.1 170 20:41 20.11.2019
4061 Clouds 14 1012 82 10000 3.1 170 20:23 20.11.2019
4062 Clouds 14 1011 82 6000 4.1 160 19:59 20.11.2019
4063 Rain 14 1012 82 5000 3.1 200 19:37 20.11.2019
4064 Rain 14 1012 82 5000 3.1 200 19:19 20.11.2019
4065 Rain 13 1011 87 3000 5.1 180 18:59 20.11.2019
4066 Rain 14 1011 87 3000 4.1 190 18:40 20.11.2019
4067 Rain 14 1011 87 3000 4.1 190 18:22 20.11.2019
4068 Rain 14 1011 87 2000 4.6 200 17:58 20.11.2019
4069 Clouds 14 1011 82 10000 3.1 190 17:39 20.11.2019
4070 Rain 14 1010 82 2000 3.6 180 17:20 20.11.2019
4071 Rain 13 1010 76 5000 5.1 170 16:57 20.11.2019
4072 Clouds 13 1011 87 10000 1.5 290 16:39 20.11.2019
4073 Rain 13 1010 71 6000 6.7 140 16:19 20.11.2019
4074 Rain 14 1011 82 8000 4.1 210 15:56 20.11.2019
4075 Rain 14 1011 82 8000 4.1 210 15:38 20.11.2019
4076 Rain 14 1011 82 5000 4.6 140 15:19 20.11.2019
4077 Rain 16 1011 82 10000 5.7 190 14:40 20.11.2019
4078 Rain 14 1012 82 8000 4.1 220 14:22 20.11.2019
4079 Rain 14 1012 82 8000 4.1 220 14:22 20.11.2019
4080 Rain 14 1012 82 8000 4.1 220 14:22 20.11.2019
4081 Rain 14 1012 82 8000 4.1 220 14:22 20.11.2019
4082 Rain 14 1012 82 8000 4.1 220 14:22 20.11.2019
4083 Rain 14 1012 82 8000 4.1 220 13:58 20.11.2019
4084 Rain 14 1012 82 8000 4.1 220 13:58 20.11.2019
4085 Rain 16 1012 77 10000 3.6 230 13:39 20.11.2019
4086 Thunderstorm 16 1013 82 4000 3.6 170 13:20 20.11.2019
4087 Thunderstorm 16 1013 71 8000 5.1 160 12:57 20.11.2019
4088 Rain 16 1013 72 10000 4.6 210 12:37 20.11.2019
4089 Rain 16 1013 67 8000 4.1 170 12:19 20.11.2019
4090 Clouds 16 1013 62 10000 4.1 170 11:45 20.11.2019
4091 Clouds 15 1013 62 10000 4.1 170 11:22 20.11.2019
4092 Clouds 15 1013 62 10000 3.6 170 10:56 20.11.2019
4093 Clouds 13 1014 81 10000 1 250 10:38 20.11.2019
4094 Clouds 13 1013 67 10000 4.1 170 10:20 20.11.2019
4095 Clouds 14 1013 81 10000 1 250 09:44 20.11.2019
4096 Clouds 14 1013 71 10000 4.6 170 09:23 20.11.2019
4097 Clouds 13 1013 81 10000 1.5 290 08:59 20.11.2019
4098 Clouds 11 1013 71 10000 4.1 170 08:39 20.11.2019
4099 Clouds 11 1013 71 10000 4.1 170 08:21 20.11.2019
4100 Clouds 11 1013 71 10000 3.1 160 07:48 20.11.2019
4101 Clouds 11 1013 66 10000 3.1 170 07:28 20.11.2019
4102 Clouds 11 1013 87 10000 2.1 270 06:50 20.11.2019
4103 Clouds 11 1013 66 10000 3.1 150 06:22 20.11.2019
4104 Clouds 11 1013 66 10000 2.6 160 05:42 20.11.2019
4105 Clouds 11 1014 87 10000 2.1 80 03:42 20.11.2019
4106 Clouds 11 1015 87 10000 2.1 70 02:21 20.11.2019
4107 Clouds 11 1015 87 10000 1.5 20 01:33 20.11.2019
4108 Clouds 12 1015 81 10000 2.1 110 00:42 20.11.2019
4109 Clouds 13 1015 71 10000 0.5 0 23:57 19.11.2019
4110 Clouds 13 1016 71 10000 1 0 23:27 19.11.2019
4111 Clouds 14 1016 71 10000 1 0 22:59 19.11.2019
4112 Clouds 14 1016 71 10000 1 0 22:41 19.11.2019
4113 Clouds 14 1016 71 10000 1 0 22:19 19.11.2019
4114 Clouds 14 1016 71 10000 1 0 22:19 19.11.2019
4115 Clouds 14 1016 71 10000 1 0 22:19 19.11.2019
4116 Clouds 14 1016 71 10000 0.5 0 21:57 19.11.2019
4117 Clouds 14 1016 67 10000 1.5 190 21:38 19.11.2019
4118 Clouds 14 1016 67 10000 1.5 190 21:19 19.11.2019
4119 Clouds 14 1016 67 10000 1.5 170 20:56 19.11.2019
4120 Clouds 14 1016 67 10000 1.5 170 20:38 19.11.2019
4121 Clouds 14 1016 67 10000 1.5 170 20:19 19.11.2019
4122 Clouds 15 1016 72 10000 3.1 290 19:56 19.11.2019
4123 Clouds 15 1016 72 10000 3.1 290 19:38 19.11.2019
4124 Clouds 15 1016 72 10000 3.1 280 19:19 19.11.2019
4125 Clouds 15 1016 67 10000 3.1 270 18:55 19.11.2019
4126 Clouds 15 1016 67 10000 3.1 270 18:36 19.11.2019
4127 Clouds 15 1016 67 10000 2.6 210 18:18 19.11.2019
4128 Clouds 15 1016 67 10000 2.6 210 18:18 19.11.2019
4129 Clouds 16 1016 67 10000 4.6 260 17:55 19.11.2019
4130 Clouds 16 1016 67 10000 4.6 260 17:55 19.11.2019
4131 Clouds 16 1016 67 10000 4.6 260 17:36 19.11.2019
4132 Clouds 16 1016 63 10000 2.6 210 17:18 19.11.2019
4133 Clouds 16 1016 63 10000 5.1 260 16:42 19.11.2019
4134 Clouds 17 1016 63 10000 3.6 210 16:22 19.11.2019
4135 -273 0 0 0 0 0 15:54 19.11.2019
4136 Clouds 17 1016 52 10000 2.6 230 15:36 19.11.2019
4137 Clouds 17 1016 52 10000 2.6 230 15:36 19.11.2019
4138 Clouds 17 1016 55 10000 3.6 210 15:18 19.11.2019
4139 Clouds 17 1017 55 10000 3.1 200 14:54 19.11.2019
4140 Clouds 17 1017 55 10000 3.1 200 14:36 19.11.2019
4141 Clouds 17 1017 55 10000 3.1 200 14:36 19.11.2019
4142 Clouds 17 1017 59 10000 3.1 190 14:18 19.11.2019
4143 Clouds 17 1017 51 10000 3.1 240 13:39 19.11.2019
4144 Clouds 17 1017 51 10000 3.1 240 13:39 19.11.2019
4145 Clouds 16 1018 59 0 3.1 180 13:18 19.11.2019
4146 Clouds 17 1018 63 10000 2.6 220 12:40 19.11.2019
4147 Clouds 17 1018 63 10000 2.6 220 12:40 19.11.2019
4148 Clouds 17 1019 59 10000 3.1 170 12:21 19.11.2019
4149 Clouds 16 1019 62 10000 2.6 170 11:57 19.11.2019
4150 Clouds 16 1019 76 10000 1.5 280 11:37 19.11.2019
4151 Clouds 14 1019 67 10000 2.1 170 11:19 19.11.2019
4152 Clouds 13 1019 62 10000 2.1 140 10:45 19.11.2019
4153 Clouds 13 1019 67 10000 1.5 110 10:22 19.11.2019
4154 Clouds 11 1019 76 10000 1.5 100 09:56 19.11.2019
4155 Clouds 11 1019 87 10000 3.1 270 09:38 19.11.2019
4156 Clouds 11 1019 76 10000 2.1 90 09:18 19.11.2019
4157 Clouds 11 1019 71 10000 3.1 150 08:40 19.11.2019
4158 Clouds 11 1019 71 10000 3.1 150 08:22 19.11.2019
4159 Clouds 11 1018 71 10000 3.6 160 07:56 19.11.2019
4160 Clouds 11 1018 71 10000 3.1 0 07:37 19.11.2019
4161 Clouds 11 1018 71 10000 3.1 0 07:19 19.11.2019
4162 Clouds 12 1018 71 10000 3.1 160 06:44 19.11.2019
4163 Clouds 12 1018 76 10000 3.1 160 06:24 19.11.2019
4164 Clouds 12 1018 76 10000 3.6 160 05:19 19.11.2019
4165 Clouds 12 1018 76 10000 3.1 160 03:41 19.11.2019
4166 Clouds 12 1018 76 10000 3.1 160 03:20 19.11.2019
4167 Clouds 12 1018 81 10000 2.1 170 02:50 19.11.2019
4168 Clouds 11 1019 87 10000 0.5 0 01:49 19.11.2019
4169 Clouds 12 1019 87 10000 0.5 0 00:49 19.11.2019
4170 Clouds 12 1019 87 10000 1 0 00:21 19.11.2019
4171 Clouds 12 1019 81 10000 0.5 0 23:40 18.11.2019
4172 Clouds 12 1019 81 10000 0.5 0 23:20 18.11.2019
4173 Clouds 12 1019 81 10000 1 0 22:47 18.11.2019
4174 Clouds 12 1019 76 10000 1 0 22:24 18.11.2019
4175 Clouds 12 1019 81 10000 1 0 21:59 18.11.2019
4176 Clouds 13 1019 71 10000 1 0 21:40 18.11.2019
4177 Clouds 13 1019 71 10000 1 0 21:40 18.11.2019
4178 Clouds 13 1019 71 10000 1 0 21:21 18.11.2019
4179 Clouds 13 1019 71 10000 1 0 20:59 18.11.2019
4180 Clouds 13 1017 71 10000 5.1 270 20:41 18.11.2019
4181 Clouds 13 1017 71 10000 5.1 270 20:41 18.11.2019
4182 Clouds 13 1017 71 10000 5.1 270 20:19 18.11.2019
4183 Clouds 13 1017 71 10000 5.1 270 19:57 18.11.2019
4184 Clouds 13 1017 71 10000 5.1 270 19:38 18.11.2019
4185 Clouds 13 1017 71 10000 5.1 270 19:38 18.11.2019
4186 Clouds 13 1017 71 10000 5.1 270 19:38 18.11.2019
4187 Clouds 14 1018 76 10000 1.5 220 19:20 18.11.2019
4188 Clouds 14 1016 62 10000 6.2 260 18:56 18.11.2019
4189 Clouds 14 1016 62 10000 6.2 260 18:38 18.11.2019
4190 Clouds 14 1017 71 10000 3.6 270 18:19 18.11.2019
4191 Clouds 15 1016 59 10000 7.2 280 17:56 18.11.2019
4192 Clouds 15 1016 59 10000 7.2 280 17:37 18.11.2019
4193 Clouds 15 1017 67 10000 3.6 280 17:18 18.11.2019
4194 Clouds 16 1015 55 10000 7.2 280 16:42 18.11.2019
4195 Clouds 16 1017 58 10000 5.1 310 16:24 18.11.2019
4196 Clouds 16 1015 55 10000 8.7 280 15:58 18.11.2019
4197 Clouds 15 1015 58 10000 7.2 280 15:39 18.11.2019
4198 Clouds 15 1015 58 10000 7.2 280 15:39 18.11.2019
4199 Clouds 15 1017 54 10000 6.7 310 15:20 18.11.2019
4200 Clouds 16 1015 58 10000 7.2 280 14:56 18.11.2019
4201 Clouds 16 1015 58 10000 7.2 280 14:37 18.11.2019
4202 Clouds 15 1017 62 10000 6.2 300 14:18 18.11.2019
4203 Clouds 15 1015 58 10000 7.7 280 13:42 18.11.2019
4204 Clouds 14 1017 62 10000 5.7 300 13:23 18.11.2019
4205 Clouds 16 1016 62 10000 7.2 270 12:40 18.11.2019
4206 Clouds 15 1018 67 10000 6.7 320 12:20 18.11.2019
4207 Clouds 15 1018 67 10000 6.7 300 11:56 18.11.2019
4208 Clouds 15 1016 66 10000 4.1 290 11:37 18.11.2019
4209 Clouds 13 1018 71 10000 6.2 310 11:19 18.11.2019
4210 Clouds 13 1016 76 10000 7.2 280 10:42 18.11.2019
4211 Clouds 13 1016 76 10000 7.2 280 10:42 18.11.2019
4212 Clouds 13 1017 67 8000 7.2 310 10:23 18.11.2019
4213 Clouds 12 1017 71 8000 6.2 310 09:57 18.11.2019
4214 Clouds 12 1015 76 10000 7.2 280 09:38 18.11.2019
4215 Clouds 12 1016 71 8000 7.7 310 09:19 18.11.2019
4216 Clouds 12 1016 71 8000 7.7 310 09:19 18.11.2019
4217 Clouds 12 1016 66 8000 8.2 310 08:47 18.11.2019
4218 Clouds 12 1015 66 8000 7.7 310 08:24 18.11.2019
4219 Clouds 13 1015 66 8000 8.7 300 07:55 18.11.2019
4220 Clouds 14 1015 67 6000 8.7 300 07:37 18.11.2019
4221 Clouds 14 1015 67 6000 8.7 300 07:19 18.11.2019
4222 Rain 14 1014 87 3000 7.7 300 06:41 18.11.2019
4223 Rain 14 1014 87 3000 7.7 300 06:21 18.11.2019
4224 Rain 15 1014 93 3000 10.3 300 05:26 18.11.2019
4225 Clouds 17 1015 88 6000 6.2 230 03:40 18.11.2019
4226 Clouds 16 1016 87 6000 4.1 210 01:39 18.11.2019
4227 Clouds 16 1017 93 6000 2.6 180 00:53 18.11.2019
4228 Rain 17 1015 87 10000 8.7 220 23:59 17.11.2019
4229 Rain 15 1018 87 5000 3.1 180 23:40 17.11.2019
4230 Rain 15 1018 87 5000 3.1 180 23:21 17.11.2019
4231 Clouds 15 1018 87 6000 3.6 170 22:57 17.11.2019
4232 Clouds 15 1018 87 6000 4.1 170 22:38 17.11.2019
4233 Clouds 15 1018 87 6000 4.1 170 22:20 17.11.2019
4234 Clouds 15 1018 87 6000 3.6 170 21:42 17.11.2019
4235 Clouds 15 1018 87 6000 4.1 180 21:20 17.11.2019
4236 Rain 15 1017 93 10000 7.2 220 20:59 17.11.2019
4237 Rain 15 1017 93 10000 7.2 220 20:40 17.11.2019
4238 Clouds 15 1019 93 6000 3.6 180 20:20 17.11.2019
4239 Clouds 16 1018 93 10000 7.2 220 19:57 17.11.2019
4240 Clouds 16 1018 93 10000 7.2 220 19:39 17.11.2019
4241 Clouds 16 1019 87 6000 3.6 180 19:20 17.11.2019
4242 Clouds 16 1019 87 6000 3.6 190 18:57 17.11.2019
4243 Clouds 16 1019 87 6000 3.6 190 18:57 17.11.2019
4244 Rain 17 1018 87 10000 7.2 220 18:39 17.11.2019
4245 Clouds 17 1019 87 6000 4.1 190 18:19 17.11.2019
4246 Clouds 17 1018 82 10000 8.2 220 17:58 17.11.2019
4247 Clouds 17 1018 82 10000 8.2 220 17:58 17.11.2019
4248 Clouds 17 1018 82 10000 8.2 220 17:40 17.11.2019
4249 Rain 17 1019 82 4500 6.2 200 17:21 17.11.2019
4250 Rain 16 1018 82 10000 7.2 240 16:59 17.11.2019
4251 Rain 16 1018 72 10000 6.7 240 16:41 17.11.2019
4252 Clouds 17 1019 63 8000 5.7 190 16:21 17.11.2019
4253 Rain 17 1018 67 10000 7.2 240 15:57 17.11.2019
4254 Rain 17 1018 67 10000 7.2 240 15:39 17.11.2019
4255 Clouds 17 1019 59 8000 5.7 190 15:19 17.11.2019
4256 Rain 18 1019 72 10000 8.2 240 14:57 17.11.2019
4257 Rain 17 1019 72 10000 8.2 240 14:38 17.11.2019
4258 Clouds 17 1020 59 8000 5.7 190 14:20 17.11.2019
4259 Clouds 17 1020 59 8000 5.7 180 13:58 17.11.2019
4260 Clouds 16 1019 67 10000 7.7 240 13:39 17.11.2019
4261 Clouds 16 1021 58 8000 4.1 180 13:19 17.11.2019
4262 Clouds 16 1022 58 8000 4.6 190 12:45 17.11.2019
4263 Clouds 16 1022 58 8000 4.6 180 12:23 17.11.2019
4264 Clouds 16 1022 58 8000 5.1 180 11:58 17.11.2019
4265 Clouds 16 1021 67 10000 5.7 240 11:39 17.11.2019
4266 Clouds 15 1022 58 8000 5.1 180 11:20 17.11.2019
4267 Clouds 14 1022 62 8000 4.6 180 10:45 17.11.2019
4268 Clouds 14 1022 58 8000 4.6 180 10:24 17.11.2019
4269 Clouds 13 1021 71 10000 4.1 280 09:58 17.11.2019
4270 Clouds 15 1021 71 10000 5.1 280 09:40 17.11.2019
4271 Clouds 14 1022 62 10000 3.6 170 09:22 17.11.2019
4272 Clouds 14 1021 66 10000 3.6 170 08:41 17.11.2019
4273 Clouds 12 1021 66 10000 3.6 170 08:23 17.11.2019
4274 Clouds 12 1021 71 10000 3.6 170 07:56 17.11.2019
4275 Clouds 12 1020 71 10000 3.6 170 07:37 17.11.2019
4276 Clouds 12 1020 71 10000 3.6 170 07:19 17.11.2019
4277 Clouds 12 1020 66 10000 3.1 170 06:46 17.11.2019
4278 Clouds 12 1020 62 10000 3.6 170 06:27 17.11.2019
4279 Clouds 12 1020 66 10000 4.1 170 04:38 17.11.2019
4280 Clouds 12 1021 66 10000 4.1 170 03:53 17.11.2019
4281 Clouds 12 1021 62 10000 3.1 170 03:33 17.11.2019
4282 Clouds 12 1021 66 10000 3.1 170 02:36 17.11.2019
4283 Clouds 11 1021 66 10000 2.1 170 01:43 17.11.2019
4284 Clouds 11 1021 76 10000 0.5 0 00:55 17.11.2019
4285 Clouds 10 1022 81 10000 0.5 0 00:23 17.11.2019
4286 Clouds 11 1022 81 10000 1 0 23:52 16.11.2019
4287 Clouds 10 1022 87 10000 1.5 70 23:20 16.11.2019
4288 Clouds 11 1022 87 10000 1.5 50 22:59 16.11.2019
4289 Clouds 11 1021 81 10000 2.1 60 22:41 16.11.2019
4290 Clouds 11 1021 81 10000 2.1 60 22:19 16.11.2019
4291 Clouds 11 1021 81 10000 1 0 21:56 16.11.2019
4292 Clouds 11 1021 76 10000 0.5 0 21:38 16.11.2019
4293 Clouds 11 1021 76 10000 0.5 0 21:19 16.11.2019
4294 Clouds 11 1021 76 10000 1.5 90 20:43 16.11.2019
4295 Clouds 11 1021 71 10000 0.5 0 20:21 16.11.2019
4296 Clouds 12 1020 71 10000 2.1 290 19:59 16.11.2019
4297 Clouds 12 1020 66 10000 1.5 260 19:40 16.11.2019
4298 Clouds 12 1020 66 10000 1.5 260 19:21 16.11.2019
4299 Clouds 13 1020 71 10000 2.1 280 18:47 16.11.2019
4300 Clouds 13 1019 66 10000 3.1 280 18:29 16.11.2019
4301 Clouds 14 1019 62 10000 4.6 280 17:57 16.11.2019
4302 Clear 14 1018 54 10000 7.7 260 17:39 16.11.2019
4303 Clouds 14 1019 62 10000 5.1 280 17:19 16.11.2019
4304 Clouds 14 1019 62 10000 5.1 270 16:48 16.11.2019
4305 Clear 14 1017 51 10000 8.2 260 16:30 16.11.2019
4306 Clear 15 1017 47 10000 7.2 280 15:59 16.11.2019
4307 Clear 15 1017 47 10000 7.2 270 15:41 16.11.2019
4308 Clouds 15 1018 62 10000 5.1 280 15:21 16.11.2019
4309 Clouds 15 1018 58 10000 3.6 260 14:58 16.11.2019
4310 Clear 16 1017 44 10000 6.7 270 14:39 16.11.2019
4311 Clouds 14 1018 58 10000 4.1 260 14:21 16.11.2019
4312 Clear 14 1017 47 10000 6.7 280 13:55 16.11.2019
4313 Clear 14 1017 47 10000 6.7 280 13:37 16.11.2019
4314 Clouds 14 1019 58 10000 3.6 260 13:18 16.11.2019
4315 Clouds 14 1019 58 10000 3.6 260 13:18 16.11.2019
4316 Clouds 15 1019 54 10000 4.6 290 12:42 16.11.2019
4317 Clouds 14 1019 54 10000 4.1 290 12:23 16.11.2019
4318 Clear 14 1017 54 10000 6.2 260 11:56 16.11.2019
4319 Clear 14 1017 54 10000 6.2 260 11:38 16.11.2019
4320 Clear 14 1017 54 10000 6.2 260 11:38 16.11.2019
4321 Clouds 12 1018 62 10000 4.6 310 11:19 16.11.2019
4322 Clear 11 1017 57 10000 6.2 270 10:43 16.11.2019
4323 Clouds 11 1017 62 10000 3.1 320 10:25 16.11.2019
4324 Clouds 10 1017 62 10000 2.6 320 09:58 16.11.2019
4325 Clear 10 1016 66 10000 3.6 290 09:40 16.11.2019
4326 Clouds 9 1016 71 10000 2.6 330 09:19 16.11.2019
4327 Clouds 9 1015 66 10000 2.1 330 08:41 16.11.2019
4328 Clouds 9 1015 66 10000 2.1 330 08:20 16.11.2019
4329 Clouds 10 1015 57 10000 4.1 310 07:44 16.11.2019
4330 Clear 10 1013 66 10000 5.1 280 07:22 16.11.2019
4331 Clear 10 1013 66 10000 6.7 270 06:57 16.11.2019
4332 Clear 10 1013 66 10000 6.7 270 06:39 16.11.2019
4333 Clouds 10 1013 53 10000 5.7 300 06:19 16.11.2019
4334 Clear 11 1013 54 10000 5.7 300 04:21 16.11.2019
4335 Clear 10 1011 61 0 4.6 270 03:26 16.11.2019
4336 Clear 11 1012 62 10000 6.7 280 02:36 16.11.2019
4337 Clouds 12 1012 47 10000 5.7 310 01:38 16.11.2019
4338 Clouds 12 1012 47 10000 6.7 310 00:48 16.11.2019
4339 Clouds 12 1012 47 10000 5.1 310 00:28 16.11.2019
4340 Clouds 12 1012 47 10000 5.7 300 23:44 15.11.2019
4341 Clouds 12 1012 43 10000 5.7 310 23:25 15.11.2019
4342 Clear 12 1011 58 10000 6.2 270 22:59 15.11.2019
4343 Clouds 12 1011 47 10000 6.2 320 22:39 15.11.2019
4344 Clouds 12 1011 47 10000 6.2 320 22:19 15.11.2019
4345 Clouds 12 1011 47 10000 5.7 310 21:55 15.11.2019
4346 Clouds 12 1011 43 10000 6.7 310 21:37 15.11.2019
4347 Clouds 12 1011 43 10000 6.7 310 21:19 15.11.2019
4348 Clouds 13 1011 41 9000 6.7 310 20:56 15.11.2019
4349 Clear 13 1010 58 10000 7.2 270 20:37 15.11.2019
4350 Clouds 13 1011 50 9000 5.7 300 20:19 15.11.2019
4351 Clouds 13 1010 58 10000 5.1 270 19:56 15.11.2019
4352 Clouds 13 1010 58 10000 5.1 270 19:37 15.11.2019
4353 Clouds 13 1010 54 9000 9.3 280 19:18 15.11.2019
4354 Clouds 13 1010 47 10000 7.2 300 18:42 15.11.2019
4355 Clouds 14 1010 44 10000 7.2 290 18:24 15.11.2019
4356 Clouds 14 1009 54 10000 9.3 280 17:57 15.11.2019
4357 Clouds 14 1009 54 10000 9.3 280 17:39 15.11.2019
4358 Clouds 14 1010 50 10000 8.7 290 17:20 15.11.2019
4359 Clouds 14 1008 54 10000 9.8 270 16:40 15.11.2019
4360 Clouds 14 1010 47 10000 8.7 300 16:22 15.11.2019
4361 Clouds 14 1008 54 10000 9.8 270 16:00 15.11.2019
4362 Clouds 14 1008 54 10000 9.8 270 16:00 15.11.2019
4363 Clouds 14 1008 54 10000 9.8 270 16:00 15.11.2019
4364 Clouds 14 1009 50 10000 9.3 280 15:37 15.11.2019
4365 Clouds 14 1010 54 10000 8.2 300 15:18 15.11.2019
4366 Clouds 14 1010 47 10000 7.7 300 14:55 15.11.2019
4367 Clouds 14 1009 50 10000 8.2 280 14:37 15.11.2019
4368 Clouds 14 1010 50 10000 7.7 300 14:18 15.11.2019
4369 Clouds 14 1009 47 10000 7.2 290 13:55 15.11.2019
4370 Clouds 14 1009 47 10000 7.2 290 13:55 15.11.2019
4371 Clouds 14 1009 47 10000 7.2 290 13:36 15.11.2019
4372 Clouds 14 1011 62 8000 8.7 310 13:18 15.11.2019
4373 Clouds 14 1010 44 10000 8.7 280 12:56 15.11.2019
4374 Clouds 14 1010 44 10000 8.7 280 12:37 15.11.2019
4375 Clouds 14 1012 47 8000 6.2 310 12:18 15.11.2019
4376 Clouds 14 1010 54 10000 8.7 290 11:40 15.11.2019
4377 Clouds 14 1010 54 10000 8.7 290 11:40 15.11.2019
4378 Clouds 13 1012 50 8000 6.7 320 11:21 15.11.2019
4379 Clouds 13 1010 58 10000 9.3 290 10:59 15.11.2019
4380 Clouds 14 1010 58 10000 9.3 290 10:39 15.11.2019
4381 Clouds 13 1012 50 8000 7.2 300 10:20 15.11.2019
4382 Clouds 13 1010 66 10000 8.2 280 09:41 15.11.2019
4383 Clouds 13 1012 50 8000 6.2 310 09:21 15.11.2019
4384 Clouds 12 1011 54 9000 6.2 310 08:58 15.11.2019
4385 Clouds 12 1011 50 8000 6.7 310 08:39 15.11.2019
4386 Clouds 12 1011 50 8000 6.7 310 08:20 15.11.2019
4387 Clouds 12 1011 54 9000 7.2 310 07:42 15.11.2019
4388 Clouds 12 1011 58 9000 7.2 310 07:23 15.11.2019
4389 Clouds 13 1009 66 10000 7.2 300 06:36 15.11.2019
4390 Clouds 13 1011 62 8000 6.2 310 05:52 15.11.2019
4391 Clouds 13 1011 58 8000 8.2 280 05:31 15.11.2019
4392 Clouds 14 1011 58 8000 8.7 290 04:45 15.11.2019
4393 Clouds 13 1012 54 8000 7.7 290 03:38 15.11.2019
4394 Clouds 13 1012 58 8000 6.2 300 02:34 15.11.2019
4395 Clouds 14 1012 62 8000 7.2 290 01:51 15.11.2019
4396 Clouds 14 1013 62 8000 7.2 290 01:32 15.11.2019
4397 Clouds 14 1013 58 8000 7.7 290 00:40 15.11.2019
4398 Clouds 14 1013 58 8000 7.7 290 00:20 15.11.2019
4399 Clouds 14 1013 62 8000 6.2 300 23:45 14.11.2019
4400 Clouds 14 1013 54 8000 6.7 310 23:25 14.11.2019
4401 Clouds 14 1013 62 8000 6.7 320 22:41 14.11.2019
4402 Clouds 14 1013 62 8000 6.7 320 22:22 14.11.2019
4403 Clouds 14 1013 58 8000 7.7 310 21:58 14.11.2019
4404 Clouds 14 1013 58 8000 8.2 310 21:40 14.11.2019
4405 Clouds 14 1013 58 8000 8.2 310 21:21 14.11.2019
4406 Clouds 14 1012 62 6000 8.2 310 20:54 14.11.2019
4407 Clouds 14 1012 58 6000 9.8 300 20:36 14.11.2019
4408 Clouds 14 1012 58 6000 9.8 300 20:18 14.11.2019
4409 Clouds 14 1012 62 6000 7.7 290 19:54 14.11.2019
4410 Clouds 14 1010 67 10000 8.2 300 19:36 14.11.2019
4411 Clouds 14 1012 67 6000 6.7 290 19:18 14.11.2019
4412 Clouds 14 1010 71 10000 7.7 280 18:41 14.11.2019
4413 Clouds 14 1012 67 6000 6.7 310 18:22 14.11.2019
4414 Clouds 14 1012 72 6000 5.7 310 17:57 14.11.2019
4415 Clouds 15 1012 72 6000 6.2 300 17:37 14.11.2019
4416 Clouds 15 1012 72 6000 6.2 300 17:19 14.11.2019
4417 Clouds 14 1011 76 6000 5.7 310 16:57 14.11.2019
4418 Clouds 14 1011 76 6000 5.7 310 16:57 14.11.2019
4419 Clouds 14 1009 82 10000 8.2 280 16:37 14.11.2019
4420 Clouds 14 1012 76 6000 7.7 310 16:19 14.11.2019
4421 Clouds 14 1012 76 6000 7.7 310 16:19 14.11.2019
4422 Rain 15 1012 87 2500 8.7 310 15:57 14.11.2019
4423 Rain 17 1009 82 10000 8.2 280 15:38 14.11.2019
4424 Clouds 17 1011 77 6000 8.7 250 15:19 14.11.2019
4425 Clouds 17 1010 82 10000 9.8 270 14:45 14.11.2019
4426 Rain 16 1012 82 3000 12.3 270 14:22 14.11.2019
4427 Rain 18 1010 77 4000 15.9 270 13:57 14.11.2019
4428 Rain 18 1010 77 4000 15.9 270 13:38 14.11.2019
4429 Clouds 19 1013 63 10000 5.7 210 13:19 14.11.2019
4430 Clouds 19 1013 68 10000 6.2 220 12:56 14.11.2019
4431 Clouds 19 1011 59 10000 13.9 260 12:37 14.11.2019
4432 Clouds 19 1014 63 10000 5.1 220 12:18 14.11.2019
4433 Clouds 18 1012 55 10000 10.8 260 11:39 14.11.2019
4434 Clouds 17 1015 63 10000 5.1 250 11:20 14.11.2019
4435 Clouds 17 1015 63 10000 5.1 250 11:20 14.11.2019
4436 Clouds 17 1015 63 10000 5.1 250 11:20 14.11.2019
4437 Clouds 17 1015 63 10000 7.2 250 10:58 14.11.2019
4438 Clouds 17 1013 59 10000 8.7 250 10:40 14.11.2019
4439 Clouds 16 1015 67 10000 8.2 270 10:20 14.11.2019
4440 Clouds 16 1015 67 10000 7.2 290 09:56 14.11.2019
4441 Clouds 16 1014 72 10000 6.7 270 09:38 14.11.2019
4442 Clouds 16 1015 72 10000 5.7 310 09:19 14.11.2019
4443 Clouds 16 1015 72 10000 5.7 310 08:47 14.11.2019
4444 Clouds 16 1015 72 10000 5.7 310 08:25 14.11.2019
4445 Clouds 15 1014 77 10000 4.1 300 07:56 14.11.2019
4446 Clouds 15 1014 77 10000 4.6 300 07:37 14.11.2019
4447 Clouds 15 1014 77 10000 4.6 300 07:19 14.11.2019
4448 Clouds 16 1014 87 10000 4.6 310 06:41 14.11.2019
4449 Clouds 16 1014 87 10000 4.6 310 06:18 14.11.2019
4450 Clouds 16 1014 82 10000 8.2 280 04:41 14.11.2019
4451 Clouds 17 1015 77 10000 3.1 240 04:19 14.11.2019
4452 Clouds 17 1016 82 10000 2.1 210 02:45 14.11.2019
4453 Clouds 17 1017 82 10000 1.5 210 01:44 14.11.2019
4454 Clouds 17 1017 82 10000 2.1 170 01:26 14.11.2019
4455 Clouds 17 1017 82 10000 2.1 230 00:49 14.11.2019
4456 Clouds 17 1018 82 10000 2.1 210 00:29 14.11.2019
4457 Clouds 18 1017 82 8000 2.6 210 23:41 13.11.2019
4458 Clouds 18 1017 82 8000 2.6 210 23:21 13.11.2019
4459 Clouds 18 1017 82 10000 2.1 180 22:56 13.11.2019
4460 Clouds 18 1017 82 10000 2.6 180 22:38 13.11.2019
4461 Clouds 18 1017 82 10000 2.6 180 22:38 13.11.2019
4462 Clouds 18 1017 82 10000 2.6 180 22:20 13.11.2019
4463 Clouds 18 1017 82 10000 2.6 180 21:55 13.11.2019
4464 Clouds 18 1017 82 10000 2.6 180 21:55 13.11.2019
4465 Clouds 18 1018 82 8000 2.1 200 21:37 13.11.2019
4466 Clouds 18 1018 82 8000 2.1 200 21:19 13.11.2019
4467 Clouds 18 1018 82 6000 2.6 200 20:56 13.11.2019
4468 Clouds 18 1016 82 10000 6.7 270 20:37 13.11.2019
4469 Clouds 19 1017 77 8000 4.1 200 20:18 13.11.2019
4470 Clouds 19 1017 77 8000 2.6 200 19:44 13.11.2019
4471 Clouds 19 1017 82 8000 3.6 200 19:20 13.11.2019
4472 Clouds 19 1015 77 10000 9.8 270 18:58 13.11.2019
4473 Clouds 19 1017 88 8000 4.1 210 18:58 13.11.2019
4474 Clouds 19 1015 77 10000 9.3 260 18:39 13.11.2019
4475 Clouds 19 1015 77 10000 9.3 260 18:39 13.11.2019
4476 Clouds 19 1017 82 8000 3.1 200 18:21 13.11.2019
4477 Rain 20 1017 82 8000 4.1 210 17:58 13.11.2019
4478 Clouds 20 1015 72 10000 9.3 260 17:40 13.11.2019
4479 Clouds 20 1017 77 8000 3.1 210 17:21 13.11.2019
4480 Rain 20 1015 72 10000 8.7 260 16:58 13.11.2019
4481 Rain 20 1015 72 10000 8.7 260 16:39 13.11.2019
4482 Rain 20 1015 72 10000 8.7 260 16:39 13.11.2019
4483 Clouds 20 1017 77 6000 3.1 200 16:21 13.11.2019
4484 Clouds 20 1017 77 6000 3.1 190 15:58 13.11.2019
4485 Rain 19 1016 77 10000 9.3 260 15:39 13.11.2019
4486 Clouds 19 1017 88 6000 3.1 190 15:20 13.11.2019
4487 Clouds 19 1016 68 10000 7.2 250 14:42 13.11.2019
4488 Clouds 18 1018 88 6000 4.6 200 14:22 13.11.2019
4489 Clouds 19 1016 72 10000 9.8 270 13:58 13.11.2019
4490 Clouds 19 1018 77 10000 5.7 210 13:36 13.11.2019
4491 Clouds 19 1018 77 10000 5.7 210 13:18 13.11.2019
4492 Clouds 19 1019 82 6000 3.1 200 12:54 13.11.2019
4493 Rain 19 1017 72 10000 8.7 270 12:36 13.11.2019
4494 Clouds 19 1019 72 10000 3.6 180 12:18 13.11.2019
4495 Rain 19 1017 68 10000 10.8 260 11:40 13.11.2019
4496 Rain 19 1017 68 10000 10.8 260 11:40 13.11.2019
4497 Clouds 19 1017 72 10000 7.2 260 11:20 13.11.2019
4498 Clouds 19 1018 67 8000 4.1 180 10:58 13.11.2019
4499 Clouds 18 1017 72 10000 6.2 260 10:40 13.11.2019
4500 Clouds 18 1018 72 8000 3.6 180 10:19 13.11.2019
4501 Clouds 18 1018 77 8000 3.6 180 09:45 13.11.2019
4502 Clouds 17 1018 82 8000 2.6 180 09:24 13.11.2019
4503 Clouds 17 1017 72 5000 2.6 180 08:57 13.11.2019
4504 Clouds 17 1017 72 8000 2.6 180 08:36 13.11.2019
4505 Clouds 17 1017 72 8000 2.6 180 08:18 13.11.2019
4506 Clouds 17 1016 76 8000 4.1 170 07:42 13.11.2019
4507 Clouds 17 1016 76 8000 4.1 170 07:42 13.11.2019
4508 Clouds 17 1016 76 8000 4.1 170 07:20 13.11.2019
4509 Clouds 17 1017 72 8000 2.6 180 06:44 13.11.2019
4510 Clouds 17 1017 76 8000 2.6 180 06:19 13.11.2019
4511 Clouds 17 1017 76 8000 2.6 180 06:19 13.11.2019
4512 Clouds 17 1017 76 8000 2.6 180 06:19 13.11.2019
4513 Clouds 17 1017 76 8000 2.6 180 06:19 13.11.2019
4514 Clouds 17 1017 76 8000 2.1 180 05:52 13.11.2019
4515 Clouds 17 1017 76 8000 2.1 180 05:30 13.11.2019
4516 Clouds 17 1017 72 8000 1.5 180 04:21 13.11.2019
4517 Clouds 16 1018 72 8000 1.5 190 01:58 13.11.2019
4518 Clouds 16 1018 72 7000 2.1 180 01:40 13.11.2019
4519 Clouds 16 1018 72 7000 1.5 0 00:44 13.11.2019
4520 Clear 16 1017 67 10000 8.2 270 23:59 12.11.2019
4521 Clouds 16 1018 71 8000 2.6 180 23:41 12.11.2019
4522 Clouds 16 1018 71 8000 2.6 180 23:21 12.11.2019
4523 Clouds 16 1018 67 8000 2.1 170 22:43 12.11.2019
4524 Clear 18 1018 67 10000 2.6 230 22:20 12.11.2019
4525 Clear 17 1018 67 10000 4.1 240 21:58 12.11.2019
4526 Clear 17 1018 67 10000 3.1 250 21:40 12.11.2019
4527 Clear 17 1018 67 10000 3.1 250 21:22 12.11.2019
4528 Clear 17 1018 67 10000 4.6 260 20:56 12.11.2019
4529 Clear 17 1016 63 10000 7.2 270 20:37 12.11.2019
4530 Clear 17 1016 63 10000 7.2 270 20:37 12.11.2019
4531 Clear 17 1018 67 10000 2.1 230 20:18 12.11.2019
4532 Clear 17 1018 67 10000 2.6 240 19:56 12.11.2019
4533 Clear 17 1016 67 10000 5.1 230 19:38 12.11.2019
4534 Clear 17 1018 67 10000 3.1 240 19:19 12.11.2019
4535 Clouds 17 1016 72 10000 7.2 220 18:57 12.11.2019
4536 Clouds 18 1016 72 10000 7.2 220 18:39 12.11.2019
4537 Clear 18 1016 67 10000 5.1 220 18:21 12.11.2019
4538 Clouds 18 1015 72 10000 5.7 200 17:55 12.11.2019
4539 Clouds 18 1015 72 10000 5.7 200 17:37 12.11.2019
4540 Clouds 18 1015 72 10000 5.7 200 17:37 12.11.2019
4541 Clouds 18 1018 67 10000 4.6 260 17:18 12.11.2019
4542 Clouds 18 1018 67 10000 4.6 260 17:18 12.11.2019
4543 Clouds 19 1018 67 8000 4.6 270 16:43 12.11.2019
4544 Clouds 19 1018 72 8000 5.7 260 16:25 12.11.2019
4545 Clouds 19 1018 72 8000 5.1 260 15:57 12.11.2019
4546 Clouds 19 1018 72 8000 5.1 260 15:57 12.11.2019
4547 Clouds 19 1015 68 10000 5.1 220 15:37 12.11.2019
4548 Clouds 19 1017 67 8000 5.7 260 15:18 12.11.2019
4549 Clouds 20 1015 68 10000 5.1 230 14:42 12.11.2019
4550 Clouds 18 1016 63 10000 7.2 270 14:21 12.11.2019
4551 Clouds 19 1016 63 10000 8.7 270 13:59 12.11.2019
4552 Clouds 19 1016 63 10000 8.7 270 13:40 12.11.2019
4553 Clouds 19 1018 72 8000 6.2 260 13:20 12.11.2019
4554 Clouds 18 1018 77 8000 4.6 270 12:59 12.11.2019
4555 Clouds 19 1017 67 10000 6.2 270 12:39 12.11.2019
4556 Clouds 19 1018 77 8000 4.6 290 12:18 12.11.2019
4557 Clouds 18 1018 77 8000 5.1 270 11:45 12.11.2019
4558 Clouds 18 1018 72 8000 4.1 270 11:24 12.11.2019
4559 Clouds 17 1018 82 8000 3.6 280 10:58 12.11.2019
4560 Clouds 17 1016 77 10000 5.1 270 10:40 12.11.2019
4561 Clouds 16 1018 82 8000 3.1 280 10:22 12.11.2019
4562 Clouds 16 1017 82 6000 3.1 290 09:59 12.11.2019
4563 Clouds 15 1016 82 10000 5.1 270 09:38 12.11.2019
4564 Clouds 15 1017 87 6000 1.5 270 09:18 12.11.2019
4565 Clouds 15 1017 87 8000 1 0 08:47 12.11.2019
4566 Clouds 15 1017 87 10000 2.1 300 08:28 12.11.2019
4567 Clouds 15 1016 87 10000 1.5 220 07:42 12.11.2019
4568 Clouds 15 1016 87 10000 1.5 220 07:24 12.11.2019
4569 Clouds 15 1016 87 10000 1 0 06:51 12.11.2019
4570 Clouds 15 1016 82 10000 2.1 290 06:24 12.11.2019
4571 Clouds 15 1016 87 10000 2.1 310 05:52 12.11.2019
4572 Clear 16 1017 82 10000 3.1 330 04:50 12.11.2019
4573 Clear 16 1016 82 10000 5.1 320 03:53 12.11.2019
4574 Clouds 17 1017 88 10000 3.1 310 01:50 12.11.2019
4575 Clouds 17 1017 93 10000 2.6 310 01:23 12.11.2019
4576 Clouds 18 1017 88 10000 3.1 300 00:52 12.11.2019
4577 Clouds 18 1018 88 10000 4.1 300 00:32 12.11.2019
4578 Clouds 18 1018 88 8000 3.1 280 23:49 11.11.2019
4579 Clouds 18 1018 88 8000 3.6 270 23:26 11.11.2019
4580 Rain 19 1017 82 10000 5.1 280 22:59 11.11.2019
4581 Clouds 18 1018 88 8000 2.6 260 22:38 11.11.2019
4582 Clouds 18 1018 88 8000 2.6 260 22:19 11.11.2019
4583 Clouds 18 1018 88 8000 3.6 260 21:57 11.11.2019
4584 Clouds 18 1018 82 8000 3.1 260 21:38 11.11.2019
4585 Clouds 18 1018 82 8000 3.1 260 21:20 11.11.2019
4586 Clouds 18 1018 82 6000 3.1 250 20:55 11.11.2019
4587 Clouds 18 1018 82 6000 3.1 250 20:36 11.11.2019
4588 Clouds 18 1018 82 6000 3.1 250 20:18 11.11.2019
4589 Clouds 17 1017 82 10000 3.1 280 19:42 11.11.2019
4590 Clouds 17 1018 88 8000 3.1 260 19:19 11.11.2019
4591 Clouds 17 1018 88 8000 3.1 260 19:19 11.11.2019
4592 Clouds 18 1017 82 10000 3.1 240 18:57 11.11.2019
4593 Clouds 18 1017 82 10000 3.1 240 18:57 11.11.2019
4594 Clouds 18 1017 82 10000 5.1 260 18:39 11.11.2019
4595 Clouds 18 1018 82 6000 5.7 270 18:20 11.11.2019
4596 Clouds 18 1018 82 6000 4.6 260 17:44 11.11.2019
4597 Clouds 18 1018 82 6000 3.6 260 17:25 11.11.2019
4598 Clouds 18 1018 82 6000 3.1 270 16:55 11.11.2019
4599 Clouds 18 1018 82 6000 3.1 280 16:36 11.11.2019
4600 Clouds 18 1018 82 6000 3.1 280 16:18 11.11.2019
4601 Clouds 18 1019 82 6000 3.1 290 15:41 11.11.2019
4602 Clouds 18 1019 88 6000 2.6 230 15:20 11.11.2019
4603 Clouds 18 1019 88 6000 2.6 220 14:54 11.11.2019
4604 Clouds 18 1019 88 6000 2.6 220 14:36 11.11.2019
4605 Clouds 18 1019 88 6000 2.6 220 14:18 11.11.2019
4606 Clouds 17 1018 82 10000 7.2 270 13:38 11.11.2019
4607 Clouds 17 1019 87 8000 3.1 210 13:20 11.11.2019
4608 Clouds 17 1018 82 10000 7.2 280 12:58 11.11.2019
4609 Clouds 17 1019 82 10000 6.2 270 12:40 11.11.2019
4610 Clouds 17 1021 87 6000 1.5 230 12:21 11.11.2019
4611 Clouds 17 1021 93 6000 1.5 0 11:43 11.11.2019
4612 Clouds 17 1021 93 6000 1.5 210 11:22 11.11.2019
4613 Clouds 17 1020 77 10000 4.6 280 10:59 11.11.2019
4614 Clouds 16 1020 82 10000 5.1 270 10:41 11.11.2019
4615 Clouds 16 1021 93 6000 1 230 10:18 11.11.2019
4616 Clouds 16 1021 93 6000 0.5 0 09:56 11.11.2019
4617 Clouds 16 1020 87 10000 5.1 270 09:36 11.11.2019
4618 Clouds 16 1021 93 6000 0.5 0 09:18 11.11.2019
4619 Clouds 16 1021 93 6000 0.5 0 08:39 11.11.2019
4620 Clouds 16 1021 93 6000 0.5 0 08:20 11.11.2019
4621 Clouds 15 1021 93 6000 0.5 0 07:56 11.11.2019
4622 Clouds 16 1021 93 6000 0.5 0 07:37 11.11.2019
4623 Clouds 16 1021 93 6000 0.5 0 07:37 11.11.2019
4624 Clouds 16 1021 93 6000 0.5 0 07:18 11.11.2019
4625 Clouds 16 1021 93 6000 2.6 330 06:44 11.11.2019
4626 Clouds 16 1021 87 6000 3.1 320 06:21 11.11.2019
4627 Clouds 16 1021 87 6000 4.1 310 05:50 11.11.2019
4628 Clouds 14 1022 87 6000 6.2 310 04:29 11.11.2019
4629 Rain 16 1021 63 0 5.7 270 03:23 11.11.2019
4630 Clouds 16 1021 59 0 7.2 270 02:20 11.11.2019
4631 Clouds 16 1023 67 10000 6.7 300 01:53 11.11.2019
4632 Clouds 16 1023 67 10000 6.2 310 01:33 11.11.2019
4633 Clouds 16 1023 63 10000 7.2 310 00:47 11.11.2019
4634 Clouds 17 1023 63 10000 8.2 300 00:19 11.11.2019
4635 Clouds 17 1023 63 10000 8.2 300 00:19 11.11.2019
4636 Clouds 17 1023 55 10000 7.7 300 23:39 10.11.2019
4637 Clouds 17 1023 55 10000 7.7 300 23:20 10.11.2019
4638 Clouds 17 1022 59 10000 8.2 300 22:57 10.11.2019
4639 Clouds 17 1022 59 10000 8.2 300 22:38 10.11.2019
4640 Clouds 17 1022 59 10000 8.2 300 22:38 10.11.2019
4641 Clouds 17 1022 59 10000 8.2 300 22:20 10.11.2019
4642 Clouds 17 1022 59 10000 7.7 300 21:58 10.11.2019
4643 Clouds 17 1022 55 10000 7.7 300 21:39 10.11.2019
4644 Clouds 17 1022 55 10000 7.7 300 21:21 10.11.2019
4645 Clouds 17 1020 55 10000 5.7 270 20:43 10.11.2019
4646 Clouds 17 1022 55 10000 8.7 300 20:23 10.11.2019
4647 Clouds 17 1022 51 10000 10.3 300 19:57 10.11.2019
4648 Clouds 17 1021 48 10000 6.2 280 19:38 10.11.2019
4649 Clouds 17 1022 55 10000 8.7 300 19:19 10.11.2019
4650 Clouds 17 1022 55 10000 8.7 300 19:19 10.11.2019
4651 Clouds 17 1020 48 10000 6.7 280 18:59 10.11.2019
4652 Clouds 17 1022 51 10000 7.7 310 18:40 10.11.2019
4653 Clouds 17 1022 51 10000 7.7 310 18:40 10.11.2019
4654 Clouds 17 1022 51 10000 7.7 310 18:20 10.11.2019
4655 Clouds 17 1020 42 10000 6.2 300 17:58 10.11.2019
4656 Clouds 17 1020 42 10000 7.2 300 17:40 10.11.2019
4657 Clouds 17 1022 51 10000 7.7 290 17:20 10.11.2019
4658 Clouds 17 1019 45 10000 7.2 290 16:59 10.11.2019
4659 Clouds 18 1019 45 10000 7.2 290 16:41 10.11.2019
4660 Clouds 18 1022 51 10000 8.7 290 16:22 10.11.2019
4661 Clouds 18 1019 45 10000 7.7 290 15:56 10.11.2019
4662 Clouds 18 1019 45 10000 7.7 290 15:56 10.11.2019
4663 Clouds 18 1019 48 10000 7.7 280 15:37 10.11.2019
4664 Clouds 18 1022 55 10000 8.7 290 15:18 10.11.2019
4665 Clouds 18 1019 55 10000 10.3 290 14:55 10.11.2019
4666 Clouds 18 1019 55 10000 10.3 290 14:36 10.11.2019
4667 Clouds 18 1022 59 10000 8.7 290 14:18 10.11.2019
4668 Clouds 17 1022 59 10000 7.7 290 13:43 10.11.2019
4669 Clouds 17 1022 59 10000 7.7 290 13:21 10.11.2019
4670 Clouds 17 1023 59 8000 7.7 290 12:58 10.11.2019
4671 Clouds 17 1020 55 10000 9.8 280 12:40 10.11.2019
4672 Clouds 18 1023 59 8000 6.7 300 12:18 10.11.2019
4673 Clouds 17 1023 63 8000 6.7 300 11:55 10.11.2019
4674 Clouds 17 1021 67 10000 7.2 280 11:36 10.11.2019
4675 Clouds 16 1023 63 8000 6.7 310 11:18 10.11.2019
4676 Clouds 15 1023 63 8000 7.7 310 10:42 10.11.2019
4677 Clouds 15 1023 67 10000 9.3 300 10:20 10.11.2019
4678 Clouds 15 1021 71 10000 9.8 280 09:45 10.11.2019
4679 Clouds 15 1021 71 10000 9.8 280 09:27 10.11.2019
4680 Clouds 14 1020 76 10000 7.2 280 08:59 10.11.2019
4681 Clouds 14 1022 67 8000 6.7 300 08:38 10.11.2019
4682 Clouds 14 1022 67 8000 6.7 300 08:38 10.11.2019
4683 Clouds 14 1022 67 8000 6.7 300 08:19 10.11.2019
4684 Clouds 15 1021 72 6000 6.7 300 07:43 10.11.2019
4685 Clouds 15 1021 72 6000 6.7 300 07:25 10.11.2019
4686 Clouds 15 1021 67 6000 5.1 300 06:33 10.11.2019
4687 Clouds 15 1021 67 6000 5.1 300 06:33 10.11.2019
4688 Clouds 14 1021 87 6000 2.1 180 05:41 10.11.2019
4689 Clouds 17 1021 82 5000 4.6 170 03:22 10.11.2019
4690 Clouds 17 1022 67 10000 3.1 180 01:55 10.11.2019
4691 Clouds 17 1023 67 10000 3.1 180 01:19 10.11.2019
4692 Clouds 16 1023 71 10000 3.1 180 00:41 10.11.2019
4693 Clouds 16 1023 71 10000 2.6 180 23:58 09.11.2019
4694 Clouds 16 1024 71 10000 2.1 180 23:37 09.11.2019
4695 Clouds 16 1024 71 10000 2.1 180 23:18 09.11.2019
4696 Clouds 16 1024 67 10000 1.5 180 22:41 09.11.2019
4697 Clouds 16 1024 67 10000 1.5 180 22:21 09.11.2019
4698 Clouds 16 1024 66 10000 1 0 21:56 09.11.2019
4699 Clouds 16 1024 66 10000 1 0 21:56 09.11.2019
4700 Clouds 16 1024 62 10000 1 0 21:37 09.11.2019
4701 Clouds 16 1024 62 10000 1 0 21:19 09.11.2019
4702 Clouds 16 1024 66 10000 2.1 280 20:42 09.11.2019
4703 Clouds 16 1024 66 10000 2.1 280 20:22 09.11.2019
4704 Clouds 17 1024 62 10000 3.1 260 19:58 09.11.2019
4705 Clouds 17 1024 58 10000 4.6 270 19:39 09.11.2019
4706 Clouds 16 1024 58 10000 4.6 270 19:21 09.11.2019
4707 Clouds 16 1024 62 10000 3.1 260 18:55 09.11.2019
4708 Clouds 17 1024 58 10000 4.1 270 18:36 09.11.2019
4709 Clouds 17 1024 58 10000 4.1 270 18:18 09.11.2019
4710 Clouds 18 1022 48 10000 8.2 270 17:41 09.11.2019
4711 Clouds 17 1024 51 10000 5.1 290 17:22 09.11.2019
4712 Clouds 17 1021 51 10000 10.3 270 16:44 09.11.2019
4713 Clouds 17 1023 59 10000 4.6 270 16:22 09.11.2019
4714 Clouds 17 1021 48 10000 10.3 270 15:59 09.11.2019
4715 Clouds 18 1022 48 10000 8.7 270 15:41 09.11.2019
4716 Clouds 18 1024 55 10000 4.1 260 15:23 09.11.2019
4717 Clouds 18 1022 48 10000 9.3 270 14:44 09.11.2019
4718 Clouds 18 1024 48 10000 4.6 280 14:22 09.11.2019
4719 Clouds 17 1022 48 10000 9.8 270 13:57 09.11.2019
4720 Clouds 17 1025 51 10000 4.1 280 13:39 09.11.2019
4721 Clouds 17 1025 51 10000 4.1 280 13:19 09.11.2019
4722 Clouds 17 1025 51 10000 2.6 260 12:55 09.11.2019
4723 Clouds 17 1023 45 10000 6.2 280 12:37 09.11.2019
4724 Clouds 17 1023 45 10000 6.2 280 12:37 09.11.2019
4725 Clouds 17 1023 45 10000 6.2 280 12:37 09.11.2019
4726 Clouds 16 1025 51 10000 3.1 300 12:18 09.11.2019
4727 Clouds 16 1026 48 10000 3.6 300 11:47 09.11.2019
4728 Clouds 16 1026 54 10000 3.6 320 11:20 09.11.2019
4729 Clouds 15 1026 58 10000 1.5 230 10:56 09.11.2019
4730 Clouds 14 1025 47 10000 3.6 240 10:37 09.11.2019
4731 Clouds 14 1026 71 10000 1 60 10:18 09.11.2019
4732 Clouds 12 1025 81 10000 1.5 90 09:42 09.11.2019
4733 Clouds 11 1025 81 10000 2.6 80 09:20 09.11.2019
4734 Clouds 11 1024 87 10000 2.1 70 08:45 09.11.2019
4735 Clouds 11 1024 87 10000 2.1 70 08:25 09.11.2019
4736 Clear 11 1024 81 10000 1.5 80 07:55 09.11.2019
4737 Clear 11 1024 87 10000 2.6 80 07:37 09.11.2019
4738 Clear 11 1024 87 10000 2.6 80 07:19 09.11.2019
4739 Clear 11 1024 87 10000 2.6 80 06:43 09.11.2019
4740 Clear 11 1023 81 10000 2.1 70 06:25 09.11.2019
4741 Clear 11 1023 81 10000 2.1 60 05:40 09.11.2019
4742 Clear 11 1023 81 10000 2.1 80 04:29 09.11.2019
4743 Clear 11 1023 76 10000 1.5 90 02:49 09.11.2019
4744 Clouds 11 1024 81 10000 2.1 120 02:26 09.11.2019
4745 Clouds 12 1024 76 10000 2.1 100 01:18 09.11.2019
4746 Clouds 12 1024 76 10000 2.6 90 00:40 09.11.2019
4747 Clouds 12 1024 76 10000 2.6 90 00:22 09.11.2019
4748 Clouds 15 1024 41 10000 4.6 320 23:40 08.11.2019
4749 Clouds 15 1024 41 10000 4.6 320 23:22 08.11.2019
4750 Clouds 15 1024 41 10000 4.1 310 22:58 08.11.2019
4751 Clear 15 1023 62 10000 5.1 270 22:38 08.11.2019
4752 Clouds 15 1023 44 10000 3.1 310 22:20 08.11.2019
4753 Clear 15 1022 54 10000 4.1 240 21:42 08.11.2019
4754 Clear 15 1023 47 10000 3.6 310 21:23 08.11.2019
4755 Clear 15 1023 47 10000 3.6 310 21:23 08.11.2019
4756 Clear 15 1023 47 10000 4.1 310 20:57 08.11.2019
4757 Clear 15 1022 58 10000 4.6 240 20:39 08.11.2019
4758 Clear 15 1023 47 10000 4.1 310 20:19 08.11.2019
4759 Clear 15 1022 55 10000 6.7 280 19:40 08.11.2019
4760 Clouds 15 1022 51 10000 3.6 310 19:19 08.11.2019
4761 Clouds 16 1022 51 10000 2.6 320 18:57 08.11.2019
4762 Clouds 16 1021 48 10000 4.6 280 18:39 08.11.2019
4763 Clouds 16 1021 48 10000 4.6 280 18:39 08.11.2019
4764 Clouds 16 1021 48 10000 4.6 280 18:39 08.11.2019
4765 Clouds 16 1022 48 10000 4.6 300 18:21 08.11.2019
4766 Clouds 17 1022 51 10000 5.1 300 17:57 08.11.2019
4767 Clouds 18 1020 48 10000 5.7 290 17:39 08.11.2019
4768 Clouds 18 1020 48 10000 5.7 290 17:39 08.11.2019
4769 Clouds 17 1021 48 10000 5.7 310 17:20 08.11.2019
4770 Clouds 17 1020 42 10000 3.1 300 16:59 08.11.2019
4771 Clouds 17 1020 48 10000 4.6 300 16:40 08.11.2019
4772 Clouds 17 1020 48 10000 4.6 300 16:40 08.11.2019
4773 Clouds 17 1021 48 10000 5.7 310 16:22 08.11.2019
4774 Clouds 17 1021 45 10000 6.2 300 15:59 08.11.2019
4775 Clouds 17 1019 48 10000 6.2 280 15:41 08.11.2019
4776 Clouds 17 1021 42 10000 6.2 310 15:22 08.11.2019
4777 Clouds 17 1020 48 10000 6.7 280 14:57 08.11.2019
4778 Clouds 17 1020 48 10000 6.7 280 14:57 08.11.2019
4779 Clouds 18 1020 48 10000 6.7 280 14:38 08.11.2019
4780 Clouds 18 1021 48 10000 7.7 300 14:20 08.11.2019
4781 Clouds 17 1020 45 10000 6.7 280 13:58 08.11.2019
4782 Clouds 17 1020 45 10000 6.2 290 13:39 08.11.2019
4783 Clouds 17 1021 51 10000 6.2 300 13:20 08.11.2019
4784 Clouds 18 1022 55 10000 6.7 300 12:45 08.11.2019
4785 Clouds 18 1022 51 10000 6.2 300 12:27 08.11.2019
4786 Clouds 18 1021 55 10000 7.7 290 11:58 08.11.2019
4787 Clouds 17 1021 58 10000 7.2 280 11:40 08.11.2019
4788 Clouds 16 1022 55 10000 5.7 310 11:20 08.11.2019
4789 Clouds 15 1022 55 10000 6.2 290 10:57 08.11.2019
4790 Clouds 16 1021 62 10000 7.2 280 10:39 08.11.2019
4791 Clouds 15 1022 55 10000 4.1 310 10:21 08.11.2019
4792 Clouds 15 1020 76 10000 3.1 280 09:55 08.11.2019
4793 Clouds 15 1020 76 10000 3.1 280 09:36 08.11.2019
4794 Clouds 14 1021 59 10000 4.6 310 09:18 08.11.2019
4795 Clouds 14 1020 62 10000 6.2 310 08:41 08.11.2019
4796 Clouds 14 1020 62 10000 6.2 310 08:19 08.11.2019
4797 Clouds 14 1019 76 10000 6.2 270 07:41 08.11.2019
4798 Clouds 14 1019 76 10000 6.2 270 07:23 08.11.2019
4799 Clouds 14 1019 62 10000 6.7 300 06:43 08.11.2019
4800 Clouds 14 1019 59 10000 7.2 300 06:25 08.11.2019
4801 Clouds 14 1019 62 10000 6.7 300 05:57 08.11.2019
4802 Clouds 14 1019 62 10000 6.7 310 05:25 08.11.2019
4803 Clouds 15 1019 59 10000 5.7 300 04:18 08.11.2019
4804 Clouds 14 1019 58 10000 4.1 310 03:41 08.11.2019
4805 Clouds 15 1019 55 10000 5.7 310 02:54 08.11.2019
4806 Clouds 15 1019 55 10000 5.7 310 01:49 08.11.2019
4807 Clouds 15 1019 51 10000 7.2 320 01:31 08.11.2019
4808 Clouds 17 1019 51 10000 5.1 320 00:37 08.11.2019
4809 Clouds 18 1019 51 10000 5.1 320 00:19 08.11.2019
4810 Clouds 18 1018 55 10000 5.7 320 23:43 07.11.2019
4811 Clouds 18 1018 55 10000 5.7 320 23:24 07.11.2019
4812 Clouds 16 1018 55 10000 4.6 310 22:55 07.11.2019
4813 Clouds 17 1018 51 10000 6.2 320 22:36 07.11.2019
4814 Clouds 16 1018 51 10000 6.2 320 22:18 07.11.2019
4815 Clouds 17 1018 48 10000 6.7 310 21:38 07.11.2019
4816 Clouds 17 1018 48 10000 6.7 310 21:20 07.11.2019
4817 Clouds 17 1017 55 8000 5.7 300 20:58 07.11.2019
4818 Clouds 17 1016 67 10000 5.1 260 20:40 07.11.2019
4819 Clouds 18 1017 55 8000 5.1 300 20:21 07.11.2019
4820 Clouds 18 1017 59 8000 4.1 290 19:56 07.11.2019
4821 Clouds 18 1015 67 10000 4.6 260 19:37 07.11.2019
4822 Clouds 18 1016 67 10000 5.1 290 19:18 07.11.2019
4823 Clouds 19 1016 59 10000 5.1 280 18:56 07.11.2019
4824 Clouds 19 1015 68 10000 5.1 240 18:37 07.11.2019
4825 Clouds 19 1016 63 10000 4.6 290 18:19 07.11.2019
4826 Clouds 19 1014 72 10000 6.2 250 17:40 07.11.2019
4827 Clouds 19 1014 72 10000 6.2 250 17:22 07.11.2019
4828 Clouds 19 1016 77 10000 3.1 280 16:59 07.11.2019
4829 Clouds 19 1016 77 10000 3.1 280 16:40 07.11.2019
4830 Clouds 19 1016 77 10000 3.1 280 16:40 07.11.2019
4831 Clouds 18 1016 82 10000 2.6 300 16:21 07.11.2019
4832 Rain 20 1016 87 2500 6.7 320 15:59 07.11.2019
4833 Rain 19 1016 87 2500 6.7 320 15:39 07.11.2019
4834 Rain 19 1014 93 10000 5.7 260 15:19 07.11.2019
4835 Rain 19 1014 88 3500 9.3 240 14:46 07.11.2019
4836 Clouds 19 1015 72 8000 6.2 200 14:27 07.11.2019
4837 Clouds 19 1015 72 8000 6.2 200 14:27 07.11.2019
4838 Clouds 20 1016 68 10000 6.2 200 13:57 07.11.2019
4839 Clouds 20 1016 68 10000 6.2 200 13:39 07.11.2019
4840 Clouds 20 1016 68 10000 6.2 200 13:21 07.11.2019
4841 Clouds 20 1016 68 10000 6.2 200 13:21 07.11.2019
4842 Clouds 19 1017 68 10000 4.6 190 12:58 07.11.2019
4843 Clouds 19 1017 68 10000 4.6 190 12:58 07.11.2019
4844 Clouds 20 1017 68 10000 4.6 190 12:40 07.11.2019
4845 Clouds 19 1017 72 10000 3.6 180 12:21 07.11.2019
4846 Clouds 19 1017 72 10000 4.6 180 11:59 07.11.2019
4847 Clouds 19 1017 72 10000 4.6 180 11:40 07.11.2019
4848 Clouds 18 1017 77 10000 4.6 170 11:20 07.11.2019
4849 Clouds 18 1017 77 10000 4.1 180 10:40 07.11.2019
4850 Clouds 18 1017 77 10000 4.1 180 10:19 07.11.2019
4851 Clouds 18 1017 82 10000 3.6 180 09:44 07.11.2019
4852 Clouds 17 1017 82 10000 3.6 170 09:23 07.11.2019
4853 Clouds 17 1017 82 10000 3.6 170 09:23 07.11.2019
4854 Clouds 17 1017 82 10000 3.6 170 09:23 07.11.2019
4855 Clouds 17 1017 82 7000 3.1 170 08:57 07.11.2019
4856 Clouds 17 1017 82 7000 3.1 170 08:38 07.11.2019
4857 Clouds 17 1017 82 6000 2.1 180 08:20 07.11.2019
4858 Clouds 17 1017 82 6000 3.1 180 07:42 07.11.2019
4859 Clouds 17 1016 77 7000 3.1 170 07:22 07.11.2019
4860 Clouds 17 1017 77 7000 2.6 170 07:00 07.11.2019
4861 -273 0 0 0 0 0 06:41 07.11.2019
4862 Clouds 17 1017 77 7000 2.6 170 06:40 07.11.2019
4863 Clouds 17 1017 82 7000 3.1 170 06:21 07.11.2019
4864 Clouds 17 1017 82 7000 3.1 170 06:21 07.11.2019
4865 Clouds 17 1017 77 7000 2.6 170 05:47 07.11.2019
4866 Clouds 16 1017 72 7000 2.6 180 05:29 07.11.2019
4867 Clouds 16 1017 72 10000 2.6 170 04:49 07.11.2019
4868 Clouds 18 1017 72 10000 2.6 170 03:32 07.11.2019
4869 Clouds 18 1018 63 10000 4.1 290 01:18 07.11.2019
4870 Clouds 18 1018 63 10000 4.6 290 00:23 07.11.2019
4871 Clouds 18 1018 63 10000 4.6 290 00:23 07.11.2019
4872 Clouds 18 1019 63 10000 4.1 260 23:48 06.11.2019
4873 Clouds 19 1019 68 10000 5.7 270 23:23 06.11.2019
4874 Clouds 19 1019 68 10000 5.7 270 23:23 06.11.2019
4875 Clouds 18 1019 68 10000 4.1 260 22:58 06.11.2019
4876 Clouds 18 1019 68 10000 4.1 260 22:39 06.11.2019
4877 Clouds 18 1019 63 10000 4.1 260 22:19 06.11.2019
4878 Clouds 18 1019 63 10000 4.1 250 21:57 06.11.2019
4879 Clouds 18 1019 63 10000 4.1 250 21:57 06.11.2019
4880 Clouds 18 1019 63 10000 4.1 250 21:38 06.11.2019
4881 Clouds 18 1019 63 10000 4.1 260 21:19 06.11.2019
4882 Clouds 18 1019 63 10000 3.1 250 20:55 06.11.2019
4883 Clouds 19 1019 63 10000 3.1 270 20:36 06.11.2019
4884 Clouds 17 1019 63 10000 3.1 270 20:18 06.11.2019
4885 Clouds 17 1019 63 10000 3.1 260 19:40 06.11.2019
4886 Clouds 17 1018 63 10000 3.1 260 19:21 06.11.2019
4887 Clouds 18 1018 59 10000 4.6 260 18:59 06.11.2019
4888 Clouds 18 1018 55 10000 5.1 280 18:39 06.11.2019
4889 Clouds 18 1018 55 10000 5.1 280 18:19 06.11.2019
4890 Clouds 19 1018 55 10000 5.7 290 17:58 06.11.2019
4891 Clouds 19 1017 52 10000 6.7 280 17:40 06.11.2019
4892 Clouds 19 1018 63 10000 5.1 280 17:21 06.11.2019
4893 Clouds 19 1018 59 10000 6.7 280 16:55 06.11.2019
4894 Clouds 19 1018 59 10000 6.7 280 16:55 06.11.2019
4895 Clouds 19 1017 48 10000 8.2 280 16:37 06.11.2019
4896 Clouds 19 1019 63 10000 6.7 270 16:18 06.11.2019
4897 Clouds 20 1017 52 10000 7.7 280 15:56 06.11.2019
4898 Clouds 20 1017 52 10000 7.7 280 15:37 06.11.2019
4899 Clouds 20 1019 59 10000 6.2 290 15:18 06.11.2019
4900 Clouds 20 1019 59 10000 6.2 290 15:18 06.11.2019
4901 Clouds 20 1019 63 10000 7.2 280 14:56 06.11.2019
4902 Clouds 20 1017 55 10000 8.2 280 14:37 06.11.2019
4903 Clouds 19 1019 55 10000 6.2 280 14:19 06.11.2019
4904 Clouds 18 1018 55 10000 7.2 260 13:40 06.11.2019
4905 Clouds 18 1020 63 10000 5.7 300 13:22 06.11.2019
4906 Clouds 18 1019 63 10000 7.2 270 12:58 06.11.2019
4907 Clouds 19 1019 63 10000 7.2 270 12:39 06.11.2019
4908 Clouds 19 1019 63 10000 7.2 270 12:39 06.11.2019
4909 Clouds 19 1020 63 10000 5.1 290 12:21 06.11.2019
4910 Clouds 19 1020 63 10000 4.6 280 11:58 06.11.2019
4911 Clouds 19 1019 63 10000 6.7 280 11:38 06.11.2019
4912 Clouds 17 1021 63 10000 4.6 290 11:18 06.11.2019
4913 Clouds 17 1021 63 10000 4.1 300 10:56 06.11.2019
4914 Clouds 16 1019 77 10000 5.1 280 10:38 06.11.2019
4915 Clouds 16 1020 67 10000 3.6 290 10:19 06.11.2019
4916 Clouds 16 1020 67 10000 3.1 320 09:44 06.11.2019
4917 Clouds 15 1020 72 10000 2.6 310 09:23 06.11.2019
4918 Clouds 15 1019 76 10000 3.1 250 08:59 06.11.2019
4919 Clouds 15 1019 77 10000 3.1 310 08:39 06.11.2019
4920 Clouds 15 1019 77 10000 3.1 310 08:20 06.11.2019
4921 Clouds 15 1019 77 8000 2.1 320 07:57 06.11.2019
4922 Clouds 15 1019 72 8000 3.6 300 07:39 06.11.2019
4923 Clouds 15 1019 72 8000 3.6 300 07:19 06.11.2019
4924 Clouds 15 1019 72 8000 3.6 300 06:44 06.11.2019
4925 Clouds 15 1019 72 8000 3.6 310 06:23 06.11.2019
4926 Clear 16 1019 72 8000 3.6 320 04:18 06.11.2019
4927 Clouds 17 1020 63 8000 5.1 310 02:20 06.11.2019
4928 Clouds 17 1020 68 8000 5.1 310 01:31 06.11.2019
4929 Clouds 18 1020 68 10000 5.7 290 00:37 06.11.2019
4930 Clouds 18 1020 68 10000 6.7 280 23:58 05.11.2019
4931 Clouds 18 1020 63 10000 6.7 280 23:38 05.11.2019
4932 Clouds 18 1020 63 10000 6.7 280 23:19 05.11.2019
4933 Clouds 18 1020 72 10000 5.1 270 22:43 05.11.2019
4934 Clouds 18 1020 72 10000 5.1 270 22:20 05.11.2019
4935 Clouds 18 1020 72 10000 5.7 270 21:58 05.11.2019
4936 Clouds 18 1020 68 10000 6.7 270 21:40 05.11.2019
4937 Clouds 18 1020 68 10000 6.7 270 21:20 05.11.2019
4938 Clouds 18 1019 68 10000 5.7 260 20:57 05.11.2019
4939 Clouds 18 1019 68 10000 5.1 250 20:38 05.11.2019
4940 Clouds 18 1019 68 10000 5.1 250 20:20 05.11.2019
4941 Clouds 18 1019 68 10000 4.6 260 19:55 05.11.2019
4942 Clouds 18 1018 68 10000 6.7 250 19:37 05.11.2019
4943 Clouds 18 1019 68 10000 4.1 260 19:19 05.11.2019
4944 Clouds 18 1017 63 10000 6.2 260 18:56 05.11.2019
4945 Clouds 18 1017 63 10000 6.2 260 18:56 05.11.2019
4946 Clouds 18 1017 63 10000 6.2 260 18:38 05.11.2019
4947 Clouds 18 1018 63 10000 4.6 260 18:19 05.11.2019
4948 Clouds 18 1018 63 10000 4.6 260 18:19 05.11.2019
4949 Clouds 20 1018 59 10000 4.6 270 17:54 05.11.2019
4950 Clouds 20 1018 59 10000 4.6 270 17:54 05.11.2019
4951 Clouds 20 1017 59 10000 7.2 260 17:36 05.11.2019
4952 Clouds 19 1018 55 10000 6.2 280 17:18 05.11.2019
4953 Clouds 19 1017 59 10000 7.2 260 16:41 05.11.2019
4954 Clouds 20 1018 55 10000 6.7 290 16:20 05.11.2019
4955 Clouds 19 1017 55 10000 6.2 290 15:41 05.11.2019
4956 Clouds 19 1018 55 10000 6.2 300 15:20 05.11.2019
4957 Clouds 19 1017 55 10000 5.7 280 14:59 05.11.2019
4958 Clouds 19 1017 52 10000 7.2 280 14:41 05.11.2019
4959 Clouds 19 1018 52 10000 7.2 310 14:22 05.11.2019
4960 Clouds 19 1017 52 10000 6.7 290 13:58 05.11.2019
4961 Clouds 19 1017 55 10000 7.7 280 13:40 05.11.2019
4962 Clouds 19 1019 55 10000 6.7 310 13:22 05.11.2019
4963 Clouds 19 1018 59 10000 7.7 280 12:41 05.11.2019
4964 Clouds 19 1019 59 10000 6.7 310 12:22 05.11.2019
4965 Clouds 18 1019 59 10000 6.7 320 11:57 05.11.2019
4966 Clouds 18 1018 55 10000 9.3 300 11:38 05.11.2019
4967 Clouds 18 1019 63 10000 7.7 320 11:20 05.11.2019
4968 Clouds 17 1019 63 10000 7.2 330 10:48 05.11.2019
4969 Clouds 17 1019 63 10000 6.2 320 10:27 05.11.2019
4970 Clouds 17 1017 59 10000 3.1 280 09:59 05.11.2019
4971 Clouds 16 1017 72 10000 5.1 270 09:41 05.11.2019
4972 Clouds 16 1018 67 8000 7.2 320 09:21 05.11.2019
4973 Clouds 16 1018 67 6000 6.2 310 08:57 05.11.2019
4974 Clouds 16 1017 63 6000 6.2 310 08:37 05.11.2019
4975 Clouds 16 1017 63 6000 6.2 310 08:19 05.11.2019
4976 Clouds 16 1016 63 6000 7.7 310 07:45 05.11.2019
4977 Clouds 16 1016 63 6000 7.7 310 07:26 05.11.2019
4978 Rain 16 1014 77 10000 9.3 280 06:52 05.11.2019
4979 Rain 16 1014 77 10000 9.3 280 06:30 05.11.2019
4980 Rain 17 1014 82 10000 9.8 290 05:44 05.11.2019
4981 Rain 17 1014 82 10000 9.8 290 05:20 05.11.2019
4982 Clouds 19 1015 88 6000 9.8 300 04:22 05.11.2019
4983 Clouds 20 1015 82 6000 5.1 230 03:31 05.11.2019
4984 Rain 19 1016 88 6000 5.7 240 02:43 05.11.2019
4985 Clouds 20 1016 72 8000 4.6 230 01:55 05.11.2019
4986 Clouds 21 1017 72 8000 5.1 230 00:46 05.11.2019
4987 Clouds 21 1017 72 8000 7.2 240 00:26 05.11.2019
4988 Clouds 20 1017 72 8000 5.7 240 23:42 04.11.2019
4989 Clouds 19 1017 72 8000 5.7 240 23:19 04.11.2019
4990 Clouds 20 1017 72 8000 5.7 240 22:57 04.11.2019
4991 Clouds 20 1017 72 8000 6.2 240 22:39 04.11.2019
4992 Clouds 20 1017 72 8000 6.2 240 22:20 04.11.2019
4993 Clouds 20 1017 72 8000 6.2 240 22:20 04.11.2019
4994 Clouds 19 1017 77 8000 4.6 230 21:55 04.11.2019
4995 Clouds 20 1017 72 8000 5.1 230 21:37 04.11.2019
4996 Clouds 20 1017 72 8000 5.1 230 21:18 04.11.2019
4997 Clouds 19 1017 82 8000 4.6 250 20:55 04.11.2019
4998 Clouds 20 1017 73 8000 5.1 230 20:36 04.11.2019
4999 Clouds 21 1017 73 8000 5.1 230 20:18 04.11.2019
5000 Clouds 20 1016 72 8000 4.6 230 19:42 04.11.2019
5001 Clouds 20 1016 72 8000 4.6 230 19:23 04.11.2019
5002 Clouds 20 1016 72 8000 4.1 230 18:59 04.11.2019
5003 Clouds 20 1016 72 8000 3.1 200 18:40 04.11.2019
5004 Clouds 20 1016 72 8000 3.1 200 18:21 04.11.2019
5005 Clouds 21 1015 72 10000 7.7 270 17:59 04.11.2019
5006 Clouds 20 1015 72 10000 6.7 260 17:37 04.11.2019
5007 Clouds 21 1016 77 8000 3.1 180 17:19 04.11.2019
5008 Clouds 21 1015 77 10000 8.7 270 16:44 04.11.2019
5009 Clouds 21 1017 64 8000 6.7 240 16:25 04.11.2019
5010 Clouds 21 1015 68 10000 7.7 260 15:59 04.11.2019
5011 Clouds 21 1015 68 10000 7.7 260 15:59 04.11.2019
5012 Clouds 21 1016 72 10000 7.7 260 15:41 04.11.2019
5013 Clouds 21 1017 68 8000 4.6 230 15:21 04.11.2019
5014 Clouds 21 1018 77 8000 6.2 240 14:58 04.11.2019
5015 Clouds 21 1016 72 10000 8.2 260 14:39 04.11.2019
5016 Clouds 21 1018 77 8000 8.7 240 14:20 04.11.2019
5017 Clouds 22 1017 72 10000 8.2 260 13:57 04.11.2019
5018 Clouds 22 1017 72 10000 8.2 260 13:39 04.11.2019
5019 Clouds 21 1019 68 6000 3.6 230 13:20 04.11.2019
5020 Clouds 21 1019 82 6000 2.6 200 12:55 04.11.2019
5021 Clouds 21 1018 72 10000 8.2 260 12:37 04.11.2019
5022 Rain 21 1019 82 5000 6.7 260 12:18 04.11.2019
5023 Clouds 21 1019 82 6000 8.7 270 11:42 04.11.2019
5024 Clouds 21 1019 82 5000 8.7 270 11:23 04.11.2019
5025 Clouds 21 1019 77 5000 5.7 250 10:56 04.11.2019
5026 Clouds 19 1019 93 5000 3.1 210 10:38 04.11.2019
5027 Clouds 19 1019 93 5000 3.1 210 10:18 04.11.2019
5028 Clouds 20 1018 72 10000 7.7 260 09:40 04.11.2019
5029 Clouds 20 1019 82 8000 3.1 190 09:20 04.11.2019
5030 Clouds 20 1019 72 8000 3.6 230 08:55 04.11.2019
5031 Clouds 20 1018 77 8000 2.6 220 08:37 04.11.2019
5032 Clouds 19 1018 77 8000 2.6 220 08:18 04.11.2019
5033 Clouds 19 1018 82 8000 2.6 230 07:42 04.11.2019
5034 Clouds 19 1018 82 8000 2.6 230 07:20 04.11.2019
5035 Clouds 20 1018 82 8000 4.6 260 06:49 04.11.2019
5036 Clouds 20 1018 82 8000 3.6 250 06:18 04.11.2019
5037 Clouds 19 1018 82 8000 4.6 270 05:32 04.11.2019
5038 Clouds 19 1018 82 8000 2.1 180 04:34 04.11.2019
5039 Clouds 19 1019 82 8000 1.5 210 03:39 04.11.2019
5040 Clouds 20 1019 77 8000 3.1 240 01:37 04.11.2019
5041 Clouds 21 1019 77 8000 3.1 240 01:18 04.11.2019
5042 Clouds 20 1020 77 8000 4.1 240 00:22 04.11.2019
5043 Rain 20 1019 77 10000 9.3 260 23:58 03.11.2019
5044 Clouds 20 1020 77 10000 3.6 250 23:38 03.11.2019
5045 Clouds 21 1020 77 10000 3.6 250 23:19 03.11.2019
5046 Clouds 21 1020 82 10000 4.1 250 22:56 03.11.2019
5047 Clouds 21 1020 82 10000 4.1 250 22:56 03.11.2019
5048 Clouds 21 1020 77 10000 4.6 250 22:38 03.11.2019
5049 Clouds 20 1020 77 10000 4.6 250 22:19 03.11.2019
5050 Clouds 21 1020 72 10000 5.7 250 21:43 03.11.2019
5051 Clouds 21 1020 72 10000 5.7 250 21:43 03.11.2019
5052 Clouds 21 1019 77 10000 5.7 250 21:21 03.11.2019
5053 Clouds 21 1018 77 10000 11.3 270 20:58 03.11.2019
5054 Clouds 20 1019 77 10000 5.7 240 20:38 03.11.2019
5055 Clouds 20 1019 77 10000 5.7 240 20:38 03.11.2019
5056 Clouds 20 1019 77 10000 5.7 240 20:19 03.11.2019
5057 Clouds 20 1019 77 10000 5.1 240 19:57 03.11.2019
5058 -273 0 0 0 0 0 19:38 03.11.2019
5059 Clouds 20 1019 77 10000 6.2 240 19:20 03.11.2019
5060 Clouds 20 1018 72 10000 5.7 250 18:56 03.11.2019
5061 Clouds 20 1016 72 10000 9.3 260 18:37 03.11.2019
5062 Clouds 20 1018 77 10000 7.2 260 18:18 03.11.2019
5063 Clouds 21 1016 73 10000 9.3 260 17:42 03.11.2019
5064 Clouds 21 1018 68 10000 7.7 250 17:20 03.11.2019
5065 Clouds 21 1017 73 10000 7.7 240 16:59 03.11.2019
5066 Clouds 21 1017 73 10000 7.7 240 16:59 03.11.2019
5067 Clouds 21 1015 68 10000 9.3 270 16:41 03.11.2019
5068 Clouds 21 1017 68 10000 8.2 250 16:22 03.11.2019
5069 Clouds 22 1015 68 10000 9.8 270 15:58 03.11.2019
5070 Clouds 22 1015 68 10000 9.8 270 15:58 03.11.2019
5071 Clouds 22 1015 64 10000 11.3 260 15:39 03.11.2019
5072 Clouds 22 1017 68 10000 8.7 240 15:21 03.11.2019
5073 Clouds 21 1015 64 10000 9.3 260 14:43 03.11.2019
5074 Clouds 21 1017 73 10000 7.7 260 14:20 03.11.2019
5075 Clouds 21 1015 68 10000 9.3 270 13:59 03.11.2019
5076 Clouds 21 1015 68 10000 9.3 270 13:59 03.11.2019
5077 Clouds 21 1015 68 10000 9.3 270 13:41 03.11.2019
5078 Clouds 21 1018 68 10000 8.2 260 13:18 03.11.2019
5079 Clouds 21 1018 73 10000 7.2 260 12:54 03.11.2019
5080 Clouds 21 1016 68 10000 8.7 260 12:36 03.11.2019
5081 Clouds 21 1016 68 10000 8.7 260 12:36 03.11.2019
5082 Clouds 21 1018 73 10000 7.7 260 12:18 03.11.2019
5083 Clouds 21 1015 72 10000 8.7 270 11:42 03.11.2019
5084 Clouds 21 1017 68 10000 8.7 260 11:21 03.11.2019
5085 Clouds 20 1017 73 10000 8.7 270 10:55 03.11.2019
5086 Clouds 20 1015 72 10000 9.3 280 10:37 03.11.2019
5087 Clouds 20 1017 77 10000 8.7 280 10:18 03.11.2019
5088 Clouds 20 1017 72 10000 8.2 270 09:43 03.11.2019
5089 Clouds 19 1014 77 10000 7.2 280 09:43 03.11.2019
5090 Clouds 19 1016 77 10000 7.2 260 09:24 03.11.2019
5091 Clouds 19 1015 82 8000 8.2 270 08:56 03.11.2019
5092 Clouds 19 1015 82 5000 8.2 270 08:36 03.11.2019
5093 Clouds 19 1015 82 5000 8.2 270 08:18 03.11.2019
5094 Rain 19 1015 93 3000 5.7 230 07:44 03.11.2019
5095 Rain 19 1015 93 3000 7.7 250 07:21 03.11.2019
5096 Rain 20 1014 88 6000 5.7 230 06:39 03.11.2019
5097 Clouds 20 1014 88 6000 5.1 230 05:54 03.11.2019
5098 Clouds 20 1014 82 6000 5.1 230 05:34 03.11.2019
5099 Clouds 20 1014 82 6000 6.7 240 04:52 03.11.2019
5100 Rain 20 1014 82 8000 5.1 240 03:58 03.11.2019
5101 Clouds 20 1014 82 6000 4.6 250 03:19 03.11.2019
5102 Clouds 20 1015 82 6000 6.7 260 02:23 03.11.2019
5103 Clouds 21 1015 82 6000 5.7 250 01:49 03.11.2019
5104 Clouds 21 1015 82 6000 5.1 250 01:25 03.11.2019
5105 Clouds 20 1015 82 6000 4.6 250 00:57 03.11.2019
5106 Clouds 20 1015 88 6000 4.6 250 00:38 03.11.2019
5107 Clouds 21 1015 88 6000 4.6 250 00:19 03.11.2019
5108 Clouds 21 1015 88 8000 5.1 240 23:40 02.11.2019
5109 Clouds 21 1015 88 8000 5.1 240 23:20 02.11.2019
5110 Clouds 21 1016 88 8000 3.6 250 22:57 02.11.2019
5111 Clouds 21 1016 88 8000 4.1 250 22:38 02.11.2019
5112 Clouds 21 1016 88 8000 4.1 250 22:20 02.11.2019
5113 Clouds 21 1015 88 8000 5.1 240 21:57 02.11.2019
5114 Clouds 21 1016 94 10000 4.1 250 21:38 02.11.2019
5115 Clouds 21 1016 94 10000 4.1 250 21:19 02.11.2019
5116 Clouds 21 1016 94 10000 4.1 250 21:19 02.11.2019
5117 Clouds 21 1016 94 10000 4.1 250 21:19 02.11.2019
5118 Clouds 21 1016 88 10000 5.7 240 21:00 02.11.2019
5119 Clouds 21 1015 88 8000 5.7 240 20:41 02.11.2019
5120 Clouds 21 1015 88 8000 5.7 240 20:41 02.11.2019
5121 Clouds 21 1015 88 8000 5.7 240 20:21 02.11.2019
5122 Clouds 21 1015 88 6000 6.2 250 19:58 02.11.2019
5123 Clouds 21 1014 82 10000 7.7 260 19:36 02.11.2019
5124 Rain 21 1015 88 4500 5.7 240 19:18 02.11.2019
5125 Rain 22 1015 88 4500 4.6 210 18:54 02.11.2019
5126 Rain 22 1014 77 10000 9.3 260 18:36 02.11.2019
5127 Rain 22 1015 88 3000 4.1 220 18:18 02.11.2019
5128 Clouds 22 1015 88 8000 4.1 210 17:43 02.11.2019
5129 Clouds 22 1015 88 8000 4.6 210 17:25 02.11.2019
5130 Rain 22 1014 83 10000 5.1 230 16:59 02.11.2019
5131 Rain 22 1014 83 10000 5.7 230 16:39 02.11.2019
5132 Clouds 22 1016 78 8000 5.1 210 16:20 02.11.2019
5133 Clouds 22 1016 83 8000 5.7 210 15:43 02.11.2019
5134 Clouds 22 1016 78 8000 6.2 210 15:21 02.11.2019
5135 Clouds 22 1016 78 8000 6.2 210 14:57 02.11.2019
5136 Rain 22 1015 83 5000 6.7 230 14:39 02.11.2019
5137 Clouds 22 1017 78 8000 6.7 210 14:20 02.11.2019
5138 Clouds 22 1016 88 10000 6.7 230 13:40 02.11.2019
5139 Clouds 22 1017 78 6000 5.7 200 13:20 02.11.2019
5140 Clouds 21 1016 88 10000 6.7 230 12:58 02.11.2019
5141 Clouds 21 1017 88 10000 5.7 230 12:38 02.11.2019
5142 Clouds 21 1018 83 5000 6.7 200 12:20 02.11.2019
5143 Clouds 21 1018 83 5000 6.7 200 12:20 02.11.2019
5144 Clouds 21 1018 83 5000 6.2 200 11:43 02.11.2019
5145 Clouds 21 1019 82 5000 5.1 190 11:24 02.11.2019
5146 Clouds 21 1018 88 10000 5.1 220 10:57 02.11.2019
5147 Clouds 21 1018 88 10000 5.1 220 10:39 02.11.2019
5148 Rain 21 1019 82 3000 5.1 200 10:18 02.11.2019
5149 Clouds 20 1019 82 8000 3.6 200 09:43 02.11.2019
5150 Clouds 21 1019 82 8000 3.1 200 09:22 02.11.2019
5151 Rain 21 1019 82 6000 3.1 180 08:52 02.11.2019
5152 Clouds 21 1019 82 6000 4.1 200 08:25 02.11.2019
5153 Clouds 21 1019 82 6000 3.6 200 07:58 02.11.2019
5154 Clouds 21 1019 82 6000 4.1 190 07:40 02.11.2019
5155 Clouds 21 1019 82 6000 4.1 190 07:40 02.11.2019
5156 Clouds 21 1019 82 6000 4.1 190 07:22 02.11.2019
5157 Clouds 21 1019 82 6000 4.1 200 06:50 02.11.2019
5158 Clouds 21 1019 82 6000 3.1 200 06:22 02.11.2019
5159 Clouds 21 1020 77 6000 3.6 210 05:41 02.11.2019
5160 Clouds 21 1020 77 8000 4.1 200 04:24 02.11.2019
5161 Clouds 21 1021 83 8000 3.6 200 03:51 02.11.2019
5162 Clouds 21 1021 83 6000 3.6 200 03:30 02.11.2019
5163 Clouds 21 1021 77 8000 3.6 200 02:19 02.11.2019
5164 Clouds 21 1022 83 8000 2.1 200 01:29 02.11.2019
5165 Clouds 20 1023 83 8000 2.1 190 00:56 02.11.2019
5166 Clouds 21 1023 83 6000 2.1 190 00:30 02.11.2019
5167 Clouds 20 1023 88 6000 2.1 200 23:56 01.11.2019
5168 Clouds 20 1024 94 6000 2.1 210 23:37 01.11.2019
5169 Clouds 20 1024 94 6000 2.1 210 23:19 01.11.2019
5170 Clouds 20 1024 94 5000 1.5 220 22:41 01.11.2019
5171 Clouds 21 1024 94 5000 1.5 220 22:20 01.11.2019
5172 Clouds 21 1024 88 8000 1.5 220 21:43 01.11.2019
5173 Clouds 21 1024 88 8000 2.1 210 21:24 01.11.2019
5174 Clouds 21 1024 94 8000 2.6 220 20:59 01.11.2019
5175 Clouds 21 1023 82 10000 5.1 270 20:41 01.11.2019
5176 Clouds 21 1024 94 8000 2.1 230 20:21 01.11.2019
5177 Clouds 21 1023 82 10000 5.7 270 19:58 01.11.2019
5178 Clouds 22 1023 77 10000 5.7 260 19:40 01.11.2019
5179 Clouds 22 1024 88 8000 2.6 220 19:21 01.11.2019
5180 Clouds 22 1022 77 10000 8.2 270 18:41 01.11.2019
5181 Clouds 22 1024 83 8000 3.1 210 18:21 01.11.2019
5182 Clouds 22 1022 73 10000 9.3 270 17:57 01.11.2019
5183 Clouds 22 1022 73 10000 9.3 270 17:39 01.11.2019
5184 Clouds 22 1022 73 10000 9.3 270 17:39 01.11.2019
5185 Clouds 23 1024 83 8000 3.6 220 17:20 01.11.2019
5186 Clouds 23 1022 73 10000 8.7 270 16:40 01.11.2019
5187 Clouds 23 1024 73 8000 4.1 240 16:20 01.11.2019
5188 Clouds 24 1022 69 10000 8.7 260 15:56 01.11.2019
5189 Clouds 24 1022 69 10000 8.7 260 15:38 01.11.2019
5190 Clouds 24 1024 78 8000 3.1 220 15:20 01.11.2019
5191 Clouds 24 1022 69 10000 7.7 270 14:43 01.11.2019
5192 Clouds 23 1025 78 8000 4.1 250 14:24 01.11.2019
5193 Clouds 23 1023 69 10000 7.2 270 13:58 01.11.2019
5194 Clouds 23 1023 69 10000 6.7 250 13:39 01.11.2019
5195 Clouds 23 1025 78 8000 3.6 250 13:21 01.11.2019
5196 Clouds 22 1026 83 8000 3.6 250 12:44 01.11.2019
5197 Clouds 23 1026 83 8000 3.6 260 12:26 01.11.2019
5198 Clouds 22 1026 83 8000 3.6 260 11:59 01.11.2019
5199 Clouds 22 1024 69 10000 7.2 260 11:40 01.11.2019
5200 Clouds 22 1026 83 8000 3.6 260 11:22 01.11.2019
5201 Clouds 22 1026 83 8000 3.6 260 11:22 01.11.2019
5202 Clouds 21 1024 77 10000 5.7 260 10:42 01.11.2019
5203 Clouds 21 1026 83 8000 3.6 300 10:22 01.11.2019
5204 Clouds 21 1026 83 8000 3.1 290 09:57 01.11.2019
5205 Clouds 21 1024 77 10000 5.1 250 09:38 01.11.2019
5206 Clouds 21 1026 88 8000 3.1 290 09:19 01.11.2019
5207 Clouds 20 1025 88 8000 3.1 310 08:43 01.11.2019
5208 Clouds 20 1026 88 8000 2.1 280 08:22 01.11.2019
5209 Clouds 20 1025 88 6000 1.5 280 07:56 01.11.2019
5210 Mist 20 1025 88 4000 2.6 280 07:37 01.11.2019
5211 Mist 20 1025 88 4000 2.6 280 07:18 01.11.2019
5212 Mist 21 1025 88 4000 2.1 270 06:41 01.11.2019
5213 Mist 21 1025 88 4000 2.1 270 06:21 01.11.2019
5214 Mist 21 1025 88 4000 2.1 280 05:43 01.11.2019
5215 Mist 21 1025 94 4000 2.6 270 03:42 01.11.2019
5216 Mist 21 1026 88 4000 2.1 220 02:49 01.11.2019
5217 Mist 21 1026 88 4000 2.1 220 01:28 01.11.2019
5218 Mist 21 1026 88 4000 1.5 200 00:39 01.11.2019
5219 Mist 21 1026 88 4000 1.5 200 00:18 01.11.2019
5220 Mist 21 1026 94 3500 2.1 260 23:42 31.10.2019
5221 Mist 21 1026 94 3500 2.1 260 23:22 31.10.2019
5222 Mist 21 1026 94 3500 2.6 260 22:54 31.10.2019
5223 Mist 22 1026 94 3500 2.1 250 22:36 31.10.2019
5224 Mist 22 1026 94 3500 2.1 250 22:18 31.10.2019
5225 Mist 22 1026 94 3500 3.1 240 21:41 31.10.2019
5226 Mist 22 1026 94 3500 3.1 240 21:41 31.10.2019
5227 Mist 22 1026 94 3500 3.1 240 21:20 31.10.2019
5228 Clouds 22 1025 83 10000 6.2 270 20:56 31.10.2019
5229 Clouds 22 1025 83 10000 6.2 270 20:37 31.10.2019
5230 Mist 22 1026 88 5000 2.1 210 20:19 31.10.2019
5231 Clouds 22 1024 78 10000 4.1 240 19:40 31.10.2019
5232 Clouds 22 1024 78 10000 4.1 240 19:40 31.10.2019
5233 Mist 22 1025 88 5000 1.5 190 19:21 31.10.2019
5234 Clouds 22 1024 83 10000 4.1 210 18:56 31.10.2019
5235 Clouds 22 1024 83 10000 4.1 210 18:37 31.10.2019
5236 Mist 22 1025 88 4000 2.1 220 18:18 31.10.2019
5237 Clouds 23 1024 78 10000 5.1 210 17:41 31.10.2019
5238 Mist 23 1025 88 4000 2.6 230 17:22 31.10.2019
5239 Clouds 22 1024 78 10000 5.7 270 16:58 31.10.2019
5240 Clouds 23 1024 78 10000 5.7 270 16:39 31.10.2019
5241 Clouds 23 1025 83 6000 3.1 230 16:20 31.10.2019
5242 Clouds 23 1024 73 10000 6.2 290 15:54 31.10.2019
5243 Clouds 23 1024 73 10000 6.2 290 15:36 31.10.2019
5244 Clouds 23 1025 83 5000 2.6 230 15:18 31.10.2019
5245 Clouds 23 1024 69 10000 5.1 280 14:41 31.10.2019
5246 Mist 23 1026 83 4500 2.6 230 14:23 31.10.2019
5247 Clouds 23 1024 78 10000 4.1 270 13:59 31.10.2019
5248 Clouds 23 1025 73 10000 5.1 260 13:39 31.10.2019
5249 Mist 23 1026 88 3500 2.1 230 13:20 31.10.2019
5250 Mist 22 1027 88 3500 2.6 240 12:58 31.10.2019
5251 Clouds 22 1025 83 10000 4.1 270 12:38 31.10.2019
5252 Mist 22 1027 88 4000 3.1 240 12:20 31.10.2019
5253 Clouds 23 1025 83 10000 5.7 280 11:46 31.10.2019
5254 Mist 22 1027 83 4000 3.1 230 11:21 31.10.2019
5255 Clouds 21 1025 83 10000 5.7 270 10:59 31.10.2019
5256 Clouds 21 1025 73 10000 4.6 250 10:39 31.10.2019
5257 Mist 21 1026 88 4000 2.6 200 10:21 31.10.2019
5258 Clouds 21 1026 88 8000 2.1 200 09:56 31.10.2019
5259 Clouds 21 1025 77 10000 3.6 230 09:37 31.10.2019
5260 Clouds 21 1026 88 8000 2.6 180 09:18 31.10.2019
5261 Mist 21 1025 93 4000 1.5 210 08:44 31.10.2019
5262 Clouds 21 1025 93 6000 1 0 08:26 31.10.2019
5263 Clouds 20 1025 93 6000 0.5 0 07:48 31.10.2019
5264 Clouds 20 1025 93 6000 1.5 180 07:27 31.10.2019
5265 Clouds 20 1025 88 6000 0.5 0 06:54 31.10.2019
5266 Clouds 20 1025 93 6000 1 0 06:32 31.10.2019
5267 Clouds 19 1024 93 6000 1 80 05:28 31.10.2019
5268 Clouds 19 1025 93 6000 2.1 80 03:20 31.10.2019
5269 Clouds 19 1024 82 10000 6.2 240 02:30 31.10.2019
5270 Clouds 18 1025 93 6000 1 80 01:24 31.10.2019
5271 Clouds 20 1025 93 6000 1 70 00:27 31.10.2019
5272 Clouds 20 1026 93 6000 1 0 23:52 30.10.2019
5273 Clouds 20 1025 93 6000 0.5 0 23:27 30.10.2019
5274 Clouds 20 1025 93 6000 0.5 0 22:43 30.10.2019
5275 Clouds 20 1025 93 6000 1 260 22:20 30.10.2019
5276 Clouds 21 1025 88 8000 1.5 250 21:55 30.10.2019
5277 Clouds 20 1024 73 10000 4.6 220 21:37 30.10.2019
5278 Clouds 20 1024 73 10000 4.6 220 21:37 30.10.2019
5279 Clouds 20 1024 73 10000 4.6 220 21:37 30.10.2019
5280 Clouds 21 1025 88 8000 1 250 21:18 30.10.2019
5281 Clouds 21 1025 93 8000 2.1 270 20:58 30.10.2019
5282 Clouds 21 1024 88 8000 2.1 280 20:39 30.10.2019
5283 Clouds 22 1024 88 8000 2.1 280 20:21 30.10.2019
5284 Clouds 22 1024 88 10000 3.1 270 19:54 30.10.2019
5285 Clouds 22 1023 64 10000 3.1 230 19:36 30.10.2019
5286 Clouds 22 1024 88 10000 2.1 270 19:18 30.10.2019
5287 Clouds 22 1022 69 10000 5.1 210 18:39 30.10.2019
5288 Clouds 23 1023 83 10000 3.1 260 18:19 30.10.2019
5289 Clouds 23 1023 83 10000 3.1 260 17:56 30.10.2019
5290 Clouds 23 1022 73 10000 5.1 210 17:38 30.10.2019
5291 Clouds 23 1022 73 10000 5.1 210 17:38 30.10.2019
5292 Clouds 23 1023 78 10000 3.1 250 17:18 30.10.2019
5293 Clouds 24 1023 78 10000 4.1 280 16:55 30.10.2019
5294 Clouds 24 1022 69 10000 4.6 220 16:36 30.10.2019
5295 Clouds 24 1023 78 10000 3.6 270 16:18 30.10.2019
5296 Clouds 24 1022 69 10000 5.1 210 15:41 30.10.2019
5297 Clouds 24 1023 73 8000 3.1 250 15:21 30.10.2019
5298 Clouds 24 1023 78 8000 3.1 230 14:59 30.10.2019
5299 Clouds 24 1021 64 10000 5.7 200 14:41 30.10.2019
5300 Clouds 25 1023 73 8000 3.6 230 14:22 30.10.2019
5301 Clouds 24 1022 53 10000 3.6 230 13:57 30.10.2019
5302 Clouds 24 1022 53 10000 3.6 230 13:39 30.10.2019
5303 Clouds 24 1023 73 8000 3.1 230 13:19 30.10.2019
5304 Clouds 24 1022 64 10000 4.6 210 12:54 30.10.2019
5305 Clouds 24 1022 64 10000 4.6 210 12:36 30.10.2019
5306 Clouds 24 1022 64 10000 4.6 210 12:36 30.10.2019
5307 Clouds 24 1024 73 8000 2.6 230 12:18 30.10.2019
5308 Clouds 23 1023 64 10000 3.6 220 11:41 30.10.2019
5309 Clouds 23 1024 78 7000 1 0 11:21 30.10.2019
5310 Clouds 22 1023 64 10000 2.6 230 10:44 30.10.2019
5311 Clouds 21 1023 82 6000 1 0 10:23 30.10.2019
5312 Clouds 19 1023 88 5000 1.5 80 09:57 30.10.2019
5313 Clouds 19 1022 72 10000 3.6 240 09:38 30.10.2019
5314 Clouds 19 1023 88 5000 1 0 09:19 30.10.2019
5315 Clouds 18 1022 88 5000 1.5 60 08:40 30.10.2019
5316 Clouds 19 1022 88 5000 1.5 60 08:21 30.10.2019
5317 Clouds 19 1022 88 7000 1.5 40 07:47 30.10.2019
5318 Clouds 19 1021 93 7000 1.5 90 07:28 30.10.2019
5319 Clouds 19 1021 88 5000 2.1 90 06:42 30.10.2019
5320 Clouds 19 1021 93 5000 1.5 80 06:21 30.10.2019
5321 Clouds 19 1021 93 5000 2.1 100 05:42 30.10.2019
5322 Clouds 19 1021 93 5000 2.1 100 05:19 30.10.2019
5323 Clouds 18 1021 88 5000 2.1 90 03:43 30.10.2019
5324 Clouds 19 1021 93 7000 2.1 80 02:55 30.10.2019
5325 Clouds 19 1021 88 7000 1 100 02:19 30.10.2019
5326 Clouds 19 1021 93 8000 0.5 0 01:31 30.10.2019
5327 Clouds 19 1021 93 10000 0.5 0 00:31 30.10.2019
5328 Clouds 19 1021 93 10000 1 0 23:46 29.10.2019
5329 Clouds 20 1021 88 10000 0.5 0 23:24 29.10.2019
5330 Clouds 19 1021 93 8000 0.5 0 22:48 29.10.2019
5331 Clouds 20 1021 88 6000 0.5 0 22:20 29.10.2019
5332 Clear 21 1020 88 6000 1 0 21:59 29.10.2019
5333 Clear 20 1020 93 6000 1 0 21:41 29.10.2019
5334 Clear 21 1020 93 6000 1 0 21:20 29.10.2019
5335 Clear 21 1020 88 6000 0.5 0 20:56 29.10.2019
5336 Clear 21 1020 88 6000 0.5 0 20:56 29.10.2019
5337 Clear 21 1020 93 6000 0.5 0 20:38 29.10.2019
5338 Clear 21 1020 93 6000 0.5 0 20:38 29.10.2019
5339 Clear 21 1020 93 6000 0.5 0 20:20 29.10.2019
5340 Clouds 21 1019 93 6000 0.5 0 19:56 29.10.2019
5341 Clouds 21 1019 93 6000 0.5 0 19:56 29.10.2019
5342 Fog 21 1018 73 10000 4.1 220 19:38 29.10.2019
5343 Clouds 21 1019 93 6000 2.1 270 19:19 29.10.2019
5344 Fog 23 1018 60 10000 2.6 220 18:55 29.10.2019
5345 Fog 23 1018 60 10000 2.6 220 18:37 29.10.2019
5346 Fog 23 1018 60 10000 2.6 220 18:36 29.10.2019
5347 Clouds 23 1019 88 8000 3.1 280 18:18 29.10.2019
5348 Clouds 24 1019 83 8000 3.6 280 17:54 29.10.2019
5349 Clouds 24 1018 53 10000 4.1 280 17:36 29.10.2019
5350 Clouds 24 1019 83 10000 4.6 280 17:18 29.10.2019
5351 Clouds 24 1017 44 10000 4.1 250 16:39 29.10.2019
5352 Clouds 24 1019 73 10000 2.6 280 16:19 29.10.2019
5353 Clouds 24 1018 69 10000 3.1 290 15:55 29.10.2019
5354 Clouds 24 1017 53 10000 4.6 210 15:37 29.10.2019
5355 Clouds 23 1018 73 10000 4.1 280 15:19 29.10.2019
5356 Clouds 24 1018 69 10000 4.1 280 14:54 29.10.2019
5357 Clouds 24 1017 73 10000 6.2 200 14:36 29.10.2019
5358 Clouds 24 1019 69 10000 3.1 290 14:18 29.10.2019
5359 Clouds 24 1018 73 10000 6.2 200 13:40 29.10.2019
5360 Clouds 24 1018 73 10000 6.2 200 13:40 29.10.2019
5361 Clouds 23 1019 60 10000 4.6 310 13:21 29.10.2019
5362 Clouds 23 1018 73 10000 5.1 200 12:44 29.10.2019
5363 Clouds 23 1019 73 8000 2.1 310 12:25 29.10.2019
5364 Clouds 23 1019 73 8000 2.1 310 12:25 29.10.2019
5365 Clouds 22 1019 68 10000 3.1 220 11:57 29.10.2019
5366 Clouds 22 1019 68 10000 3.1 220 11:38 29.10.2019
5367 Clouds 22 1019 73 8000 1.5 280 11:19 29.10.2019
5368 Clouds 21 1019 77 10000 3.1 240 10:57 29.10.2019
5369 Clouds 20 1019 77 10000 3.1 240 10:38 29.10.2019
5370 Clouds 20 1019 77 10000 3.1 240 10:38 29.10.2019
5371 Clouds 20 1019 82 8000 2.1 90 10:19 29.10.2019
5372 Clouds 20 1019 82 8000 2.1 90 10:19 29.10.2019
5373 Clouds 19 1019 82 10000 3.1 240 09:43 29.10.2019
5374 Fog 19 1019 93 800 2.6 90 09:23 29.10.2019
5375 Fog 19 1019 93 800 2.6 90 09:23 29.10.2019
5376 Fog 19 1019 93 800 2.6 90 09:23 29.10.2019
5377 Mist 18 1018 93 2500 2.6 90 08:57 29.10.2019
5378 Mist 18 1018 93 4000 2.6 80 08:39 29.10.2019
5379 Mist 17 1018 93 4000 2.6 80 08:21 29.10.2019
5380 Clouds 16 1018 93 5000 2.1 100 07:48 29.10.2019
5381 Clouds 17 1017 93 5000 1.5 90 07:21 29.10.2019
5382 Clouds 18 1017 82 10000 4.1 240 06:54 29.10.2019
5383 Clouds 18 1017 82 10000 4.1 240 06:33 29.10.2019
5384 Clouds 17 1017 82 10000 4.1 240 05:59 29.10.2019
5385 Mist 18 1017 93 3500 2.1 100 05:39 29.10.2019
5386 Mist 17 1017 93 4000 2.1 80 04:52 29.10.2019
5387 Clouds 17 1017 93 6000 1.5 100 03:23 29.10.2019
5388 Clouds 18 1018 87 8000 1.5 90 01:57 29.10.2019
5389 Clouds 18 1018 82 8000 1 0 01:36 29.10.2019
5390 Clouds 18 1018 82 8000 1.5 50 00:53 29.10.2019
5391 Clouds 18 1018 88 10000 1.5 100 00:26 29.10.2019
5392 Clouds 19 1018 82 10000 1.5 50 23:38 28.10.2019
5393 Clouds 19 1018 82 10000 1.5 50 23:20 28.10.2019
5394 Clouds 19 1018 82 10000 1.5 70 22:40 28.10.2019
5395 Clouds 19 1018 82 10000 1.5 70 22:20 28.10.2019
5396 Clouds 19 1018 82 10000 1 70 21:59 28.10.2019
5397 Clouds 19 1018 77 10000 1.5 90 21:41 28.10.2019
5398 Clouds 19 1018 77 10000 1.5 90 21:22 28.10.2019
5399 Clouds 19 1018 77 10000 2.1 260 20:59 28.10.2019
5400 Clouds 20 1018 73 10000 2.1 240 20:40 28.10.2019
5401 Clouds 20 1018 82 10000 0.5 0 20:21 28.10.2019
5402 Clouds 20 1018 82 10000 0.5 0 20:21 28.10.2019
5403 Clouds 20 1018 82 10000 0.5 0 19:55 28.10.2019
5404 Clouds 21 1017 73 10000 1.5 250 19:36 28.10.2019
5405 Clouds 21 1017 73 10000 1.5 250 19:36 28.10.2019
5406 Clouds 21 1018 82 10000 0.5 0 19:18 28.10.2019
5407 Clouds 21 1018 82 10000 2.6 330 18:56 28.10.2019
5408 Clouds 21 1017 68 10000 2.6 220 18:38 28.10.2019
5409 Clouds 21 1018 88 10000 3.1 320 18:20 28.10.2019
5410 Clouds 22 1018 77 10000 4.1 300 17:55 28.10.2019
5411 Clouds 22 1018 77 10000 4.1 300 17:55 28.10.2019
5412 Clouds 22 1018 68 10000 4.6 200 17:36 28.10.2019
5413 Clear 22 1018 73 10000 3.6 290 17:18 28.10.2019
5414 Clear 22 1018 73 10000 3.6 290 17:18 28.10.2019
5415 Clear 22 1018 73 10000 3.6 290 17:18 28.10.2019
5416 Clouds 23 1018 68 10000 3.6 190 16:54 28.10.2019
5417 Clouds 23 1018 68 10000 3.6 190 16:36 28.10.2019
5418 Clouds 23 1018 68 10000 2.6 170 16:18 28.10.2019
5419 Clouds 23 1018 73 10000 2.6 140 15:42 28.10.2019
5420 Clouds 23 1018 68 10000 2.1 160 15:24 28.10.2019
5421 Clouds 23 1019 64 10000 3.1 250 14:59 28.10.2019
5422 Clouds 23 1019 73 10000 2.1 120 14:40 28.10.2019
5423 Clouds 22 1019 64 10000 3.6 260 14:20 28.10.2019
5424 Clouds 22 1019 77 10000 2.6 120 13:59 28.10.2019
5425 Clouds 22 1020 60 10000 3.1 230 13:41 28.10.2019
5426 Clouds 21 1020 60 10000 3.1 230 13:18 28.10.2019
5427 Haze 21 1020 77 9000 2.6 90 12:43 28.10.2019
5428 Clouds 21 1020 64 8000 2.1 210 12:21 28.10.2019
5429 Clouds 21 1020 64 8000 2.6 180 11:57 28.10.2019
5430 Haze 21 1021 88 8000 1.5 100 11:37 28.10.2019
5431 Clouds 20 1020 68 8000 2.1 190 11:18 28.10.2019
5432 Haze 18 1020 93 7000 2.1 110 10:40 28.10.2019
5433 Clouds 18 1020 82 8000 1.5 190 10:21 28.10.2019
5434 Haze 18 1020 93 7000 0.5 70 09:57 28.10.2019
5435 Haze 17 1020 93 7000 0.5 70 09:39 28.10.2019
5436 Clouds 17 1020 82 8000 0.5 0 09:19 28.10.2019
5437 Clouds 17 1019 82 8000 1.5 70 08:57 28.10.2019
5438 Clouds 17 1019 88 8000 2.1 80 08:38 28.10.2019
5439 Clouds 17 1019 88 8000 2.1 80 08:19 28.10.2019
5440 Clouds 17 1018 82 8000 2.1 100 07:55 28.10.2019
5441 Haze 17 1019 93 9000 1.5 20 07:36 28.10.2019
5442 Haze 17 1019 93 9000 1.5 20 07:18 28.10.2019
5443 Haze 17 1019 93 9000 1.5 20 07:18 28.10.2019
5444 Clouds 17 1018 82 6000 2.6 90 06:39 28.10.2019
5445 Clouds 18 1019 82 6000 1 0 05:34 28.10.2019
5446 Clouds 17 1018 82 10000 2.1 110 03:45 28.10.2019
5447 Clouds 18 1018 82 10000 4.1 100 02:46 28.10.2019
5448 Clouds 18 1019 77 10000 4.1 90 01:55 28.10.2019
5449 Clouds 18 1019 77 10000 3.6 100 00:53 28.10.2019
5450 Clouds 18 1019 82 10000 2.6 100 00:32 28.10.2019
5451 Clouds 18 1019 82 10000 3.6 100 23:47 27.10.2019
5452 Clouds 19 1019 82 10000 4.6 90 23:23 27.10.2019
5453 Clouds 19 1019 82 10000 4.6 90 23:23 27.10.2019
5454 Clouds 19 1020 82 10000 4.1 80 22:57 27.10.2019
5455 Clouds 19 1019 82 10000 3.1 90 22:39 27.10.2019
5456 Clouds 20 1019 82 10000 3.1 90 22:21 27.10.2019
5457 Clouds 19 1019 77 10000 3.1 80 21:57 27.10.2019
5458 Clouds 20 1021 88 10000 2.6 30 21:39 27.10.2019
5459 Clouds 20 1019 72 10000 2.1 110 21:20 27.10.2019
5460 Clouds 20 1019 72 10000 4.1 100 20:55 27.10.2019
5461 Clouds 19 1021 88 10000 2.1 30 20:37 27.10.2019
5462 Clouds 19 1019 77 10000 3.1 90 20:19 27.10.2019
5463 Clouds 19 1020 88 10000 2.6 50 19:40 27.10.2019
5464 Clouds 20 1018 77 10000 3.1 50 19:21 27.10.2019
5465 Clouds 20 1018 77 10000 2.6 40 18:58 27.10.2019
5466 Clouds 20 1020 77 10000 4.1 110 18:39 27.10.2019
5467 Clouds 20 1018 72 10000 1 0 18:21 27.10.2019
5468 Clouds 21 1018 73 10000 2.1 250 17:57 27.10.2019
5469 Clouds 21 1020 77 10000 4.1 100 17:38 27.10.2019
5470 Clouds 21 1018 68 10000 2.6 250 17:19 27.10.2019
5471 Clouds 22 1018 60 10000 2.6 230 16:56 27.10.2019
5472 Clouds 22 1018 60 10000 2.6 230 16:56 27.10.2019
5473 Clouds 22 1020 72 10000 3.6 110 16:38 27.10.2019
5474 Clouds 22 1018 57 10000 2.1 250 16:19 27.10.2019
5475 Clouds 21 1018 56 10000 2.1 250 15:55 27.10.2019
5476 Clouds 21 1020 72 10000 4.1 110 15:37 27.10.2019
5477 Clouds 22 1018 56 10000 2.6 240 15:18 27.10.2019
5478 Clouds 21 1020 72 10000 3.1 120 14:41 27.10.2019
5479 Clouds 22 1019 50 10000 2.6 230 14:20 27.10.2019
5480 Clouds 22 1020 53 10000 3.6 250 13:56 27.10.2019
5481 Clouds 22 1021 72 10000 4.1 100 13:37 27.10.2019
5482 Clouds 22 1020 56 10000 3.6 260 13:19 27.10.2019
5483 Clouds 22 1020 56 10000 3.6 260 13:19 27.10.2019
5484 Clouds 22 1021 77 10000 3.6 100 12:43 27.10.2019
5485 Clouds 22 1020 47 8000 2.6 140 12:24 27.10.2019
5486 Clouds 21 1022 72 10000 2.6 80 11:57 27.10.2019
5487 Clouds 21 1022 72 10000 2.6 80 11:38 27.10.2019
5488 Clouds 21 1020 56 8000 4.1 120 11:20 27.10.2019
5489 Clouds 20 1020 64 8000 4.6 100 10:43 27.10.2019
5490 Clouds 20 1020 72 8000 3.6 100 10:24 27.10.2019
5491 Clouds 19 1020 77 8000 4.6 90 09:45 27.10.2019
5492 Clouds 19 1020 77 8000 4.1 80 09:20 27.10.2019
5493 Clouds 19 1020 77 8000 4.1 80 09:20 27.10.2019
5494 Clouds 18 1022 77 10000 1 70 08:59 27.10.2019
5495 Clouds 18 1019 82 10000 4.1 100 08:41 27.10.2019
5496 Clouds 18 1019 82 10000 4.1 100 08:20 27.10.2019
5497 Clouds 18 1019 82 10000 4.6 80 07:50 27.10.2019
5498 Clouds 18 1019 82 10000 4.6 90 07:29 27.10.2019
5499 Clouds 18 1019 82 10000 4.6 80 06:56 27.10.2019
5500 Clouds 18 1018 82 10000 4.6 90 06:38 27.10.2019
5501 Clouds 18 1018 82 10000 4.6 90 06:38 27.10.2019
5502 Clouds 18 1018 82 10000 4.6 90 06:20 27.10.2019
5503 Clouds 18 1018 82 10000 4.1 90 05:38 27.10.2019
5504 Clear 18 1018 82 10000 3.6 90 04:47 27.10.2019
5505 Clear 19 1019 82 10000 4.1 80 02:46 27.10.2019
5506 Clear 19 1019 77 10000 4.1 80 01:36 27.10.2019
5507 Clear 19 1019 77 10000 4.1 80 01:18 27.10.2019
5508 Clear 19 1018 77 10000 3.6 80 00:42 27.10.2019
5509 Clear 19 1021 88 10000 3.1 60 23:59 26.10.2019
5510 Clear 19 1018 72 10000 4.1 80 23:40 26.10.2019
5511 Clear 19 1018 72 10000 4.1 80 23:22 26.10.2019
5512 Clear 19 1018 72 10000 4.1 80 22:59 26.10.2019
5513 Clear 19 1018 72 10000 3.6 80 22:39 26.10.2019
5514 Clear 19 1018 72 10000 3.6 80 22:20 26.10.2019
5515 Clear 19 1018 72 10000 3.1 90 21:59 26.10.2019
5516 Clear 19 1020 82 10000 1.5 40 21:40 26.10.2019
5517 Clear 19 1018 72 10000 2.6 90 21:19 26.10.2019
5518 Clear 19 1018 68 10000 3.1 80 20:45 26.10.2019
5519 Clear 19 1018 68 10000 3.1 80 20:45 26.10.2019
5520 Clear 20 1018 64 10000 1 0 20:20 26.10.2019
5521 Clear 20 1017 56 10000 3.1 70 19:56 26.10.2019
5522 Clear 20 1019 77 10000 3.1 50 19:38 26.10.2019
5523 Clear 20 1017 56 10000 3.6 50 19:19 26.10.2019
5524 Clear 20 1017 56 10000 3.6 50 19:19 26.10.2019
5525 Clear 21 1017 56 10000 4.1 50 18:55 26.10.2019
5526 Clear 21 1019 77 10000 3.1 80 18:36 26.10.2019
5527 Clear 21 1017 53 10000 4.1 60 18:18 26.10.2019
5528 Clear 22 1019 77 10000 3.1 80 17:39 26.10.2019
5529 Clear 22 1017 50 10000 6.2 40 17:20 26.10.2019
5530 Clear 22 1017 53 10000 5.7 40 16:58 26.10.2019
5531 Clouds 21 1019 77 10000 3.1 80 16:40 26.10.2019
5532 Clear 21 1017 57 10000 6.7 40 16:20 26.10.2019
5533 Clouds 22 1020 68 10000 3.6 80 15:40 26.10.2019
5534 Clear 22 1017 50 10000 5.7 50 15:19 26.10.2019
5535 Clear 22 1017 50 10000 5.7 50 15:19 26.10.2019
5536 Clouds 22 1020 72 10000 5.1 80 14:40 26.10.2019
5537 Clouds 22 1020 72 10000 5.1 80 14:40 26.10.2019
5538 Clear 22 1018 50 10000 6.2 40 14:20 26.10.2019
5539 Clear 20 1019 61 0 5.33 74 13:59 26.10.2019
5540 Clear 20 1019 61 0 5.33 74 13:39 26.10.2019
5541 Clear 20 1019 61 0 5.33 74 13:20 26.10.2019
5542 Clear 21 1021 45 0 5.33 74 12:46 26.10.2019
5543 Clear 20 1019 56 10000 5.1 50 12:22 26.10.2019
5544 Clear 19 1019 60 10000 4.6 100 11:48 26.10.2019
5545 Clear 19 1019 60 10000 4.6 100 11:27 26.10.2019
5546 Clear 19 1019 60 10000 4.6 100 11:27 26.10.2019
5547 Clouds 17 1021 77 10000 1 50 10:47 26.10.2019
5548 Clear 16 1019 77 10000 4.6 90 10:27 26.10.2019
5549 Clouds 15 1021 87 10000 1 60 09:57 26.10.2019
5550 Clouds 15 1021 87 10000 1 60 09:39 26.10.2019
5551 Clouds 15 1018 77 10000 5.1 90 09:20 26.10.2019
5552 Clouds 15 1018 72 10000 4.6 90 08:42 26.10.2019
5553 Clouds 15 1018 72 10000 4.6 90 08:24 26.10.2019
5554 Clouds 14 1018 82 10000 4.6 80 07:44 26.10.2019
5555 Clouds 14 1018 82 10000 4.6 80 07:24 26.10.2019
5556 Clouds 15 1018 82 10000 5.1 80 06:41 26.10.2019
5557 Clouds 15 1018 82 10000 5.1 80 06:18 26.10.2019
5558 Clouds 15 1018 82 10000 5.1 90 05:19 26.10.2019
5559 Clouds 16 1018 77 10000 3.6 80 04:23 26.10.2019
5560 Clouds 17 1019 77 10000 5.1 80 02:37 26.10.2019
5561 Clouds 18 1019 72 10000 5.7 90 01:48 26.10.2019
5562 Clouds 18 1020 77 10000 6.2 90 00:58 26.10.2019
5563 Clouds 18 1020 77 10000 6.2 90 00:18 26.10.2019
5564 Clouds 18 1020 77 10000 5.7 90 23:40 25.10.2019
5565 Clouds 18 1020 77 10000 5.7 90 23:19 25.10.2019
5566 Clouds 18 1019 77 10000 6.7 90 22:40 25.10.2019
5567 Clouds 18 1019 77 10000 6.7 90 22:22 25.10.2019
5568 Clouds 19 1019 77 10000 6.7 90 21:57 25.10.2019
5569 Clouds 19 1022 88 10000 3.1 30 21:38 25.10.2019
5570 Clouds 19 1019 68 10000 6.7 90 21:19 25.10.2019
5571 Clouds 19 1021 82 10000 3.1 70 20:44 25.10.2019
5572 Clouds 20 1019 64 10000 6.7 100 20:20 25.10.2019
5573 Clouds 20 1019 64 10000 6.7 100 20:20 25.10.2019
5574 Clouds 20 1019 64 10000 6.7 100 20:20 25.10.2019
5575 Clouds 20 1021 77 10000 4.1 110 19:56 25.10.2019
5576 Clouds 21 1021 77 10000 4.1 110 19:38 25.10.2019
5577 Clouds 21 1018 49 10000 5.7 100 19:20 25.10.2019
5578 Clouds 21 1018 47 10000 5.1 80 18:43 25.10.2019
5579 Clouds 21 1018 47 10000 4.6 50 18:21 25.10.2019
5580 Clouds 22 1021 60 10000 5.1 110 17:41 25.10.2019
5581 Clouds 22 1018 53 10000 7.2 30 17:20 25.10.2019
5582 Clouds 21 1018 47 10000 6.2 40 16:47 25.10.2019
5583 Clouds 21 1018 47 10000 6.2 50 16:24 25.10.2019
5584 Clouds 21 1018 47 10000 6.2 40 15:58 25.10.2019
5585 Clouds 22 1019 44 10000 6.2 40 15:40 25.10.2019
5586 Clouds 22 1019 44 10000 6.2 40 15:21 25.10.2019
5587 Clouds 22 1019 32 10000 5.7 70 14:43 25.10.2019
5588 Clouds 22 1019 32 10000 5.7 70 14:43 25.10.2019
5589 Clouds 21 1019 34 10000 6.2 70 14:23 25.10.2019
5590 Clouds 21 1019 34 10000 6.2 70 14:23 25.10.2019
5591 Clouds 21 1023 82 10000 4.6 110 13:59 25.10.2019
5592 Clouds 21 1023 82 10000 4.1 110 13:39 25.10.2019
5593 Clouds 21 1020 36 10000 5.1 100 13:21 25.10.2019
5594 Clouds 21 1020 36 10000 5.1 100 12:55 25.10.2019
5595 Clouds 21 1020 36 10000 5.1 100 12:55 25.10.2019
5596 Clouds 20 1023 82 10000 5.1 90 12:36 25.10.2019
5597 Clouds 20 1020 40 10000 4.6 100 12:18 25.10.2019
5598 Clouds 20 1023 82 10000 5.1 80 11:39 25.10.2019
5599 Clouds 20 1023 82 10000 5.1 80 11:39 25.10.2019
5600 Clouds 20 1021 52 10000 3.6 110 11:20 25.10.2019
5601 Clouds 18 1023 82 10000 5.1 70 10:42 25.10.2019
5602 Clouds 18 1020 59 10000 2.6 100 10:23 25.10.2019
5603 Clouds 16 1020 62 10000 2.1 120 09:59 25.10.2019
5604 Clouds 16 1022 88 10000 5.7 70 09:39 25.10.2019
5605 Clouds 16 1020 71 10000 2.6 80 09:20 25.10.2019
5606 Clouds 15 1020 71 10000 2.1 70 08:51 25.10.2019
5607 Clouds 15 1020 71 10000 2.1 70 08:51 25.10.2019
5608 Clouds 15 1020 71 10000 1.5 100 08:33 25.10.2019
5609 Clouds 15 1019 76 10000 2.1 90 07:57 25.10.2019
5610 Clouds 15 1019 76 10000 1.5 100 07:35 25.10.2019
5611 Clouds 15 1019 76 10000 1 0 06:53 25.10.2019
5612 Clouds 15 1019 71 10000 0.5 0 06:31 25.10.2019
5613 Clouds 15 1019 67 10000 2.1 100 05:40 25.10.2019
5614 Clouds 15 1019 76 10000 1 0 04:54 25.10.2019
5615 Clouds 15 1020 82 10000 2.1 120 03:45 25.10.2019
5616 Clear 16 1021 82 10000 2.1 110 01:55 25.10.2019
5617 Clear 16 1022 76 10000 1.5 90 01:35 25.10.2019
5618 Clear 16 1022 82 10000 2.1 60 00:22 25.10.2019
5619 Clear 18 1022 76 10000 2.1 50 23:41 24.10.2019
5620 Clear 18 1022 76 10000 2.1 50 23:23 24.10.2019
5621 Clear 18 1022 76 10000 1.5 50 22:56 24.10.2019
5622 Clear 18 1022 76 10000 1.5 70 22:37 24.10.2019
5623 Clear 18 1022 76 10000 1.5 70 22:18 24.10.2019
5624 Clear 19 1022 72 10000 2.1 70 21:56 24.10.2019
5625 Clear 19 1022 72 10000 2.1 70 21:56 24.10.2019
5626 Clear 19 1022 63 10000 1 30 21:38 24.10.2019
5627 Clear 18 1022 63 10000 1 30 21:19 24.10.2019
5628 Clear 18 1022 59 10000 1.5 310 20:56 24.10.2019
5629 Clear 18 1021 49 10000 4.6 230 20:38 24.10.2019
5630 Clear 18 1022 63 10000 1.5 270 20:20 24.10.2019
5631 Clear 20 1020 56 10000 5.1 260 19:45 24.10.2019
5632 Clear 20 1021 59 10000 2.6 300 19:27 24.10.2019
5633 Clear 21 1021 55 10000 3.1 290 18:59 24.10.2019
5634 Clear 21 1020 49 10000 5.7 270 18:40 24.10.2019
5635 Clear 21 1021 55 10000 3.6 280 18:21 24.10.2019
5636 Clear 21 1021 52 10000 3.1 270 17:59 24.10.2019
5637 Clear 21 1020 49 10000 5.7 280 17:39 24.10.2019
5638 Clouds 21 1021 52 10000 3.1 280 17:19 24.10.2019
5639 Clouds 21 1021 52 10000 3.1 300 16:55 24.10.2019
5640 Clouds 21 1021 49 10000 3.6 280 16:37 24.10.2019
5641 Clouds 21 1021 49 10000 3.6 280 16:18 24.10.2019
5642 Clouds 21 1021 49 10000 3.1 310 15:54 24.10.2019
5643 Clouds 21 1022 52 10000 3.6 300 15:36 24.10.2019
5644 Clouds 21 1022 52 10000 3.6 300 15:18 24.10.2019
5645 Clouds 21 1021 52 10000 5.7 270 14:44 24.10.2019
5646 Clouds 20 1022 45 10000 3.1 290 14:26 24.10.2019
5647 Clouds 20 1021 55 10000 5.7 280 13:59 24.10.2019
5648 Clouds 20 1022 55 10000 6.7 270 13:37 24.10.2019
5649 Clouds 19 1023 52 10000 3.1 300 13:18 24.10.2019
5650 Clouds 19 1023 52 10000 2.1 280 12:56 24.10.2019
5651 Clouds 19 1022 59 10000 5.7 270 12:37 24.10.2019
5652 Clouds 18 1023 59 10000 3.1 320 12:18 24.10.2019
5653 Clouds 18 1022 67 10000 5.7 270 11:55 24.10.2019
5654 Clouds 18 1022 67 10000 5.7 270 11:36 24.10.2019
5655 Clouds 18 1022 55 10000 3.6 300 11:18 24.10.2019
5656 Clouds 18 1022 77 10000 5.1 270 10:42 24.10.2019
5657 Clouds 18 1022 63 10000 3.1 320 10:23 24.10.2019
5658 Clouds 17 1021 77 10000 4.6 270 09:40 24.10.2019
5659 Clouds 17 1021 77 10000 4.6 270 09:40 24.10.2019
5660 Clouds 16 1021 63 10000 4.1 300 09:19 24.10.2019
5661 Clouds 16 1020 63 10000 3.6 290 08:58 24.10.2019
5662 Clouds 16 1020 63 10000 4.1 280 08:39 24.10.2019
5663 Clouds 16 1020 63 10000 4.1 280 08:20 24.10.2019
5664 Clouds 16 1020 63 10000 4.1 280 08:20 24.10.2019
5665 Clouds 16 1020 55 10000 4.6 260 07:47 24.10.2019
5666 Clouds 16 1020 59 10000 4.1 270 07:23 24.10.2019
5667 Clouds 16 1019 63 10000 4.1 280 06:53 24.10.2019
5668 Clouds 17 1019 59 10000 5.1 280 06:34 24.10.2019
5669 Clouds 17 1019 59 10000 5.1 290 05:54 24.10.2019
5670 Clouds 17 1019 63 10000 6.2 290 05:31 24.10.2019
5671 Clouds 17 1019 59 10000 6.2 270 04:22 24.10.2019
5672 Clouds 17 1019 59 10000 6.2 270 04:22 24.10.2019
5673 Clouds 17 1019 59 10000 6.7 270 03:33 24.10.2019
5674 Clouds 18 1019 55 10000 7.7 270 02:37 24.10.2019
5675 Clouds 19 1019 55 10000 7.7 270 02:18 24.10.2019
5676 Clouds 18 1018 59 10000 8.7 260 01:30 24.10.2019
5677 Clouds 18 1018 59 10000 7.7 260 00:55 24.10.2019
5678 Clouds 18 1018 55 10000 7.7 260 00:25 24.10.2019
5679 Clouds 19 1018 59 10000 8.7 270 23:45 23.10.2019
5680 Clouds 19 1017 59 10000 9.3 260 23:27 23.10.2019
5681 Clouds 19 1017 55 10000 9.3 260 22:58 23.10.2019
5682 Clouds 19 1017 55 10000 8.2 260 22:39 23.10.2019
5683 Clouds 19 1017 55 10000 8.2 260 22:19 23.10.2019
5684 Clouds 19 1016 59 10000 8.2 260 21:59 23.10.2019
5685 Rain 19 1015 63 10000 7.7 260 21:40 23.10.2019
5686 Clouds 19 1016 59 10000 9.3 260 21:21 23.10.2019
5687 Rain 19 1015 68 10000 7.2 250 20:59 23.10.2019
5688 Clouds 19 1016 59 10000 8.7 260 20:40 23.10.2019
5689 Clouds 19 1016 59 10000 8.7 260 20:40 23.10.2019
5690 Clouds 19 1016 59 10000 8.7 260 20:21 23.10.2019
5691 Clouds 19 1014 68 10000 7.7 250 19:59 23.10.2019
5692 Clouds 19 1014 68 10000 7.7 250 19:41 23.10.2019
5693 Clouds 19 1015 59 10000 9.3 260 19:19 23.10.2019
5694 Clouds 20 1015 59 10000 9.8 270 18:57 23.10.2019
5695 Clouds 20 1014 59 10000 10.3 260 18:38 23.10.2019
5696 Clouds 20 1014 59 10000 10.3 260 18:18 23.10.2019
5697 Clouds 19 1012 55 10000 8.7 260 17:45 23.10.2019
5698 Clouds 19 1013 56 10000 9.3 240 17:20 23.10.2019
5699 Clouds 19 1013 56 10000 9.3 240 17:20 23.10.2019
5700 Clouds 20 1014 56 10000 8.7 240 16:58 23.10.2019
5701 Rain 20 1012 59 10000 9.3 250 16:40 23.10.2019
5702 Clouds 20 1013 59 10000 9.3 250 16:20 23.10.2019
5703 Clouds 19 1012 59 10000 7.7 270 15:42 23.10.2019
5704 Rain 19 1014 67 2000 5.1 240 15:23 23.10.2019
5705 Clouds 19 1012 72 10000 5.7 280 14:58 23.10.2019
5706 Clouds 19 1012 72 10000 5.7 280 14:39 23.10.2019
5707 Clouds 20 1014 45 10000 7.7 250 14:20 23.10.2019
5708 Clouds 19 1013 68 10000 5.1 230 13:59 23.10.2019
5709 Clouds 19 1013 68 10000 5.1 230 13:41 23.10.2019
5710 Clouds 19 1015 63 10000 4.1 190 13:23 23.10.2019
5711 Clouds 18 1015 72 10000 4.6 190 12:56 23.10.2019
5712 Rain 18 1014 82 10000 8.7 240 12:37 23.10.2019
5713 Clouds 17 1015 72 10000 4.6 180 12:18 23.10.2019
5714 Rain 16 1013 77 10000 5.1 230 11:57 23.10.2019
5715 Rain 16 1013 77 10000 5.1 230 11:38 23.10.2019
5716 Clouds 17 1014 77 10000 4.6 180 11:20 23.10.2019
5717 Clouds 17 1013 77 10000 5.1 220 10:45 23.10.2019
5718 Clouds 17 1014 76 10000 4.1 190 10:26 23.10.2019
5719 Rain 16 1013 87 3000 4.6 190 09:56 23.10.2019
5720 Clouds 16 1012 77 10000 5.7 220 09:37 23.10.2019
5721 Clouds 16 1013 76 10000 5.7 170 09:19 23.10.2019
5722 Clouds 16 1013 82 10000 4.6 170 08:42 23.10.2019
5723 Clouds 16 1013 82 10000 4.6 170 08:24 23.10.2019
5724 Clouds 16 1013 82 10000 4.1 170 07:46 23.10.2019
5725 Clouds 16 1012 82 10000 4.1 170 07:23 23.10.2019
5726 Rain 16 1011 77 10000 8.2 220 06:47 23.10.2019
5727 Clouds 16 1012 76 10000 5.1 170 06:22 23.10.2019
5728 Clouds 16 1012 76 10000 4.6 180 05:47 23.10.2019
5729 Clouds 16 1012 76 10000 4.6 170 04:57 23.10.2019
5730 Clouds 16 1013 76 8000 4.1 170 03:35 23.10.2019
5731 Thunderstorm 16 1013 87 6000 4.6 170 02:41 23.10.2019
5732 Thunderstorm 16 1014 82 2500 2.1 190 01:33 23.10.2019
5733 Thunderstorm 16 1013 76 8000 4.1 170 00:56 23.10.2019
5734 Thunderstorm 16 1013 71 8000 4.1 170 00:28 23.10.2019
5735 Clouds 17 1013 67 10000 3.6 170 23:40 22.10.2019
5736 Clouds 17 1013 67 10000 3.6 170 23:18 22.10.2019
5737 Clouds 16 1012 76 10000 2.6 180 22:57 22.10.2019
5738 Clouds 16 1012 76 10000 2.6 180 22:39 22.10.2019
5739 Clouds 16 1012 76 10000 2.6 180 22:20 22.10.2019
5740 Clouds 16 1012 76 10000 2.6 180 21:56 22.10.2019
5741 Clouds 16 1012 76 8000 2.6 190 21:37 22.10.2019
5742 Clouds 15 1012 76 8000 2.6 190 21:18 22.10.2019
5743 Clouds 17 1012 71 8000 2.6 170 20:56 22.10.2019
5744 Clouds 16 1011 71 8000 3.1 190 20:38 22.10.2019
5745 Clouds 17 1011 71 8000 3.1 190 20:20 22.10.2019
5746 Clouds 18 1011 59 8000 3.1 200 19:54 22.10.2019
5747 Clouds 18 1011 59 8000 3.1 200 19:54 22.10.2019
5748 Clouds 18 1011 67 8000 2.1 210 19:36 22.10.2019
5749 Clouds 18 1011 67 8000 2.1 210 19:18 22.10.2019
5750 Clouds 18 1011 67 8000 4.6 250 18:40 22.10.2019
5751 Clouds 18 1011 67 8000 4.6 250 18:22 22.10.2019
5752 Clouds 18 1011 67 8000 6.2 260 17:57 22.10.2019
5753 Clouds 19 1010 52 10000 5.1 260 17:38 22.10.2019
5754 Clouds 19 1010 52 10000 5.1 260 17:38 22.10.2019
5755 Clouds 19 1011 59 8000 5.7 280 17:20 22.10.2019
5756 Clouds 19 1011 55 8000 4.1 230 16:57 22.10.2019
5757 Clouds 19 1011 59 10000 4.1 230 16:37 22.10.2019
5758 Clouds 19 1011 59 10000 4.1 230 16:19 22.10.2019
5759 Clouds 19 1011 59 10000 4.1 230 16:19 22.10.2019
5760 Clouds 19 1011 59 10000 3.6 230 15:44 22.10.2019
5761 Clouds 19 1012 63 10000 3.1 200 15:21 22.10.2019
5762 Clouds 18 1012 63 10000 3.6 0 14:58 22.10.2019
5763 Clouds 18 1011 59 10000 6.7 270 14:40 22.10.2019
5764 Clouds 19 1012 63 10000 3.6 220 14:19 22.10.2019
5765 Rain 17 1011 59 10000 5.7 230 13:42 22.10.2019
5766 Clouds 18 1013 63 10000 3.1 210 13:21 22.10.2019
5767 Rain 18 1012 55 10000 5.1 240 12:58 22.10.2019
5768 Clouds 18 1012 63 10000 4.1 210 12:40 22.10.2019
5769 Clouds 18 1012 63 10000 4.1 210 12:40 22.10.2019
5770 Clouds 18 1013 59 10000 2.6 190 12:21 22.10.2019
5771 Clouds 16 1012 67 10000 2.6 230 11:54 22.10.2019
5772 Clouds 16 1012 67 10000 2.6 230 11:36 22.10.2019
5773 Clouds 16 1013 67 10000 3.6 170 11:18 22.10.2019
5774 Clouds 14 1013 82 10000 2.6 270 10:38 22.10.2019
5775 Clouds 15 1013 72 10000 3.6 160 10:20 22.10.2019
5776 Clouds 14 1012 76 10000 2.6 250 10:00 22.10.2019
5777 Clouds 14 1012 71 10000 2.1 250 09:41 22.10.2019
5778 Clouds 13 1012 81 8000 2.6 80 09:22 22.10.2019
5779 Clouds 12 1012 82 10000 2.6 270 08:59 22.10.2019
5780 Clouds 12 1012 93 8000 2.6 100 08:41 22.10.2019
5781 Clouds 12 1012 93 8000 2.6 100 08:19 22.10.2019
5782 Clear 12 1012 87 10000 1.5 70 07:44 22.10.2019
5783 Clear 12 1012 81 10000 2.1 60 07:26 22.10.2019
5784 Clear 13 1012 82 10000 3.1 250 06:45 22.10.2019
5785 Clear 13 1012 87 10000 3.1 80 06:27 22.10.2019
5786 Rain 13 1013 71 10000 2.6 240 05:48 22.10.2019
5787 Rain 13 1013 81 10000 2.1 70 04:54 22.10.2019
5788 Rain 15 1015 82 10000 2.6 80 02:31 22.10.2019
5789 Rain 15 1015 82 10000 0.5 0 01:39 22.10.2019
5790 Rain 15 1015 82 10000 0.5 0 01:21 22.10.2019
5791 Rain 15 1015 82 10000 1.5 90 00:56 22.10.2019
5792 Rain 15 1015 76 10000 0.5 0 00:38 22.10.2019
5793 Clear 15 1015 76 10000 0.5 0 00:19 22.10.2019
5794 Clear 16 1016 72 10000 1.5 70 23:38 21.10.2019
5795 Clear 16 1016 72 10000 1.5 70 23:19 21.10.2019
5796 Clear 16 1016 72 10000 1 80 22:58 21.10.2019
5797 Clear 16 1016 72 10000 1 0 22:39 21.10.2019
5798 Clear 16 1016 72 10000 1 0 22:20 21.10.2019
5799 Clear 16 1016 72 10000 1 340 21:58 21.10.2019
5800 Clouds 17 1015 67 10000 2.1 240 21:38 21.10.2019
5801 Rain 17 1016 67 10000 1 40 21:20 21.10.2019
5802 Rain 18 1015 63 10000 1 0 20:57 21.10.2019
5803 Clouds 18 1015 59 10000 2.1 170 20:38 21.10.2019
5804 Rain 18 1015 59 10000 1 0 20:20 21.10.2019
5805 Rain 18 1015 59 10000 3.1 310 19:55 21.10.2019
5806 Rain 19 1015 59 10000 2.6 200 19:37 21.10.2019
5807 Rain 19 1015 59 10000 3.6 320 19:18 21.10.2019
5808 Clouds 19 1015 56 10000 3.1 200 18:55 21.10.2019
5809 Clouds 20 1015 56 10000 3.1 200 18:36 21.10.2019
5810 Clouds 20 1015 56 10000 3.1 200 18:36 21.10.2019
5811 Clouds 20 1015 56 10000 3.1 200 18:36 21.10.2019
5812 Clouds 20 1015 56 10000 4.1 300 18:18 21.10.2019
5813 Clouds 20 1015 56 10000 4.1 300 18:18 21.10.2019
5814 Clouds 20 1015 56 10000 4.1 300 18:18 21.10.2019
5815 Clouds 21 1015 49 10000 3.1 140 17:39 21.10.2019
5816 Clouds 21 1015 49 10000 3.1 140 17:39 21.10.2019
5817 Clouds 21 1015 56 10000 4.1 290 17:19 21.10.2019
5818 Clouds 21 1015 49 10000 3.6 140 16:58 21.10.2019
5819 Clouds 21 1015 52 10000 3.1 200 16:40 21.10.2019
5820 Clouds 21 1015 52 10000 4.1 290 16:22 21.10.2019
5821 Clouds 21 1015 49 10000 2.6 210 15:58 21.10.2019
5822 Clouds 21 1015 49 10000 2.6 210 15:39 21.10.2019
5823 Clouds 21 1016 49 10000 3.6 270 15:19 21.10.2019
5824 Clouds 21 1016 56 10000 3.1 200 14:40 21.10.2019
5825 Clouds 21 1016 49 10000 3.6 260 14:22 21.10.2019
5826 Clouds 21 1016 59 10000 3.1 200 13:59 21.10.2019
5827 Clouds 21 1017 52 10000 2.6 200 13:40 21.10.2019
5828 Clouds 20 1017 49 10000 3.1 240 13:20 21.10.2019
5829 Clouds 20 1017 52 10000 2.1 250 12:58 21.10.2019
5830 Clouds 20 1017 55 10000 1 160 12:40 21.10.2019
5831 Clouds 18 1017 49 10000 1.5 150 12:20 21.10.2019
5832 Clouds 17 1017 55 10000 1 0 11:42 21.10.2019
5833 Clouds 17 1017 55 10000 1 0 11:24 21.10.2019
5834 Clouds 15 1017 72 10000 1.5 260 10:59 21.10.2019
5835 Clouds 16 1017 77 10000 1.5 270 10:40 21.10.2019
5836 Clouds 16 1017 77 10000 2.6 90 10:20 21.10.2019
5837 Clouds 15 1017 82 10000 2.1 270 09:58 21.10.2019
5838 Clouds 15 1017 82 10000 2.1 270 09:39 21.10.2019
5839 Clouds 12 1016 87 10000 2.1 60 09:21 21.10.2019
5840 Clouds 13 1016 82 10000 2.6 100 08:41 21.10.2019
5841 Clouds 13 1016 82 10000 2.6 100 08:23 21.10.2019
5842 Clouds 13 1016 87 10000 2.6 80 07:45 21.10.2019
5843 Clouds 13 1016 82 10000 2.1 80 07:23 21.10.2019
5844 Clear 13 1016 82 10000 2.6 260 06:59 21.10.2019
5845 Clouds 14 1016 82 10000 2.1 90 06:41 21.10.2019
5846 Clouds 14 1016 82 10000 2.1 90 06:18 21.10.2019
5847 Clouds 14 1016 87 10000 1.5 70 05:22 21.10.2019
5848 Clouds 14 1016 87 10000 2.6 90 03:40 21.10.2019
5849 Clouds 15 1016 77 10000 1 0 02:39 21.10.2019
5850 Clouds 15 1016 77 10000 1 0 02:19 21.10.2019
5851 Clouds 16 1016 72 10000 0.5 0 01:44 21.10.2019
5852 Clouds 16 1017 82 10000 1.5 80 00:52 21.10.2019
5853 Clouds 16 1017 77 10000 1.5 70 00:28 21.10.2019
5854 Clouds 16 1017 72 10000 1 0 23:57 20.10.2019
5855 Clouds 17 1017 67 10000 1 0 23:39 20.10.2019
5856 Clouds 17 1017 67 10000 1 0 23:20 20.10.2019
5857 Clouds 17 1016 67 10000 1.5 190 22:41 20.10.2019
5858 Clouds 17 1016 67 10000 1.5 190 22:23 20.10.2019
5859 Clouds 17 1016 67 10000 4.6 270 21:59 20.10.2019
5860 Clear 18 1016 63 10000 4.1 260 21:39 20.10.2019
5861 Clouds 18 1016 63 10000 1.5 210 21:21 20.10.2019
5862 Clouds 18 1016 63 10000 2.1 250 20:54 20.10.2019
5863 Clouds 18 1015 63 10000 5.1 250 20:36 20.10.2019
5864 Clouds 19 1016 59 10000 2.1 240 20:18 20.10.2019
5865 Clouds 19 1016 59 10000 2.6 250 19:55 20.10.2019
5866 Clouds 19 1015 59 10000 6.2 260 19:36 20.10.2019
5867 Clouds 20 1015 55 10000 3.1 270 19:18 20.10.2019
5868 Clouds 20 1014 52 10000 5.7 260 18:40 20.10.2019
5869 Clouds 20 1015 52 10000 4.1 270 18:20 20.10.2019
5870 Clouds 21 1014 46 10000 7.2 260 17:56 20.10.2019
5871 Clouds 21 1014 46 10000 7.2 260 17:37 20.10.2019
5872 Clouds 20 1015 52 10000 4.6 260 17:19 20.10.2019
5873 Clouds 20 1015 60 10000 4.6 300 16:43 20.10.2019
5874 Clouds 20 1015 56 10000 4.1 280 16:24 20.10.2019
5875 Clouds 20 1014 56 10000 5.1 270 15:59 20.10.2019
5876 Clouds 20 1014 56 10000 5.1 270 15:38 20.10.2019
5877 Clouds 20 1015 60 10000 3.6 280 15:20 20.10.2019
5878 Clouds 20 1015 60 10000 4.6 290 14:58 20.10.2019
5879 Clouds 20 1014 56 10000 5.1 280 14:38 20.10.2019
5880 Clouds 20 1015 60 10000 4.1 290 14:19 20.10.2019
5881 Clouds 19 1015 64 10000 3.1 210 13:55 20.10.2019
5882 Clouds 20 1014 63 10000 5.1 270 13:37 20.10.2019
5883 Clouds 20 1015 72 10000 3.1 200 13:18 20.10.2019
5884 Clouds 19 1015 77 10000 3.1 180 12:56 20.10.2019
5885 Clouds 19 1014 68 10000 3.1 260 12:37 20.10.2019
5886 Clouds 18 1015 82 10000 2.6 180 12:19 20.10.2019
5887 Clouds 17 1014 77 10000 4.6 270 11:54 20.10.2019
5888 Clouds 16 1014 77 10000 4.6 270 11:36 20.10.2019
5889 Clouds 16 1015 82 10000 2.6 180 11:18 20.10.2019
5890 Rain 16 1014 82 10000 4.6 270 10:40 20.10.2019
5891 Rain 16 1014 82 10000 1.5 150 10:22 20.10.2019
5892 Rain 15 1014 87 8000 1 0 09:57 20.10.2019
5893 Rain 15 1013 87 10000 4.1 250 09:39 20.10.2019
5894 Rain 16 1013 82 8000 1.5 150 09:20 20.10.2019
5895 Rain 15 1013 87 6000 1 0 08:45 20.10.2019
5896 Rain 15 1012 82 6000 2.1 160 08:22 20.10.2019
5897 Rain 15 1013 87 5000 2.1 170 07:50 20.10.2019
5898 Rain 15 1013 87 5000 1.5 170 07:30 20.10.2019
5899 Rain 16 1011 77 10000 4.6 240 06:32 20.10.2019
5900 Rain 17 1011 77 4000 5.1 310 04:46 20.10.2019
5901 Clouds 17 1011 72 8000 5.1 300 04:25 20.10.2019
5902 Clouds 18 1012 82 6000 9.3 300 03:41 20.10.2019
5903 Clouds 18 1012 82 6000 9.3 300 03:18 20.10.2019
5904 Clouds 19 1011 88 6000 5.7 290 02:33 20.10.2019
5905 Clouds 20 1011 88 5000 7.2 280 01:55 20.10.2019
5906 Rain 21 1011 93 2000 5.1 260 01:23 20.10.2019
5907 Rain 21 1011 88 1400 7.2 260 00:54 20.10.2019
5908 Clouds 21 1011 88 6000 4.6 220 00:21 20.10.2019
5909 Clouds 21 1011 88 6000 6.2 220 23:55 19.10.2019
5910 Clouds 21 1011 94 5000 6.2 220 23:37 19.10.2019
5911 Clouds 21 1011 94 5000 6.2 220 23:19 19.10.2019
5912 Clouds 22 1011 88 8000 4.6 0 22:55 19.10.2019
5913 Clouds 21 1011 94 10000 3.6 190 22:37 19.10.2019
5914 Clouds 21 1011 94 10000 3.6 190 22:18 19.10.2019
5915 Clouds 22 1011 88 10000 3.6 200 21:43 19.10.2019
5916 Clouds 22 1011 88 10000 3.6 210 21:20 19.10.2019
5917 Clouds 22 1010 77 10000 5.7 230 20:44 19.10.2019
5918 Clouds 22 1011 82 10000 5.1 210 20:22 19.10.2019
5919 Clouds 23 1010 73 10000 5.1 240 19:56 19.10.2019
5920 Clouds 23 1010 73 10000 5.1 240 19:38 19.10.2019
5921 Clouds 23 1010 77 10000 4.6 200 19:20 19.10.2019
5922 Clouds 24 1010 69 10000 5.7 240 18:41 19.10.2019
5923 Clouds 24 1011 73 10000 5.7 210 18:23 19.10.2019
5924 Clouds 24 1011 73 10000 6.2 250 17:42 19.10.2019
5925 Clouds 24 1011 73 10000 5.1 220 17:23 19.10.2019
5926 Clouds 24 1011 69 10000 7.2 250 16:59 19.10.2019
5927 Clouds 24 1011 73 10000 5.1 240 16:38 19.10.2019
5928 Clouds 24 1012 64 10000 5.7 220 16:19 19.10.2019
5929 Clouds 24 1012 73 10000 5.7 230 15:44 19.10.2019
5930 Clouds 24 1012 73 10000 5.1 210 15:26 19.10.2019
5931 Clouds 24 1012 69 10000 5.1 220 14:40 19.10.2019
5932 Clouds 24 1013 69 10000 5.1 200 14:21 19.10.2019
5933 Clouds 23 1013 73 10000 4.6 210 13:59 19.10.2019
5934 Clouds 23 1013 77 10000 4.6 200 13:41 19.10.2019
5935 Clouds 23 1014 78 10000 4.1 210 13:20 19.10.2019
5936 Clouds 22 1014 83 10000 3.6 200 12:58 19.10.2019
5937 Clouds 22 1014 77 10000 4.6 200 12:38 19.10.2019
5938 Clouds 22 1014 83 8000 3.6 190 12:20 19.10.2019
5939 Clouds 21 1014 68 10000 3.1 230 11:41 19.10.2019
5940 Clouds 21 1014 93 5000 2.6 180 11:23 19.10.2019
5941 Rain 20 1014 68 10000 2.1 240 10:58 19.10.2019
5942 Rain 20 1014 73 10000 3.6 240 10:39 19.10.2019
5943 Clouds 19 1014 82 10000 3.1 260 10:21 19.10.2019
5944 Clouds 19 1014 82 10000 3.6 280 09:44 19.10.2019
5945 Clouds 19 1014 82 10000 3.6 280 09:26 19.10.2019
5946 Clouds 20 1014 82 10000 2.1 180 09:00 19.10.2019
5947 Clouds 20 1014 82 10000 2.1 180 08:59 19.10.2019
5948 Clouds 20 1014 82 10000 1.5 180 08:40 19.10.2019
5949 Clouds 20 1014 82 10000 1.5 180 08:40 19.10.2019
5950 Clouds 19 1014 77 10000 3.1 310 08:21 19.10.2019
5951 Clouds 20 1014 88 10000 1.5 170 07:44 19.10.2019
5952 Clouds 20 1014 88 10000 1.5 170 07:25 19.10.2019
5953 Clouds 20 1014 88 10000 1 0 06:47 19.10.2019
5954 Clouds 20 1014 88 10000 1 0 06:26 19.10.2019
5955 Clouds 20 1014 88 10000 1 0 06:26 19.10.2019
5956 Clouds 20 1014 88 10000 1.5 240 05:33 19.10.2019
5957 Clouds 20 1015 82 6000 1 0 04:22 19.10.2019
5958 Clouds 20 1016 88 6000 0.5 0 02:46 19.10.2019
5959 Clouds 20 1016 88 6000 0.5 0 01:53 19.10.2019
5960 Clouds 19 1017 93 6000 1.5 70 01:25 19.10.2019
5961 Clouds 20 1017 93 6000 0.5 0 00:48 19.10.2019
5962 Clouds 20 1017 93 6000 0.5 0 00:27 19.10.2019
5963 Clear 20 1016 82 10000 6.2 260 23:45 18.10.2019
5964 Clouds 20 1017 93 5000 0.5 190 23:26 18.10.2019
5965 Clouds 21 1017 93 5000 1 270 22:57 18.10.2019
5966 Clouds 21 1016 77 10000 6.2 280 22:39 18.10.2019
5967 Clouds 21 1017 93 8000 0.5 0 22:20 18.10.2019
5968 Clouds 21 1017 93 8000 0.5 0 22:20 18.10.2019
5969 Clear 21 1016 77 10000 6.2 260 21:58 18.10.2019
5970 Clear 21 1016 77 10000 7.7 280 21:38 18.10.2019
5971 Clouds 21 1017 88 10000 1 230 21:20 18.10.2019
5972 Clouds 22 1017 88 10000 1.5 230 20:56 18.10.2019
5973 Clouds 22 1015 77 10000 6.7 270 20:38 18.10.2019
5974 Clouds 22 1017 88 8000 1.5 230 20:20 18.10.2019
5975 Clouds 24 1015 64 10000 5.1 240 19:55 18.10.2019
5976 Clouds 24 1015 64 10000 5.1 240 19:37 18.10.2019
5977 Clouds 24 1017 83 10000 2.6 250 19:19 18.10.2019
5978 Clouds 25 1015 61 10000 5.1 240 18:43 18.10.2019
5979 Clouds 25 1017 78 10000 2.1 260 18:24 18.10.2019
5980 Clouds 25 1015 57 10000 4.1 230 18:00 18.10.2019
5981 Clouds 25 1016 57 10000 5.7 260 17:38 18.10.2019
5982 Clouds 25 1017 73 10000 2.6 260 17:20 18.10.2019
5983 Clouds 25 1017 73 10000 2.6 260 17:20 18.10.2019
5984 Clouds 25 1016 57 10000 4.1 230 16:44 18.10.2019
5985 Clouds 25 1016 57 10000 4.1 230 16:44 18.10.2019
5986 Clouds 25 1016 57 10000 4.1 230 16:43 18.10.2019
5987 Clouds 25 1016 57 10000 4.1 230 16:43 18.10.2019
5988 Clouds 24 1018 73 10000 3.6 280 16:21 18.10.2019
5989 Clouds 25 1016 57 10000 3.6 230 15:58 18.10.2019
5990 Clouds 25 1016 57 10000 3.6 230 15:38 18.10.2019
5991 Clouds 25 1018 69 10000 2.6 270 15:20 18.10.2019
5992 Clouds 24 1017 57 10000 4.6 230 14:57 18.10.2019
5993 Clouds 24 1017 57 10000 4.6 230 14:38 18.10.2019
5994 Clouds 24 1019 69 10000 3.6 260 14:19 18.10.2019
5995 Clouds 23 1020 73 10000 3.1 260 13:57 18.10.2019
5996 Clouds 23 1018 64 10000 6.2 270 13:38 18.10.2019
5997 Clouds 23 1020 73 10000 2.1 230 13:19 18.10.2019
5998 Clouds 22 1020 73 10000 2.6 260 12:55 18.10.2019
5999 Clouds 22 1019 68 10000 6.2 270 12:37 18.10.2019
6000 Clouds 22 1020 68 10000 2.1 250 12:18 18.10.2019
6001 Clouds 21 1019 68 10000 4.1 230 11:42 18.10.2019
6002 Clouds 21 1020 72 10000 1 0 11:21 18.10.2019
6003 Clouds 20 1019 73 10000 4.1 230 10:58 18.10.2019
6004 Clouds 19 1019 77 10000 3.6 230 10:40 18.10.2019
6005 Clouds 19 1020 82 10000 2.1 90 10:22 18.10.2019
6006 Clouds 18 1019 82 10000 2.1 90 09:57 18.10.2019
6007 Clouds 18 1018 82 10000 4.1 240 09:39 18.10.2019
6008 Clouds 18 1018 82 10000 4.1 240 09:39 18.10.2019
6009 Clouds 18 1019 82 10000 2.1 100 09:19 18.10.2019
6010 Clouds 17 1019 87 10000 2.6 80 08:45 18.10.2019
6011 Clouds 17 1019 87 10000 2.6 90 08:25 18.10.2019
6012 Clouds 17 1019 87 10000 2.6 90 08:25 18.10.2019
6013 Clouds 17 1019 87 10000 2.1 80 07:57 18.10.2019
6014 Clouds 17 1019 87 10000 2.6 80 07:38 18.10.2019
6015 Clouds 17 1019 82 10000 2.6 80 06:56 18.10.2019
6016 Clouds 17 1019 87 10000 2.6 90 06:35 18.10.2019
6017 Clear 18 1018 82 10000 5.1 250 05:59 18.10.2019
6018 Clouds 17 1019 87 10000 2.1 80 05:41 18.10.2019
6019 Clouds 18 1019 87 10000 2.1 80 05:18 18.10.2019
6020 Clouds 17 1020 82 10000 2.6 80 03:36 18.10.2019
6021 Clouds 18 1020 87 10000 2.1 80 02:54 18.10.2019
6022 Clouds 17 1020 87 10000 2.6 80 02:32 18.10.2019
6023 Clouds 18 1021 82 10000 2.6 80 01:39 18.10.2019
6024 Clouds 18 1021 82 10000 2.6 80 01:20 18.10.2019
6025 Clear 18 1021 82 10000 1.5 100 00:41 18.10.2019
6026 Clear 18 1021 82 10000 1.5 100 00:19 18.10.2019
6027 Clear 19 1021 77 10000 1 0 23:39 17.10.2019
6028 Clear 19 1021 77 10000 1 0 23:20 17.10.2019
6029 Clear 20 1020 72 10000 1 0 22:57 17.10.2019
6030 Clear 20 1020 72 10000 1 0 22:39 17.10.2019
6031 Clear 20 1020 72 10000 1 0 22:19 17.10.2019
6032 Clear 20 1020 72 10000 1.5 310 21:57 17.10.2019
6033 Clear 20 1020 68 10000 2.1 300 21:39 17.10.2019
6034 Clear 20 1020 68 10000 2.1 300 21:20 17.10.2019
6035 Clear 21 1020 72 10000 2.1 290 20:57 17.10.2019
6036 Clear 21 1018 64 10000 5.1 250 20:39 17.10.2019
6037 Clear 21 1019 68 10000 2.6 300 20:19 17.10.2019
6038 Clear 22 1018 60 10000 4.6 230 19:57 17.10.2019
6039 Clear 22 1018 60 10000 4.6 230 19:38 17.10.2019
6040 Clear 22 1019 64 10000 4.1 300 19:19 17.10.2019
6041 Clear 22 1019 64 10000 4.1 300 19:19 17.10.2019
6042 Clear 23 1018 56 10000 4.6 220 18:43 17.10.2019
6043 Clear 23 1019 60 10000 4.6 290 18:21 17.10.2019
6044 Clear 24 1019 60 10000 4.6 290 17:58 17.10.2019
6045 Clouds 24 1017 53 10000 5.1 220 17:40 17.10.2019
6046 Clouds 24 1019 64 10000 4.6 290 17:22 17.10.2019
6047 Clouds 23 1019 64 10000 4.6 300 16:56 17.10.2019
6048 Clouds 24 1018 53 10000 4.1 200 16:37 17.10.2019
6049 Clouds 24 1018 53 10000 4.1 200 16:37 17.10.2019
6050 Clouds 24 1020 60 10000 4.1 260 16:18 17.10.2019
6051 Clouds 23 1020 64 10000 4.1 270 15:55 17.10.2019
6052 Clouds 23 1020 60 10000 4.6 280 15:37 17.10.2019
6053 Clear 23 1020 60 10000 4.6 280 15:18 17.10.2019
6054 -273 0 0 0 0 0 14:42 17.10.2019
6055 Clouds 23 1021 53 10000 3.1 270 14:23 17.10.2019
6056 Clouds 23 1021 53 10000 3.1 270 14:23 17.10.2019
6057 Clouds 22 1021 56 10000 3.1 290 13:55 17.10.2019
6058 Clear 22 1020 53 10000 3.6 230 13:36 17.10.2019
6059 Clouds 22 1021 60 10000 2.6 290 13:18 17.10.2019
6060 Clear 21 1021 60 10000 7.2 260 12:41 17.10.2019
6061 Clouds 20 1022 68 10000 2.1 320 12:20 17.10.2019
6062 Clouds 20 1021 60 10000 1 0 11:58 17.10.2019
6063 Clouds 20 1021 64 10000 5.7 270 11:40 17.10.2019
6064 Clouds 19 1021 60 10000 0.5 0 11:19 17.10.2019
6065 Clouds 18 1020 77 10000 4.1 260 10:54 17.10.2019
6066 Clouds 18 1020 77 10000 4.1 260 10:54 17.10.2019
6067 Clouds 18 1020 77 10000 4.1 260 10:54 17.10.2019
6068 Clouds 17 1020 77 10000 4.1 260 10:36 17.10.2019
6069 Clouds 17 1021 77 8000 1.5 70 10:18 17.10.2019
6070 Clouds 17 1021 77 8000 1.5 70 10:18 17.10.2019
6071 Clouds 17 1021 77 8000 1.5 70 10:18 17.10.2019
6072 Clouds 16 1020 67 10000 4.6 240 09:41 17.10.2019
6073 Clouds 16 1020 82 8000 3.1 90 09:22 17.10.2019
6074 Clouds 15 1019 63 10000 4.1 240 08:58 17.10.2019
6075 Clouds 15 1020 87 8000 2.6 80 08:39 17.10.2019
6076 Clouds 15 1020 87 8000 2.6 80 08:21 17.10.2019
6077 Clouds 15 1020 87 8000 2.6 80 08:21 17.10.2019
6078 Clouds 15 1020 82 8000 2.6 90 07:55 17.10.2019
6079 Clouds 15 1020 82 8000 2.6 90 07:55 17.10.2019
6080 Clouds 15 1019 82 8000 2.6 90 07:36 17.10.2019
6081 Clouds 15 1019 82 8000 2.6 90 07:18 17.10.2019
6082 Clouds 14 1019 82 10000 2.6 90 06:39 17.10.2019
6083 Clouds 14 1019 82 10000 2.6 90 06:20 17.10.2019
6084 Clear 16 1019 82 10000 2.6 80 05:51 17.10.2019
6085 Clear 15 1019 87 10000 2.6 80 05:31 17.10.2019
6086 Clear 14 1019 82 10000 2.6 90 04:52 17.10.2019
6087 Clear 15 1019 82 10000 2.6 90 03:55 17.10.2019
6088 Clear 15 1020 76 10000 1.5 70 02:36 17.10.2019
6089 Clear 17 1020 72 10000 2.6 90 00:57 17.10.2019
6090 Clear 17 1020 72 10000 1.5 80 00:38 17.10.2019
6091 Clear 17 1020 72 10000 1.5 80 00:18 17.10.2019
6092 Clear 17 1020 72 10000 1.5 110 23:42 16.10.2019
6093 Clear 17 1020 72 10000 1.5 110 23:21 16.10.2019
6094 Clear 17 1020 72 10000 1.5 110 23:21 16.10.2019
6095 Clear 18 1020 67 10000 1 0 22:55 16.10.2019
6096 Clear 18 1019 63 10000 1 0 22:36 16.10.2019
6097 Clear 18 1019 63 10000 1 0 22:18 16.10.2019
6098 Clear 18 1019 67 10000 1 0 21:56 16.10.2019
6099 Clear 18 1019 52 10000 3.1 220 21:37 16.10.2019
6100 Clear 18 1019 63 10000 0.5 0 21:18 16.10.2019
6101 Clear 19 1019 63 10000 0.5 0 20:56 16.10.2019
6102 Clear 19 1019 63 10000 0.5 0 20:56 16.10.2019
6103 Clear 19 1019 63 10000 0.5 0 20:56 16.10.2019
6104 Clear 19 1018 37 10000 5.1 190 20:38 16.10.2019
6105 Clear 19 1019 63 10000 3.1 310 20:20 16.10.2019
6106 Clear 20 1018 60 10000 4.1 310 19:56 16.10.2019
6107 Clear 20 1018 35 10000 4.6 200 19:38 16.10.2019
6108 Clear 20 1018 56 10000 4.1 310 19:19 16.10.2019
6109 Clear 21 1018 35 10000 4.6 200 18:39 16.10.2019
6110 Clear 21 1018 52 10000 3.6 300 18:19 16.10.2019
6111 Clear 21 1018 56 10000 3.6 290 17:56 16.10.2019
6112 Clear 21 1018 37 10000 2.1 210 17:38 16.10.2019
6113 Clear 21 1018 37 10000 2.1 210 17:38 16.10.2019
6114 Clear 22 1018 60 10000 3.6 290 17:19 16.10.2019
6115 Clear 22 1018 43 10000 2.6 110 16:58 16.10.2019
6116 Clear 21 1019 53 10000 3.1 100 16:38 16.10.2019
6117 Clear 21 1019 60 10000 4.1 280 16:20 16.10.2019
6118 Clear 21 1019 60 10000 4.6 280 15:55 16.10.2019
6119 Clear 21 1019 60 10000 4.6 280 15:54 16.10.2019
6120 Clear 21 1019 60 10000 4.6 280 15:54 16.10.2019
6121 Clear 21 1019 60 10000 4.6 280 15:54 16.10.2019
6122 Clear 21 1019 56 10000 2.6 100 15:36 16.10.2019
6123 Clear 21 1020 60 10000 5.1 280 15:18 16.10.2019
6124 Clear 21 1020 60 10000 5.1 280 15:18 16.10.2019
6125 Clear 22 1020 46 10000 3.1 110 14:55 16.10.2019
6126 Clear 22 1020 46 10000 3.1 110 14:36 16.10.2019
6127 Clear 22 1021 52 10000 4.6 280 14:18 16.10.2019
6128 Clear 21 1021 45 10000 2.6 100 13:42 16.10.2019
6129 Clear 21 1021 49 10000 3.1 280 13:23 16.10.2019
6130 Clear 20 1021 52 10000 1 160 12:44 16.10.2019
6131 Clear 20 1021 49 10000 1.5 300 12:21 16.10.2019
6132 Clear 18 1021 55 10000 1 270 11:59 16.10.2019
6133 Clear 18 1021 51 10000 1 250 11:41 16.10.2019
6134 Clouds 17 1021 59 10000 1.5 80 11:18 16.10.2019
6135 Clear 15 1021 58 10000 3.1 260 10:37 16.10.2019
6136 Clear 14 1021 77 10000 2.6 90 10:19 16.10.2019
6137 Clouds 13 1021 76 10000 2.6 80 09:54 16.10.2019
6138 Clear 13 1021 62 10000 2.6 260 09:36 16.10.2019
6139 Clear 13 1021 76 10000 2.1 80 09:18 16.10.2019
6140 Clear 13 1020 81 10000 2.1 70 08:42 16.10.2019
6141 Clear 13 1020 81 10000 2.1 70 08:23 16.10.2019
6142 Clear 13 1020 81 10000 1.5 90 07:45 16.10.2019
6143 Clear 13 1020 81 10000 2.6 70 07:24 16.10.2019
6144 Clear 14 1020 76 10000 2.6 70 06:57 16.10.2019
6145 Clear 14 1020 71 10000 2.6 80 06:35 16.10.2019
6146 Clear 14 1020 71 10000 1.429 258 05:39 16.10.2019
6147 Clouds 16 1021 71 10000 2.6 90 02:57 16.10.2019
6148 Clouds 16 1022 76 10000 2.1 90 02:37 16.10.2019
6149 Clouds 16 1022 76 10000 2.6 100 01:18 16.10.2019
6150 Clouds 17 1022 76 10000 2.1 80 00:46 16.10.2019
6151 Clouds 17 1022 76 10000 2.1 80 00:25 16.10.2019
6152 Clouds 17 1022 71 10000 1 0 23:39 15.10.2019
6153 Clouds 17 1022 71 10000 1 0 23:21 15.10.2019
6154 Clouds 18 1021 63 10000 0.5 0 22:55 15.10.2019
6155 Clouds 18 1021 59 10000 0.5 0 22:37 15.10.2019
6156 Clouds 18 1021 59 10000 0.5 0 22:19 15.10.2019
6157 Clouds 19 1021 59 10000 1 0 21:55 15.10.2019
6158 Clouds 19 1021 59 10000 1 0 21:37 15.10.2019
6159 Clouds 19 1021 59 10000 1 0 21:19 15.10.2019
6160 Clouds 20 1021 55 10000 2.1 310 20:57 15.10.2019
6161 Clouds 20 1021 55 10000 2.1 290 20:38 15.10.2019
6162 Clouds 20 1021 55 10000 2.1 290 20:19 15.10.2019
6163 Clouds 21 1021 52 10000 2.6 310 19:56 15.10.2019
6164 Clouds 22 1020 40 10000 4.1 290 19:37 15.10.2019
6165 Clouds 22 1020 40 10000 4.1 290 19:19 15.10.2019
6166 Clouds 22 1020 40 10000 4.6 300 18:44 15.10.2019
6167 Clouds 23 1020 42 10000 4.1 300 18:26 15.10.2019
6168 Clouds 23 1020 42 10000 4.1 300 17:57 15.10.2019
6169 Clouds 23 1021 45 10000 4.1 280 17:38 15.10.2019
6170 Clouds 23 1021 45 10000 4.1 280 17:19 15.10.2019
6171 Clouds 21 1021 45 10000 4.1 280 16:46 15.10.2019
6172 Clouds 22 1021 35 10000 4.1 290 16:22 15.10.2019
6173 Clouds 22 1020 43 10000 4.1 200 15:58 15.10.2019
6174 Clouds 22 1020 31 10000 3.1 200 15:40 15.10.2019
6175 Clouds 22 1021 30 10000 4.1 300 15:20 15.10.2019
6176 Clear 22 1021 28 10000 3.1 210 14:57 15.10.2019
6177 Clear 21 1021 28 10000 3.1 210 14:38 15.10.2019
6178 Clouds 21 1022 52 10000 4.1 300 14:19 15.10.2019
6179 Clouds 21 1022 42 10000 4.1 300 13:44 15.10.2019
6180 Clouds 21 1023 45 10000 3.6 310 13:21 15.10.2019
6181 Clear 21 1022 32 10000 5.1 260 12:59 15.10.2019
6182 Clear 20 1022 42 10000 5.7 270 12:39 15.10.2019
6183 Clouds 20 1023 52 10000 2.6 310 12:20 15.10.2019
6184 Clear 19 1022 55 10000 4.1 250 11:44 15.10.2019
6185 Clouds 19 1022 63 10000 2.1 320 11:21 15.10.2019
6186 -273 0 0 0 0 0 10:58 15.10.2019
6187 Clear 18 1021 67 10000 2.1 320 10:39 15.10.2019
6188 Clouds 17 1022 68 10000 0.5 0 10:19 15.10.2019
6189 Clear 16 1021 77 10000 2.1 280 09:57 15.10.2019
6190 Clear 16 1021 77 10000 2.1 280 09:37 15.10.2019
6191 Clouds 15 1021 77 10000 1 0 09:19 15.10.2019
6192 Clouds 16 1021 77 10000 1.5 30 08:41 15.10.2019
6193 Clouds 16 1021 72 10000 1 0 08:21 15.10.2019
6194 Clouds 17 1021 72 10000 0.5 0 07:56 15.10.2019
6195 Clouds 17 1021 72 10000 0.5 0 07:56 15.10.2019
6196 Clouds 17 1021 77 10000 0.5 0 07:38 15.10.2019
6197 Clouds 17 1021 77 10000 0.5 0 07:18 15.10.2019
6198 Clouds 17 1021 72 10000 2.1 350 06:43 15.10.2019
6199 Clouds 17 1021 72 10000 2.1 350 06:22 15.10.2019
6200 Clouds 17 1021 77 10000 2.6 330 05:37 15.10.2019
6201 Clouds 17 1021 77 10000 2.6 330 05:19 15.10.2019
6202 Clouds 18 1021 77 10000 2.6 330 04:23 15.10.2019
6203 Clouds 18 1021 77 10000 2.6 330 03:36 15.10.2019
6204 Clouds 18 1021 77 10000 2.6 330 03:36 15.10.2019
6205 Clouds 19 1021 77 10000 2.6 290 02:23 15.10.2019
6206 Clouds 19 1021 77 10000 3.1 290 01:47 15.10.2019
6207 Clouds 19 1021 77 10000 4.1 300 01:19 15.10.2019
6208 Clouds 19 1021 77 10000 3.1 240 00:47 15.10.2019
6209 Clouds 19 1021 82 10000 3.6 250 00:20 15.10.2019
6210 Clouds 20 1021 77 10000 2.1 230 23:40 14.10.2019
6211 Clouds 20 1021 77 10000 2.1 230 23:19 14.10.2019
6212 Clouds 20 1020 72 10000 5.1 250 22:40 14.10.2019
6213 Clouds 20 1020 72 10000 2.6 250 22:21 14.10.2019
6214 Clouds 20 1020 72 10000 5.7 260 21:59 14.10.2019
6215 Clouds 20 1020 72 10000 5.7 260 21:40 14.10.2019
6216 Clouds 20 1020 82 10000 2.6 250 21:21 14.10.2019
6217 Clouds 20 1019 77 10000 5.1 270 20:59 14.10.2019
6218 Clouds 20 1019 72 10000 5.1 270 20:39 14.10.2019
6219 Clouds 21 1020 77 10000 3.1 240 20:20 14.10.2019
6220 Clouds 20 1019 77 10000 3.1 260 19:58 14.10.2019
6221 Clouds 21 1019 68 10000 4.1 260 19:39 14.10.2019
6222 Clouds 21 1019 68 10000 4.1 260 19:39 14.10.2019
6223 Clouds 21 1019 68 10000 4.1 260 19:21 14.10.2019
6224 Clouds 21 1019 68 10000 4.1 260 19:21 14.10.2019
6225 Clouds 22 1018 60 10000 8.2 280 18:57 14.10.2019
6226 Clouds 22 1018 60 10000 8.2 280 18:57 14.10.2019
6227 Clouds 22 1018 60 10000 8.2 280 18:38 14.10.2019
6228 Clouds 22 1019 68 10000 6.2 260 18:18 14.10.2019
6229 Clouds 23 1017 53 10000 8.7 250 17:44 14.10.2019
6230 Clouds 23 1019 64 10000 6.7 260 17:25 14.10.2019
6231 -273 0 0 0 0 0 16:56 14.10.2019
6232 Clouds 22 1017 68 10000 9.3 260 16:38 14.10.2019
6233 Rain 23 1018 73 10000 7.2 250 16:19 14.10.2019
6234 Clouds 22 1017 68 10000 7.7 270 15:41 14.10.2019
6235 Clouds 22 1018 73 10000 7.2 250 15:21 14.10.2019
6236 Rain 22 1017 64 10000 6.7 260 14:44 14.10.2019
6237 Rain 22 1017 64 10000 6.7 260 14:44 14.10.2019
6238 Rain 22 1018 73 6000 5.7 260 14:26 14.10.2019
6239 Rain 21 1019 83 6000 5.1 240 13:58 14.10.2019
6240 Rain 21 1018 68 10000 6.2 240 13:40 14.10.2019
6241 Rain 21 1018 88 6000 4.1 230 13:21 14.10.2019
6242 Rain 21 1017 73 10000 5.1 270 12:42 14.10.2019
6243 Rain 21 1018 94 4000 4.1 220 12:21 14.10.2019
6244 Rain 21 1018 94 5000 3.1 210 11:55 14.10.2019
6245 Rain 21 1018 94 5000 3.1 210 11:54 14.10.2019
6246 Rain 21 1017 93 10000 3.1 210 11:36 14.10.2019
6247 Rain 21 1018 94 5000 3.1 200 11:18 14.10.2019
6248 Rain 21 1018 93 2000 3.6 210 10:43 14.10.2019
6249 Rain 20 1017 88 2000 4.6 200 10:21 14.10.2019
6250 Rain 20 1017 88 2000 4.6 200 10:21 14.10.2019
6251 Rain 22 1016 83 2000 3.6 190 09:57 14.10.2019
6252 Rain 22 1016 83 10000 5.7 220 09:38 14.10.2019
6253 Clouds 22 1016 83 8000 4.1 190 09:19 14.10.2019
6254 Clouds 21 1016 83 8000 4.1 200 08:46 14.10.2019
6255 Clouds 22 1016 83 8000 4.1 200 08:23 14.10.2019
6256 Clouds 22 1016 83 8000 3.1 190 07:44 14.10.2019
6257 Clouds 22 1016 83 8000 3.1 190 07:21 14.10.2019
6258 Clouds 22 1015 83 8000 3.6 200 06:54 14.10.2019
6259 Clouds 22 1015 83 9000 3.1 200 06:27 14.10.2019
6260 Clouds 21 1016 88 7000 3.6 200 05:50 14.10.2019
6261 Clouds 21 1015 88 7000 4.1 190 04:49 14.10.2019
6262 Clouds 21 1015 83 7000 4.1 210 03:28 14.10.2019
6263 Clouds 21 1014 83 8000 2.6 180 02:56 14.10.2019
6264 Clouds 21 1014 83 7000 4.6 190 01:25 14.10.2019
6265 Clouds 21 1015 88 9000 3.6 110 00:59 14.10.2019
6266 Clear 22 1014 69 10000 2.6 210 00:21 14.10.2019
6267 Clear 22 1014 69 10000 2.6 210 00:21 14.10.2019
6268 Clear 22 1013 64 10000 1 0 23:46 13.10.2019
6269 Clear 22 1013 60 10000 1.5 0 23:21 13.10.2019
6270 Haze 22 1012 60 10000 5.7 90 22:59 13.10.2019
6271 Haze 22 1012 60 10000 6.7 90 22:41 13.10.2019
6272 Haze 22 1012 60 10000 6.7 90 22:21 13.10.2019
6273 Haze 22 1011 60 10000 5.1 90 21:58 13.10.2019
6274 Haze 22 1014 83 8000 3.6 100 21:38 13.10.2019
6275 Haze 22 1011 57 10000 6.2 80 21:19 13.10.2019
6276 Haze 22 1014 83 8000 3.6 120 20:58 13.10.2019
6277 Haze 23 1014 83 8000 3.6 120 20:39 13.10.2019
6278 Haze 23 1014 83 7000 4.6 140 20:21 13.10.2019
6279 Haze 23 1014 83 6000 5.1 130 19:58 13.10.2019
6280 -273 0 0 0 0 0 19:39 13.10.2019
6281 Haze 24 1014 83 6000 5.1 130 19:39 13.10.2019
6282 Haze 24 1011 42 10000 5.7 90 19:21 13.10.2019
6283 Haze 25 1014 78 7000 4.6 120 18:57 13.10.2019
6284 Haze 25 1014 78 7000 4.6 120 18:56 13.10.2019
6285 -273 0 0 0 0 0 18:56 13.10.2019
6286 Haze 25 1014 78 7000 4.6 120 18:56 13.10.2019
6287 Haze 25 1014 78 7000 4.6 120 18:36 13.10.2019
6288 Haze 25 1010 38 10000 7.2 80 18:18 13.10.2019
6289 Haze 26 1015 73 7000 4.6 120 17:44 13.10.2019
6290 Haze 26 1011 33 10000 6.7 100 17:26 13.10.2019
6291 Haze 25 1015 73 8000 6.2 110 16:58 13.10.2019
6292 Haze 26 1015 73 8000 6.2 110 16:40 13.10.2019
6293 Haze 26 1011 31 10000 6.2 90 16:18 13.10.2019
6294 Haze 25 1011 42 10000 6.7 70 15:56 13.10.2019
6295 Haze 25 1011 42 10000 6.7 70 15:56 13.10.2019
6296 Haze 25 1015 73 8000 5.1 110 15:36 13.10.2019
6297 Haze 25 1012 48 10000 6.7 50 15:18 13.10.2019
6298 Haze 24 1016 78 8000 4.6 100 14:56 13.10.2019
6299 Haze 24 1016 78 8000 4.6 100 14:37 13.10.2019
6300 Haze 24 1014 51 10000 4.6 40 14:18 13.10.2019
6301 Haze 23 1017 78 8000 4.6 120 13:39 13.10.2019
6302 Haze 23 1017 78 8000 4.6 120 13:39 13.10.2019
6303 Haze 23 1015 57 10000 4.1 40 13:21 13.10.2019
6304 Haze 22 1015 61 10000 3.6 50 12:57 13.10.2019
6305 Haze 22 1017 83 8000 3.6 120 12:39 13.10.2019
6306 Haze 22 1017 83 8000 3.6 120 12:39 13.10.2019
6307 Haze 22 1015 64 10000 4.6 50 12:19 13.10.2019
6308 Haze 21 1017 88 7000 4.1 90 11:58 13.10.2019
6309 Haze 21 1017 88 7000 4.1 90 11:38 13.10.2019
6310 Haze 21 1015 69 10000 3.1 60 11:19 13.10.2019
6311 Haze 20 1017 94 7000 3.6 110 10:42 13.10.2019
6312 Haze 20 1015 77 10000 2.6 60 10:23 13.10.2019
6313 Haze 20 1016 94 8000 3.1 110 09:58 13.10.2019
6314 Haze 20 1016 94 8000 3.1 110 09:58 13.10.2019
6315 Haze 20 1016 94 8000 3.1 110 09:38 13.10.2019
6316 Haze 20 1015 82 8000 3.6 40 09:19 13.10.2019
6317 Clouds 21 1015 88 7000 3.6 40 08:43 13.10.2019
6318 Clouds 20 1015 88 7000 3.6 40 08:22 13.10.2019
6319 Haze 20 1015 83 7000 1 30 07:47 13.10.2019
6320 Haze 20 1015 83 6000 0.5 0 07:28 13.10.2019
6321 Clouds 20 1015 83 6000 1.5 100 06:48 13.10.2019
6322 Clouds 20 1015 83 6000 1 0 05:57 13.10.2019
6323 Mist 20 1015 83 4000 1.5 150 04:52 13.10.2019
6324 Mist 20 1015 88 4000 1.37 197.985 04:33 13.10.2019
6325 Mist 20 1016 94 4000 0.5 0 02:47 13.10.2019
6326 Mist 20 1016 94 4000 0.5 0 02:23 13.10.2019
6327 Clouds 20 1016 93 6000 0.5 0 01:31 13.10.2019
6328 Mist 20 1016 94 4500 1 80 00:52 13.10.2019
6329 Mist 20 1016 94 4500 1 80 00:52 13.10.2019
6330 Mist 20 1016 93 3500 1 80 00:22 13.10.2019
6331 Mist 21 1017 94 2700 1 230 23:58 12.10.2019
6332 Mist 21 1017 94 4000 2.1 240 23:39 12.10.2019
6333 Mist 21 1017 94 4000 2.1 240 23:21 12.10.2019
6334 Clouds 21 1017 88 5000 2.1 240 22:58 12.10.2019
6335 Clouds 21 1017 88 5000 2.1 240 22:58 12.10.2019
6336 Mist 21 1016 94 4000 2.6 260 22:38 12.10.2019
6337 Mist 21 1016 94 4000 2.6 260 22:20 12.10.2019
6338 Mist 21 1016 94 3000 1 0 21:55 12.10.2019
6339 Mist 21 1016 94 4000 1 240 21:37 12.10.2019
6340 Mist 21 1016 94 4000 1 240 21:19 12.10.2019
6341 Clouds 22 1016 83 10000 4.1 120 20:41 12.10.2019
6342 Clouds 22 1016 83 10000 4.1 120 20:41 12.10.2019
6343 Clouds 22 1015 88 6000 2.1 260 20:23 12.10.2019
6344 Clouds 22 1016 73 10000 3.1 120 19:40 12.10.2019
6345 Clouds 22 1016 73 10000 3.1 120 19:40 12.10.2019
6346 Clouds 22 1015 83 10000 2.6 270 19:22 12.10.2019
6347 Clouds 23 1015 78 10000 4.6 270 18:59 12.10.2019
6348 Clouds 23 1016 73 10000 3.1 110 18:40 12.10.2019
6349 Clouds 23 1016 73 10000 3.1 110 18:40 12.10.2019
6350 Clouds 23 1015 73 10000 2.6 260 18:22 12.10.2019
6351 Clouds 23 1015 83 5000 2.6 280 17:43 12.10.2019
6352 Clouds 24 1015 83 5000 2.6 290 17:19 12.10.2019
6353 Mist 23 1015 83 4500 3.6 260 16:55 12.10.2019
6354 Mist 23 1016 78 10000 5.1 130 16:36 12.10.2019
6355 Mist 23 1015 88 3000 3.6 280 16:18 12.10.2019
6356 Clouds 24 1015 78 5000 4.6 250 15:44 12.10.2019
6357 Clouds 25 1015 65 10000 4.1 240 15:25 12.10.2019
6358 Clouds 24 1016 69 10000 3.1 270 14:43 12.10.2019
6359 Clear 24 1016 73 10000 4.6 230 14:22 12.10.2019
6360 Clouds 24 1017 83 10000 4.1 100 13:59 12.10.2019
6361 Clouds 24 1017 83 10000 4.1 100 13:40 12.10.2019
6362 Clouds 24 1017 83 10000 4.1 100 13:40 12.10.2019
6363 Clear 24 1016 69 10000 3.6 220 13:21 12.10.2019
6364 Mist 24 1018 88 10000 3.6 110 12:39 12.10.2019
6365 Mist 24 1016 54 10000 4.6 100 12:21 12.10.2019
6366 Mist 23 1017 88 10000 5.1 80 11:58 12.10.2019
6367 Mist 23 1017 88 10000 5.1 80 11:39 12.10.2019
6368 Mist 23 1017 88 10000 5.1 80 11:39 12.10.2019
6369 Mist 23 1015 65 10000 5.7 100 11:20 12.10.2019
6370 Mist 22 1017 88 10000 6.2 80 10:43 12.10.2019
6371 Mist 21 1015 73 10000 4.6 90 10:23 12.10.2019
6372 Clouds 22 1016 94 10000 6.2 70 09:58 12.10.2019
6373 Clouds 21 1016 94 10000 5.1 70 09:39 12.10.2019
6374 Mist 21 1014 77 10000 4.1 80 09:21 12.10.2019
6375 Mist 21 1015 77 10000 2.1 160 08:57 12.10.2019
6376 Mist 21 1015 77 10000 2.1 160 08:57 12.10.2019
6377 Mist 21 1015 77 10000 2.1 160 08:57 12.10.2019
6378 Mist 21 1014 77 10000 4.1 80 08:38 12.10.2019
6379 Mist 21 1014 77 10000 4.1 80 08:18 12.10.2019
6380 Clear 21 1014 77 10000 4.1 100 07:33 12.10.2019
6381 Clouds 21 1016 88 10000 5.1 90 06:50 12.10.2019
6382 Clear 21 1013 73 10000 8.7 80 05:46 12.10.2019
6383 Clear 21 1014 64 10000 9.3 80 04:52 12.10.2019
6384 Clear 21 1014 64 10000 8.7 80 03:58 12.10.2019
6385 Clear 22 1015 60 10000 8.7 70 02:57 12.10.2019
6386 Clear 22 1015 64 10000 7.7 60 01:36 12.10.2019
6387 Clear 22 1015 64 10000 7.7 60 01:36 12.10.2019
6388 Clear 22 1016 64 10000 6.7 70 00:59 12.10.2019
6389 Clear 22 1016 60 10000 7.2 60 00:39 12.10.2019
6390 Clear 22 1016 69 10000 5.7 70 23:57 11.10.2019
6391 Clear 22 1016 69 10000 6.2 80 23:39 11.10.2019
6392 Clear 22 1016 69 10000 6.2 80 23:20 11.10.2019
6393 Clear 22 1016 69 10000 6.2 80 23:20 11.10.2019
6394 Clouds 22 1018 94 10000 3.1 80 22:40 11.10.2019
6395 Clear 22 1015 69 10000 5.1 40 22:21 11.10.2019
6396 Clear 22 1015 64 10000 5.1 70 21:56 11.10.2019
6397 Clouds 22 1018 88 10000 2.6 50 21:38 11.10.2019
6398 Clear 22 1015 64 10000 5.1 80 21:19 11.10.2019
6399 Clouds 22 1017 88 10000 4.1 110 20:43 11.10.2019
6400 Clear 22 1015 64 10000 6.2 80 20:25 11.10.2019
6401 Clouds 23 1018 83 10000 4.1 120 19:56 11.10.2019
6402 Clouds 23 1018 83 10000 4.1 120 19:38 11.10.2019
6403 Clear 23 1015 57 10000 6.7 70 19:18 11.10.2019
6404 Clear 23 1015 57 10000 7.2 70 18:57 11.10.2019
6405 Clouds 23 1018 83 10000 5.1 110 18:37 11.10.2019
6406 Clouds 23 1018 83 10000 5.1 110 18:37 11.10.2019
6407 Clear 23 1015 54 10000 7.2 80 18:19 11.10.2019
6408 Clear 23 1015 54 10000 8.7 80 17:58 11.10.2019
6409 Clouds 23 1018 83 10000 6.2 90 17:37 11.10.2019
6410 Clear 24 1015 54 10000 6.7 60 17:18 11.10.2019
6411 Clear 23 1016 65 10000 6.2 40 16:54 11.10.2019
6412 Clear 23 1016 65 10000 6.2 40 16:54 11.10.2019
6413 Clouds 23 1019 78 10000 5.1 80 16:36 11.10.2019
6414 Clouds 23 1016 57 9000 6.2 60 16:18 11.10.2019
6415 Clear 24 1016 48 10000 8.2 80 15:39 11.10.2019
6416 -273 0 0 0 0 0 15:19 11.10.2019
6417 Clouds 24 1019 78 10000 6.7 80 14:49 11.10.2019
6418 Clouds 24 1019 78 10000 6.7 80 14:30 11.10.2019
6419 Clouds 24 1020 88 10000 5.1 80 13:58 11.10.2019
6420 Clouds 24 1020 83 10000 7.2 80 13:40 11.10.2019
6421 Clouds 24 1020 83 10000 7.2 80 13:40 11.10.2019
6422 Clear 24 1018 54 10000 8.2 80 13:21 11.10.2019
6423 Clouds 23 1020 83 10000 6.2 70 12:56 11.10.2019
6424 Clouds 23 1020 83 10000 6.2 70 12:38 11.10.2019
6425 Clear 23 1018 61 10000 8.7 80 12:19 11.10.2019
6426 Rain 23 1020 83 10000 6.7 70 11:41 11.10.2019
6427 Rain 23 1020 83 10000 6.7 70 11:41 11.10.2019
6428 Clear 23 1017 65 10000 9.3 90 11:22 11.10.2019
6429 Clear 23 1017 65 10000 9.3 90 11:22 11.10.2019
6430 Clouds 23 1020 83 10000 7.2 70 10:59 11.10.2019
6431 Clouds 22 1020 88 10000 6.2 70 10:59 11.10.2019
6432 Clouds 22 1020 88 10000 6.2 70 10:41 11.10.2019
6433 Clear 22 1017 69 10000 8.2 90 10:23 11.10.2019
6434 Clouds 22 1019 88 10000 6.2 70 09:56 11.10.2019
6435 Clouds 21 1019 88 10000 6.2 70 09:37 11.10.2019
6436 Clouds 21 1019 88 10000 6.2 70 09:19 11.10.2019
6437 Clear 21 1016 73 10000 7.7 80 08:55 11.10.2019
6438 Clear 21 1016 73 10000 6.7 90 08:36 11.10.2019
6439 Clear 21 1016 73 10000 6.7 90 08:18 11.10.2019
6440 Clear 21 1016 68 10000 7.7 90 07:44 11.10.2019
6441 Clear 21 1016 73 10000 7.7 90 07:25 11.10.2019
6442 Clear 21 1016 68 10000 7.2 90 06:48 11.10.2019
6443 Clear 21 1016 68 10000 7.7 80 06:23 11.10.2019
6444 Clear 21 1015 68 10000 9.3 90 05:39 11.10.2019
6445 Clouds 21 1019 88 10000 7.7 70 04:59 11.10.2019
6446 Clear 21 1016 68 10000 8.7 80 04:25 11.10.2019
6447 Clear 22 1016 64 10000 11.3 80 02:40 11.10.2019
6448 Clear 22 1016 60 10000 10.8 80 00:50 11.10.2019
6449 Clear 22 1016 64 10000 9.8 80 00:29 11.10.2019
6450 Clear 22 1015 64 10000 10.3 80 23:44 10.10.2019
6451 Clear 22 1015 64 10000 10.3 80 23:22 10.10.2019
6452 Clear 22 1015 64 10000 10.3 70 22:58 10.10.2019
6453 Clear 22 1015 64 10000 10.8 80 22:39 10.10.2019
6454 Clear 22 1015 64 10000 10.8 80 22:21 10.10.2019
6455 Clear 22 1015 64 10000 10.3 80 21:58 10.10.2019
6456 Clear 22 1015 60 10000 9.8 80 21:39 10.10.2019
6457 Clear 22 1015 60 10000 9.8 80 21:21 10.10.2019
6458 Clear 22 1014 57 10000 9.8 80 20:43 10.10.2019
6459 Clear 22 1014 57 10000 9.8 80 20:22 10.10.2019
6460 Clear 23 1014 53 10000 10.3 70 19:59 10.10.2019
6461 Clear 23 1014 50 10000 9.3 70 19:41 10.10.2019
6462 Clear 23 1014 50 10000 9.3 70 19:41 10.10.2019
6463 Clear 23 1014 50 10000 9.3 70 19:20 10.10.2019
6464 Clear 24 1014 50 10000 11.8 80 18:57 10.10.2019
6465 Clear 24 1014 51 10000 11.3 70 18:39 10.10.2019
6466 Clear 24 1014 51 10000 11.3 70 18:20 10.10.2019
6467 Clear 24 1014 51 10000 10.8 80 17:54 10.10.2019
6468 Clouds 24 1018 88 10000 7.2 80 17:36 10.10.2019
6469 Clouds 24 1018 88 10000 7.2 80 17:36 10.10.2019
6470 Clear 24 1014 51 10000 10.8 70 17:18 10.10.2019
6471 Clear 24 1014 51 10000 10.8 70 17:18 10.10.2019
6472 Clear 24 1014 51 10000 10.8 70 17:18 10.10.2019
6473 Clouds 24 1018 83 10000 6.7 70 16:41 10.10.2019
6474 Clear 24 1014 45 10000 10.3 70 16:22 10.10.2019
6475 Clear 24 1014 42 10000 11.3 70 15:44 10.10.2019
6476 Clear 24 1015 45 10000 12.9 80 15:25 10.10.2019
6477 Clouds 24 1018 88 10000 6.7 70 14:59 10.10.2019
6478 Clouds 24 1019 88 10000 7.7 70 14:38 10.10.2019
6479 Clear 24 1016 45 10000 12.3 90 14:19 10.10.2019
6480 Clouds 24 1019 88 10000 8.2 80 13:59 10.10.2019
6481 Clouds 24 1019 83 10000 6.7 80 13:41 10.10.2019
6482 Clouds 24 1019 83 10000 6.7 80 13:41 10.10.2019
6483 Clear 24 1016 47 10000 10.8 80 13:20 10.10.2019
6484 Clouds 23 1019 83 10000 8.2 80 12:57 10.10.2019
6485 Clouds 23 1019 83 10000 8.2 80 12:39 10.10.2019
6486 Clear 23 1016 50 10000 11.3 80 12:19 10.10.2019
6487 Clear 23 1016 50 10000 9.8 80 11:55 10.10.2019
6488 Clear 23 1016 57 10000 9.3 70 11:37 10.10.2019
6489 Clear 23 1016 57 10000 9.3 70 11:18 10.10.2019
6490 Clouds 22 1019 88 10000 7.2 80 10:44 10.10.2019
6491 Clear 22 1016 64 10000 7.7 80 10:25 10.10.2019
6492 Clear 22 1016 64 10000 6.7 90 09:56 10.10.2019
6493 Clouds 21 1018 88 10000 6.2 90 09:37 10.10.2019
6494 Clear 21 1015 68 10000 6.2 90 09:19 10.10.2019
6495 Clear 21 1015 73 10000 5.7 90 08:41 10.10.2019
6496 Clear 21 1015 73 10000 5.7 90 08:23 10.10.2019
6497 Clear 21 1015 73 10000 6.7 90 07:58 10.10.2019
6498 Clear 21 1014 72 10000 6.2 90 07:40 10.10.2019
6499 Clear 21 1014 72 10000 6.2 90 07:20 10.10.2019
6500 Clear 21 1014 73 10000 5.7 100 06:45 10.10.2019
6501 Clear 21 1014 73 10000 5.7 100 06:22 10.10.2019
6502 Clear 21 1014 68 10000 4.6 80 05:24 10.10.2019
6503 Clear 20 1014 72 10000 4.6 70 04:37 10.10.2019
6504 Clear 21 1014 68 10000 4.1 50 02:54 10.10.2019
6505 Clear 21 1014 68 10000 8.2 40 01:42 10.10.2019
6506 Clear 21 1014 68 10000 8.2 40 01:42 10.10.2019
6507 Clear 21 1014 68 10000 8.2 40 01:23 10.10.2019
6508 Clear 21 1014 64 10000 7.7 40 00:45 10.10.2019
6509 Clear 21 1014 64 10000 7.7 40 00:19 10.10.2019
6510 Clear 21 1014 73 10000 8.2 50 23:39 09.10.2019
6511 Clear 21 1014 73 10000 8.2 50 23:19 09.10.2019
6512 Clear 21 1016 94 10000 2.6 40 22:42 09.10.2019
6513 Clear 21 1016 94 10000 2.6 40 22:24 09.10.2019
6514 Clear 21 1014 56 10000 4.6 30 21:59 09.10.2019
6515 Clear 22 1014 44 10000 3.1 60 21:39 09.10.2019
6516 Clear 22 1014 44 10000 3.1 60 21:20 09.10.2019
6517 Clear 22 1014 44 10000 4.1 60 20:56 09.10.2019
6518 Clear 22 1014 47 10000 6.2 50 20:37 09.10.2019
6519 Clear 22 1014 47 10000 6.2 50 20:18 09.10.2019
6520 Clear 22 1014 44 10000 6.7 40 19:45 09.10.2019
6521 Clear 23 1013 41 10000 8.2 30 19:23 09.10.2019
6522 Clear 23 1013 44 10000 7.2 30 18:58 09.10.2019
6523 Clouds 24 1015 83 10000 3.6 100 18:37 09.10.2019
6524 Clear 23 1013 42 10000 8.7 40 18:18 09.10.2019
6525 Clouds 23 1016 78 10000 4.6 110 17:54 09.10.2019
6526 Clouds 23 1016 78 10000 4.6 110 17:36 09.10.2019
6527 Clouds 23 1016 78 10000 4.6 110 17:18 09.10.2019
6528 Clouds 24 1016 78 10000 4.1 110 16:40 09.10.2019
6529 Clear 24 1014 51 10000 8.2 40 16:22 09.10.2019
6530 Clear 24 1014 51 10000 8.2 40 15:58 09.10.2019
6531 Clouds 24 1016 78 10000 5.1 100 15:39 09.10.2019
6532 Clouds 24 1016 78 10000 5.1 100 15:39 09.10.2019
6533 Clear 24 1014 51 10000 6.7 40 15:20 09.10.2019
6534 Clouds 24 1014 54 10000 3.1 250 14:56 09.10.2019
6535 Clouds 24 1017 78 10000 4.6 100 14:37 09.10.2019
6536 Clouds 24 1015 48 10000 4.6 20 14:18 09.10.2019
6537 Clear 23 1015 61 10000 2.1 210 13:39 09.10.2019
6538 Clear 23 1015 61 10000 2.1 210 13:21 09.10.2019
6539 Clear 23 1015 69 10000 2.1 220 12:58 09.10.2019
6540 Clouds 23 1017 83 10000 5.1 100 12:40 09.10.2019
6541 Clear 23 1016 65 10000 2.6 0 12:21 09.10.2019
6542 Clear 23 1015 44 10000 2.6 90 11:55 09.10.2019
6543 Clouds 23 1018 77 10000 4.1 90 11:36 09.10.2019
6544 Clear 22 1015 53 10000 2.1 50 11:18 09.10.2019
6545 Clouds 22 1017 77 10000 3.1 80 10:43 09.10.2019
6546 Clear 21 1015 68 10000 3.1 100 10:20 09.10.2019
6547 Clouds 21 1017 77 10000 2.6 80 09:57 09.10.2019
6548 Clouds 21 1017 77 10000 2.6 80 09:38 09.10.2019
6549 Clouds 21 1017 77 10000 2.6 80 09:38 09.10.2019
6550 Clear 21 1014 68 10000 3.6 70 09:18 09.10.2019
6551 Clear 20 1014 68 10000 4.1 90 08:39 09.10.2019
6552 Clear 20 1014 68 10000 4.1 90 08:21 09.10.2019
6553 Clear 20 1014 68 10000 4.6 90 07:48 09.10.2019
6554 Clear 20 1013 68 10000 4.6 80 07:27 09.10.2019
6555 Clear 20 1013 68 10000 4.6 80 07:27 09.10.2019
6556 Clear 21 1016 77 10000 3.1 80 06:59 09.10.2019
6557 Clear 20 1013 64 10000 6.2 60 06:41 09.10.2019
6558 Clear 21 1013 64 10000 5.7 50 05:53 09.10.2019
6559 Clear 21 1013 64 10000 4.6 60 05:19 09.10.2019
6560 Clear 21 1014 56 10000 5.1 60 03:54 09.10.2019
6561 Clear 21 1013 44 10000 8.2 80 02:42 09.10.2019
6562 Clear 21 1014 44 10000 7.2 70 01:42 09.10.2019
6563 Clear 21 1014 44 10000 7.2 70 01:19 09.10.2019
6564 Clear 21 1014 44 10000 9.3 70 00:56 09.10.2019
6565 Clear 21 1014 44 10000 9.3 70 00:37 09.10.2019
6566 Clear 21 1014 44 10000 9.3 70 00:19 09.10.2019
6567 Clear 21 1014 41 10000 10.3 80 23:39 08.10.2019
6568 Clear 22 1014 41 10000 10.3 80 23:18 08.10.2019
6569 Clear 22 1014 41 10000 9.3 80 22:56 08.10.2019
6570 Clear 22 1014 41 10000 9.8 80 22:37 08.10.2019
6571 Clear 22 1014 41 10000 9.8 80 22:18 08.10.2019
6572 Clear 22 1013 44 10000 9.8 80 21:56 08.10.2019
6573 Clear 22 1014 47 10000 9.8 80 21:37 08.10.2019
6574 Clear 22 1014 47 10000 9.8 80 21:18 08.10.2019
6575 Clear 22 1014 47 10000 10.3 70 20:55 08.10.2019
6576 Clear 22 1013 44 10000 10.3 70 20:37 08.10.2019
6577 Clear 22 1013 44 10000 10.3 70 20:18 08.10.2019
6578 Clear 23 1014 44 10000 9.8 80 19:54 08.10.2019
6579 Clear 23 1014 44 10000 10.3 70 19:36 08.10.2019
6580 Clear 23 1014 44 10000 10.3 70 19:36 08.10.2019
6581 Clear 23 1014 44 10000 10.3 70 19:18 08.10.2019
6582 Clear 24 1014 45 10000 9.8 80 18:41 08.10.2019
6583 Clear 24 1014 45 10000 9.8 80 18:23 08.10.2019
6584 Clear 24 1014 45 10000 9.3 60 17:57 08.10.2019
6585 Clear 24 1014 45 10000 9.3 60 17:39 08.10.2019
6586 Clear 24 1014 45 10000 9.3 60 17:18 08.10.2019
6587 Clear 24 1014 45 10000 9.3 60 16:55 08.10.2019
6588 Clouds 24 1017 78 10000 5.7 90 16:37 08.10.2019
6589 Clear 24 1014 45 10000 9.3 60 16:18 08.10.2019
6590 Clouds 24 1018 78 10000 5.7 80 15:38 08.10.2019
6591 Clear 24 1015 45 10000 8.2 60 15:20 08.10.2019
6592 Clouds 24 1019 83 10000 6.2 60 14:55 08.10.2019
6593 Clouds 24 1019 83 10000 6.2 60 14:37 08.10.2019
6594 Clear 24 1015 48 10000 9.8 60 14:19 08.10.2019
6595 Clear 24 1016 45 10000 9.8 60 13:54 08.10.2019
6596 Clear 24 1016 45 10000 9.8 60 13:54 08.10.2019
6597 Clear 24 1016 51 10000 9.3 60 13:36 08.10.2019
6598 Clear 24 1016 51 10000 9.3 60 13:18 08.10.2019
6599 Clouds 23 1019 83 10000 5.1 90 12:40 08.10.2019
6600 Clear 23 1016 54 10000 9.3 60 12:20 08.10.2019
6601 Clear 23 1016 53 10000 8.7 60 11:57 08.10.2019
6602 Clouds 23 1019 88 10000 5.1 90 11:38 08.10.2019
6603 Clear 23 1016 53 10000 7.7 60 11:20 08.10.2019
6604 Haze 21 1019 88 9000 5.7 90 10:42 08.10.2019
6605 Haze 21 1016 64 10000 5.1 80 10:22 08.10.2019
6606 Haze 21 1016 64 10000 4.6 80 09:58 08.10.2019
6607 Haze 21 1018 88 9000 5.1 100 09:40 08.10.2019
6608 Haze 21 1018 88 9000 5.1 100 09:40 08.10.2019
6609 Haze 20 1015 64 10000 4.6 70 09:21 08.10.2019
6610 Clear 20 1015 64 10000 3.1 90 08:45 08.10.2019
6611 Clear 20 1015 64 10000 2.1 110 08:25 08.10.2019
6612 Clear 20 1015 72 10000 3.1 70 07:47 08.10.2019
6613 Clear 20 1015 68 10000 2.1 120 07:23 08.10.2019
6614 Clear 20 1015 77 10000 2.1 100 06:57 08.10.2019
6615 Clear 20 1015 77 10000 2.6 100 06:36 08.10.2019
6616 Clouds 20 1017 88 10000 2.6 90 05:59 08.10.2019
6617 Clear 21 1015 68 10000 2.6 80 05:40 08.10.2019
6618 Clear 21 1015 68 10000 2.6 80 05:40 08.10.2019
6619 Clear 20 1015 72 10000 4.1 60 04:55 08.10.2019
6620 Clouds 19 1015 67 8000 2.6 60 03:30 08.10.2019
6621 Clouds 19 1015 67 8000 2.6 60 03:30 08.10.2019
6622 Clouds 20 1015 67 8000 1 0 02:40 08.10.2019
6623 Clouds 21 1016 72 8000 1 0 01:51 08.10.2019
6624 Clouds 20 1016 77 8000 1 0 01:32 08.10.2019
6625 Clouds 21 1016 72 8000 1 0 00:55 08.10.2019
6626 Clouds 21 1016 72 8000 0.5 0 00:22 08.10.2019
6627 Clouds 21 1016 72 8000 1 0 23:43 07.10.2019
6628 Clear 21 1016 72 10000 1.5 80 23:21 07.10.2019
6629 Clear 21 1016 72 10000 1.5 30 22:58 07.10.2019
6630 Clear 21 1016 72 10000 1.5 30 22:58 07.10.2019
6631 Clouds 21 1016 93 8000 0.5 0 22:40 07.10.2019
6632 Clouds 21 1016 93 8000 0.5 0 22:21 07.10.2019
6633 Clouds 21 1016 93 8000 0.5 0 22:21 07.10.2019
6634 Clouds 22 1016 93 8000 0.5 290 21:58 07.10.2019
6635 Mist 22 1015 61 10000 3.1 230 21:40 07.10.2019
6636 Mist 22 1016 93 10000 0.5 0 21:20 07.10.2019
6637 Fog 22 1015 64 10000 4.1 220 20:58 07.10.2019
6638 Fog 22 1015 64 10000 4.1 220 20:39 07.10.2019
6639 Fog 23 1016 88 10000 2.1 240 20:21 07.10.2019
6640 Mist 24 1014 51 10000 6.7 200 19:58 07.10.2019
6641 Mist 24 1014 51 10000 6.7 200 19:40 07.10.2019
6642 Mist 24 1016 83 10000 2.6 260 19:20 07.10.2019
6643 Mist 24 1016 83 10000 2.6 260 19:20 07.10.2019
6644 Fog 25 1014 54 10000 7.7 200 18:58 07.10.2019
6645 Clear 25 1014 54 10000 7.7 200 18:38 07.10.2019
6646 Clear 25 1014 57 10000 7.2 210 18:18 07.10.2019
6647 Clear 25 1016 73 10000 3.1 260 17:43 07.10.2019
6648 Clear 25 1016 73 10000 3.1 260 17:43 07.10.2019
6649 Clear 25 1016 73 10000 3.6 260 17:23 07.10.2019
6650 Clear 25 1015 51 10000 7.2 210 16:58 07.10.2019
6651 Clear 25 1015 51 10000 7.2 210 16:58 07.10.2019
6652 Clear 25 1015 51 10000 7.2 210 16:39 07.10.2019
6653 Clear 25 1016 73 10000 3.6 260 16:20 07.10.2019
6654 Clear 26 1015 57 10000 7.2 210 15:45 07.10.2019
6655 Clear 26 1017 57 10000 3.6 260 15:26 07.10.2019
6656 Clear 26 1017 57 10000 3.6 260 15:26 07.10.2019
6657 Clear 26 1017 57 10000 3.6 260 15:26 07.10.2019
6658 Clear 27 1017 53 10000 3.6 250 14:56 07.10.2019
6659 Clear 27 1015 51 10000 5.1 210 14:38 07.10.2019
6660 Clear 26 1017 57 10000 2.6 250 14:20 07.10.2019
6661 Clear 25 1016 54 10000 5.1 210 13:43 07.10.2019
6662 Clouds 25 1018 69 10000 3.6 250 13:20 07.10.2019
6663 Clear 25 1018 64 10000 3.6 240 12:56 07.10.2019
6664 Clear 25 1018 64 10000 3.6 240 12:38 07.10.2019
6665 Clear 25 1018 64 10000 3.6 240 12:19 07.10.2019
6666 Clear 25 1018 64 10000 3.6 240 12:19 07.10.2019
6667 Clear 23 1018 60 10000 2.6 210 11:57 07.10.2019
6668 Clear 23 1017 44 10000 3.6 240 11:37 07.10.2019
6669 Clear 23 1018 56 10000 1 0 11:18 07.10.2019
6670 Clear 22 1017 46 10000 3.1 230 10:41 07.10.2019
6671 Clear 21 1016 60 10000 3.1 250 10:20 07.10.2019
6672 Clear 18 1016 63 10000 3.1 260 09:42 07.10.2019
6673 Clear 18 1016 72 10000 4.1 250 09:24 07.10.2019
6674 Clear 18 1017 82 10000 2.1 80 08:57 07.10.2019
6675 Clouds 18 1017 82 10000 2.1 80 08:39 07.10.2019
6676 Clouds 18 1017 82 10000 2.1 80 08:19 07.10.2019
6677 Clouds 18 1017 77 10000 1.5 70 07:41 07.10.2019
6678 Clouds 19 1017 77 10000 1.5 70 07:23 07.10.2019
6679 Clear 19 1016 82 10000 0.5 0 06:54 07.10.2019
6680 Clear 19 1016 82 10000 0.5 0 06:34 07.10.2019
6681 Clear 19 1017 87 10000 1.5 90 05:47 07.10.2019
6682 Clear 19 1017 87 10000 1.5 90 05:22 07.10.2019
6683 Clear 20 1017 77 10000 1 30 04:28 07.10.2019
6684 Clear 20 1018 77 10000 2.6 90 03:45 07.10.2019
6685 Clear 20 1018 77 10000 2.6 90 03:45 07.10.2019
6686 Clear 20 1018 77 10000 2.6 90 03:21 07.10.201